GFSCGP_sfc_wetblb_000.txt.gz
Wetbulb
52.54 47.80 43.94 44.67 44.90 41.77 40.06 37.05 36.17 39.53 43.86 42.95 41.79 41.31 44.47 44.14 42.78 41.98 42.49 43.70 45.13 46.85 47.08 49.49 50.07 50.41 51.36 51.54 51.52 51.49 52.95 53.66 57.79 59.08 58.76 58.56 60.24 60.10 59.60 59.60 59.52 58.95 58.43 57.87
48.34 44.37 48.03 48.25 44.65 41.94 40.02 37.31 36.28 40.68 44.29 42.00 40.20 40.99 43.22 41.32 42.26 43.20 44.56 44.40 45.95 46.48 47.66 49.01 49.36 48.79 49.24 49.18 50.47 51.04 51.63 52.59 54.80 57.50 58.89 59.79 59.58 59.88 60.52 60.98 60.94 60.70 60.18 59.82
45.24 47.38 49.78 46.50 41.94 41.54 38.90 36.81 36.93 39.20 42.38 41.91 39.02 38.92 38.09 41.65 42.92 44.34 44.46 45.43 46.27 46.87 47.47 47.75 47.99 48.24 48.15 47.82 47.79 49.92 50.94 52.71 53.29 56.88 58.58 58.68 59.36 59.06 58.92 59.23 59.87 60.88 61.39 61.65
45.20 45.70 46.77 45.23 41.90 40.74 36.19 41.90 42.49 40.94 37.40 33.87 38.70 31.27 34.36 39.04 41.52 42.41 41.89 43.84 44.77 46.05 46.81 47.58 48.05 48.08 47.84 47.86 48.33 49.28 50.03 50.43 51.64 52.86 53.21 53.44 54.15 53.95 55.85 56.78 57.87 57.90 59.01 60.11
44.09 43.74 44.04 42.35 41.92 42.46 40.36 44.27 41.02 39.64 35.27 33.31 34.45 32.72 35.29 39.29 39.46 41.89 42.37 42.92 44.03 44.94 46.32 46.94 47.52 48.59 48.28 48.18 48.02 48.59 49.58 50.33 49.66 49.24 49.66 49.66 49.13 51.64 52.96 52.89 52.07 52.93 54.71 56.16
42.26 45.53 44.08 42.99 43.98 44.21 44.76 40.42 38.73 36.24 34.30 29.53 34.12 34.75 33.92 36.90 40.50 40.79 41.30 42.78 44.43 45.15 45.88 46.69 47.34 48.47 48.12 47.87 48.29 48.58 49.16 48.98 49.18 49.02 48.47 47.84 47.41 47.60 48.41 48.21 49.23 49.90 51.52 53.56
40.57 39.34 40.02 43.70 39.54 40.09 39.72 35.67 30.26 29.10 28.65 29.31 33.63 32.61 36.97 40.48 41.80 45.06 43.07 42.98 43.49 44.80 45.69 46.16 46.06 46.89 47.29 47.16 47.34 48.74 48.52 48.16 48.30 48.14 48.19 47.91 47.53 47.45 47.11 47.03 47.29 47.67 48.90 49.24
34.28 33.71 38.59 41.04 40.44 37.98 36.67 36.53 31.22 27.58 27.33 31.02 34.16 31.45 37.22 39.98 42.55 44.57 45.10 44.31 43.99 44.79 45.46 46.05 46.00 46.42 46.71 47.31 47.18 46.99 47.24 47.23 47.73 47.78 47.77 47.76 48.10 48.14 48.06 47.60 47.43 47.67 47.90 48.45
35.11 33.38 39.37 40.89 40.20 41.34 36.77 34.93 38.37 34.13 31.68 30.56 33.34 36.48 38.35 41.27 41.71 43.05 43.11 43.46 43.25 44.28 45.13 45.79 45.83 46.42 46.71 46.26 45.50 46.05 46.55 46.77 47.18 47.33 47.67 47.54 47.46 47.63 47.39 47.21 47.56 47.79 48.20 50.00
38.62 31.97 37.98 39.40 40.65 38.79 37.98 40.05 33.94 33.18 28.28 26.12 29.64 31.26 34.52 36.36 39.50 41.83 42.17 42.56 43.25 43.68 44.73 45.43 45.97 46.27 45.66 45.28 45.26 45.95 46.59 46.53 46.63 46.85 46.71 47.17 46.81 46.82 46.56 46.31 45.91 46.15 46.91 47.40
41.29 37.34 35.39 38.10 36.79 36.64 36.48 34.27 34.43 34.57 32.55 28.34 26.16 31.12 37.79 38.45 40.04 41.95 42.81 43.59 43.79 43.31 44.09 44.70 45.41 45.03 44.92 44.97 45.46 45.71 45.81 45.01 44.70 45.31 45.22 44.82 45.54 45.24 44.54 44.16 44.37 44.38 44.69 45.03
43.08 37.99 32.79 35.44 38.92 39.82 37.88 37.55 35.73 31.40 29.96 30.10 28.67 31.90 39.84 38.37 40.50 41.87 43.25 44.38 43.12 44.06 44.40 44.42 43.76 44.32 44.54 44.26 44.31 43.65 43.19 42.31 42.39 43.25 42.95 42.77 43.65 42.64 41.77 41.53 42.03 42.78 42.42 43.21
44.33 38.20 32.41 33.63 36.94 38.95 37.56 38.39 37.27 36.33 34.61 31.58 29.20 32.31 40.33 40.38 40.21 41.79 42.83 43.13 43.47 44.06 43.71 42.21 42.22 43.35 43.64 43.09 42.68 41.61 40.81 40.27 41.00 41.28 40.90 40.58 40.65 39.10 38.38 38.99 39.84 40.40 40.55 40.92
45.73 38.13 36.18 34.33 35.35 37.95 36.26 38.79 38.25 36.26 31.17 31.43 32.04 33.17 36.92 39.60 41.20 42.46 43.38 44.42 42.70 44.03 42.47 40.77 41.39 42.67 42.23 41.53 40.44 39.02 38.53 38.81 39.37 39.46 38.52 38.50 36.89 36.65 36.93 37.52 37.67 37.87 38.59 38.56
41.65 36.16 36.16 36.52 37.75 37.33 37.75 38.02 38.35 36.35 34.87 33.36 33.51 35.34 37.52 39.96 40.31 41.51 41.90 41.76 42.81 41.13 40.76 40.49 41.93 41.07 40.04 38.70 37.50 36.94 36.65 36.75 37.36 36.40 36.24 35.63 35.63 35.59 35.51 35.45 35.55 36.07 36.38 36.54
41.30 35.99 35.95 33.04 36.45 36.20 34.41 35.79 35.94 36.32 37.29 37.19 36.57 37.28 41.13 42.22 40.16 40.82 38.94 41.34 41.17 39.82 39.99 42.93 42.16 39.60 38.17 36.14 35.49 35.70 35.01 35.11 35.32 33.99 33.96 33.82 33.18 33.05 32.91 33.22 33.53 33.84 33.90 34.08
38.38 35.53 32.96 29.17 34.62 35.12 32.42 35.07 34.50 33.75 34.64 35.62 32.39 36.78 39.88 40.23 41.65 40.56 40.61 41.38 40.34 38.92 41.98 41.46 39.46 38.21 36.92 35.04 34.82 33.54 33.53 33.84 32.64 32.70 31.55 31.58 31.59 31.15 31.33 31.81 31.89 31.67 31.49 32.47
35.89 33.52 32.22 29.07 31.29 26.25 34.32 38.68 39.63 37.10 38.04 37.67 38.34 39.53 39.83 40.15 39.60 39.18 39.96 41.19 38.69 41.31 41.03 39.29 37.66 36.36 35.31 34.04 33.33 32.67 32.45 30.80 30.05 29.92 29.68 30.51 30.42 30.00 30.33 30.16 29.94 29.80 30.52 30.49
36.65 33.48 30.23 28.80 28.00 32.88 35.72 37.83 38.09 36.77 35.72 39.24 38.88 39.37 40.25 40.02 38.20 37.59 40.39 39.91 39.68 39.71 38.86 37.53 36.31 35.59 33.61 32.50 31.19 30.20 28.82 27.95 28.43 28.59 28.60 29.39 29.41 29.01 29.07 28.45 28.44 29.10 29.27 29.38
36.10 35.08 32.65 25.39 25.20 26.51 33.93 38.71 40.53 38.69 30.63 40.01 40.37 39.94 39.92 39.66 35.05 37.26 39.60 40.66 40.18 39.09 37.86 36.36 37.05 34.82 32.53 29.98 28.60 27.48 26.61 26.19 26.50 27.64 28.33 28.94 28.97 28.54 27.68 27.80 27.80 28.97 28.94 29.07
30.19 30.17 28.89 29.13 27.11 30.83 37.29 40.23 40.40 30.56 30.60 39.08 39.85 39.47 39.57 38.37 39.10 39.41 40.33 38.52 38.06 37.74 37.84 36.18 33.73 31.81 29.86 27.59 27.05 25.96 25.18 24.92 26.69 27.78 27.97 28.12 28.17 27.53 27.72 28.03 28.21 28.10 27.81 28.01
31.17 28.17 28.05 28.54 26.13 24.43 39.08 39.54 35.39 37.46 39.04 38.79 39.01 38.73 38.31 39.08 39.73 39.25 38.71 38.27 38.26 36.77 34.63 33.92 30.37 30.61 30.39 29.67 26.40 24.78 23.78 26.05 26.48 26.76 27.06 27.09 26.88 27.98 29.07 27.03 27.25 27.38 26.80 26.10
31.76 35.08 32.94 32.80 31.62 38.73 38.76 39.34 39.85 40.84 39.52 38.36 38.60 39.24 39.11 39.92 39.29 39.67 38.47 38.08 38.25 35.65 33.27 32.40 31.30 30.41 30.07 27.18 25.72 23.89 24.92 25.58 25.99 25.55 25.71 26.25 26.79 26.68 27.07 26.35 26.08 25.92 26.12 25.35
34.27 37.41 35.30 35.96 36.61 37.37 38.74 38.59 39.21 39.94 39.92 40.34 39.76 39.12 38.59 37.99 39.03 38.19 37.24 36.48 36.15 33.67 31.15 31.09 29.95 28.58 26.73 26.67 26.07 25.04 25.32 25.81 25.06 24.25 24.72 25.38 25.05 26.41 26.46 26.53 26.68 25.72 24.99 25.03
35.78 36.34 35.56 35.01 37.49 37.69 37.75 38.87 39.11 39.29 39.01 38.37 38.15 38.40 38.37 37.13 35.80 35.09 35.61 36.02 33.67 31.45 30.83 29.73 28.19 25.88 25.25 24.80 24.38 24.94 25.63 24.98 23.67 23.68 24.38 25.17 25.46 25.44 25.39 26.11 25.91 25.92 26.88 27.96
36.55 35.96 33.92 32.82 37.52 37.29 37.16 38.31 39.21 38.21 37.81 38.56 37.55 36.19 34.86 34.72 35.05 35.55 34.54 31.21 29.62 29.56 28.97 25.95 24.79 23.93 23.84 23.52 23.49 24.29 25.07 24.43 23.54 24.03 24.60 24.79 25.36 24.99 25.32 24.69 24.71 29.74 30.88 32.05

GFSCGP_sfc_wetblb_003.txt.gz
Wetbulb
52.08 46.86 43.78 44.67 45.10 45.15 40.04 37.53 35.40 37.95 41.63 39.60 39.61 40.72 43.71 43.36 41.60 40.43 41.87 43.04 44.43 45.97 46.37 48.07 48.35 48.17 48.69 49.61 50.37 50.15 51.50 52.19 56.02 57.84 57.32 57.31 58.25 58.95 58.70 58.88 58.86 58.30 57.59 57.10
47.78 44.17 47.75 48.17 45.57 41.83 40.24 36.44 36.30 40.06 42.38 39.64 38.60 39.85 42.42 41.36 41.04 40.97 42.36 42.94 44.28 45.25 45.65 47.14 47.78 47.12 47.07 46.91 47.71 48.87 50.29 51.65 53.86 57.18 58.00 58.65 58.42 58.73 59.32 60.04 60.28 60.32 59.96 59.46
44.19 46.15 50.40 48.38 45.15 41.75 38.73 36.51 36.19 37.05 41.05 40.31 38.49 37.72 39.51 39.89 40.94 43.48 43.20 44.07 45.39 45.60 45.51 45.93 46.33 46.27 46.17 46.23 46.61 48.46 48.75 49.56 51.38 54.55 57.60 57.65 57.47 57.12 56.03 56.35 57.17 57.35 57.91 59.20
46.68 47.78 48.31 46.22 42.55 45.70 41.24 42.05 39.96 39.25 36.73 33.00 37.90 30.54 35.54 37.75 39.61 41.18 40.67 42.43 44.11 44.75 45.26 46.33 46.58 46.27 46.03 46.39 47.14 47.97 48.62 49.15 49.86 49.66 50.39 50.67 50.90 50.68 51.81 52.88 52.25 51.78 52.89 53.83
42.82 44.90 45.63 45.63 45.09 43.33 41.03 42.20 39.78 38.84 35.20 31.67 33.08 31.58 35.47 36.50 38.14 40.19 40.84 41.11 42.41 44.47 45.53 45.93 46.30 46.99 46.66 46.86 46.63 47.01 48.30 48.56 48.01 47.86 47.18 47.19 46.46 47.12 48.13 47.77 47.75 48.43 49.36 50.63
43.31 48.71 48.88 47.04 45.91 42.80 42.96 39.14 37.53 34.97 33.25 28.51 33.15 33.87 34.11 34.63 39.45 38.50 39.82 40.88 42.97 44.33 44.53 45.38 46.19 46.75 46.17 45.97 46.51 46.84 47.73 47.29 47.46 47.92 47.49 46.37 45.65 46.02 46.81 46.50 47.03 47.19 47.71 48.53
39.69 39.49 43.32 43.15 40.56 40.73 38.90 35.57 29.71 28.49 28.28 28.27 31.85 31.18 38.29 38.63 40.05 42.89 41.82 41.03 42.14 43.84 44.21 44.65 45.04 45.35 45.60 45.18 45.32 47.07 46.63 46.26 46.50 46.89 46.61 46.12 45.85 45.57 45.26 45.21 45.41 45.29 46.15 46.64
33.93 34.30 38.12 40.06 39.83 36.87 36.16 36.88 30.76 26.10 26.37 28.54 32.42 29.82 36.89 39.09 40.10 43.36 43.79 42.18 42.21 43.23 43.64 44.16 44.68 44.69 44.27 44.43 44.57 45.06 45.41 45.48 45.83 45.79 45.51 45.07 45.00 45.31 44.94 44.50 44.55 44.40 44.59 45.20
33.25 33.54 38.22 39.37 39.38 41.27 35.31 33.85 37.56 33.42 29.79 28.54 31.53 34.76 37.76 40.00 38.95 40.82 41.37 41.51 41.65 42.93 43.45 43.91 44.50 43.99 43.23 43.34 43.91 44.55 44.70 44.60 44.78 44.58 44.58 44.01 43.29 43.12 42.92 42.80 42.72 42.89 42.95 44.99
37.40 30.87 37.10 38.12 39.77 38.25 37.61 39.48 33.45 31.87 27.42 25.38 28.29 29.33 33.93 35.65 37.14 39.11 39.90 40.66 41.64 42.61 43.47 43.73 43.87 43.02 43.03 43.70 44.09 43.93 43.42 42.60 42.65 42.74 42.64 43.00 42.02 41.64 41.31 40.77 40.20 40.59 41.33 41.78
38.38 35.25 33.76 36.86 35.34 35.12 34.58 32.75 33.25 34.02 31.07 26.99 24.85 30.14 36.63 37.57 39.55 40.58 40.94 41.87 41.63 41.74 43.14 43.22 42.53 42.48 43.21 43.27 42.41 41.54 40.94 40.56 40.41 41.00 40.62 40.00 39.75 39.14 38.16 37.66 38.01 38.27 38.87 39.28
41.14 36.47 31.42 32.90 37.89 38.32 35.54 35.44 34.30 30.41 28.58 28.17 26.83 30.68 37.47 37.88 40.46 41.76 41.98 42.28 41.76 42.50 42.75 42.39 42.10 42.65 42.36 41.43 40.23 39.20 38.95 38.71 39.00 39.27 38.43 38.02 36.81 36.11 35.55 35.77 36.18 36.57 36.02 37.03
43.24 36.30 31.41 32.13 36.27 37.28 35.88 36.15 35.15 34.35 32.77 28.97 27.42 31.05 39.10 37.77 39.37 40.12 41.84 43.15 42.73 42.42 41.75 41.02 42.14 42.12 41.14 40.05 38.40 36.95 36.64 36.56 37.53 37.04 36.27 35.07 34.31 33.82 33.46 33.86 34.38 34.45 34.43 34.65
44.96 37.18 34.11 31.97 33.77 36.59 34.32 36.52 35.64 35.23 30.16 29.95 30.40 32.45 35.66 38.27 39.74 40.32 41.31 41.57 41.17 42.19 41.36 40.54 41.84 41.02 39.43 37.95 36.39 35.32 34.83 35.04 35.27 34.89 33.97 32.56 32.24 32.08 32.01 32.25 32.51 32.80 33.23 32.82
40.88 35.76 35.36 34.68 36.00 36.71 36.54 37.00 35.74 34.14 33.36 32.09 32.09 33.80 35.32 36.88 39.05 39.48 40.93 41.17 42.36 42.14 39.22 40.76 41.25 39.82 37.57 35.77 34.31 33.99 33.86 34.00 33.63 32.97 31.73 31.19 31.17 30.88 30.60 30.59 30.93 31.44 31.63 31.71
39.24 34.11 33.63 30.01 34.06 34.05 32.12 34.01 36.76 35.82 35.54 34.58 35.45 34.96 38.87 39.61 39.35 40.78 40.46 39.52 40.96 39.51 38.57 41.31 40.83 37.85 36.30 33.50 33.14 33.50 32.66 32.28 31.68 30.89 29.87 30.38 30.07 29.78 29.48 29.76 29.94 30.10 30.06 30.10
36.61 33.79 31.43 27.29 31.84 32.19 29.88 33.60 33.48 33.04 33.91 35.30 31.99 35.93 39.00 39.04 39.96 39.02 39.72 40.12 40.64 38.57 39.79 40.82 38.35 36.77 34.84 32.79 32.73 31.23 30.80 30.92 29.95 29.32 29.19 29.33 29.37 28.87 28.84 29.05 28.82 28.44 28.17 28.60
34.35 32.62 31.63 28.66 31.12 25.13 33.84 38.47 38.80 36.31 37.30 37.90 39.50 39.91 39.97 39.49 39.32 38.75 39.33 40.20 39.62 38.82 40.61 38.33 36.52 34.87 32.82 32.13 31.33 31.56 31.44 29.20 28.00 27.81 27.77 28.38 28.27 27.89 28.12 27.66 27.19 26.97 27.71 27.55
37.24 34.73 31.19 30.79 29.20 31.58 34.49 37.50 36.41 36.85 36.00 39.46 39.03 39.24 39.32 38.69 37.40 38.03 39.76 39.11 37.94 39.03 38.11 36.80 35.09 33.57 31.27 30.55 31.94 30.36 27.15 26.39 26.50 26.56 26.40 27.11 27.09 26.96 26.90 26.19 26.03 26.68 27.03 26.96
36.54 35.73 33.90 27.65 26.76 28.01 34.39 38.66 40.73 39.04 32.11 39.00 39.77 38.49 38.48 37.77 33.84 36.23 38.14 38.92 38.16 37.81 36.74 35.00 33.80 32.48 32.56 30.99 27.72 26.32 26.14 24.74 24.66 25.73 26.17 26.68 26.76 26.40 25.55 25.44 25.61 26.83 26.49 26.72
31.00 31.24 30.30 30.71 29.03 32.16 37.53 39.48 40.21 30.66 30.99 38.06 37.95 37.52 36.87 35.96 38.23 39.15 39.16 37.96 37.68 36.72 35.19 33.84 33.58 31.36 28.81 29.35 27.16 26.44 26.76 24.12 25.06 25.95 26.05 26.22 26.09 25.20 25.13 25.32 25.88 25.99 25.65 25.84
30.35 28.38 28.96 29.52 28.01 27.81 38.54 38.57 35.42 36.61 37.92 38.22 38.15 37.79 37.15 38.41 38.72 38.85 38.35 37.27 36.67 34.17 33.17 32.43 29.82 29.23 30.07 30.00 28.77 26.93 23.46 24.59 24.86 25.12 25.06 24.88 24.55 25.74 27.50 24.62 25.34 25.32 24.74 24.07
32.27 34.66 32.51 32.53 31.66 37.76 37.86 38.22 38.88 39.46 38.36 38.03 37.70 38.71 38.37 38.60 38.45 39.10 37.93 36.84 36.11 33.22 30.74 30.52 29.29 29.33 29.41 29.10 27.55 22.91 23.74 24.24 24.35 23.54 23.09 23.52 24.11 24.22 25.00 24.13 24.56 24.11 24.26 23.55
33.35 36.31 34.70 35.00 35.10 36.37 37.66 38.68 39.44 38.88 39.00 39.16 38.99 38.58 38.12 37.09 37.28 37.17 36.57 35.89 33.47 31.04 29.28 29.24 29.47 28.41 27.74 25.76 24.09 23.14 23.50 24.01 23.16 21.64 21.73 23.08 22.31 25.10 25.20 24.58 24.92 24.32 23.40 23.35
34.57 36.43 35.21 34.78 35.75 36.43 37.12 37.64 38.42 38.88 37.71 37.25 37.06 36.97 36.72 35.13 34.25 33.99 34.91 35.17 32.40 30.43 30.67 29.22 27.98 25.27 23.90 23.34 22.93 23.14 23.73 23.25 22.40 22.03 22.38 22.45 22.91 22.87 23.54 24.46 24.74 24.64 25.34 26.43
35.88 35.34 33.98 33.27 37.01 36.39 36.44 38.19 38.17 37.62 36.82 36.91 35.88 35.22 33.94 33.71 34.21 34.76 34.64 35.08 31.77 30.11 29.14 26.46 23.85 23.38 22.52 22.32 22.25 23.03 23.77 23.12 21.88 22.44 22.97 22.63 23.81 23.41 24.00 23.42 23.50 28.56 29.70 31.00

GFSCGP_sfc_wetblb_006.txt.gz
Wetbulb
51.01 46.66 43.53 43.94 46.98 42.74 40.86 36.93 37.42 38.10 40.75 37.74 37.74 37.99 41.92 43.27 42.02 39.98 40.30 42.55 43.11 44.94 45.11 46.92 46.91 46.55 47.16 47.14 47.53 47.95 50.94 51.93 55.82 56.73 56.33 56.37 56.83 57.68 58.11 58.82 59.26 58.69 57.86 57.32
47.86 42.98 47.30 46.57 46.27 45.07 40.63 39.14 35.50 39.81 40.79 38.06 38.41 38.52 41.45 41.46 41.37 39.77 41.40 42.36 43.18 43.98 44.86 46.05 46.18 45.64 45.76 45.87 46.96 48.23 48.60 49.56 52.85 56.43 56.94 57.50 57.53 57.92 58.11 57.18 55.74 55.67 57.00 57.27
43.29 46.37 49.33 47.31 42.86 42.61 40.22 38.73 37.00 37.84 39.55 39.16 37.02 36.43 37.52 38.93 39.75 41.31 42.22 42.99 43.61 44.28 44.85 44.68 45.13 44.93 45.11 45.32 45.76 47.27 47.39 48.44 49.18 50.64 53.95 53.46 53.80 52.47 51.38 51.45 50.33 50.91 51.42 50.62
45.85 48.31 47.61 46.33 43.76 44.17 40.00 41.41 42.01 38.84 35.82 31.77 36.64 29.87 34.77 36.61 37.95 39.86 40.13 42.11 43.00 43.93 43.88 45.68 46.02 45.54 45.30 45.68 46.39 46.74 47.48 47.62 48.21 47.64 48.33 47.53 47.22 46.48 47.33 47.78 47.20 48.04 48.70 48.71
43.57 45.09 45.38 44.72 45.15 45.52 42.25 43.51 41.72 40.50 34.15 30.17 32.45 30.67 33.93 34.15 36.48 38.60 39.64 40.65 41.99 43.25 44.23 44.74 45.31 45.74 45.64 45.98 45.30 45.55 46.98 47.18 47.07 47.12 46.47 46.62 45.49 45.41 45.80 45.76 45.36 45.76 46.63 47.42
42.38 47.47 47.41 47.19 47.07 45.95 45.04 41.34 39.22 36.70 32.97 28.00 32.41 33.12 31.80 33.98 36.14 36.88 38.37 39.84 42.26 43.26 43.79 44.45 44.78 45.03 44.47 44.64 45.05 45.26 46.52 45.97 46.16 46.30 45.75 44.96 43.90 43.58 43.75 43.72 43.58 44.25 44.88 45.57
38.43 43.87 44.56 47.24 41.50 42.45 41.87 38.78 32.05 29.36 27.69 27.65 30.59 29.39 34.19 37.06 38.53 40.92 41.07 40.32 41.67 42.83 43.18 43.67 43.68 43.58 43.58 43.72 44.38 45.75 45.40 44.58 44.87 44.68 44.03 43.60 43.09 42.35 41.84 41.74 41.95 41.39 41.98 42.65
36.03 34.77 38.78 41.17 42.87 39.95 39.47 37.01 29.99 26.00 25.83 27.67 30.73 28.79 35.11 36.86 39.05 40.28 43.07 41.65 41.75 42.31 42.49 43.43 43.23 42.57 42.71 43.53 43.65 43.84 43.75 43.43 43.65 43.53 42.50 41.59 41.29 41.63 41.05 40.45 40.52 40.18 40.44 41.02
35.83 34.73 37.33 39.78 39.94 44.12 35.28 34.97 36.65 31.69 27.73 27.82 30.79 33.38 38.58 38.75 38.37 38.00 40.09 40.61 40.87 41.75 42.46 42.96 42.39 41.88 42.38 42.83 42.82 42.48 42.06 41.74 41.72 41.39 41.16 39.59 38.95 38.54 38.06 38.13 37.73 37.92 38.12 39.96
36.94 30.35 37.96 37.19 40.96 39.44 37.93 39.77 32.75 31.49 26.96 25.12 27.75 28.25 32.92 35.73 36.41 36.97 37.98 39.24 40.33 41.70 42.25 42.35 41.83 41.80 42.48 42.42 41.35 40.60 40.44 39.85 39.72 39.39 38.87 38.10 36.74 36.34 35.94 35.61 34.76 34.87 35.58 35.98
37.06 33.86 34.60 37.12 35.19 35.11 34.42 32.89 32.36 33.73 30.50 26.62 24.28 29.67 34.94 35.99 37.47 38.51 38.56 39.41 40.22 41.54 42.13 41.98 41.22 41.96 42.00 40.67 39.48 38.60 38.47 38.28 37.64 37.60 36.51 35.12 34.72 34.32 33.65 33.15 33.20 33.18 33.41 33.90
39.72 34.19 30.64 34.49 36.72 37.30 34.70 34.45 34.24 30.72 27.20 26.79 26.44 30.11 36.26 36.24 36.96 39.79 39.70 40.80 40.62 41.93 42.30 41.30 41.14 41.42 40.38 38.69 37.46 36.62 36.69 36.45 36.20 36.29 34.57 33.27 32.63 32.01 31.17 31.14 31.63 32.04 31.39 32.61
41.36 34.54 30.56 33.53 35.51 36.25 34.67 34.00 33.72 32.91 31.17 26.69 26.67 30.39 38.28 35.99 38.23 39.94 40.94 41.88 41.87 41.20 40.76 40.35 40.86 40.58 39.42 37.47 36.03 34.96 34.59 34.06 34.33 33.79 32.02 30.90 30.38 29.61 29.01 29.47 30.54 30.98 30.94 31.02
45.33 36.71 33.43 31.31 32.55 35.89 33.13 34.27 33.45 34.17 28.95 28.54 29.18 31.87 35.93 35.61 38.30 39.61 40.57 41.36 41.34 40.85 40.76 40.55 40.86 39.61 38.06 36.17 34.41 33.33 32.82 32.75 32.74 31.70 30.31 29.43 29.01 28.71 28.65 29.15 29.51 29.79 30.08 29.42
42.05 35.33 34.12 33.22 35.86 36.52 35.97 36.12 33.98 33.29 34.13 32.46 33.34 33.05 35.56 36.97 38.10 37.53 38.36 39.33 40.20 40.54 39.34 41.35 40.85 37.93 35.57 33.70 32.75 32.47 32.13 31.18 31.17 29.76 29.14 28.93 29.09 28.92 28.56 28.50 28.56 28.82 28.92 29.17
40.38 34.34 33.52 29.72 33.43 32.65 32.40 35.08 34.44 34.05 33.43 32.09 33.70 33.89 36.90 37.40 38.45 39.33 37.89 39.55 40.14 40.32 38.99 41.12 39.77 37.09 34.53 32.10 31.91 31.91 30.62 29.53 29.73 28.71 28.27 28.78 28.50 28.33 27.91 27.91 27.95 27.83 27.78 27.73
35.75 33.80 32.42 28.42 31.20 30.78 28.97 32.54 34.45 34.04 34.23 35.80 32.78 35.73 37.34 38.24 40.10 39.63 40.69 40.28 40.41 39.95 38.06 40.22 37.80 35.73 32.87 31.75 31.62 29.67 28.68 28.66 28.81 28.39 27.63 27.82 27.81 27.23 27.21 27.30 26.80 26.57 26.20 26.37
34.69 32.61 31.05 26.31 28.78 22.42 31.55 36.11 35.44 34.58 34.66 35.85 37.54 38.35 39.10 39.34 39.04 38.21 38.42 38.69 39.69 38.34 39.51 38.35 35.81 33.32 31.71 31.18 30.07 28.99 29.06 29.71 27.74 26.55 26.37 26.84 26.66 26.19 26.36 25.61 25.03 24.70 25.61 25.35
36.61 33.95 29.96 28.65 26.17 30.34 33.78 35.16 35.68 35.76 34.81 38.45 38.43 38.93 38.57 37.95 37.31 37.12 39.38 38.74 37.52 38.00 38.28 36.27 34.60 32.41 30.27 29.18 28.95 28.95 28.65 25.63 25.52 25.44 25.06 25.54 25.45 25.02 24.81 24.25 23.90 24.57 24.78 25.18
35.84 35.34 32.75 26.11 25.47 25.83 32.92 37.62 39.72 39.83 33.18 39.95 40.16 39.11 38.73 37.80 33.65 36.37 38.62 38.15 37.27 37.23 36.01 34.06 32.28 30.92 29.44 27.69 27.04 25.58 24.84 24.30 24.25 24.69 24.80 25.19 25.14 24.44 23.58 23.47 23.80 24.45 24.66 25.02
31.12 30.99 29.80 30.93 28.85 31.44 37.01 39.49 40.05 31.58 32.70 39.30 38.63 38.16 38.30 36.47 37.75 38.71 38.14 36.30 36.19 35.06 33.81 32.56 31.31 29.05 27.14 26.69 28.37 25.14 23.80 23.24 24.03 24.61 24.66 24.65 24.50 23.54 23.32 23.25 23.59 24.40 24.23 24.22
29.93 27.89 28.02 29.04 27.26 27.22 37.84 38.42 35.14 36.64 37.42 38.55 38.29 38.19 37.31 37.83 38.30 38.57 37.68 36.68 34.91 33.09 32.29 31.02 28.24 26.71 27.49 29.76 25.60 24.01 24.21 23.65 23.67 23.73 23.52 23.19 22.93 24.22 26.25 23.48 23.71 23.59 23.18 22.64
31.34 33.35 31.33 32.49 32.19 37.71 37.18 37.70 38.74 39.42 38.26 37.71 38.01 38.73 38.54 37.79 37.45 37.87 37.36 36.02 34.61 32.57 31.01 29.83 27.93 26.52 25.71 25.59 24.81 22.14 22.94 22.98 22.96 22.19 21.85 21.86 22.79 23.20 23.63 23.10 23.61 23.44 23.13 22.44
32.87 36.14 34.75 34.64 35.89 36.48 38.08 38.73 39.22 39.44 39.06 39.04 38.66 38.20 37.53 35.86 36.09 35.26 36.30 35.50 33.92 31.01 29.08 28.31 26.76 26.47 27.28 26.53 23.73 22.36 22.49 22.75 21.97 20.60 20.59 21.64 21.28 23.43 22.89 22.58 23.83 23.12 22.44 22.07
34.07 35.54 34.43 33.72 34.95 36.82 37.29 37.92 38.99 38.79 38.54 38.06 37.23 36.27 35.88 34.39 33.58 33.26 34.25 34.15 32.26 30.13 28.67 28.13 28.39 27.08 24.68 22.58 22.06 22.21 22.97 22.12 21.43 21.09 21.58 21.54 21.74 21.12 22.43 23.31 22.74 23.25 23.93 25.28
35.18 35.03 33.69 32.90 37.06 36.59 36.45 38.18 38.15 37.96 36.90 35.91 35.38 33.60 33.17 32.93 33.44 33.50 33.92 34.50 31.26 28.70 28.85 27.43 26.35 23.64 22.15 21.60 21.36 22.01 22.54 22.08 20.60 21.07 22.24 21.78 22.83 22.15 22.96 22.25 22.58 27.91 29.08 30.16

GFSCGP_sfc_wetblb_009.txt.gz
Wetbulb
47.52 45.48 43.31 44.80 46.96 44.97 41.64 41.59 41.35 42.33 43.60 41.74 41.13 40.50 44.37 46.05 45.37 45.07 43.97 46.00 47.01 47.56 48.52 49.13 49.46 49.90 51.12 51.04 51.78 52.19 54.96 57.06 60.21 60.44 60.54 61.03 60.00 58.84 57.30 56.56 56.17 56.24 57.01 57.49
44.27 42.02 47.36 47.82 46.77 44.06 41.55 40.10 39.17 41.59 42.69 41.91 41.71 41.44 44.88 44.51 44.93 45.26 44.08 45.53 46.62 47.25 47.77 48.21 48.80 49.30 49.08 49.63 50.46 51.16 51.65 52.93 57.16 60.31 60.53 60.75 57.69 55.20 54.31 53.74 53.14 53.06 51.95 51.70
40.40 45.09 49.17 47.12 45.13 44.24 41.71 40.14 39.21 40.35 41.52 42.01 39.63 39.91 40.95 43.69 44.09 43.37 44.37 46.25 46.80 47.23 46.92 47.35 48.04 48.25 48.93 48.79 49.21 50.15 50.80 51.24 51.78 53.72 54.83 54.42 54.08 53.40 52.24 50.98 50.57 50.59 50.97 50.09
43.47 47.84 46.84 45.93 43.50 44.79 40.85 42.92 43.32 40.67 40.33 36.52 40.72 33.71 38.52 42.25 41.51 42.23 43.41 45.38 46.04 46.62 47.23 47.66 47.79 48.12 48.52 48.32 49.65 49.99 50.10 50.45 50.78 51.86 51.23 50.34 49.66 48.02 48.52 48.72 48.95 48.94 49.30 49.06
42.26 46.00 44.70 43.82 44.47 45.48 42.68 45.47 43.96 42.46 38.95 35.49 35.97 34.95 38.31 38.58 39.05 40.84 42.35 44.10 45.45 46.59 47.30 46.70 47.25 47.63 47.93 48.56 48.48 49.11 49.18 48.87 49.05 49.07 49.12 48.39 46.99 47.40 47.14 46.81 46.26 46.60 46.94 47.58
44.27 48.58 48.45 46.98 47.05 47.16 42.71 41.58 40.46 38.63 36.24 31.20 34.95 36.39 36.52 38.52 39.75 40.12 41.95 43.25 44.96 45.79 46.42 46.38 46.71 47.16 47.28 48.21 48.48 48.62 47.88 46.85 47.05 47.09 46.83 46.12 45.29 44.54 44.04 43.74 43.11 43.41 43.84 44.60
41.43 44.77 47.34 48.94 42.30 43.56 42.78 41.18 34.19 30.79 30.04 30.64 33.71 32.79 38.06 40.47 41.12 42.96 43.38 43.10 44.66 45.99 45.95 45.94 45.91 46.29 46.70 47.10 47.53 47.48 46.97 45.25 45.41 44.83 44.21 44.18 43.42 42.78 41.53 41.03 40.50 40.09 40.21 41.15
36.28 36.48 41.54 46.46 43.32 40.39 41.86 41.10 34.13 28.59 28.19 30.70 32.85 31.85 38.32 41.51 42.31 42.40 44.33 44.11 44.77 45.14 45.71 45.75 45.68 45.84 45.97 45.90 45.86 45.63 45.07 44.28 44.00 43.08 41.67 41.38 41.23 40.54 39.84 39.47 39.06 38.54 38.57 39.38
35.37 35.34 40.37 42.53 43.14 44.78 37.90 38.12 40.12 32.94 31.79 30.83 33.87 36.57 41.20 41.53 40.61 40.19 41.55 42.96 44.01 44.51 44.93 45.16 44.76 45.33 45.31 44.80 44.20 44.04 43.34 42.69 42.55 41.36 39.79 38.69 38.45 37.98 37.49 37.57 37.68 37.36 37.50 37.66
38.77 31.73 37.86 38.21 42.25 40.29 41.16 42.48 35.72 34.17 29.28 27.70 30.99 31.50 36.14 38.84 39.74 39.19 39.65 42.46 43.02 43.93 44.40 44.25 44.02 44.56 44.29 43.14 42.57 42.54 41.98 40.92 40.25 39.09 38.31 36.86 36.60 36.52 36.39 36.38 35.45 35.49 35.98 36.24
36.91 34.74 33.47 37.67 37.10 35.02 36.54 36.61 36.00 36.03 33.13 29.89 27.88 32.86 38.14 38.71 39.39 40.38 40.24 42.00 43.05 43.70 44.14 43.85 43.70 44.30 42.81 41.67 41.13 40.54 39.93 39.38 38.44 37.11 36.03 35.29 35.06 35.01 34.94 34.59 34.66 34.70 34.96 34.88
38.05 34.69 30.48 33.25 37.77 38.85 37.66 37.01 37.36 32.76 29.54 29.46 30.11 33.26 39.38 38.38 38.75 40.50 40.79 41.69 43.19 44.41 44.16 43.43 43.54 42.52 40.87 39.65 39.03 38.58 38.12 37.54 36.69 35.59 34.68 34.09 34.03 33.80 33.45 33.40 33.59 33.95 33.44 34.02
40.37 34.64 30.71 34.38 37.16 38.01 35.54 35.14 36.18 34.75 33.17 28.69 29.67 33.62 39.52 39.63 40.61 40.75 41.30 42.22 42.87 43.41 42.92 42.34 42.43 41.27 39.68 38.30 37.48 36.87 36.31 35.87 35.09 34.12 33.57 33.08 32.78 32.73 32.45 32.49 32.79 33.03 32.81 32.85
44.49 36.22 33.98 31.76 33.44 35.96 33.79 33.78 34.08 36.76 31.30 30.66 30.95 34.85 37.88 39.36 40.53 40.92 42.19 43.15 43.03 42.70 42.29 41.89 41.85 40.68 38.83 37.35 36.47 35.61 34.60 34.84 33.90 33.14 32.60 32.16 32.14 31.95 31.87 32.22 32.14 31.95 32.13 31.70
42.35 35.77 34.93 33.06 36.39 36.85 36.40 35.72 34.11 34.34 36.70 34.86 35.58 33.94 38.15 39.21 40.36 41.38 42.34 42.29 42.19 41.39 41.17 41.87 41.12 39.35 37.21 35.82 35.25 34.65 33.63 33.05 32.91 32.08 31.80 31.54 31.72 31.80 31.68 31.41 31.25 31.28 31.14 30.99
40.45 34.76 33.91 30.93 34.22 35.41 34.97 35.95 36.56 35.95 34.04 34.58 35.02 35.18 39.50 40.81 41.02 41.92 42.33 41.64 41.45 41.30 40.90 42.20 40.97 38.49 36.28 35.26 34.70 33.91 32.46 31.63 32.04 31.01 30.52 30.91 30.87 30.83 30.58 30.49 30.26 30.12 30.03 30.12
38.45 34.91 32.92 30.40 32.48 32.82 30.89 33.80 34.84 35.91 35.24 38.06 34.60 40.12 38.79 39.79 40.74 41.19 41.46 42.12 41.87 41.74 40.66 42.17 40.59 38.06 35.49 34.73 34.16 32.56 31.13 31.18 30.87 30.16 29.73 29.84 29.87 29.46 29.53 29.54 29.19 28.84 28.63 28.96
36.40 34.84 33.08 28.07 30.36 24.13 34.18 36.41 37.78 36.84 35.50 36.70 36.89 37.01 39.17 40.17 40.45 40.23 41.05 41.38 41.14 41.32 39.97 40.99 38.52 35.89 34.44 33.78 32.59 31.10 30.91 30.61 29.65 28.81 28.69 28.97 28.67 28.44 28.73 28.32 27.93 27.94 28.55 28.23
36.59 34.69 30.58 28.38 26.72 31.01 34.45 35.37 34.76 35.69 34.89 37.71 37.68 38.40 38.96 39.42 40.02 39.89 41.23 40.65 40.07 40.25 40.61 39.45 37.50 34.49 32.91 31.94 31.25 30.55 29.56 28.28 28.23 28.06 27.66 27.94 27.85 27.50 27.45 27.10 27.11 27.84 27.98 27.88
36.56 36.43 35.12 28.51 26.14 26.98 34.24 38.01 40.08 40.09 33.21 39.63 39.59 38.82 38.32 39.08 36.29 38.29 40.20 40.00 38.26 38.20 37.63 35.88 33.81 32.14 31.16 29.86 29.61 28.76 28.23 27.52 27.16 27.14 27.10 27.48 27.51 26.99 26.45 26.81 27.11 27.66 27.56 27.16
32.01 31.70 30.46 31.35 28.55 31.85 37.75 39.61 39.95 32.18 34.51 39.98 40.08 39.62 39.02 37.87 39.24 39.65 39.59 38.01 37.01 35.83 34.55 33.37 32.63 31.21 29.79 28.80 29.54 28.56 27.12 26.58 26.83 26.83 26.85 27.01 27.06 26.22 27.05 27.15 27.17 27.04 26.69 26.42
31.81 29.73 29.28 29.82 28.07 27.63 39.07 39.31 35.90 37.82 38.28 38.96 38.81 39.04 38.79 38.92 39.20 39.28 38.93 37.24 35.56 33.78 33.39 31.98 29.65 28.63 28.62 30.42 29.20 26.83 26.17 26.57 26.30 26.11 25.75 25.98 26.17 26.23 27.20 26.47 26.72 26.61 25.82 24.97
31.27 33.59 31.84 32.51 32.07 37.55 37.52 38.32 38.76 39.49 38.37 38.51 38.81 38.82 39.28 38.93 38.76 38.78 38.18 37.08 35.06 33.70 32.40 31.15 29.43 27.87 27.65 27.74 27.22 25.87 26.03 25.74 25.40 24.85 24.88 25.01 25.49 25.86 26.25 25.95 25.87 25.62 25.50 24.46
33.38 36.09 34.16 34.25 35.70 35.87 37.43 38.46 39.03 39.58 39.29 39.49 39.73 39.23 38.95 38.30 38.33 37.76 37.40 36.36 34.64 32.65 30.47 29.60 28.22 27.10 27.72 28.28 27.04 25.37 25.20 25.22 24.50 23.96 24.12 24.98 24.90 26.74 26.36 25.37 25.55 24.93 24.51 24.19
34.88 35.95 34.22 33.29 35.21 36.77 37.44 37.56 38.47 38.14 38.39 38.12 38.10 37.84 37.65 37.09 35.85 35.90 35.51 35.54 34.33 31.56 30.29 29.02 27.94 27.83 27.60 26.15 24.90 24.75 25.44 24.46 24.00 23.99 24.28 24.53 24.49 23.87 24.54 25.03 25.00 25.27 26.55 26.87
34.95 34.36 33.53 32.96 37.03 36.91 37.15 38.24 38.61 37.88 36.81 37.00 37.25 35.65 35.05 35.21 35.02 35.60 34.82 35.12 32.68 30.07 28.52 27.01 27.64 27.37 25.65 23.97 23.88 24.28 24.58 24.18 23.09 23.44 24.61 24.16 25.00 24.53 24.48 23.79 24.39 27.89 28.84 29.84

GFSCGP_sfc_wetblb_012.txt.gz
Wetbulb
47.13 41.25 39.14 44.99 48.49 47.79 47.35 45.87 45.19 48.02 49.70 47.01 48.23 49.20 49.77 53.14 52.86 51.79 51.82 52.23 52.75 52.74 53.30 54.27 54.98 56.34 57.07 58.09 59.32 61.24 62.68 63.71 64.40 64.50 63.96 62.60 59.56 58.79 57.44 56.86 56.24 55.69 55.48 55.32
42.31 38.79 44.81 48.24 48.82 47.69 47.66 44.75 44.05 48.26 47.32 46.76 48.38 48.45 51.46 52.81 51.66 51.89 51.79 51.90 52.33 51.96 52.72 53.09 54.09 54.76 55.26 55.87 56.68 58.04 60.07 62.81 63.67 64.25 62.36 59.41 57.47 56.32 55.84 55.43 54.68 54.42 53.64 53.32
39.30 40.99 47.51 46.74 46.49 45.71 46.04 43.58 44.99 45.08 46.46 48.22 46.22 46.96 49.13 48.51 48.53 48.33 50.32 52.82 52.75 52.31 51.74 52.43 53.18 53.94 54.82 54.65 55.08 55.52 56.48 57.45 57.99 58.32 57.71 57.19 56.89 56.09 54.57 53.52 52.91 52.40 52.53 51.31
40.85 45.35 45.16 45.77 44.59 47.21 41.75 48.59 47.26 45.38 43.74 41.23 46.68 40.60 47.20 49.40 47.74 47.66 49.42 51.08 51.64 51.99 52.45 52.58 52.91 53.42 53.81 54.05 55.19 55.07 55.16 55.22 55.85 56.75 55.76 54.80 53.40 51.39 51.57 51.56 51.63 51.18 50.68 49.24
38.60 41.04 44.09 43.73 44.85 48.23 45.50 49.11 47.47 46.19 43.56 41.51 44.61 41.22 46.02 45.57 45.94 46.39 48.98 50.57 51.24 52.13 52.16 51.78 52.25 52.37 53.15 54.07 54.03 53.94 53.59 53.22 53.49 53.60 53.59 52.47 51.05 50.83 50.51 49.96 49.12 48.65 48.34 47.48
41.76 48.31 45.14 47.81 48.40 49.20 47.84 45.88 45.19 44.52 41.40 37.94 43.54 42.07 44.07 45.96 45.93 46.94 48.85 50.31 50.82 51.40 51.77 51.85 52.01 52.51 52.48 53.34 53.23 52.82 51.64 51.00 51.51 51.23 50.82 50.18 49.12 48.09 47.55 46.66 45.87 45.50 45.21 45.22
37.99 42.40 47.52 49.94 44.87 44.92 46.94 43.53 36.39 34.97 34.87 36.48 40.17 39.35 45.01 47.42 46.42 48.24 48.27 49.89 50.83 51.47 51.10 50.69 50.87 51.46 51.84 51.87 51.78 51.06 50.17 48.66 49.27 48.69 48.06 47.57 46.86 45.97 44.69 43.91 43.18 42.41 42.34 42.43
32.83 35.80 45.09 49.18 46.74 41.03 42.19 44.94 39.20 32.12 34.42 37.72 38.27 38.12 44.41 46.35 47.42 47.93 50.69 51.18 51.19 50.97 51.50 51.22 51.57 51.63 51.21 50.77 50.54 50.07 48.99 47.68 47.06 46.34 45.28 45.00 44.51 43.80 42.71 41.99 41.59 40.98 40.66 40.76
34.05 36.27 44.90 47.96 46.87 46.53 41.31 39.77 45.13 38.43 38.50 37.95 41.04 43.26 46.79 46.14 45.88 46.27 48.14 49.70 49.82 50.57 50.84 50.83 51.06 51.29 50.58 49.91 49.33 48.90 47.99 46.67 45.51 44.43 43.83 42.49 42.00 41.45 40.83 40.58 40.70 39.96 39.75 39.20
39.18 33.35 41.55 42.15 46.73 42.57 44.70 47.91 38.22 40.34 33.33 32.39 38.28 39.31 43.15 44.66 44.95 44.99 46.52 48.34 49.78 50.47 50.45 50.34 50.46 50.37 49.88 48.83 48.18 47.80 47.11 44.95 43.94 43.00 42.06 41.01 40.20 39.99 39.79 39.65 38.77 38.83 38.94 38.93
43.87 40.86 34.78 41.47 40.42 41.00 43.34 41.59 42.30 42.62 39.81 37.03 36.00 39.81 45.79 45.20 45.71 45.59 46.92 49.31 49.87 49.70 50.10 49.77 50.05 49.79 48.36 47.66 47.00 45.73 45.13 43.81 42.34 41.36 40.54 39.98 39.14 38.60 38.51 38.23 38.18 38.07 38.20 37.95
44.76 43.01 37.26 37.12 42.14 45.39 46.74 43.84 43.80 39.17 35.45 38.56 38.45 40.74 45.38 45.62 45.69 45.57 47.62 48.91 50.08 50.45 50.45 49.87 49.65 48.15 46.63 46.10 45.37 44.39 43.89 42.79 41.32 39.98 39.23 38.41 37.97 38.02 37.76 37.46 37.46 37.44 36.99 37.38
44.76 41.55 35.72 35.49 39.71 41.38 42.21 43.67 46.00 45.06 41.26 39.03 37.60 40.60 44.94 46.82 46.58 46.24 47.38 48.42 49.24 49.56 49.53 49.03 48.67 47.12 46.28 45.14 44.13 43.15 42.88 41.28 39.68 38.77 37.96 37.58 37.33 37.19 36.82 36.83 36.81 36.65 36.38 36.28
46.42 42.73 40.55 36.59 39.48 43.16 40.18 42.32 44.83 44.56 39.65 40.00 39.92 42.97 44.31 45.52 46.30 46.34 47.52 48.91 49.17 49.05 48.58 48.35 47.84 47.22 46.07 44.67 43.21 41.95 41.12 40.27 38.10 37.14 37.19 36.53 36.28 36.21 36.25 36.37 36.03 35.79 35.80 35.41
45.89 40.16 41.85 40.94 41.99 43.31 42.04 41.36 41.22 41.22 43.38 39.99 43.14 41.94 45.74 47.81 47.98 48.41 48.79 48.60 48.32 48.04 47.72 47.49 47.49 46.89 45.39 43.42 42.24 40.95 39.28 38.33 36.96 36.41 36.28 35.40 35.51 35.69 35.59 35.56 35.34 35.33 35.15 34.94
44.97 40.54 40.12 37.89 40.09 41.72 40.12 42.14 42.51 43.06 43.83 43.67 43.99 43.28 48.12 47.73 48.71 47.26 48.17 48.02 47.79 47.71 47.11 47.35 47.53 46.76 44.45 42.71 41.03 39.68 37.91 36.53 36.40 35.52 34.42 34.64 34.45 34.70 34.82 34.68 34.32 34.38 34.35 34.44
44.39 41.76 39.14 36.76 38.13 38.81 36.54 40.97 41.34 42.49 44.32 43.57 40.76 45.75 46.39 44.53 45.43 47.01 47.81 47.56 47.49 47.55 47.22 46.97 47.01 46.00 43.41 41.85 41.16 39.62 37.43 35.92 35.14 34.37 33.77 33.47 33.69 33.68 33.72 33.76 33.60 33.54 33.49 34.02
43.23 42.23 39.69 35.49 36.33 30.67 41.63 42.28 45.55 43.59 44.81 45.46 45.49 44.82 46.17 46.92 47.38 46.79 48.00 47.84 47.10 46.87 46.50 47.12 46.86 44.25 42.51 41.32 39.78 37.53 36.10 35.06 33.89 33.11 33.13 33.21 32.96 32.61 33.05 33.00 33.07 33.28 33.46 33.02
44.03 41.25 37.66 34.45 34.53 38.34 38.64 39.63 40.12 40.99 42.42 44.71 44.64 44.34 45.21 45.03 45.87 44.28 45.43 45.63 45.49 45.44 46.21 47.02 46.07 43.04 40.35 39.32 38.17 36.52 34.58 33.52 32.88 32.82 32.49 32.39 32.39 31.91 32.16 32.20 32.37 32.79 32.43 32.20
39.83 43.16 39.91 34.75 32.41 32.52 39.09 41.94 44.12 44.86 38.69 44.17 44.84 44.22 43.79 44.54 42.07 44.23 44.69 44.11 43.15 43.75 43.72 42.95 41.37 40.11 39.54 37.59 36.45 35.12 33.26 31.56 32.45 32.07 31.83 32.16 32.16 31.71 31.56 31.90 31.87 32.34 32.14 31.42
36.42 37.15 36.01 36.98 34.23 37.99 41.96 43.57 44.91 37.00 39.87 44.02 45.46 44.88 44.35 44.10 45.08 44.00 43.18 41.51 42.32 42.08 40.90 39.68 39.35 38.71 37.81 35.78 35.16 32.55 30.54 30.95 32.05 31.87 31.77 31.93 32.15 31.66 31.80 31.88 32.12 31.65 31.14 30.88
37.02 36.46 35.87 37.98 34.68 32.66 43.31 42.22 40.63 43.28 44.51 45.07 45.42 45.38 43.78 43.47 43.08 43.22 42.46 40.90 39.92 38.65 38.34 38.81 37.81 36.26 35.37 34.87 33.00 30.57 30.84 32.08 31.74 31.36 31.20 31.41 31.72 31.42 31.20 31.18 31.27 31.04 30.46 29.50
36.79 41.43 38.08 39.54 39.21 41.37 42.39 42.86 43.67 46.66 44.26 43.93 43.95 44.13 43.95 42.86 42.92 43.10 42.20 40.99 39.93 39.04 37.73 37.58 36.88 34.66 34.08 32.70 31.84 31.01 31.86 31.37 30.89 30.70 30.78 30.94 31.18 31.29 31.60 30.54 29.74 29.26 29.41 28.42
38.00 40.61 39.78 38.30 39.76 40.17 41.45 42.38 43.96 45.48 43.92 44.31 44.49 43.93 44.25 42.89 43.10 42.51 42.44 41.69 40.43 39.12 37.57 36.69 35.48 34.59 32.40 31.99 31.51 31.63 31.17 30.79 30.04 29.97 30.37 30.78 30.52 30.31 30.56 30.49 29.94 28.76 28.11 27.62
40.77 40.99 39.58 37.45 39.26 40.71 41.53 43.16 43.27 42.69 43.25 42.84 43.00 43.23 43.02 43.02 41.76 41.84 41.34 41.18 40.64 38.80 37.02 36.12 35.44 34.20 33.32 31.79 30.67 30.78 30.62 30.20 29.61 29.81 30.14 30.15 30.06 29.92 29.56 29.60 28.94 28.29 29.12 28.85
41.02 41.04 40.45 40.73 43.46 43.68 42.99 43.18 43.60 42.90 42.41 43.05 41.76 40.44 40.37 41.50 40.72 40.50 40.19 40.49 39.79 37.62 36.26 34.58 33.96 33.14 31.00 30.37 30.04 30.17 30.12 29.68 28.89 28.70 29.57 29.39 28.97 29.24 28.58 28.07 27.96 30.18 29.98 30.31

GFSCGP_sfc_wetblb_015.txt.gz
Wetbulb
45.65 40.46 37.68 42.19 43.57 46.26 46.50 45.74 45.37 48.70 51.32 50.27 49.01 48.80 51.31 53.29 54.08 53.74 53.77 53.79 54.55 54.68 55.60 56.44 57.59 58.54 59.23 61.20 62.66 63.57 63.74 64.64 65.25 65.12 63.76 61.43 58.63 57.91 56.90 56.44 56.08 55.57 55.18 55.03
40.71 36.59 43.62 45.50 45.11 44.81 45.57 44.55 45.98 48.31 50.54 48.81 48.32 48.23 51.49 53.25 53.70 54.91 53.75 53.67 54.21 53.99 54.27 55.09 56.04 56.86 57.15 58.16 60.21 62.14 63.12 64.31 63.99 62.01 60.82 59.26 57.58 56.52 55.81 55.43 54.46 53.97 52.71 52.32
37.00 39.71 44.97 43.56 42.20 43.18 44.92 44.23 45.04 44.86 48.63 48.94 47.81 46.44 49.20 52.74 54.49 53.79 53.43 54.70 54.94 53.75 53.17 53.92 54.91 55.59 56.33 56.13 57.19 57.75 58.24 58.66 58.77 58.93 58.36 57.58 57.28 56.59 54.22 53.37 52.68 51.89 51.33 49.29
38.07 42.74 38.57 41.88 40.16 43.21 41.20 48.10 47.66 46.17 45.34 40.34 48.54 39.70 47.91 50.86 49.06 49.79 51.20 53.25 53.85 53.77 53.82 54.14 54.34 54.73 55.17 55.44 56.66 56.59 56.72 57.03 57.56 58.18 57.16 55.94 53.58 51.04 51.68 51.74 51.52 50.93 49.89 47.80
36.78 38.78 37.89 39.97 41.03 46.59 43.41 49.38 47.25 46.68 45.35 43.54 43.77 41.80 46.28 50.74 48.09 49.18 50.85 52.63 53.42 53.65 53.49 53.42 53.98 54.36 55.03 55.56 55.20 55.08 54.77 54.50 54.94 54.99 54.58 53.19 51.50 51.14 50.99 50.57 49.38 48.62 47.97 47.03
39.07 44.04 43.54 43.17 45.79 46.69 48.47 47.95 46.87 46.17 43.62 37.19 43.37 43.29 44.16 46.96 48.37 50.21 50.88 52.09 52.68 52.83 53.21 53.62 53.96 54.30 53.93 54.60 54.15 53.91 52.75 52.11 52.52 52.47 52.02 51.20 50.16 49.46 48.52 47.44 46.48 46.06 45.76 45.27
36.69 36.84 43.21 46.77 44.07 46.83 46.13 42.39 35.71 34.55 34.76 36.03 44.88 43.23 45.92 47.25 48.64 50.06 50.05 51.28 52.31 52.75 52.64 52.22 52.25 52.67 52.94 52.87 52.55 51.93 51.21 49.93 50.32 50.00 49.50 48.97 48.25 47.43 45.64 44.97 44.15 43.33 42.99 42.55
31.90 31.26 37.88 44.85 43.85 41.12 42.57 43.70 38.07 31.26 33.33 37.59 42.55 38.64 44.81 48.87 49.85 51.48 51.95 52.26 52.41 52.17 52.55 52.03 52.68 52.94 52.70 52.23 51.64 51.05 49.74 48.41 48.37 47.78 46.96 46.66 46.39 45.31 44.16 43.26 42.62 41.89 41.28 40.91
33.92 34.34 44.34 46.63 47.21 45.30 40.95 40.92 45.88 40.90 42.28 40.21 41.13 44.90 47.01 48.57 48.12 48.66 50.51 51.47 51.18 51.76 52.20 52.20 52.84 52.94 52.25 51.63 51.30 50.38 48.74 47.55 46.88 46.28 45.70 44.50 43.96 43.14 42.34 41.98 41.72 40.96 40.67 39.91
37.63 33.58 40.18 44.20 46.59 44.91 44.95 48.53 40.39 42.16 34.30 33.57 40.00 41.53 42.69 45.20 46.75 47.74 48.59 50.37 51.15 52.01 52.14 52.35 52.41 52.26 51.94 51.21 50.47 49.93 48.65 46.71 45.80 45.06 44.24 43.19 42.10 41.54 41.30 41.05 39.80 39.52 39.58 39.31
40.24 34.48 35.17 42.00 42.13 40.86 42.19 41.52 44.09 44.77 42.48 37.48 36.96 40.36 48.53 46.74 47.38 47.72 48.92 50.91 51.42 51.68 51.72 51.82 52.11 52.02 50.96 50.19 49.30 48.24 46.61 45.31 44.40 43.95 43.24 42.17 40.93 40.56 40.48 39.68 39.15 38.63 38.63 38.30
42.90 40.12 34.60 37.09 44.23 48.08 46.43 43.29 44.93 39.98 37.66 41.14 39.88 40.10 47.73 48.07 48.17 48.53 49.43 50.59 52.19 52.28 52.06 51.83 51.84 50.80 49.33 48.84 47.98 47.13 46.28 44.89 43.87 42.79 41.89 40.68 40.49 40.22 39.36 38.43 38.10 38.01 37.48 37.83
44.33 39.84 35.33 35.84 39.68 42.63 42.42 44.86 46.69 46.28 45.62 40.84 38.13 40.76 48.04 49.35 48.64 48.43 49.31 50.75 51.71 51.67 51.62 51.36 51.13 49.53 48.77 48.20 47.25 46.09 45.43 43.86 42.54 41.50 40.76 40.04 39.37 38.77 38.00 37.68 37.56 37.44 36.95 36.85
47.15 42.18 40.48 36.94 40.39 42.05 39.74 42.74 45.53 44.03 40.33 41.04 42.24 43.43 45.30 47.58 47.94 48.32 49.27 50.75 51.21 51.15 51.01 50.69 50.31 49.43 49.06 48.02 46.63 45.30 44.23 43.03 41.07 40.00 39.36 38.66 38.10 37.48 37.17 37.15 36.87 36.60 36.44 36.01
46.21 40.83 43.11 43.56 44.62 44.41 43.24 43.39 43.66 43.12 44.36 41.22 43.87 43.67 47.28 49.30 49.46 49.65 50.19 50.42 50.26 50.03 50.11 49.97 49.80 49.48 48.74 47.16 45.81 44.46 43.20 41.40 40.02 38.51 37.89 37.04 36.85 36.77 36.61 36.27 36.15 36.04 36.01 35.96
46.78 41.16 42.47 40.35 42.92 43.72 42.16 44.10 44.76 44.55 45.21 45.18 45.62 45.41 51.06 50.99 51.05 50.32 50.11 49.93 49.44 49.62 49.90 50.12 50.09 49.82 48.25 46.74 44.81 43.01 41.32 39.47 38.86 37.41 36.10 36.08 35.72 35.82 35.64 35.53 35.02 35.18 35.34 35.49
42.88 42.42 40.79 37.60 41.11 41.41 37.86 42.69 43.62 44.36 45.63 45.47 42.09 46.90 51.11 47.54 48.31 49.24 50.17 49.97 49.49 49.84 49.96 49.86 49.70 49.71 48.43 46.37 44.48 41.89 40.24 38.56 37.48 36.08 35.34 34.98 34.89 34.55 34.64 34.66 34.54 34.54 34.56 35.16
43.20 42.63 41.74 37.64 39.37 31.62 42.70 45.36 46.67 45.03 46.12 47.51 47.79 49.16 48.58 48.78 49.29 50.21 51.10 50.02 49.86 49.80 49.59 49.75 49.89 49.37 47.55 45.63 43.59 41.93 38.76 37.41 35.90 34.86 34.49 34.53 34.18 33.79 34.05 33.92 33.91 34.18 34.45 34.06
46.44 43.34 39.84 36.06 36.74 41.44 43.39 41.97 43.18 43.74 43.40 47.93 47.25 48.48 48.14 48.34 47.00 45.30 47.82 49.68 48.81 49.04 49.68 50.01 50.06 47.75 45.12 42.83 41.12 38.63 37.15 35.74 34.72 34.02 33.91 33.86 33.63 33.02 33.09 32.87 33.08 33.63 33.55 33.28
44.47 45.98 41.53 38.72 34.17 32.57 40.52 43.80 45.85 47.72 39.59 49.17 49.66 48.21 46.65 45.92 42.29 44.33 46.16 46.66 46.34 47.12 47.91 47.31 46.45 43.83 41.90 40.84 39.35 37.77 35.97 34.53 33.38 33.03 33.25 33.54 33.45 32.84 32.45 32.62 32.66 33.35 33.19 32.45
36.21 38.89 35.80 36.21 35.97 40.73 44.07 44.93 46.48 37.39 40.96 45.45 47.75 48.17 46.51 44.95 46.71 45.92 45.51 44.68 45.22 45.04 43.95 43.27 42.49 41.36 40.26 38.99 38.47 36.39 34.09 32.78 32.88 33.03 33.24 33.25 33.39 32.88 32.80 32.50 32.82 32.55 32.05 31.75
38.18 36.17 36.24 38.26 35.38 33.24 45.49 43.71 41.01 44.60 46.37 46.88 47.63 47.75 46.53 44.96 44.59 44.41 43.52 42.33 42.08 40.91 40.54 41.39 40.53 38.77 38.08 37.90 37.04 34.05 32.40 32.86 32.89 32.94 32.62 32.75 32.95 32.83 32.82 32.52 32.57 32.08 31.23 30.29
38.95 43.35 41.26 42.28 41.43 43.69 45.61 45.01 46.57 48.29 46.89 47.10 46.73 46.80 45.66 44.14 43.45 43.39 42.21 41.78 40.78 40.14 39.72 40.40 39.13 37.15 36.86 35.77 35.31 32.73 32.92 32.72 32.46 32.17 32.11 32.34 32.47 32.66 32.79 31.79 31.02 30.44 30.32 29.18
41.13 42.32 42.32 40.75 42.06 42.88 44.63 44.80 46.48 48.52 47.06 47.10 46.63 45.76 45.62 43.79 43.91 43.24 42.90 41.83 40.83 40.23 39.29 39.65 37.98 36.28 34.36 33.97 32.64 33.33 32.65 32.40 31.60 31.22 31.55 31.83 31.63 31.88 31.81 32.00 31.29 30.11 29.01 28.24
42.26 41.70 42.10 40.80 41.25 42.13 43.32 44.86 45.18 45.22 45.60 44.78 45.37 45.58 44.94 44.38 43.70 43.66 43.17 42.96 42.20 40.72 39.44 38.83 38.10 37.04 34.71 34.00 32.74 32.55 32.08 31.80 30.66 30.90 30.91 31.34 31.55 30.86 30.60 30.92 30.37 29.55 29.99 29.75
42.81 43.06 40.91 41.02 44.91 45.34 44.53 45.53 45.59 44.06 43.52 43.84 42.86 42.27 43.61 44.31 42.60 43.25 42.51 42.89 42.10 40.05 38.81 37.71 37.15 35.73 33.70 32.66 32.12 31.89 31.76 31.10 30.26 29.46 30.23 30.57 30.05 30.33 30.14 29.31 29.01 31.98 32.01 32.19

GFSCGP_sfc_wetblb_018.txt.gz
Wetbulb
43.71 38.92 36.18 39.45 41.36 41.87 42.04 41.95 42.01 44.87 50.02 47.41 46.83 47.11 48.93 50.82 50.87 49.47 49.54 49.43 49.35 50.64 51.99 52.90 53.44 54.60 56.65 58.59 58.89 59.72 60.21 60.87 61.11 60.93 58.76 55.57 53.01 51.85 51.32 51.14 50.91 49.88 49.30 49.81
39.15 35.16 40.45 42.59 42.79 41.48 41.48 40.49 41.51 45.66 48.97 47.65 46.34 46.15 48.80 49.42 50.32 50.62 50.03 49.56 49.26 49.89 50.19 51.37 52.43 52.30 54.56 56.47 57.75 58.94 59.43 58.60 58.14 57.08 55.83 54.32 52.22 51.28 50.75 50.31 49.49 48.19 46.55 46.20
34.93 37.94 42.48 40.75 39.27 39.04 39.20 39.72 41.17 42.04 47.01 48.11 44.16 42.23 44.94 48.45 50.19 50.80 51.84 51.23 50.57 50.00 49.30 49.84 50.05 50.95 51.64 52.50 53.06 54.30 54.60 54.93 54.98 54.70 54.20 53.14 52.86 50.89 48.52 47.88 46.89 46.44 44.94 43.93
37.17 40.99 39.36 38.68 37.46 39.78 35.74 43.38 43.17 44.44 41.37 37.16 44.04 32.66 42.37 46.49 47.98 49.77 48.59 48.08 49.61 49.73 49.78 50.35 50.27 50.04 50.31 51.01 52.19 52.84 53.42 53.73 54.17 53.61 52.29 50.26 47.68 45.63 46.26 45.95 45.69 44.76 44.02 42.12
34.68 36.90 36.83 36.22 37.83 40.38 38.42 45.03 43.29 43.63 42.18 41.65 41.88 36.60 41.02 46.01 45.47 47.17 45.64 46.88 49.42 49.52 49.56 49.42 49.99 51.18 51.33 51.06 49.92 49.87 50.15 50.24 50.30 50.00 49.18 47.49 45.71 45.26 45.02 44.47 43.01 42.42 42.18 41.16
37.48 42.86 40.49 39.15 40.75 40.41 42.24 42.16 43.01 43.66 41.86 35.42 39.49 38.33 38.18 42.37 44.70 45.22 46.13 47.54 49.27 49.11 49.09 49.65 50.42 51.06 50.13 49.97 49.26 48.15 47.78 47.76 47.78 47.19 46.44 45.18 43.60 43.03 42.06 40.78 40.09 39.90 40.07 39.84
35.72 36.40 40.04 41.86 38.25 41.02 41.00 38.35 33.24 33.56 33.49 31.11 40.85 37.74 40.28 42.44 45.87 47.93 46.94 47.61 48.71 48.99 48.87 48.81 48.51 48.62 48.77 48.16 47.65 47.40 46.43 45.38 45.46 44.66 43.99 43.21 41.91 40.58 38.83 38.59 37.94 37.34 37.32 36.93
29.06 27.32 36.57 40.15 36.93 38.13 39.15 35.55 32.88 28.23 29.08 31.78 40.45 35.10 39.42 45.18 46.55 48.01 48.87 48.83 48.89 48.43 48.48 48.29 48.35 48.26 48.17 47.99 46.41 45.69 44.59 43.55 43.29 42.29 41.25 40.73 40.61 39.45 38.53 37.74 37.12 36.19 35.79 35.53
31.77 31.19 40.99 40.76 39.71 43.03 39.38 33.04 41.02 37.28 36.78 33.96 35.46 38.23 41.16 44.58 43.85 45.74 47.11 48.15 47.60 48.03 48.24 48.14 48.53 48.63 47.73 46.58 46.01 44.78 43.58 42.72 42.14 41.17 39.67 38.46 38.14 37.61 36.93 36.52 36.24 35.73 35.41 37.28
34.52 30.62 39.72 41.08 43.33 43.09 43.40 43.77 37.53 38.50 31.02 29.15 33.79 35.59 36.37 40.14 41.32 43.64 45.85 46.40 47.34 48.10 48.22 48.30 48.80 48.17 47.40 46.78 45.70 44.35 43.18 41.66 40.81 39.85 38.71 37.84 36.59 36.62 36.29 35.64 34.64 34.81 35.02 35.30
36.61 33.65 36.23 40.53 40.08 37.75 39.61 39.85 41.99 41.49 38.29 32.27 29.64 33.04 42.57 42.18 43.79 43.23 44.81 47.57 47.88 47.85 48.27 48.55 48.43 47.82 46.43 45.61 44.64 42.70 41.35 40.50 39.61 39.10 37.87 36.39 36.03 36.13 35.43 34.54 34.30 34.33 34.32 33.78
37.73 35.20 32.51 35.25 41.90 44.74 42.39 41.86 41.01 35.57 33.53 35.93 34.43 33.06 43.90 43.32 44.33 45.07 44.82 48.43 48.62 48.70 48.59 48.49 47.85 46.39 44.92 44.18 43.14 41.65 40.90 39.67 38.96 38.27 36.87 36.16 35.93 35.23 34.06 33.66 33.84 33.90 32.70 33.15
38.49 34.14 32.58 34.71 38.74 44.22 41.26 42.97 43.37 42.15 40.31 35.32 31.74 32.49 44.38 43.28 43.08 43.97 44.82 47.36 48.65 48.39 47.67 47.52 46.93 45.34 44.09 43.43 42.42 41.48 40.15 38.47 37.95 37.39 36.24 35.45 34.65 33.73 32.92 32.89 33.47 33.40 32.79 32.17
45.28 39.22 34.32 33.66 36.96 40.75 39.75 42.05 43.10 41.54 35.39 35.86 35.83 35.49 40.65 42.48 42.79 44.06 44.90 46.46 47.82 48.05 48.01 47.11 46.32 44.61 43.84 43.15 41.85 40.71 38.78 37.83 36.88 36.41 35.37 34.03 33.08 32.70 32.36 32.69 32.75 33.04 32.65 31.63
41.06 38.11 38.51 38.50 42.60 42.32 41.83 41.62 42.24 40.42 41.29 35.32 38.29 39.29 41.17 43.47 43.23 43.96 44.94 46.91 47.36 47.38 47.39 46.76 45.71 44.48 43.37 42.21 40.89 39.82 38.15 36.71 36.08 35.06 34.17 33.11 33.13 32.98 32.73 32.76 32.71 32.47 32.05 31.95
41.07 37.98 40.36 38.73 42.15 42.05 40.40 42.43 42.58 42.46 41.77 41.17 41.68 40.74 45.92 44.89 45.70 44.39 44.24 45.90 46.75 47.11 47.44 46.83 46.59 44.90 43.15 41.10 39.62 38.92 36.81 35.45 35.27 33.84 33.19 33.60 33.06 32.68 32.54 32.17 31.60 31.01 30.90 30.64
41.28 39.82 38.09 33.27 38.54 39.10 34.16 40.19 41.99 42.94 43.72 43.26 39.70 43.85 45.12 43.53 45.22 44.58 44.57 45.92 45.97 46.35 46.85 46.29 46.03 44.85 43.03 40.94 39.48 36.58 35.12 34.85 33.69 33.18 33.08 32.97 32.84 32.32 31.69 31.26 30.40 29.66 29.10 29.29
40.27 38.83 38.87 33.95 34.16 26.40 37.18 40.98 43.91 42.66 43.40 44.31 44.16 44.45 44.89 44.52 44.00 44.47 45.49 45.13 45.43 46.59 46.97 46.29 45.83 44.64 42.33 40.35 38.56 36.24 34.66 33.65 33.23 32.41 32.31 32.67 32.34 31.04 30.39 29.40 28.85 28.18 28.50 28.12
43.80 40.89 37.09 31.44 32.28 37.45 38.90 39.07 39.03 39.29 40.29 44.32 43.41 45.03 43.50 43.39 41.95 40.63 43.63 44.94 44.55 44.93 45.34 45.30 44.77 42.20 39.97 38.17 35.63 34.69 33.69 32.67 32.31 31.74 32.14 31.99 30.54 29.23 28.86 28.02 27.20 27.48 27.45 27.20
43.66 42.25 39.32 34.66 28.76 27.23 35.79 40.52 43.22 43.05 34.55 42.60 43.90 44.32 42.48 42.36 36.44 37.96 42.25 43.42 43.28 44.23 44.20 42.83 41.34 39.95 38.06 35.72 35.05 33.37 31.83 31.18 30.89 30.92 30.57 30.27 30.00 28.94 27.51 27.03 26.71 27.43 27.32 27.77
37.95 37.96 36.33 35.85 32.93 36.05 41.06 41.29 43.16 33.24 35.57 42.18 43.62 44.14 42.73 39.07 40.17 41.94 42.46 41.65 41.92 41.23 40.07 39.54 38.35 37.00 34.78 34.69 34.64 31.70 30.67 29.39 29.99 30.37 30.30 30.03 29.36 28.15 27.41 26.93 26.98 26.80 26.12 25.99
36.34 35.34 35.80 36.12 33.75 30.70 42.16 40.98 37.33 40.94 41.81 43.02 43.50 43.13 41.22 40.88 41.31 40.82 40.60 39.66 38.96 38.15 38.36 38.06 35.93 34.42 34.60 35.05 32.70 29.90 28.24 28.85 29.66 29.74 29.44 28.64 27.81 28.93 30.00 26.76 26.46 26.40 25.18 23.97
36.66 39.42 37.84 38.16 38.09 42.40 43.02 42.52 43.23 45.26 42.98 42.89 42.08 42.38 42.24 40.66 39.93 39.84 38.65 37.86 37.71 37.43 37.20 36.80 34.64 33.45 32.74 32.21 30.66 28.01 27.88 29.28 29.36 28.10 27.36 27.15 27.47 27.87 28.06 26.43 25.44 24.75 24.35 23.19
37.93 39.30 37.78 38.79 38.31 39.24 41.50 42.27 42.86 44.53 43.31 43.52 43.27 42.58 42.39 40.50 40.37 39.19 38.83 37.86 37.19 36.91 36.09 35.18 33.13 31.18 29.41 28.93 29.64 28.58 29.18 29.21 28.41 26.66 25.92 26.23 25.97 27.41 26.55 26.57 26.02 24.43 23.21 23.22
37.96 38.73 38.03 37.04 38.60 40.02 41.46 41.79 42.58 42.46 42.82 42.60 42.83 42.71 42.08 41.50 40.42 40.14 38.95 38.05 37.18 36.31 35.67 34.78 33.27 31.51 29.35 29.15 28.75 28.71 28.85 28.23 25.90 24.98 24.88 25.59 26.12 25.50 24.85 25.47 24.95 24.32 24.96 26.42
39.96 39.32 37.92 37.81 42.43 41.35 40.26 42.16 43.22 41.83 41.28 41.42 41.23 40.37 40.85 40.57 39.87 39.94 39.13 38.87 37.40 35.49 35.12 34.10 32.39 30.16 28.87 28.52 28.03 28.16 28.32 26.85 25.33 23.98 24.48 24.30 24.12 24.19 24.12 23.31 24.88 30.37 31.53 32.16

GFSCGP_sfc_wetblb_021.txt.gz
Wetbulb
41.85 36.47 33.64 36.79 39.73 38.97 37.90 36.87 36.67 41.20 46.37 45.19 44.59 45.39 47.86 49.99 49.96 46.86 45.85 45.87 46.54 48.11 49.62 51.77 52.49 54.10 55.68 56.61 57.36 58.00 59.02 59.20 59.61 55.98 53.20 51.36 49.27 49.36 48.79 48.03 46.92 45.84 45.78 45.55
36.87 33.86 38.53 41.08 41.18 40.39 38.60 36.15 36.16 40.71 44.91 44.52 44.39 44.13 47.82 49.34 48.76 48.79 48.04 47.28 46.44 47.09 48.39 50.11 51.19 52.59 54.45 54.31 54.71 55.48 55.40 55.62 56.49 55.28 52.96 51.25 49.37 47.86 47.67 46.73 45.01 43.84 43.01 43.17
33.93 36.30 41.24 39.55 37.84 37.15 37.62 35.74 35.85 36.64 42.54 45.10 42.82 41.72 44.23 47.50 49.79 49.69 49.06 49.20 49.18 48.69 48.27 47.67 48.74 50.17 50.58 50.72 52.03 52.95 53.09 53.39 53.31 52.80 52.09 50.88 49.40 47.44 45.52 44.24 42.96 41.72 41.48 41.40
36.12 39.59 37.76 37.39 36.00 37.12 32.49 39.55 39.39 38.28 38.68 35.60 43.09 35.01 40.30 44.89 44.85 45.59 46.10 45.48 48.09 47.75 48.67 48.83 48.28 48.29 49.05 49.22 50.54 51.66 52.38 52.36 51.93 51.47 50.44 48.15 45.66 43.86 43.73 43.57 41.96 40.80 40.04 39.60
33.66 35.64 35.52 34.18 35.87 38.58 34.81 40.51 38.67 38.61 37.02 37.19 39.11 37.67 37.42 42.25 43.79 46.31 47.40 43.88 47.07 48.17 48.77 48.15 48.73 49.44 49.25 48.13 47.10 46.98 47.69 48.09 48.17 47.79 46.93 45.82 43.42 42.92 42.46 40.86 39.62 39.02 38.14 38.54
36.56 40.90 38.84 37.27 39.12 39.37 40.26 37.51 37.02 38.48 37.94 31.57 36.23 37.99 35.43 39.03 43.62 45.85 46.65 45.68 46.80 47.38 47.74 48.64 49.24 49.21 47.56 46.58 45.64 45.26 45.87 44.75 44.95 45.07 44.23 43.26 41.32 39.63 38.57 37.63 37.13 37.16 37.16 36.98
34.97 35.83 38.93 41.10 36.78 38.33 37.73 33.10 25.16 26.89 27.85 28.12 38.83 37.08 38.88 41.26 43.81 46.81 44.19 45.83 46.60 47.31 47.79 47.95 47.66 47.22 46.14 44.91 44.40 44.48 44.05 42.55 42.38 41.84 40.88 39.69 38.02 37.19 36.58 36.15 35.34 35.10 34.94 34.61
26.52 22.72 34.89 38.88 36.63 34.99 34.92 32.64 27.31 19.61 26.24 31.04 39.63 34.85 37.70 46.96 44.45 47.17 47.08 47.03 46.82 46.84 47.61 47.54 47.45 46.65 45.33 44.83 43.49 42.59 41.94 40.72 40.24 39.36 38.57 38.04 37.72 36.82 36.09 35.60 34.69 34.07 33.87 33.71
27.24 27.65 38.62 39.12 39.93 38.45 34.07 30.15 36.62 33.45 34.93 32.72 34.95 36.69 39.43 41.26 42.63 45.03 45.21 45.82 45.57 46.04 46.76 46.93 47.25 46.77 44.99 43.26 42.31 41.77 40.85 39.74 39.09 37.96 36.82 35.83 35.89 35.65 34.69 34.15 34.10 33.66 33.39 36.05
33.97 28.05 36.33 37.40 40.49 39.37 38.61 40.75 31.10 32.18 28.01 27.20 31.81 31.94 33.57 37.47 39.80 43.60 44.21 44.39 45.10 46.06 46.48 46.88 47.20 46.41 44.78 43.59 41.92 40.92 40.31 39.18 38.05 36.84 35.68 35.34 34.63 34.62 33.96 33.41 32.56 32.74 32.79 33.05
36.94 32.88 32.92 35.51 35.27 34.10 36.40 34.49 37.30 36.87 33.56 30.27 27.73 31.66 38.87 40.33 42.12 42.96 44.35 45.13 45.27 45.74 46.19 46.73 46.94 46.46 44.56 42.98 41.49 39.78 38.87 37.91 36.86 36.12 34.86 34.29 34.18 33.86 33.17 32.53 32.24 32.26 32.43 32.18
37.59 34.33 29.38 32.57 41.50 42.51 40.53 37.23 37.43 31.33 33.32 35.59 31.24 30.82 40.17 41.14 42.01 44.12 44.44 45.73 46.03 46.66 46.58 46.69 46.43 44.64 43.68 41.99 40.16 39.04 37.97 37.22 36.26 35.47 34.64 34.12 33.76 33.03 32.02 31.76 32.01 32.27 31.63 31.65
37.89 33.06 27.07 33.28 37.66 41.38 38.42 39.78 41.10 38.82 39.66 35.78 29.03 30.77 41.46 40.09 41.16 42.16 44.11 45.36 45.81 45.94 46.03 45.83 44.33 43.56 42.92 41.04 39.66 38.39 37.10 35.97 35.46 35.07 34.07 33.27 32.44 31.68 31.00 31.18 31.79 32.11 31.34 30.91
40.41 35.87 33.28 31.83 35.78 40.23 37.39 38.66 39.01 38.11 35.67 35.34 33.79 34.53 36.76 38.70 40.80 41.16 44.62 45.83 45.74 46.14 46.23 44.99 43.65 43.00 42.37 41.00 39.71 37.64 35.95 35.55 34.93 34.33 33.12 31.91 31.37 31.09 31.05 31.54 31.70 31.61 31.32 30.81
40.25 33.57 36.26 36.50 38.29 40.65 40.60 39.37 39.33 39.08 39.57 35.89 35.22 36.51 38.76 40.04 40.81 41.55 44.88 45.58 45.36 45.44 45.37 44.69 43.27 42.54 41.72 40.09 38.46 36.96 35.38 34.54 34.20 33.19 32.28 31.48 31.55 31.66 31.65 31.43 31.21 31.13 30.93 30.87
39.96 33.26 38.69 37.67 41.39 40.69 39.77 41.82 41.90 41.45 41.46 39.59 39.63 38.43 40.76 40.62 41.61 41.14 43.88 45.65 45.42 45.28 45.63 45.02 43.85 42.88 41.49 39.76 37.68 36.62 34.49 33.52 33.52 32.27 31.66 32.02 31.75 31.67 31.13 30.85 30.81 29.94 29.44 29.25
37.93 37.23 38.35 31.90 40.26 40.10 36.18 40.12 40.81 41.62 42.12 42.44 38.23 42.16 41.10 41.29 42.62 42.01 42.68 46.07 45.59 45.28 44.69 44.74 44.17 43.10 41.33 39.12 37.45 34.75 33.35 32.87 31.97 31.48 31.74 32.02 31.66 31.21 30.99 30.47 29.24 28.43 27.79 26.98
37.89 37.98 39.00 33.80 33.26 26.26 36.47 41.75 43.93 42.82 42.99 43.19 42.75 43.66 42.26 41.43 40.22 40.80 41.59 44.19 44.96 45.84 45.49 45.36 44.55 42.07 40.32 37.50 36.05 33.82 33.02 31.98 31.45 31.22 31.23 31.42 31.40 30.63 29.78 28.59 27.59 26.33 26.20 26.03
41.61 38.52 37.04 31.20 30.80 34.32 36.37 38.12 37.55 38.40 38.31 41.51 42.93 42.61 41.60 41.15 40.57 39.56 41.63 42.65 42.84 43.97 44.32 43.81 42.67 39.83 37.83 36.00 34.30 33.00 31.83 31.11 30.67 30.24 30.51 30.65 29.99 28.91 28.29 26.98 25.42 25.50 25.52 25.28
42.97 42.48 37.89 32.04 26.33 26.20 34.52 39.21 40.36 39.90 33.25 40.40 40.24 41.41 41.27 40.64 36.52 36.61 40.24 42.41 41.30 41.77 41.67 39.26 38.15 36.29 34.34 33.54 33.80 31.84 30.26 29.65 29.71 30.24 30.19 29.86 29.55 28.27 26.24 25.32 25.03 25.53 25.22 25.45
37.70 38.16 32.08 33.97 32.53 33.44 39.60 40.18 41.09 31.80 33.73 40.40 40.67 41.84 40.70 38.36 38.68 39.75 40.39 38.69 38.73 38.46 37.52 37.58 36.14 33.91 32.79 32.45 32.29 30.36 29.21 28.53 29.60 29.85 29.72 29.23 28.52 26.90 26.00 25.26 24.98 24.88 24.49 24.03
35.79 35.38 35.48 35.57 33.27 28.41 39.96 38.62 34.96 38.87 39.73 40.28 39.69 39.61 38.46 38.93 39.39 38.86 38.29 37.63 37.69 36.58 35.74 35.29 33.68 32.69 32.55 32.04 31.25 27.85 26.85 28.13 29.00 29.06 28.72 27.89 26.47 27.34 28.73 25.42 25.05 25.00 23.44 21.91
36.06 38.78 37.36 36.70 37.30 42.08 40.86 40.29 42.04 42.57 40.94 39.71 39.41 39.61 39.60 38.55 37.80 37.53 36.14 36.05 35.94 35.55 33.76 34.35 33.37 31.29 29.84 29.06 28.95 26.84 27.09 28.59 28.25 27.21 26.32 25.54 25.81 26.43 26.28 25.20 24.53 23.67 22.39 21.19
37.96 39.23 36.98 37.57 38.43 37.95 39.82 40.79 42.21 42.34 41.21 40.96 40.85 40.22 39.85 37.56 37.53 36.33 36.18 35.62 35.78 35.24 33.30 32.63 30.77 28.58 27.06 27.79 28.21 27.68 27.82 27.93 26.89 25.16 24.72 24.91 24.48 26.56 24.88 24.70 24.47 23.13 21.43 21.23
36.60 38.29 37.15 35.74 36.90 38.12 39.15 39.87 40.72 40.55 41.19 40.79 40.84 40.65 39.36 38.53 37.45 37.27 36.37 35.41 34.91 34.00 32.55 31.82 29.90 28.54 26.89 26.90 26.65 26.77 27.01 26.72 24.90 24.13 23.73 23.41 24.04 23.54 22.90 23.28 23.04 23.22 23.45 25.28
37.54 37.09 36.34 36.57 40.28 39.44 38.99 40.63 41.59 41.10 40.32 41.14 40.42 38.96 39.35 39.68 38.33 37.73 36.27 35.86 34.91 33.48 32.89 31.40 29.21 27.48 26.25 25.82 25.69 26.21 26.74 25.79 24.25 23.28 23.17 22.85 23.16 22.42 22.12 21.24 22.45 28.54 30.13 30.98

GFSCGP_sfc_wetblb_024.txt.gz
Wetbulb
40.72 35.51 33.24 35.73 37.85 38.19 36.36 34.26 33.86 37.32 42.56 41.21 42.21 42.90 45.54 48.55 48.47 46.78 46.16 45.61 44.91 46.83 48.03 49.74 51.50 53.11 54.94 55.63 56.48 56.80 57.88 55.18 54.54 52.89 50.77 48.39 46.63 48.15 46.54 46.24 44.50 43.73 43.15 42.67
37.73 34.29 37.45 38.60 38.51 38.53 37.47 34.80 34.11 37.62 40.99 41.21 41.41 41.21 45.02 47.51 48.26 49.23 49.60 47.56 44.88 46.00 47.22 49.27 51.48 52.99 54.88 54.80 55.46 55.90 56.93 54.80 54.00 52.44 49.98 48.57 46.83 46.91 44.83 42.80 41.59 41.38 41.14 41.16
33.27 35.36 39.56 38.22 36.83 35.69 36.53 35.30 34.63 35.05 38.66 40.03 38.69 36.91 41.36 46.06 47.90 49.14 50.19 49.77 46.45 47.93 47.49 47.94 50.17 50.91 51.35 51.91 52.71 53.19 52.97 52.43 51.84 50.81 49.49 47.87 46.88 44.83 42.49 40.77 39.45 39.23 39.77 39.88
36.50 39.32 37.36 36.53 35.05 36.72 32.01 38.76 38.45 37.13 34.91 28.96 39.41 30.14 37.54 41.89 44.90 46.67 48.76 46.74 46.61 48.04 47.76 47.84 49.01 48.56 49.61 49.46 50.65 51.06 51.60 50.96 50.71 50.52 48.51 47.00 44.83 42.59 41.85 40.43 38.49 37.76 38.28 38.21
33.61 35.09 35.53 33.94 35.27 38.55 34.00 39.29 36.69 36.68 34.67 34.00 33.48 31.94 34.93 41.50 41.37 44.88 47.43 47.93 46.92 47.79 48.21 48.52 49.13 49.29 48.59 48.46 48.25 48.60 49.43 49.40 48.69 48.10 47.15 45.51 42.57 41.81 40.71 38.79 36.85 36.11 36.25 37.05
36.04 40.62 38.90 36.90 38.61 39.14 39.54 36.45 36.03 33.97 32.80 27.43 30.73 32.80 32.61 38.24 41.79 44.75 47.38 44.96 46.15 47.23 47.48 47.68 48.02 47.77 45.64 44.95 44.97 45.42 46.70 45.35 45.72 45.51 43.63 42.67 40.80 38.57 37.66 36.17 35.64 35.38 35.24 35.41
35.18 36.11 39.11 41.03 36.03 38.38 37.00 32.90 24.69 23.88 23.15 21.89 32.16 30.70 33.50 40.29 43.63 45.52 46.72 43.96 45.28 47.14 46.54 46.87 46.49 45.69 44.46 43.72 43.03 43.68 44.04 41.53 42.04 41.58 40.51 39.05 37.59 36.62 35.55 34.88 34.38 33.94 33.61 33.39
29.06 26.26 35.02 39.14 36.67 34.17 34.12 32.78 24.31 15.96 18.88 22.02 35.47 29.85 35.07 43.50 45.66 46.85 46.44 46.32 45.99 45.86 47.03 47.03 46.36 45.20 43.88 43.23 41.76 41.70 41.45 39.45 39.62 38.95 37.00 36.21 36.10 35.69 34.94 34.32 33.69 33.14 32.83 32.67
28.70 28.33 37.39 38.30 39.23 37.67 33.45 30.48 34.28 26.43 29.72 27.40 31.39 35.06 41.00 44.21 41.09 42.49 43.41 44.33 44.53 45.86 46.42 46.03 45.58 44.70 43.59 42.08 41.03 40.63 39.68 38.02 37.79 36.97 36.09 34.72 34.69 34.57 33.69 33.07 32.99 32.47 32.46 34.81
31.07 23.36 34.00 36.70 39.16 39.05 36.19 37.06 28.18 29.37 19.25 19.80 30.58 30.89 34.68 39.53 40.24 40.54 42.01 43.02 44.53 45.86 45.91 45.67 45.37 44.11 42.88 41.58 39.70 38.88 38.93 37.59 36.05 35.15 34.84 34.34 33.45 33.21 32.62 32.31 31.63 31.69 31.58 31.76
34.46 29.84 30.91 35.10 33.05 31.94 33.99 31.72 33.42 31.39 29.86 23.62 24.16 31.39 41.75 41.72 42.79 40.83 42.65 43.81 44.47 45.08 45.47 45.60 45.02 44.01 42.04 40.67 39.53 38.01 37.38 36.13 34.85 34.38 33.45 32.89 32.60 32.40 31.86 31.43 31.13 31.22 31.03 30.87
36.71 33.86 27.38 29.46 37.32 38.72 36.71 33.84 34.12 27.54 26.30 32.66 31.00 31.18 40.38 40.60 43.10 44.07 43.66 44.17 44.94 45.70 45.80 45.62 44.80 42.65 40.91 39.67 38.34 37.38 36.03 35.34 34.30 33.80 33.11 32.54 32.20 31.62 30.88 30.69 30.87 31.06 30.20 30.51
37.99 32.93 26.73 28.76 33.99 36.79 34.30 36.22 36.54 37.26 35.95 29.41 30.15 31.45 40.70 39.36 40.55 43.27 42.56 43.29 44.48 44.68 45.01 44.89 43.43 42.12 40.41 38.90 37.32 36.45 35.40 34.35 33.83 33.72 32.60 31.81 31.12 30.65 30.03 30.19 30.69 30.85 30.25 29.77
40.63 35.68 31.04 27.93 33.75 38.09 34.27 35.92 37.61 36.57 31.37 30.18 30.35 35.11 35.97 37.84 39.08 40.78 42.11 43.53 43.89 44.59 44.91 43.92 42.88 41.65 40.06 38.57 37.24 35.73 34.02 34.27 33.50 33.06 31.81 30.83 30.38 30.09 30.02 30.41 30.47 30.51 30.19 29.59
38.51 33.31 35.41 35.41 35.37 36.21 38.53 37.03 37.76 32.35 35.72 31.95 36.54 37.83 38.49 39.75 39.71 41.81 43.29 43.55 43.53 43.73 43.89 43.37 42.35 41.13 38.98 37.55 36.20 35.38 34.02 33.55 33.12 32.06 31.26 30.59 30.45 30.43 30.42 30.32 30.08 30.19 29.37 29.35
39.71 32.27 32.69 31.99 36.56 37.04 36.54 39.23 38.78 36.28 35.33 35.01 36.74 40.29 42.47 39.92 39.79 40.60 42.04 43.44 43.48 43.78 43.91 43.53 42.65 40.94 38.94 37.74 35.98 34.96 33.09 32.58 32.92 31.47 30.82 30.98 30.66 30.44 30.17 29.95 28.86 28.45 28.39 27.86
37.25 34.39 33.64 33.47 39.05 38.09 35.80 39.55 34.60 35.25 39.26 37.50 38.18 40.57 39.25 40.13 40.98 40.70 41.82 44.38 44.11 44.22 44.08 43.16 42.25 41.67 40.40 37.40 35.88 33.47 32.51 32.31 31.44 30.82 30.69 30.81 30.60 30.01 29.61 28.99 28.39 27.62 26.35 26.17
36.09 35.39 37.24 34.20 36.88 26.09 36.47 41.19 44.54 41.99 42.77 42.49 42.48 41.04 40.41 40.44 38.94 39.85 40.56 43.82 44.17 45.01 44.56 43.53 42.78 41.30 38.72 36.47 34.89 32.56 32.24 31.34 30.70 30.09 30.28 30.52 30.13 29.45 28.71 27.69 26.52 25.73 25.78 25.53
40.21 37.13 34.93 32.80 30.44 33.29 35.57 37.61 37.56 39.20 39.13 39.34 42.15 40.22 39.78 40.09 39.96 39.20 40.58 42.06 43.03 43.86 44.64 43.96 42.56 38.79 35.98 34.21 33.34 32.14 30.72 30.06 29.92 29.43 29.74 29.86 29.29 28.15 27.03 25.99 25.10 24.87 24.92 24.39
40.83 41.17 36.80 29.87 26.72 26.99 34.14 38.37 39.02 38.49 32.20 38.78 39.03 39.78 39.59 39.85 36.87 37.57 38.79 40.11 40.50 41.03 40.98 38.86 37.25 35.67 33.59 32.65 32.73 31.23 29.25 28.78 28.58 29.42 29.45 28.70 28.19 27.27 25.97 24.81 24.84 24.54 23.85 23.55
37.36 35.63 33.06 30.93 31.85 32.52 38.56 38.97 39.26 30.27 32.81 38.64 39.03 40.08 40.02 37.94 37.86 38.60 37.07 35.88 36.98 36.75 35.42 35.66 35.13 33.07 31.61 31.70 31.59 29.12 27.90 28.07 28.88 28.60 28.25 28.10 27.47 26.03 25.24 24.55 23.84 23.76 22.99 22.63
36.05 35.22 34.14 33.09 28.62 25.60 39.14 38.80 33.88 37.31 38.68 38.47 37.74 37.99 37.52 38.20 37.93 36.86 36.58 35.74 35.23 33.75 33.62 33.73 31.95 30.46 29.98 30.77 30.38 27.87 26.94 26.99 27.70 27.94 27.55 26.58 25.16 26.81 27.29 24.70 24.32 23.98 21.88 20.49
33.50 37.72 35.32 35.88 34.42 39.37 39.23 38.95 40.52 40.67 39.66 38.56 37.48 38.78 38.88 37.70 36.88 36.77 35.07 34.25 33.19 32.94 32.28 32.81 31.43 29.30 27.94 27.87 28.61 26.03 25.45 27.10 26.96 26.03 24.90 24.73 25.00 24.79 24.53 24.30 23.56 22.60 21.06 20.06
36.23 38.75 37.38 37.67 37.77 37.94 39.10 40.49 41.00 41.00 39.76 38.86 39.21 39.37 39.13 36.36 36.29 34.70 34.42 33.17 32.21 31.94 30.86 30.84 29.60 27.58 25.64 26.19 26.84 26.13 26.43 26.73 25.58 24.06 23.15 23.08 23.26 25.12 22.93 22.89 23.56 22.16 20.40 19.93
37.64 37.67 36.60 36.11 36.24 37.52 38.72 39.26 39.70 39.28 39.60 38.88 38.66 38.67 37.42 36.48 35.23 34.98 33.87 32.92 31.77 30.74 30.15 29.75 28.31 26.81 25.06 25.54 25.43 25.69 25.90 25.47 23.66 22.74 23.11 22.69 23.21 22.29 21.82 22.11 21.57 22.47 22.47 24.09
36.73 37.43 36.63 36.04 40.11 39.18 38.28 39.72 40.39 39.91 39.08 39.11 38.20 37.31 37.49 37.51 35.99 35.29 34.07 33.72 32.11 30.52 29.81 28.60 26.79 25.54 24.46 24.63 24.41 24.84 25.21 24.08 23.13 23.06 22.83 22.15 22.34 21.31 21.07 20.42 20.68 27.27 29.19 30.17

GFSCGP_sfc_wetblb_027.txt.gz
Wetbulb
39.60 34.16 32.32 35.35 36.77 36.53 35.69 33.15 31.64 36.05 40.66 38.06 37.71 39.09 42.31 45.35 45.68 47.16 45.84 46.69 48.49 46.19 47.37 49.08 49.82 50.40 52.79 53.52 54.36 53.11 55.99 53.53 54.14 52.16 50.26 48.70 48.03 46.67 45.82 45.55 45.11 44.14 42.18 41.42
36.32 33.24 36.09 37.42 36.76 36.33 35.72 33.95 33.59 36.15 39.49 37.53 36.70 36.49 40.10 42.07 43.19 46.40 46.96 47.86 49.10 45.17 46.30 48.34 49.35 51.35 53.78 54.11 54.86 55.41 53.29 52.44 52.99 51.75 48.28 46.95 45.31 43.98 44.03 43.32 42.20 40.39 39.90 39.76
33.06 34.21 39.30 37.21 35.05 34.01 33.97 32.82 33.57 33.85 36.92 37.89 35.86 33.98 36.46 40.93 44.16 46.50 48.36 49.30 49.52 47.37 46.20 46.90 48.65 51.49 52.34 53.04 53.69 54.19 52.48 51.36 50.38 48.73 47.61 45.76 45.30 43.86 42.38 40.88 38.08 37.97 38.47 38.42
36.03 38.70 36.52 34.90 33.62 34.94 30.56 36.63 36.73 35.73 33.89 27.63 34.76 25.04 32.99 36.61 39.91 43.66 46.16 48.02 48.35 45.11 46.90 48.19 49.26 50.16 51.21 51.89 52.11 51.39 51.00 49.56 48.87 49.03 47.25 46.66 44.36 41.51 41.11 37.83 36.06 36.18 36.97 36.75
33.30 34.73 34.43 32.90 34.82 37.54 33.94 38.58 36.66 35.90 32.07 29.80 31.02 27.44 29.39 36.90 37.17 41.12 43.23 46.69 46.75 45.79 47.08 47.35 50.14 51.11 50.61 49.78 49.68 49.14 48.96 48.55 47.54 46.81 46.62 44.94 42.31 41.06 37.95 36.09 34.70 34.62 35.02 35.76
35.05 39.24 37.65 36.23 38.18 38.42 39.24 36.52 35.99 34.91 31.61 24.34 28.41 28.09 28.09 31.92 36.22 40.69 43.48 45.03 45.97 46.53 47.13 47.96 48.33 48.29 46.69 46.60 47.20 47.85 48.06 46.18 45.81 45.24 43.90 43.59 40.89 38.32 36.56 34.61 34.13 33.81 33.92 34.18
35.76 36.00 37.73 39.59 35.12 38.06 37.00 33.07 24.81 23.24 23.54 20.54 29.00 27.23 30.25 35.31 38.64 41.57 43.29 44.73 45.13 44.82 46.14 46.89 47.02 46.37 45.16 45.35 45.10 45.99 46.65 43.39 42.96 42.22 41.10 40.49 38.76 37.92 35.78 34.54 33.69 33.00 32.68 32.40
29.06 27.88 35.14 38.46 36.02 33.48 33.14 32.60 25.78 17.75 17.71 19.00 30.61 25.28 30.84 38.40 41.72 42.96 43.98 45.19 43.84 44.71 46.39 47.74 47.71 46.45 45.15 44.33 44.17 44.20 43.64 40.83 40.21 39.20 37.08 36.15 36.06 35.71 34.43 33.82 33.07 32.36 32.00 31.83
28.52 25.29 36.10 37.90 38.79 37.81 33.67 30.02 34.57 27.64 26.95 24.47 27.42 30.55 36.64 39.14 41.33 41.51 42.26 42.88 42.46 44.10 46.23 47.28 45.78 44.46 43.65 42.38 41.64 41.88 40.42 38.48 37.68 36.24 35.64 34.10 34.10 33.98 33.10 32.15 32.05 31.67 31.59 33.34
32.05 23.73 32.87 35.88 39.02 38.71 35.47 36.17 28.46 29.47 18.67 15.39 21.15 25.34 31.40 34.25 37.82 40.56 39.52 41.79 42.51 44.48 46.06 45.74 44.61 42.99 41.98 40.33 38.80 38.71 39.25 37.55 35.67 34.74 34.62 33.54 32.53 32.38 31.90 31.61 30.93 30.87 30.74 30.88
35.68 30.24 26.91 34.64 33.04 31.17 33.26 31.35 31.82 30.64 26.09 16.43 18.52 22.97 34.38 38.44 41.37 40.48 40.02 41.23 43.05 44.46 44.82 44.10 43.39 42.16 40.40 38.93 38.06 36.52 36.22 35.40 34.29 34.10 33.00 32.32 31.54 31.33 30.96 30.55 30.33 30.34 30.23 30.13
36.67 32.33 26.14 29.05 36.44 38.09 36.05 32.74 32.94 25.85 22.41 25.70 25.41 26.65 38.73 37.98 39.63 41.44 41.25 43.62 44.62 45.42 44.42 43.69 41.99 40.28 39.53 37.91 36.56 35.39 34.67 34.30 33.38 32.95 32.33 31.37 31.04 30.62 30.07 29.86 29.91 30.17 29.46 29.68
37.14 32.26 25.96 28.48 32.42 35.88 33.28 34.54 35.19 34.06 32.54 25.06 21.79 25.71 38.53 39.92 39.80 41.28 42.33 43.96 44.74 44.10 43.34 42.26 40.77 39.84 38.29 36.84 35.54 34.63 33.83 32.89 32.60 32.67 31.69 30.57 30.08 29.79 29.27 29.31 29.68 29.83 29.35 28.85
40.08 34.93 30.92 25.59 31.15 33.64 31.37 33.35 35.07 33.62 28.02 28.31 28.31 30.97 35.92 38.27 39.86 41.34 42.64 44.28 44.61 43.77 43.41 42.09 40.65 39.14 37.28 36.32 35.37 33.98 32.37 32.94 32.31 31.92 30.78 29.83 29.49 29.29 29.22 29.41 29.40 29.47 28.95 28.23
38.11 32.23 34.21 34.15 34.30 34.68 34.29 35.04 34.26 31.78 33.24 30.07 32.86 32.41 35.98 39.51 42.69 42.51 42.92 42.88 42.94 43.14 42.75 41.92 40.30 38.18 36.31 34.85 34.24 33.65 32.54 32.39 32.17 31.27 30.39 29.64 29.46 29.53 29.50 29.19 28.90 28.81 28.35 27.61
39.20 32.13 32.25 30.81 34.67 35.08 34.26 35.80 36.12 34.86 34.59 35.51 35.96 35.04 41.79 42.10 41.33 40.82 41.88 42.65 42.64 42.86 42.85 42.33 40.90 38.43 36.06 35.15 34.25 33.55 32.15 31.71 32.16 30.73 29.89 29.97 29.73 29.60 29.13 28.53 28.00 27.55 27.03 26.83
36.25 33.57 32.56 29.26 37.25 35.49 31.43 34.80 36.44 37.05 38.38 37.16 32.82 37.18 40.98 40.69 40.62 41.37 41.89 43.19 42.92 43.26 42.90 42.08 40.70 39.16 37.38 35.67 34.31 32.42 32.14 31.64 30.85 30.28 29.85 29.90 29.64 29.25 28.58 28.35 27.48 26.74 25.31 24.85
36.83 34.47 34.54 31.97 35.18 28.21 37.38 41.86 40.55 38.33 38.54 38.57 38.80 39.81 41.75 42.47 39.76 41.45 42.28 43.20 43.11 43.68 43.20 42.42 41.15 39.13 36.54 34.96 33.60 31.95 31.90 31.02 30.38 29.34 29.37 29.62 29.77 28.55 28.29 26.88 25.53 24.19 24.32 24.74
41.06 37.16 34.36 33.26 31.13 34.18 34.89 38.74 37.90 36.71 37.24 39.97 38.37 41.68 40.98 40.11 40.06 39.80 40.96 42.36 42.14 43.69 43.51 42.42 41.35 37.94 35.14 33.65 32.62 31.71 30.16 29.68 29.51 28.64 28.91 29.08 28.38 27.53 26.20 24.77 23.74 24.45 23.86 23.42
41.56 40.49 35.88 33.48 28.34 26.07 32.83 36.68 38.50 40.69 32.20 39.75 43.04 42.36 39.96 39.84 37.61 39.51 38.63 40.58 41.33 42.27 41.54 38.80 36.45 35.20 33.22 31.99 32.38 30.99 29.05 28.51 28.04 28.68 28.41 28.05 27.61 25.96 24.55 24.00 24.00 23.68 23.02 22.56
34.58 36.98 34.29 32.58 31.55 31.79 37.70 39.54 38.40 30.04 31.93 37.83 39.24 39.92 39.32 38.55 37.21 36.07 36.27 35.25 36.95 37.83 35.80 35.44 35.09 33.27 31.37 31.68 31.72 28.98 27.90 27.54 28.20 28.10 27.81 26.90 25.88 24.76 24.13 23.60 23.51 22.90 21.56 21.25
34.13 34.13 33.33 31.45 27.95 24.32 37.98 38.23 33.71 36.04 37.73 37.54 37.17 37.78 36.73 35.95 35.48 34.98 34.60 33.76 34.09 33.15 32.52 32.45 30.81 29.42 29.91 31.16 30.69 27.66 26.97 26.90 27.41 27.07 26.10 24.77 23.72 26.17 26.57 24.19 23.34 23.02 20.70 19.60
32.64 36.56 33.52 33.92 32.77 38.53 38.50 38.14 39.79 39.66 38.67 36.67 36.27 37.91 37.38 35.88 34.67 33.90 32.01 31.61 31.34 31.44 30.97 31.12 29.92 28.36 27.37 28.06 30.01 27.02 24.90 26.12 25.68 24.70 23.56 22.93 23.99 24.08 23.90 23.59 22.59 21.63 20.06 19.21
34.82 37.93 36.25 36.63 36.14 36.80 38.19 39.25 39.82 39.72 37.76 37.63 38.13 38.30 38.29 34.91 33.90 31.81 31.79 31.39 30.93 30.93 29.91 30.27 29.39 27.57 25.25 25.80 26.08 25.76 25.44 25.57 24.41 22.21 21.96 22.63 23.28 22.60 21.84 22.27 23.04 21.60 19.91 19.58
37.18 37.33 36.22 35.56 36.88 37.54 37.85 39.01 39.26 38.37 38.64 38.14 37.80 37.93 36.87 35.95 34.37 33.11 31.30 30.46 29.75 29.46 29.30 29.52 28.07 26.37 24.15 24.80 24.40 24.60 24.74 24.30 22.65 22.16 22.59 22.15 22.26 21.40 21.02 21.35 20.52 22.14 22.30 23.34
36.20 37.06 36.16 35.90 40.23 39.47 38.32 39.68 39.31 38.78 38.18 37.91 36.99 36.02 36.58 36.49 34.17 33.36 31.33 30.77 29.72 28.27 27.85 26.70 25.34 24.84 23.31 23.68 23.22 23.62 24.05 23.59 22.96 22.45 22.30 22.58 21.61 20.24 20.48 19.85 20.58 26.77 28.65 29.73

GFSCGP_sfc_wetblb_030.txt.gz
Wetbulb
39.07 34.49 33.55 36.50 37.24 37.98 36.16 34.06 34.40 36.25 39.30 36.60 36.14 36.85 39.40 41.93 42.76 43.26 44.85 46.35 45.75 47.08 49.99 48.21 48.79 49.20 50.26 51.66 52.09 54.24 56.39 54.19 54.26 52.45 50.82 50.07 46.97 46.24 45.78 45.43 45.11 44.37 43.42 41.42
35.33 32.43 35.66 37.01 36.29 35.49 35.63 34.17 33.32 35.65 38.03 36.77 35.58 35.12 38.68 40.39 41.16 43.23 44.43 45.81 46.54 47.35 45.87 47.15 47.98 48.78 51.85 52.34 52.48 53.82 53.08 53.20 53.81 53.16 47.82 46.95 45.73 43.67 43.82 43.08 42.36 42.28 41.35 39.32
31.51 33.06 38.58 36.70 34.18 32.72 32.21 30.81 30.92 30.99 34.80 36.48 34.29 32.27 34.87 39.00 41.01 42.39 43.51 44.85 47.01 47.43 47.52 45.90 46.60 49.08 51.42 52.05 52.88 53.11 51.45 50.83 49.86 48.03 46.33 43.62 42.96 42.81 41.48 40.74 40.17 39.60 38.41 37.53
34.52 38.11 36.27 34.22 32.89 33.71 30.00 35.24 34.87 33.46 31.56 25.75 32.89 23.77 29.81 34.31 36.72 38.25 40.46 42.70 45.81 47.60 45.89 46.58 46.57 49.07 50.96 51.83 52.58 51.58 50.48 48.78 47.92 48.04 46.80 45.77 44.70 42.10 41.54 39.78 38.62 37.58 35.96 35.75
32.95 33.82 33.96 33.23 33.71 35.39 32.19 36.85 34.65 34.44 31.84 29.71 29.72 27.77 27.09 32.58 32.63 35.37 38.27 40.98 44.11 47.28 46.86 46.25 47.07 50.21 50.91 51.17 50.61 49.29 47.98 47.45 46.24 46.73 47.23 45.19 42.20 40.83 39.19 37.77 36.22 33.59 33.77 34.55
35.97 38.74 37.45 34.91 37.06 37.10 38.59 35.87 35.32 35.37 32.47 25.28 29.07 26.71 26.95 29.91 32.85 34.66 39.04 40.42 44.67 46.33 44.42 46.44 47.76 49.85 49.30 48.95 48.17 47.60 47.35 45.17 44.92 45.05 44.73 44.68 40.96 38.69 36.86 35.71 33.48 32.58 32.75 32.94
35.21 36.57 38.75 39.35 34.02 37.30 36.73 33.58 25.03 23.52 23.73 20.79 27.95 26.32 29.44 33.24 35.42 37.42 38.46 40.61 42.85 44.19 43.83 45.18 47.03 48.65 47.40 47.60 47.07 47.11 46.74 43.73 44.20 45.71 44.23 42.52 40.30 39.08 35.58 34.05 33.04 32.11 31.68 31.21
29.16 22.92 35.33 38.44 34.83 31.64 33.10 32.52 25.75 18.50 18.28 17.74 27.77 22.67 28.60 35.64 39.06 40.46 41.17 41.86 41.68 42.51 43.09 45.84 47.82 48.99 48.19 47.80 46.94 47.15 45.58 42.34 43.23 42.36 39.17 37.72 37.62 36.55 34.97 33.67 32.58 31.66 31.15 30.74
28.61 25.93 34.82 37.25 37.78 36.38 33.70 29.83 34.22 28.56 28.54 24.43 24.78 28.07 34.12 37.43 36.23 39.32 38.69 39.69 40.03 40.96 43.50 45.72 47.78 48.31 47.09 46.52 46.02 45.35 42.84 40.14 39.13 37.38 36.77 35.27 35.15 34.48 32.91 31.48 31.41 31.00 30.70 32.02
33.10 26.16 31.83 35.12 37.44 37.92 35.69 36.53 28.06 28.93 19.96 18.43 20.59 21.58 25.10 30.97 34.28 37.13 37.28 38.41 39.95 41.62 43.74 45.72 46.90 45.63 45.09 43.85 41.70 41.50 41.04 38.75 36.45 35.41 35.35 34.09 32.52 32.26 31.44 31.32 30.20 29.94 29.88 29.95
35.78 31.37 26.98 34.29 32.15 30.82 33.50 31.57 32.70 30.32 27.39 16.16 16.81 21.20 29.63 31.90 34.50 36.47 40.21 40.12 39.10 41.94 44.52 45.26 44.14 42.64 40.40 39.82 40.17 37.89 36.85 36.09 34.66 34.04 32.96 32.35 31.38 30.83 30.32 30.07 29.44 29.33 29.31 29.41
35.81 33.45 27.07 28.93 36.20 37.65 35.76 32.42 32.03 24.72 22.08 24.79 20.55 23.92 36.08 35.04 37.58 40.22 41.10 40.72 40.29 43.03 43.96 42.77 40.36 39.37 39.26 37.46 37.20 36.16 35.54 34.60 33.47 32.84 32.03 30.98 30.58 30.01 29.49 28.90 28.85 29.26 28.57 28.92
35.67 31.69 23.97 26.15 31.68 35.12 32.29 33.90 34.24 32.95 31.45 24.43 19.19 24.02 35.78 36.57 37.29 40.08 40.70 40.97 42.24 41.81 40.88 39.30 39.06 38.55 36.70 35.71 34.98 34.35 34.01 32.74 32.32 32.22 31.20 30.12 29.26 29.03 28.23 28.26 28.67 28.87 28.45 28.12
39.64 34.04 29.19 24.99 30.01 32.78 31.10 32.18 34.11 32.43 27.21 26.45 26.89 28.11 33.24 36.42 38.18 38.68 39.57 41.95 42.22 41.92 41.19 39.83 38.72 36.96 35.78 35.05 33.72 32.76 32.05 32.47 31.75 31.36 30.47 29.26 28.50 28.21 28.12 28.32 28.38 28.50 28.08 27.59
37.82 32.18 33.42 33.66 34.14 34.15 33.42 33.81 33.04 30.73 31.49 28.17 30.71 30.34 33.78 37.20 38.81 39.05 41.09 42.65 43.30 42.82 41.16 39.66 37.21 35.64 34.46 33.32 32.62 32.15 31.67 31.67 31.60 30.65 29.93 28.65 28.34 28.47 28.36 28.09 27.92 27.97 27.95 27.81
39.46 32.04 32.47 30.72 34.41 34.27 32.06 34.27 34.99 34.01 33.41 32.98 33.17 32.85 40.46 40.55 41.75 41.13 39.51 42.31 43.71 43.04 41.69 39.94 37.69 35.69 34.11 33.12 32.30 32.17 31.20 30.76 31.55 30.42 29.09 29.01 28.82 28.46 27.89 27.51 27.33 27.39 27.24 26.42
35.85 33.33 32.27 28.60 33.84 34.02 31.88 34.28 34.92 35.36 36.65 35.03 30.88 35.56 40.61 40.12 41.81 41.93 41.64 43.59 44.23 43.29 42.02 39.82 37.65 36.20 34.72 33.62 32.82 31.29 30.95 30.80 30.45 29.68 29.10 28.97 28.61 27.89 27.50 27.38 27.46 26.60 25.87 24.84
36.03 34.90 33.44 30.27 33.52 28.01 36.98 42.25 40.49 37.28 38.32 37.91 38.33 39.74 41.07 41.47 42.73 41.00 42.21 42.76 42.60 43.27 42.37 40.23 38.17 35.89 34.28 33.24 32.33 31.11 31.26 30.51 29.84 28.94 28.59 28.53 28.24 27.25 27.23 26.76 25.88 25.26 24.21 23.16
40.23 37.73 33.09 32.00 30.84 34.54 36.44 39.36 36.45 35.12 35.29 40.22 39.35 40.26 40.83 40.35 39.11 38.18 40.64 42.46 42.88 43.71 42.89 40.76 38.71 35.68 33.90 32.56 32.04 31.25 29.96 29.41 29.13 27.97 27.83 27.77 27.39 26.75 26.27 25.71 24.88 22.90 22.74 22.21
39.82 39.34 35.73 32.68 29.26 27.35 34.18 37.75 40.70 40.18 33.36 39.56 39.86 40.18 39.90 40.26 37.44 37.81 39.44 41.60 42.82 42.38 41.03 37.90 35.62 34.37 32.47 31.52 32.03 30.75 28.85 28.47 27.65 27.58 27.35 27.40 27.40 26.27 25.06 23.67 22.97 22.41 21.75 21.63
35.60 36.49 33.68 33.36 31.36 31.57 37.69 39.02 38.50 30.29 31.80 38.64 41.21 40.94 41.13 39.09 39.91 37.59 37.99 36.93 38.75 38.74 36.44 35.44 34.77 33.11 30.95 31.48 31.68 28.99 28.27 27.30 27.41 27.76 27.22 26.59 25.68 24.16 23.20 22.59 22.04 21.44 20.64 20.43
33.49 33.96 33.02 33.08 30.53 23.98 38.09 37.11 32.48 35.67 37.30 37.87 37.21 37.91 38.62 35.97 35.62 35.13 34.57 34.51 34.99 34.00 33.06 32.61 30.96 29.68 30.24 31.36 30.63 28.10 26.75 26.08 26.94 26.50 25.28 23.76 23.48 26.20 25.47 23.13 22.44 21.97 19.85 19.00
31.40 35.20 32.47 33.75 32.32 37.63 38.10 38.09 39.33 39.15 37.85 35.69 35.59 36.86 36.30 34.27 32.84 32.27 31.34 31.19 30.91 30.84 30.20 30.57 29.26 28.08 27.67 28.75 30.27 26.60 24.01 26.08 25.13 23.63 22.65 22.65 23.23 23.03 23.42 23.03 21.93 20.90 19.35 18.78
33.97 37.07 35.36 35.89 36.16 36.72 38.09 38.99 38.21 38.17 36.78 37.25 37.56 36.80 35.70 31.99 31.09 29.92 30.20 30.06 29.73 29.71 29.00 29.66 29.10 27.39 25.41 26.22 26.47 25.46 25.33 25.13 23.83 21.69 21.53 22.30 22.57 21.59 21.09 21.69 22.81 21.14 19.63 19.32
36.22 37.04 36.01 35.26 37.34 36.68 37.83 37.04 36.84 36.88 37.44 37.10 37.06 36.50 34.22 33.19 31.62 30.85 29.47 28.98 29.06 29.24 29.62 29.84 28.06 25.89 24.07 25.31 24.51 24.45 24.03 23.76 22.50 21.53 21.93 21.52 21.46 20.46 20.25 20.63 20.05 21.54 21.61 22.23
35.85 37.35 35.62 35.28 39.42 38.26 37.19 38.37 38.31 37.40 36.75 36.92 36.20 35.10 35.07 34.31 31.76 31.15 29.54 29.77 29.14 27.89 27.70 26.24 25.36 24.47 23.42 23.69 22.67 22.60 23.29 23.20 22.06 21.58 22.00 22.36 20.46 19.39 19.92 19.46 19.96 26.56 28.19 29.41

GFSCGP_sfc_wetblb_033.txt.gz
Wetbulb
40.35 36.64 33.91 37.06 37.77 37.36 35.94 34.85 33.96 37.90 40.91 37.98 37.66 37.75 40.25 43.24 43.64 43.20 44.31 45.50 46.98 48.46 51.82 53.35 53.52 53.94 53.39 54.06 55.53 56.72 60.18 61.87 60.28 58.15 56.61 54.77 52.45 52.51 49.07 47.84 46.59 45.56 45.08 43.42
36.55 33.05 37.18 38.35 38.36 37.14 36.86 34.61 33.81 36.91 39.25 37.50 36.23 35.23 39.19 41.00 41.79 43.35 43.91 44.79 46.26 48.32 50.05 51.56 51.85 52.39 52.98 54.81 55.40 56.96 59.81 58.57 59.01 59.21 56.20 53.88 52.04 48.99 47.57 45.50 44.04 43.68 42.57 41.73
32.76 34.97 38.64 37.05 34.73 33.47 33.38 32.36 32.47 32.16 35.57 36.86 34.71 32.43 36.06 39.82 41.42 42.66 43.99 45.23 46.20 47.33 48.61 50.91 50.95 51.54 53.13 54.12 55.04 56.33 56.85 56.59 55.91 51.55 49.58 47.19 46.82 46.08 44.85 42.63 41.50 41.10 40.86 40.32
35.08 38.13 36.37 34.81 33.36 34.42 30.08 35.26 34.74 33.27 31.64 26.67 34.60 24.58 33.50 37.22 38.53 40.29 41.57 42.72 44.12 45.63 47.51 49.94 50.86 50.80 52.21 54.68 55.70 55.83 54.79 53.55 51.99 51.64 50.67 49.93 50.15 47.58 45.46 40.85 39.79 39.29 39.76 39.39
32.51 34.86 34.39 33.59 34.36 35.73 32.80 36.85 34.67 34.23 31.99 30.68 30.66 27.37 31.92 34.92 34.17 37.23 39.93 41.10 42.48 45.51 47.18 48.82 50.43 51.42 52.86 54.47 55.38 54.42 53.20 52.03 50.89 51.65 51.74 51.72 49.90 44.89 40.39 39.26 37.56 37.26 37.42 39.06
34.95 39.11 37.54 35.73 37.41 37.30 38.20 35.17 35.30 35.06 32.47 25.90 30.16 28.78 29.59 33.59 35.26 36.75 40.41 41.62 42.59 45.11 46.89 49.32 50.21 51.19 52.24 53.99 53.78 52.32 51.43 49.61 49.61 50.39 49.88 48.38 45.50 39.56 37.71 37.38 36.14 37.36 36.98 37.65
36.01 36.67 39.27 39.01 34.47 36.77 36.28 33.81 25.28 23.94 24.49 22.71 29.81 28.31 30.70 36.04 39.08 38.95 38.82 40.58 42.22 44.25 45.92 47.06 48.00 49.88 51.11 52.36 51.70 50.58 49.96 47.49 47.94 48.21 47.65 45.50 42.99 40.63 38.52 37.56 36.22 35.56 36.23 36.21
28.28 24.37 35.32 38.93 35.93 32.87 33.37 32.37 25.86 18.79 19.54 21.70 27.81 24.76 30.62 37.24 40.50 41.32 41.62 41.62 43.22 43.69 46.05 46.31 48.05 50.15 51.22 51.90 50.57 50.44 48.70 46.42 47.22 46.78 44.83 43.48 41.20 39.97 38.29 37.43 36.89 37.26 36.56 35.84
29.50 26.98 35.18 37.07 37.89 36.96 33.58 30.28 34.33 28.18 28.65 25.48 27.25 29.48 34.30 36.93 36.89 38.55 39.57 41.09 41.54 42.84 44.01 46.25 48.11 50.05 50.85 51.07 50.33 49.44 47.43 46.01 45.53 43.41 41.43 39.79 39.03 38.20 37.26 37.28 37.17 36.43 35.66 35.06
32.86 24.59 31.36 35.09 37.95 38.31 35.58 36.44 28.40 29.06 20.04 18.70 23.96 24.57 27.05 31.55 35.54 37.98 37.75 40.96 42.34 42.83 42.91 45.57 48.00 49.59 50.46 50.71 48.82 47.75 46.18 44.07 42.69 40.78 39.66 38.01 37.33 37.60 36.61 36.39 35.32 35.28 35.06 34.91
35.96 31.43 27.92 34.83 32.11 30.57 33.22 31.11 32.97 31.40 29.04 21.90 19.86 24.87 32.60 33.85 35.38 36.03 40.06 41.56 42.63 43.27 42.99 45.45 47.94 48.08 47.17 45.81 45.56 43.62 41.82 40.42 39.12 38.06 36.56 36.77 35.85 35.52 35.61 34.79 34.56 34.45 34.49 34.58
35.61 33.08 26.86 27.65 34.33 36.62 35.23 33.16 32.69 26.83 24.67 27.27 25.02 25.46 36.85 35.62 37.54 39.70 38.82 42.60 43.57 43.83 44.17 45.69 43.98 42.35 43.21 42.43 41.80 41.39 40.61 38.56 36.80 36.43 36.33 35.09 34.49 34.37 33.99 33.61 33.64 34.19 33.70 34.04
35.28 31.20 24.73 23.98 30.71 34.22 32.19 33.81 34.19 33.56 31.73 26.38 23.11 25.69 37.12 36.41 36.64 38.71 40.48 43.13 43.33 42.37 40.67 39.91 40.59 41.28 40.89 40.09 39.23 39.58 37.68 35.72 34.90 34.98 34.57 33.88 33.38 33.35 32.97 32.88 33.09 33.37 33.05 32.81
39.20 32.93 27.49 23.45 28.86 33.80 30.27 31.84 33.66 32.04 27.22 27.27 27.14 28.94 34.10 36.20 36.58 38.98 41.04 42.95 43.03 41.39 39.55 39.81 39.28 38.58 38.43 38.03 37.55 36.47 34.87 34.97 33.99 34.21 34.00 33.04 32.76 32.70 32.65 32.57 32.53 32.51 32.52 32.00
37.16 32.02 32.15 32.50 33.49 33.80 32.87 32.57 32.88 30.62 31.38 27.44 30.42 30.23 33.55 36.49 37.84 40.21 42.12 42.84 42.40 40.90 39.47 38.94 37.29 36.79 36.18 35.41 35.56 35.09 34.01 33.56 34.01 33.51 33.18 32.06 32.02 32.23 31.99 31.76 31.75 31.57 31.89 31.46
38.48 32.43 33.22 31.15 34.64 34.72 31.98 34.28 34.37 32.99 33.17 32.44 32.92 32.00 38.60 39.73 41.29 41.48 43.08 42.42 42.73 41.87 40.03 38.02 36.58 35.99 35.26 34.69 34.23 34.09 33.42 33.46 34.23 33.10 31.66 31.69 31.67 31.52 31.09 30.99 30.74 30.90 30.65 30.51
37.05 33.93 32.24 28.78 34.79 34.00 31.71 35.49 36.77 35.54 35.51 34.12 30.71 34.96 39.09 39.06 40.44 41.61 42.38 43.17 44.07 44.36 39.96 37.61 36.47 35.81 34.69 34.51 34.44 33.32 33.19 33.51 32.93 31.88 31.52 31.38 31.23 30.55 30.37 30.25 30.25 29.91 29.60 29.58
36.26 34.35 33.61 29.78 33.07 27.39 37.68 42.32 39.88 37.86 37.40 37.65 37.48 38.74 39.83 40.60 42.30 43.14 42.36 42.93 45.30 43.43 40.14 38.32 37.17 35.31 34.54 34.52 33.87 32.97 33.20 32.74 31.94 31.29 30.93 31.04 30.64 29.63 29.59 29.63 29.32 29.01 29.04 28.48
38.67 36.47 32.89 30.93 30.69 33.79 36.30 37.35 37.94 37.27 36.77 39.82 38.41 39.74 41.05 42.43 40.76 39.67 41.53 43.61 44.50 43.31 41.04 39.31 37.75 35.36 34.46 33.67 33.49 32.61 31.98 31.79 31.36 30.60 30.45 30.18 30.03 29.05 29.02 28.63 28.51 28.16 28.08 27.40
39.71 39.40 35.59 32.46 28.96 26.46 34.34 38.54 40.52 40.02 33.12 40.52 41.13 40.35 40.46 41.30 38.01 38.56 38.68 42.56 42.55 41.79 39.86 37.11 36.06 35.13 33.77 33.20 33.52 32.37 31.09 31.28 30.28 30.04 29.46 29.73 29.62 29.07 28.42 28.35 27.56 26.92 26.66 26.44
35.21 35.30 32.20 32.50 32.11 31.47 37.09 38.33 39.14 30.35 33.58 39.43 41.50 41.43 41.09 41.04 38.86 37.96 38.48 38.27 40.32 39.35 37.12 36.31 35.64 34.24 32.71 33.28 33.26 31.24 31.03 29.57 29.32 29.44 29.30 28.86 28.51 27.78 27.79 27.09 26.75 25.90 25.57 25.34
33.96 33.35 34.12 33.72 30.46 26.03 37.69 37.78 34.04 36.69 37.72 38.81 38.72 41.52 41.93 37.46 35.41 34.98 35.09 35.32 35.93 34.71 33.89 33.43 32.17 31.42 32.40 33.26 32.55 30.30 27.94 28.43 29.10 28.65 27.40 26.85 27.66 28.50 27.59 26.89 26.24 25.31 24.70 24.34
31.17 35.15 33.71 33.68 32.94 38.05 38.48 38.77 39.10 38.60 37.46 36.84 37.24 37.74 38.18 35.53 33.41 32.92 31.75 31.49 31.97 31.77 31.30 31.90 30.65 29.71 30.36 31.93 31.58 27.58 26.90 28.36 27.37 26.55 25.80 25.96 26.43 26.50 26.91 26.46 25.72 25.46 24.22 23.76
33.66 36.50 35.57 36.58 37.86 38.19 38.62 38.54 37.64 37.67 36.78 36.44 36.57 35.77 35.16 31.88 31.63 30.45 30.57 30.42 30.28 30.56 29.94 30.55 29.82 28.24 26.87 28.46 28.67 28.01 27.54 27.29 26.38 25.22 25.20 25.54 25.47 24.80 24.84 25.47 25.84 24.98 24.11 23.79
35.96 36.51 36.10 35.52 37.84 37.80 37.58 37.45 37.22 36.96 36.99 35.68 34.85 33.98 32.53 32.14 30.46 30.01 29.06 29.17 29.58 29.67 29.90 29.88 28.13 26.52 25.81 26.93 26.22 26.63 26.26 26.57 25.12 24.77 24.94 24.73 24.42 24.25 24.16 24.41 24.55 25.48 25.57 25.87
35.80 36.96 35.71 35.66 39.34 38.48 37.43 38.45 38.37 37.43 36.26 35.89 34.52 33.26 33.45 32.71 30.75 30.46 29.12 29.30 28.79 27.82 27.91 26.74 26.18 25.53 25.02 25.27 24.68 24.84 25.63 26.16 25.31 24.63 24.76 24.48 23.88 23.45 23.67 23.39 23.69 26.85 28.20 28.82

GFSCGP_sfc_wetblb_036.txt.gz
Wetbulb
44.66 40.22 37.05 40.11 41.58 41.98 39.66 38.55 38.05 41.41 43.86 41.64 40.91 41.42 43.88 46.68 47.28 47.03 48.16 49.46 50.55 52.07 54.72 56.31 57.71 59.15 60.03 60.22 60.47 60.81 61.13 62.55 64.89 65.63 66.16 66.77 65.41 62.45 61.45 59.51 57.17 52.87 50.93 48.17
39.91 35.93 41.46 42.23 41.85 40.03 39.09 37.28 37.40 40.69 42.56 41.02 39.87 38.92 42.40 43.72 44.43 45.96 46.60 47.52 48.45 49.69 51.73 53.71 55.75 57.67 58.87 59.22 60.21 60.76 61.45 63.25 64.79 65.50 64.89 64.34 62.19 57.25 54.91 53.10 51.68 51.87 48.80 45.16
37.78 38.67 40.93 39.92 38.84 37.47 37.81 36.44 36.90 36.53 39.70 40.48 38.38 36.88 41.39 44.13 45.42 46.07 46.69 47.46 48.27 48.67 49.29 50.84 53.23 55.89 58.09 58.54 59.75 60.29 61.84 63.58 64.34 64.20 63.49 59.10 54.24 49.86 48.30 47.23 47.30 47.39 45.98 43.56
38.85 42.02 38.44 37.98 36.71 38.19 33.92 39.31 37.66 35.95 34.57 31.31 37.97 30.13 38.99 42.61 43.41 44.56 45.97 47.17 47.94 49.03 50.06 50.61 51.68 53.73 56.34 58.31 60.43 60.69 61.94 62.68 63.26 61.70 58.25 56.51 56.61 52.10 51.29 49.16 46.71 43.57 43.07 42.08
36.33 37.37 37.36 35.79 36.94 39.35 35.48 39.27 37.43 36.96 34.94 33.26 34.31 28.78 36.63 40.95 40.09 42.43 45.44 47.28 48.35 49.24 49.75 50.16 51.43 52.60 55.19 58.21 59.86 60.32 61.20 61.50 60.23 59.23 59.74 59.31 57.82 54.54 50.33 47.10 43.30 40.48 41.21 42.42
39.04 41.98 40.14 39.61 40.56 40.48 40.18 37.26 36.46 36.43 33.77 27.07 33.49 31.51 33.96 38.95 41.29 43.20 44.79 46.01 47.43 48.24 49.42 50.57 52.04 53.25 54.02 57.46 59.41 59.87 59.43 59.05 58.66 59.50 59.30 60.12 55.98 49.79 46.01 42.65 39.09 38.62 40.59 43.03
37.15 37.83 40.97 41.34 36.68 39.80 38.11 33.74 28.09 26.10 25.39 26.18 35.42 32.93 35.05 40.86 42.57 43.56 44.42 45.96 47.38 48.22 48.86 49.91 51.69 52.63 54.06 55.63 58.10 58.58 58.24 57.13 57.58 58.03 58.68 57.77 52.36 49.52 47.22 42.91 38.77 40.77 39.69 41.90
31.72 30.46 37.73 40.66 37.48 34.95 34.57 33.90 29.16 22.13 25.80 28.98 33.25 28.39 35.30 42.82 44.45 45.33 45.98 46.20 46.71 48.11 49.71 49.56 51.89 53.51 54.45 55.41 57.47 57.72 57.21 55.77 56.34 56.78 56.28 53.37 49.06 46.56 41.80 40.85 39.33 41.08 40.63 40.70
31.92 30.16 37.88 40.34 40.49 39.35 34.52 31.01 37.12 29.88 31.29 26.91 30.67 35.38 40.29 42.34 42.35 43.14 43.86 45.15 45.97 47.58 48.65 49.91 50.58 52.79 54.73 55.80 57.10 57.17 56.54 55.17 55.11 55.02 52.14 46.98 44.84 41.72 42.61 38.88 40.47 39.88 41.31 40.66
35.86 30.33 35.78 37.72 40.02 40.05 37.58 38.99 29.46 30.77 21.77 21.56 29.42 31.39 32.82 38.00 39.39 41.98 42.61 43.73 45.86 47.28 48.85 50.54 50.36 51.94 54.43 56.17 57.05 57.27 56.12 54.12 53.74 52.20 50.21 45.27 41.61 40.16 38.99 39.94 38.63 39.85 40.57 40.36
38.06 33.34 31.82 35.09 33.10 33.67 33.66 32.04 33.58 33.30 31.21 24.87 24.80 31.13 38.98 38.95 40.51 41.27 42.01 44.09 45.76 47.40 48.96 50.25 50.64 52.40 54.49 55.82 55.95 54.77 53.51 51.88 50.27 49.10 46.52 42.85 39.52 38.75 40.24 39.99 40.67 40.97 40.36 40.05
38.55 34.28 28.78 31.96 38.42 39.97 38.50 35.41 34.47 28.36 26.74 29.35 28.53 28.96 40.69 41.81 42.27 42.44 42.69 44.08 46.63 48.34 49.03 49.90 50.39 52.22 53.09 53.14 52.96 52.06 50.42 48.97 47.29 45.19 43.11 40.09 38.50 38.98 40.22 40.49 40.34 40.16 39.41 39.52
38.87 32.92 28.08 31.67 34.51 36.87 33.76 35.70 35.84 35.41 33.37 28.70 25.73 28.48 39.89 41.06 40.62 42.57 42.78 44.36 46.00 48.17 47.62 47.01 47.68 48.91 50.40 50.52 50.19 49.32 47.36 44.21 43.05 42.24 39.07 37.34 37.78 39.74 40.05 39.13 39.10 39.19 38.72 38.24
41.30 35.22 31.68 28.70 33.48 36.50 32.24 33.76 34.96 32.76 28.54 29.73 30.04 32.26 37.14 38.37 39.95 42.34 43.61 44.86 47.00 48.17 45.58 45.96 46.63 47.72 48.73 48.98 47.42 44.60 40.78 38.90 38.68 37.43 37.16 37.07 39.36 39.61 38.75 38.45 38.07 38.10 38.08 37.47
38.31 32.27 34.61 34.92 35.68 35.69 34.35 33.79 34.36 31.76 32.44 28.69 32.55 32.80 36.85 39.30 40.44 42.72 44.46 45.71 46.23 46.38 44.22 44.37 44.71 45.72 45.66 42.93 40.30 37.88 36.95 36.60 36.83 36.00 36.47 36.97 38.80 38.21 37.66 37.03 37.22 37.08 37.19 36.86
39.37 32.80 34.48 31.88 35.61 35.43 33.15 36.04 36.03 35.23 34.74 33.06 33.55 33.28 41.09 43.15 44.00 43.32 43.85 44.83 45.38 44.83 44.24 43.43 43.41 43.39 40.58 38.06 36.50 35.77 35.19 35.26 36.03 35.31 35.17 36.65 36.94 36.57 36.32 36.42 36.26 36.24 35.87 35.44
37.14 34.37 32.39 30.46 34.81 35.13 34.15 36.99 37.42 37.52 37.36 35.69 32.00 37.37 41.74 41.05 41.22 42.40 43.73 44.41 45.08 45.18 43.55 42.38 42.09 39.67 38.22 36.64 36.29 34.75 34.83 36.11 35.62 34.98 36.05 36.37 36.22 35.31 35.56 35.56 35.60 35.21 34.98 35.06
37.07 34.84 34.19 31.40 33.39 28.55 39.31 42.75 41.28 38.10 39.06 38.79 38.72 40.26 41.42 41.37 42.97 44.92 44.58 43.80 44.77 45.54 43.25 42.83 39.42 37.35 37.15 37.13 36.26 35.76 36.51 36.21 36.54 36.23 35.84 35.72 35.46 34.50 34.66 34.96 34.72 34.46 34.70 34.07
41.18 36.75 33.33 30.84 30.59 34.80 38.97 40.64 38.04 36.76 37.24 41.05 39.40 40.65 41.74 43.36 44.24 42.13 42.80 46.08 47.64 45.69 43.82 42.46 38.80 37.71 38.42 37.98 37.96 38.15 37.86 37.11 36.21 35.56 34.84 34.87 34.61 33.83 34.02 34.01 34.24 34.01 33.58 33.09
39.24 38.42 34.47 33.41 28.89 28.22 38.51 41.90 42.31 42.28 35.34 40.71 42.28 40.99 41.69 43.35 41.93 41.18 42.91 44.69 42.18 43.52 42.57 40.63 39.68 39.77 39.19 38.52 39.01 37.58 36.38 36.14 34.19 33.92 34.11 34.68 34.80 34.51 34.32 33.99 33.15 32.68 33.02 32.43
35.75 35.25 31.85 32.85 31.18 35.74 42.35 43.71 42.73 34.31 34.51 41.18 41.83 42.84 42.89 42.72 40.10 40.21 43.05 43.32 42.18 40.53 40.26 40.21 39.71 38.40 37.35 37.77 37.52 35.25 35.25 33.73 34.10 34.21 34.29 34.02 34.35 33.47 33.43 33.04 32.87 32.27 32.07 31.81
35.65 34.21 34.45 34.99 32.74 30.50 42.68 45.04 39.27 42.19 43.47 42.58 42.51 42.69 42.85 39.92 38.06 38.43 38.39 37.99 38.43 38.28 37.83 36.69 34.61 34.28 35.63 36.73 36.52 35.29 33.12 33.18 33.29 33.01 32.11 31.44 32.28 32.33 32.78 32.41 31.77 31.34 31.57 31.04
35.87 39.84 38.72 38.30 38.90 43.92 44.35 44.32 44.80 43.01 41.73 41.83 41.20 42.31 41.20 38.13 36.88 35.75 36.71 36.81 36.32 35.08 35.92 37.21 36.15 35.61 36.70 36.90 35.14 31.21 30.88 31.86 31.61 30.87 30.58 32.14 32.29 32.04 32.19 32.00 31.39 31.66 30.87 29.94
41.08 42.32 40.67 40.68 44.27 44.14 43.93 43.91 42.09 41.68 40.49 39.88 40.68 40.90 40.89 36.67 36.25 34.94 34.83 34.81 34.67 35.16 35.00 35.75 34.97 33.91 33.42 33.09 31.40 30.40 30.72 31.12 31.11 31.30 31.20 31.56 31.24 30.78 31.02 31.32 31.14 30.66 29.99 29.16
43.17 41.81 41.21 41.29 44.38 45.30 42.66 42.40 41.54 39.82 39.38 38.36 38.42 38.55 37.79 36.83 35.25 34.65 33.14 32.68 32.80 33.28 34.15 34.68 33.30 32.27 31.52 31.51 30.19 30.33 30.70 32.33 31.61 31.47 31.25 31.18 30.94 30.64 30.28 30.22 30.24 30.12 30.51 29.41
42.66 42.63 40.75 41.11 44.29 43.63 42.58 41.67 41.29 40.00 37.90 37.62 36.83 35.72 36.84 36.60 34.28 34.19 32.50 32.60 32.10 31.49 32.19 31.53 31.10 30.85 30.69 30.68 29.92 30.94 32.20 32.48 31.56 30.40 30.54 30.50 30.30 30.04 30.01 29.52 29.34 28.00 27.81 28.30

GFSCGP_sfc_wetblb_039.txt.gz
Wetbulb
46.29 41.35 38.64 42.45 44.01 44.23 42.91 40.44 40.16 43.78 46.30 43.86 42.99 43.17 45.49 48.18 48.66 48.46 49.50 50.53 51.38 52.60 55.56 56.76 57.91 59.02 59.46 60.18 60.91 61.63 61.76 62.65 63.02 64.36 65.43 67.20 67.55 67.11 66.59 66.58 66.43 63.01 59.81 56.11
40.68 37.67 43.70 44.87 43.82 42.04 41.08 39.39 39.34 42.67 44.59 42.75 41.65 40.90 44.45 45.96 46.53 47.65 47.71 48.35 49.44 50.66 52.27 54.14 55.98 57.17 57.99 59.00 60.54 60.99 61.65 62.32 63.12 65.21 66.50 67.59 64.44 61.72 61.54 62.18 61.53 58.74 56.28 53.39
39.24 41.08 42.93 42.41 40.52 38.82 39.47 37.94 38.41 38.36 41.73 42.55 40.41 38.83 43.03 46.50 47.47 48.10 48.36 48.66 48.89 49.40 50.00 51.56 52.89 55.14 57.87 58.15 59.84 61.00 61.63 62.80 64.04 65.55 66.69 66.36 58.58 54.42 51.66 53.11 53.17 53.43 51.84 49.97
41.27 44.19 40.08 39.84 38.56 40.01 35.57 41.54 39.77 38.02 36.39 33.09 40.11 31.75 40.11 43.72 45.12 46.87 47.36 48.15 48.71 49.35 50.20 51.01 51.80 53.06 54.81 57.72 60.71 61.41 62.16 62.88 64.61 66.07 64.94 63.36 57.48 53.52 51.24 50.06 50.82 49.94 48.95 47.99
38.50 38.96 39.20 37.35 38.60 41.04 37.25 40.74 38.60 38.14 35.70 34.20 35.73 32.11 37.79 43.16 41.78 43.95 46.59 47.88 49.31 50.48 50.74 50.79 51.82 53.22 54.59 56.62 59.87 61.93 62.09 63.02 64.51 64.78 64.37 61.28 57.53 57.23 51.49 47.49 46.85 45.29 45.03 45.38
41.04 43.69 41.88 41.16 41.74 41.87 41.35 38.30 36.86 36.23 33.65 27.58 34.36 34.60 35.45 39.78 41.79 44.01 46.58 47.72 48.10 48.98 49.91 50.61 51.98 52.88 54.02 56.19 59.28 61.75 61.53 62.35 63.69 63.89 61.28 59.77 60.26 53.67 47.71 44.94 43.50 43.24 45.28 45.40
37.94 38.49 41.46 42.48 38.04 40.54 38.89 34.10 29.75 27.56 26.05 26.39 37.29 34.74 36.51 42.15 44.16 44.51 45.09 46.79 48.21 48.62 49.06 49.33 50.07 51.56 53.00 54.86 56.43 60.17 60.53 60.93 61.95 60.85 61.01 60.50 60.01 53.03 48.85 45.41 43.34 42.56 42.05 43.34
31.35 31.89 38.86 41.20 38.24 36.49 35.70 34.81 29.92 23.94 27.50 31.13 37.53 30.59 36.78 44.21 45.31 45.70 46.35 47.08 47.73 48.05 48.68 49.94 51.01 52.23 54.07 54.92 56.14 58.70 59.61 59.87 59.89 60.11 60.34 61.80 56.19 53.31 50.07 46.91 45.85 43.73 42.87 41.71
32.77 31.67 40.33 41.30 41.94 39.79 35.28 30.99 37.72 30.42 31.90 27.58 31.82 36.87 41.76 43.90 44.00 44.83 45.25 45.92 46.06 47.32 48.67 49.50 50.98 52.28 52.48 54.95 56.07 58.24 59.15 59.27 58.82 59.45 60.59 57.49 54.07 51.73 48.99 47.24 44.61 42.68 43.65 42.24
37.27 31.33 37.83 40.04 41.29 41.21 38.29 40.32 29.69 31.42 22.80 23.65 31.58 34.08 35.54 40.10 41.80 43.40 44.02 44.65 46.11 47.93 48.40 49.83 51.13 52.66 52.54 55.10 56.85 58.67 58.87 57.89 58.13 58.93 57.33 54.29 50.01 45.34 42.48 42.63 40.72 41.13 40.50 41.56
39.17 35.20 33.43 36.98 34.72 34.83 35.04 32.99 34.25 34.88 32.03 26.62 26.32 32.59 40.02 38.90 40.93 41.78 43.16 44.88 45.82 46.78 48.58 49.91 51.26 53.14 53.18 55.16 57.18 57.86 58.10 56.72 56.82 55.17 50.82 48.01 44.82 42.62 41.09 39.81 39.76 39.59 40.77 40.11
39.70 35.53 30.03 33.68 39.70 40.97 39.48 35.24 34.45 28.04 28.59 30.95 30.01 30.36 42.08 41.84 42.39 42.78 43.15 45.43 46.09 47.08 48.09 50.42 51.00 52.64 53.42 55.37 56.98 57.01 56.32 55.45 54.55 51.29 47.12 43.66 41.98 40.85 40.61 39.76 39.94 41.83 39.79 41.55
39.64 33.37 28.35 31.64 35.71 39.28 35.38 36.98 37.28 36.24 34.27 29.59 26.83 30.74 41.47 42.88 42.16 42.67 42.12 44.21 45.88 46.87 48.03 50.11 49.91 51.09 53.37 54.99 55.26 54.73 53.79 52.26 50.44 47.66 43.80 41.42 40.68 40.36 39.54 39.17 40.93 40.35 40.21 39.52
42.54 36.03 32.46 29.98 34.44 37.44 34.11 35.92 37.03 34.00 29.79 30.80 31.45 33.64 38.78 40.45 41.06 41.26 42.74 44.38 45.75 47.01 48.57 48.73 48.64 49.80 51.76 52.90 52.73 51.63 50.17 48.26 46.74 44.48 42.17 40.22 39.46 39.34 39.29 39.36 40.29 40.07 39.35 38.47
39.60 32.67 35.03 35.94 37.12 37.23 36.37 35.62 36.55 33.53 33.84 29.71 32.71 33.03 38.16 40.45 41.74 42.64 44.35 44.93 45.33 46.46 47.97 47.61 47.29 48.83 50.00 50.44 49.80 46.84 45.15 45.06 43.80 41.90 40.41 39.35 38.95 38.73 38.51 39.33 39.16 38.80 38.66 37.92
39.40 32.75 35.42 31.39 36.21 36.87 35.13 37.38 37.69 37.36 36.87 35.55 35.71 34.54 41.77 43.60 43.93 42.59 44.05 44.53 45.03 46.34 47.02 46.43 46.28 47.61 47.27 44.57 42.74 40.87 40.11 39.15 38.81 38.62 37.76 37.58 37.83 37.53 38.52 37.39 37.59 37.44 36.71 36.46
37.26 34.45 31.85 29.75 36.22 35.92 33.76 38.15 38.42 38.44 39.25 38.11 32.90 38.52 42.71 41.51 42.08 42.45 42.81 43.99 44.76 45.56 45.75 44.26 44.63 44.62 40.87 38.58 37.78 36.86 37.05 37.01 36.47 35.46 36.37 36.02 36.67 36.46 36.96 36.80 36.74 35.96 35.92 36.07
36.93 34.70 33.47 31.94 34.14 29.15 39.90 44.19 42.93 38.72 39.87 40.64 40.22 41.55 42.25 41.66 43.11 43.06 43.33 43.97 44.29 46.12 43.62 43.74 42.17 39.87 37.51 36.77 36.10 36.20 36.83 36.47 35.30 34.94 34.98 35.35 35.38 35.12 36.24 36.04 35.83 35.62 35.65 35.15
41.14 36.88 33.67 29.95 30.19 35.61 40.14 41.98 40.14 37.83 37.51 41.36 40.31 42.23 43.05 44.93 45.08 40.96 44.13 45.11 45.95 44.66 44.35 41.47 39.63 37.07 35.76 35.44 36.54 36.42 35.63 35.41 35.02 34.22 34.32 35.22 35.67 35.64 35.56 34.90 34.80 34.87 34.42 33.93
40.80 40.15 35.10 32.90 28.98 27.95 39.94 44.11 44.29 43.43 35.95 42.05 41.30 42.09 43.72 44.43 39.33 37.97 42.94 41.87 43.48 41.29 38.77 36.98 37.31 36.55 36.25 36.56 37.26 36.56 35.61 35.74 34.71 36.21 36.44 36.48 36.25 35.53 34.90 34.68 33.73 33.97 34.00 32.97
34.74 35.15 31.58 31.80 30.45 35.71 43.94 44.88 44.85 35.42 36.66 43.57 42.16 42.43 44.26 40.35 40.28 41.87 42.26 39.73 40.89 39.11 37.96 38.67 38.37 36.90 37.23 38.07 38.31 37.06 37.11 35.76 36.11 36.13 35.75 35.39 35.37 34.45 34.14 33.69 33.57 33.33 32.75 32.39
36.21 34.54 33.42 33.87 32.07 30.58 45.40 45.98 40.46 43.83 45.33 44.74 43.23 42.72 39.85 40.20 39.66 39.42 39.24 38.71 38.56 39.17 39.91 40.34 39.28 38.92 39.66 39.79 38.25 35.26 33.18 34.13 34.21 33.58 33.26 33.27 33.44 33.72 33.85 33.27 32.83 32.43 32.04 31.73
36.54 40.54 38.46 38.95 39.21 47.32 48.56 46.56 47.30 45.11 43.61 43.87 43.06 43.45 41.54 38.68 37.96 38.40 36.64 35.39 35.65 35.73 35.46 35.87 35.38 35.63 36.86 36.75 34.85 32.01 32.35 32.98 32.26 31.79 32.04 32.64 32.96 32.95 33.34 32.75 32.13 31.79 31.45 30.68
43.21 45.39 41.13 41.69 45.21 46.70 48.02 48.11 45.35 43.80 42.15 42.25 43.17 43.92 43.45 39.06 38.09 37.47 37.39 37.61 37.06 37.37 36.83 37.11 36.27 34.24 32.29 32.40 31.84 30.87 31.09 31.91 32.17 31.97 31.94 32.08 31.53 31.49 31.84 31.67 31.47 31.01 30.54 29.51
44.00 44.23 43.03 42.96 45.73 47.04 45.18 44.48 43.58 41.79 41.32 40.61 41.46 42.25 40.78 38.67 37.21 36.93 35.97 35.84 36.30 36.71 37.14 37.18 34.99 32.16 30.44 30.53 30.03 31.07 32.07 33.19 32.14 31.83 31.68 31.59 31.54 31.46 30.86 30.79 30.42 29.93 30.77 28.89
45.36 43.25 41.43 41.11 45.61 45.10 44.03 44.01 43.30 41.32 39.15 39.72 39.43 38.83 39.68 38.93 36.98 36.64 35.08 35.15 35.14 34.87 35.00 33.48 31.94 30.09 29.83 30.29 30.64 32.47 34.11 33.79 32.35 30.97 31.36 31.39 31.01 30.79 30.40 29.83 29.70 29.54 28.43 28.28

GFSCGP_sfc_wetblb_042.txt.gz
Wetbulb
46.91 41.72 37.97 40.98 43.38 43.11 42.33 38.64 37.11 40.20 44.42 41.03 39.88 40.81 43.02 45.52 45.55 45.48 46.36 46.82 48.20 49.92 52.02 52.89 53.49 54.05 54.14 54.32 55.43 59.01 57.85 58.25 59.09 57.48 61.15 63.77 64.41 64.92 65.76 65.73 65.36 63.55 58.50 56.53
40.36 36.18 41.98 44.10 43.60 41.42 39.57 36.61 36.19 40.19 43.16 40.34 38.63 38.26 41.77 43.63 44.07 45.07 45.59 46.06 47.07 48.16 49.59 51.23 51.96 52.47 54.03 54.28 54.56 55.11 56.94 57.79 59.06 59.28 59.53 61.53 61.85 61.07 62.70 63.46 62.44 59.19 56.18 53.04
37.26 39.82 44.27 42.13 40.36 38.06 37.32 35.25 35.61 35.62 39.34 39.69 37.40 35.07 38.28 42.85 44.07 44.88 45.96 46.58 46.87 46.66 47.30 49.03 49.93 50.73 51.88 54.15 54.43 55.25 56.29 56.75 58.26 58.99 61.18 57.45 55.32 53.49 52.01 53.85 53.88 53.58 51.16 50.65
39.55 43.35 40.52 39.17 38.48 39.05 33.76 40.05 39.07 37.40 33.71 27.77 36.89 25.81 34.65 39.11 40.36 42.50 42.30 43.27 44.41 45.50 46.94 47.97 48.42 48.03 49.16 52.34 54.63 55.37 55.95 56.77 57.93 60.02 61.00 58.59 58.57 55.95 50.62 51.65 51.49 50.42 50.36 49.65
37.18 38.99 38.51 36.91 38.21 40.46 36.13 40.52 37.78 37.01 33.06 30.91 31.53 26.85 31.23 37.78 37.67 39.98 41.85 42.62 44.27 45.19 45.76 46.17 46.92 48.55 48.99 49.07 50.42 54.70 56.05 56.42 57.55 60.88 62.10 58.89 55.30 50.77 50.30 47.51 46.36 46.81 47.57 47.50
40.02 43.55 41.21 40.06 41.72 41.29 41.36 37.48 36.02 34.42 31.28 23.79 29.98 29.76 28.62 33.89 36.53 39.02 41.27 41.65 45.32 44.29 43.64 44.82 45.64 47.21 47.86 48.87 49.61 52.66 55.06 55.88 58.90 60.49 60.74 57.35 53.92 48.55 46.46 45.45 44.27 43.82 44.70 45.80
36.82 37.77 41.00 42.16 37.84 40.47 38.88 34.01 21.79 23.00 23.49 19.98 33.56 29.93 32.39 38.72 40.68 41.43 40.71 40.10 42.36 43.36 42.60 43.68 44.10 45.41 47.01 47.42 49.16 50.40 55.19 55.05 58.92 59.54 58.46 56.15 54.44 48.52 45.28 44.44 43.25 43.09 43.06 43.49
29.54 29.15 37.55 40.46 37.26 35.08 35.12 34.02 22.64 18.87 20.21 23.43 33.09 26.21 31.24 40.47 42.74 41.84 42.26 41.97 43.21 42.89 42.97 43.02 43.82 46.19 47.17 48.34 48.99 49.70 54.85 55.38 58.32 58.74 56.46 56.22 49.96 47.11 45.30 44.66 43.72 43.45 42.74 42.89
31.53 31.69 40.19 40.74 41.17 39.72 33.91 29.30 34.30 28.23 27.03 19.39 25.93 30.44 36.66 40.87 40.76 41.47 40.57 41.92 41.48 42.36 42.93 42.57 44.59 46.58 47.71 47.82 49.66 49.90 54.35 55.44 57.12 56.79 56.70 52.73 50.08 46.86 44.78 43.16 44.12 43.26 43.08 43.00
37.29 29.79 37.28 39.94 41.24 40.23 37.06 38.19 28.73 26.50 12.46 17.15 25.11 27.72 30.42 34.35 36.77 40.02 39.66 39.35 41.41 42.68 43.28 44.25 46.04 47.26 49.18 50.70 49.76 50.89 54.20 54.89 55.41 56.26 54.41 51.34 48.75 46.11 45.07 43.74 41.85 42.14 41.92 41.61
38.84 33.00 32.19 36.42 33.39 32.45 33.51 32.05 33.43 31.83 29.38 19.23 20.46 25.92 35.14 36.88 37.44 39.29 41.23 42.19 42.04 41.81 42.91 44.05 46.57 47.82 49.27 50.25 49.93 51.49 54.14 55.27 54.89 54.17 51.71 43.33 40.86 41.61 42.28 41.46 41.32 40.65 40.94 40.66
39.05 35.35 28.59 30.85 37.95 39.00 37.47 34.05 32.35 25.49 22.77 26.88 24.30 27.15 41.13 38.61 39.03 39.97 39.72 41.88 42.18 42.03 42.58 43.69 46.24 46.66 47.78 48.55 50.78 51.93 54.77 55.16 49.95 47.56 43.04 40.80 39.46 39.42 39.69 39.63 40.07 40.30 40.29 41.08
38.85 32.68 21.74 29.95 32.87 35.90 31.85 34.97 35.76 34.28 32.45 26.80 24.19 26.32 38.99 39.12 41.77 42.87 39.46 40.31 42.49 44.39 43.66 44.81 45.53 45.68 46.92 50.73 52.77 53.28 53.98 48.61 44.95 41.63 39.47 38.53 38.90 39.62 40.07 39.00 39.93 40.11 39.58 38.85
41.58 35.07 29.15 23.82 28.68 33.34 28.10 33.52 35.07 33.56 28.43 28.04 28.64 30.64 36.01 39.14 40.49 42.23 43.07 43.56 43.59 43.90 44.42 45.47 44.72 45.00 46.22 51.50 51.34 50.32 46.57 44.90 41.05 39.09 38.33 38.59 39.47 39.59 39.09 39.26 39.34 38.50 38.17 37.30
37.19 30.41 33.15 33.95 34.84 34.75 33.40 33.69 35.14 32.82 33.84 30.19 32.80 33.57 37.00 39.79 40.33 41.59 43.27 42.63 42.52 43.66 44.96 45.17 43.96 44.36 48.02 49.02 47.07 45.11 43.73 40.40 38.98 38.36 38.33 38.71 39.07 39.00 38.66 38.16 37.81 37.82 37.61 36.04
38.82 30.42 31.05 27.03 33.85 33.71 31.29 35.02 36.19 35.73 36.67 36.68 37.24 36.17 41.47 42.43 41.70 41.91 42.50 43.00 43.02 43.94 44.86 44.33 44.38 44.90 45.64 43.24 40.88 40.34 39.61 38.32 38.56 37.99 37.06 37.91 37.58 37.35 36.69 36.63 36.29 35.53 35.14 34.24
36.44 32.13 31.10 28.33 34.35 33.67 30.08 36.14 37.64 38.39 39.87 38.65 34.29 38.55 42.22 41.18 41.81 42.11 42.84 43.53 43.71 44.42 44.09 42.92 43.95 40.19 38.63 37.86 38.07 35.63 35.43 37.21 37.10 36.82 36.87 36.86 36.66 36.14 35.71 35.73 35.36 34.20 33.42 32.77
34.98 34.51 32.96 29.45 31.27 23.13 37.57 43.05 41.64 39.22 39.97 41.14 40.59 41.46 42.66 42.81 41.56 41.61 43.10 41.48 43.96 44.59 43.84 43.45 39.55 37.41 36.60 36.90 35.87 36.34 36.20 36.11 35.65 35.77 35.45 35.58 35.03 34.90 34.96 34.54 34.04 32.91 33.72 32.29
40.16 35.99 31.94 29.09 26.74 31.62 36.87 39.75 38.29 35.80 36.50 42.34 40.56 41.30 43.58 44.77 42.70 40.04 40.77 40.43 40.40 41.91 40.45 38.42 36.50 35.67 35.24 35.26 35.77 35.53 35.08 34.71 34.88 34.06 34.07 34.49 34.83 34.30 34.18 33.10 32.55 31.45 31.34 30.29
39.60 38.60 34.51 30.63 25.61 24.81 35.44 40.24 42.89 41.73 33.41 40.68 41.67 41.44 42.56 40.57 37.28 37.11 39.08 38.01 36.41 36.33 35.95 34.86 35.04 35.46 35.30 35.48 35.99 34.92 34.20 34.36 33.92 34.44 34.77 35.33 35.02 33.77 32.35 31.11 30.33 30.40 31.19 30.70
34.41 34.94 31.87 31.28 29.68 31.38 39.71 42.58 43.47 31.98 33.18 40.41 42.15 42.25 39.40 36.63 39.20 40.10 39.26 37.87 37.78 37.18 36.26 36.53 36.56 35.91 36.65 37.70 37.28 35.53 35.14 33.97 34.86 35.18 34.68 33.81 32.81 31.30 31.98 31.26 31.44 30.55 29.88 29.50
33.35 32.95 31.91 31.25 29.59 25.90 42.76 43.26 36.88 39.40 40.83 40.95 42.25 43.02 39.32 38.45 38.25 38.41 37.89 37.67 37.99 37.83 38.16 38.04 37.08 37.53 38.54 38.37 36.20 33.09 32.12 33.14 32.88 32.19 31.54 31.68 32.10 32.95 32.04 29.98 28.92 28.53 27.62 26.40
34.20 37.08 35.69 35.32 34.09 42.50 44.89 42.37 42.29 41.40 39.80 39.44 39.99 42.83 40.82 38.79 37.83 36.13 35.20 34.79 34.09 34.22 34.99 36.21 35.47 34.49 34.54 33.86 32.97 30.53 30.62 31.83 31.70 30.96 30.79 31.18 31.53 31.39 30.58 28.21 27.16 26.42 26.81 25.36
38.59 41.44 37.47 38.70 41.86 43.29 41.96 43.23 41.26 39.70 38.61 39.27 40.84 43.01 41.21 37.54 37.89 36.88 35.61 34.94 34.51 34.89 34.77 34.07 32.45 30.98 30.40 31.62 31.28 30.57 31.11 32.06 31.57 29.83 29.03 28.21 27.31 27.65 27.80 27.96 27.26 25.58 24.65 23.37
39.86 40.23 38.97 38.68 41.38 41.94 41.40 40.69 40.46 39.42 39.49 39.37 39.68 41.05 38.58 37.30 36.17 35.24 34.68 34.47 34.50 34.21 33.50 32.28 30.49 29.03 28.10 29.50 29.66 31.52 32.21 31.75 29.01 28.30 27.51 27.33 27.57 26.68 25.53 25.32 24.53 23.62 24.74 24.95
40.80 39.42 36.98 35.70 41.72 41.20 39.86 40.48 41.29 38.52 38.02 38.60 37.75 37.55 37.73 36.52 34.62 34.24 33.19 34.38 33.98 32.15 31.07 29.69 29.22 28.89 29.42 30.60 31.22 31.86 31.58 29.93 28.38 26.07 25.37 25.77 24.41 24.18 23.87 23.46 23.95 30.03 29.03 28.98

GFSCGP_sfc_wetblb_045.txt.gz
Wetbulb
46.69 39.91 37.23 39.03 40.59 40.24 39.41 37.23 34.05 37.72 42.32 38.35 38.27 38.63 40.35 43.36 42.99 44.16 45.04 43.12 45.53 47.94 50.09 50.06 50.43 50.65 50.08 50.71 51.87 55.09 55.67 62.40 65.27 64.46 65.35 65.57 64.12 64.39 65.20 65.41 64.47 63.03 59.65 57.26
40.64 36.60 41.77 44.07 43.50 41.66 38.66 34.43 33.33 37.73 40.76 37.79 36.70 36.68 40.15 41.68 42.57 43.64 44.48 43.06 44.86 47.17 46.09 47.89 49.02 49.13 50.26 51.63 51.44 51.39 54.63 57.71 61.55 62.92 64.37 63.96 62.61 61.23 63.09 64.71 64.02 61.45 57.27 55.05
35.28 37.92 42.96 40.92 39.18 37.61 34.42 32.03 32.74 33.53 36.80 36.16 34.64 33.13 35.73 39.56 41.53 43.40 44.84 45.36 45.42 45.46 45.81 46.48 46.42 47.36 47.47 49.04 50.48 52.27 52.89 55.09 56.05 56.79 58.25 56.08 56.32 56.16 56.56 58.80 58.15 55.15 53.50 52.31
38.87 41.39 39.99 38.29 37.36 37.42 31.92 37.62 37.01 35.44 31.45 25.30 33.68 23.64 30.29 36.53 37.99 39.72 39.81 41.26 43.81 44.28 44.08 44.66 45.41 45.21 46.03 46.99 49.80 51.61 52.95 53.94 55.45 56.65 58.29 58.62 58.97 59.35 55.65 54.19 50.45 50.73 50.44 50.25
35.30 37.60 37.27 35.44 37.41 39.26 35.15 39.47 36.40 35.07 30.22 27.72 28.12 24.74 28.40 33.93 35.21 37.84 38.50 39.31 40.63 43.14 44.58 45.18 45.47 46.73 47.07 46.12 46.52 49.45 51.36 52.83 54.54 56.96 59.21 59.57 58.89 52.91 51.34 50.99 48.27 49.39 48.95 49.16
37.95 41.38 39.44 37.97 40.23 39.74 40.10 36.39 34.44 32.32 29.01 21.07 27.13 26.71 25.59 31.59 35.41 36.10 37.50 40.25 42.05 42.49 43.10 43.88 44.15 45.07 45.27 45.64 45.67 47.50 50.39 51.57 52.56 56.45 58.95 59.24 53.26 50.37 48.74 47.37 46.28 46.26 47.37 46.54
34.82 36.04 38.94 40.76 36.48 38.25 38.50 30.89 17.66 24.89 23.95 19.02 29.93 27.35 28.47 35.79 39.15 39.60 39.28 40.38 41.46 42.40 41.17 42.14 42.08 43.97 44.00 44.32 45.34 46.76 48.11 50.84 52.95 55.86 58.56 56.34 53.41 51.80 49.98 47.29 46.74 44.13 43.96 44.23
24.38 22.44 35.55 38.56 35.80 33.40 33.28 31.24 20.34 17.84 19.38 21.45 29.66 24.60 29.86 37.91 41.34 40.34 40.62 40.27 40.80 41.39 40.56 42.47 41.86 43.38 44.51 45.85 46.18 46.34 47.12 50.22 54.22 57.36 56.55 53.94 50.92 50.28 48.98 47.74 46.17 45.30 44.51 44.39
27.29 28.44 39.71 39.81 39.71 37.52 32.34 28.75 33.36 27.57 22.87 14.74 22.99 27.17 33.63 37.22 37.71 38.07 38.59 38.96 38.78 40.41 40.55 40.27 43.83 44.88 45.60 46.48 47.31 47.32 46.97 52.00 55.76 56.35 54.05 49.46 48.76 48.04 46.62 45.42 44.68 45.50 44.56 43.85
36.32 29.65 36.52 39.68 41.24 40.45 34.07 35.55 24.62 21.65 9.05 14.73 21.47 23.14 27.94 32.19 35.36 37.99 38.14 38.43 39.79 41.29 40.22 43.14 44.76 45.68 46.50 46.83 47.34 47.78 47.50 52.41 55.12 54.45 50.15 48.05 46.84 45.95 44.42 43.74 42.38 40.93 42.02 42.97
38.46 32.28 32.45 37.68 32.85 31.40 32.97 32.79 32.95 29.67 25.37 17.06 18.77 23.31 32.72 34.04 35.10 35.95 37.11 39.50 41.22 42.61 41.97 41.26 44.21 45.36 46.04 46.54 47.20 47.24 48.25 52.87 53.27 51.12 48.12 46.11 44.75 43.39 42.98 42.29 41.61 42.55 41.89 41.16
38.86 33.83 29.30 29.29 35.88 37.35 35.02 31.68 30.41 19.37 19.67 23.96 20.13 25.11 38.48 37.86 37.21 40.23 41.24 43.03 41.86 40.82 41.53 43.63 44.63 45.14 45.34 45.62 47.17 48.27 50.86 50.90 48.91 45.25 43.41 42.57 41.40 41.16 40.48 40.96 41.47 40.89 40.09 40.30
38.42 32.63 17.65 29.04 30.71 35.83 31.19 33.59 33.71 31.80 30.76 20.18 20.13 25.58 36.44 36.94 39.92 42.28 42.41 43.02 43.92 44.60 42.34 43.12 43.79 44.21 44.73 45.68 49.76 48.98 45.85 42.80 43.08 41.29 41.10 40.41 39.78 39.60 38.99 38.23 40.24 40.32 39.98 39.35
41.47 33.28 25.51 21.75 25.64 31.55 26.75 31.73 32.94 31.43 25.76 26.59 26.41 29.60 34.86 37.86 40.96 42.05 41.87 42.85 43.78 44.02 44.04 43.33 43.35 44.59 45.75 47.64 44.94 43.12 41.17 40.90 39.80 40.41 39.43 39.05 38.60 38.72 38.85 39.45 39.38 39.31 38.90 37.85
36.70 27.29 30.84 32.10 33.41 32.96 31.01 31.41 32.90 30.23 31.55 28.49 30.76 32.65 37.27 40.54 42.02 42.67 42.39 43.58 43.55 43.01 43.74 43.49 42.93 44.53 45.23 43.69 41.69 39.66 39.98 39.89 40.46 40.01 39.06 38.50 39.29 39.80 39.10 38.13 38.04 37.90 37.53 36.51
36.25 25.05 30.42 22.41 31.86 31.93 28.49 33.10 33.65 33.58 33.76 34.37 34.74 34.86 42.49 43.94 44.60 43.04 43.00 43.80 42.64 41.90 43.87 43.10 43.69 41.16 39.46 40.99 40.01 39.14 39.13 39.24 39.29 38.72 37.66 37.56 37.98 37.66 36.89 36.70 36.11 35.68 35.21 34.58
35.97 32.04 21.42 20.83 31.64 31.74 27.81 32.92 33.82 34.99 36.86 36.52 35.06 38.96 43.41 42.27 43.06 40.11 39.94 39.41 40.79 43.75 44.81 42.46 36.67 34.90 35.72 37.40 37.33 37.37 36.70 37.39 36.99 36.46 36.32 36.39 36.17 35.41 35.02 35.22 34.68 34.14 33.73 34.15
34.26 33.29 28.03 22.78 27.25 21.30 34.85 40.32 40.16 37.57 38.89 39.63 40.48 41.56 42.24 42.64 40.80 39.44 37.67 35.19 37.09 43.94 42.15 38.10 36.00 34.84 35.36 35.59 35.72 36.40 36.43 36.07 35.53 35.11 35.07 35.27 35.07 34.61 34.89 34.57 33.76 33.33 33.06 32.00
38.15 33.11 30.54 26.27 24.24 29.99 36.29 37.97 37.29 35.20 34.49 40.73 39.48 41.18 42.37 42.63 42.63 38.64 36.99 35.90 34.57 34.39 34.43 34.29 34.68 34.64 34.85 34.91 35.57 35.09 34.60 34.45 34.35 33.88 34.27 34.56 34.86 34.10 33.97 33.55 33.57 33.18 32.43 31.08
38.67 37.77 33.59 30.87 23.27 23.33 34.52 39.19 41.05 39.86 31.51 39.33 40.03 41.52 41.16 40.20 36.87 36.64 36.87 36.21 34.20 34.40 34.60 34.06 34.66 34.96 34.39 34.51 35.19 34.07 33.60 33.71 33.32 33.82 33.97 34.87 34.74 34.15 33.22 32.71 31.61 30.71 30.79 30.72
33.15 34.81 31.15 30.52 29.28 29.98 36.68 40.10 42.59 30.91 32.29 38.73 40.46 42.49 38.75 37.84 38.10 38.04 37.52 36.18 36.09 35.62 35.57 36.18 36.26 34.92 35.15 36.19 35.87 34.09 34.19 33.29 34.61 35.56 35.88 35.65 35.16 33.82 32.62 31.25 30.46 30.58 29.94 29.12
32.24 31.91 32.33 32.74 28.93 25.30 39.31 40.14 35.87 38.58 39.24 38.87 40.34 41.66 38.38 38.57 37.86 36.73 37.56 37.09 36.55 35.93 36.20 36.82 35.08 34.19 34.82 36.77 36.04 34.47 33.15 34.70 34.29 34.23 33.23 32.00 31.92 32.30 31.39 29.97 29.08 28.06 26.88 24.93
33.08 34.99 33.42 32.57 31.88 38.69 40.57 40.57 39.51 39.55 38.84 37.89 39.29 41.53 40.18 37.19 36.06 34.55 33.43 33.51 36.81 36.29 35.67 35.92 33.96 33.63 33.71 35.22 36.20 33.66 32.65 32.55 31.42 31.09 30.88 30.85 31.30 30.75 28.34 26.34 25.15 24.68 25.29 24.35
39.51 41.69 37.75 36.96 40.28 40.59 40.09 38.61 38.53 38.16 37.00 37.89 41.15 40.52 39.18 38.29 36.52 35.13 33.97 33.66 33.73 33.35 33.29 33.86 32.80 31.78 30.57 31.20 31.24 30.94 31.31 31.80 31.25 30.09 29.51 27.78 26.62 26.40 26.36 26.44 25.66 23.93 22.64 21.13
37.66 39.95 38.01 37.17 39.69 39.30 38.84 38.39 38.15 37.72 38.30 38.27 39.51 40.05 38.21 37.60 35.67 34.83 34.70 34.21 34.19 33.22 32.41 31.64 29.60 28.49 28.48 30.28 30.62 31.43 31.51 31.30 29.28 27.78 26.23 25.95 25.75 24.10 22.75 22.97 22.57 22.99 22.83 23.10
39.55 38.34 36.83 35.96 40.18 39.97 38.71 38.67 39.27 37.20 36.77 38.21 37.31 35.89 36.56 35.60 34.13 33.58 32.66 33.08 32.29 30.53 30.40 29.31 29.09 29.18 29.87 30.69 30.54 30.89 31.25 29.94 27.39 24.91 23.96 23.78 22.64 21.93 21.46 20.95 21.27 30.02 29.66 29.88

GFSCGP_sfc_wetblb_048.txt.gz
Wetbulb
47.74 42.37 39.15 41.80 42.92 40.34 39.60 36.29 33.60 36.64 40.87 37.04 36.14 35.92 38.94 41.90 41.26 42.00 44.16 43.87 43.79 45.38 48.77 48.19 48.46 48.54 48.48 48.97 49.18 51.15 57.96 63.46 64.91 65.24 64.61 63.83 63.20 63.09 63.44 63.19 62.52 61.23 59.59 57.54
42.28 36.78 41.90 44.05 43.15 40.86 38.31 36.72 33.29 36.66 39.42 36.59 35.39 35.31 39.14 40.94 41.43 42.55 43.49 44.66 45.33 45.24 45.68 46.20 48.00 48.37 48.81 49.64 48.77 48.99 52.27 59.24 63.79 65.71 65.84 65.07 64.06 62.20 63.48 63.27 62.61 62.22 59.30 57.77
36.48 38.15 42.92 40.93 39.78 38.45 34.69 31.59 32.10 33.12 35.93 34.68 33.60 33.27 34.75 38.31 39.92 41.51 43.89 44.88 45.21 45.06 45.73 46.72 45.03 46.11 46.75 46.94 48.54 50.15 50.60 53.56 61.53 64.83 62.21 57.73 58.41 57.87 58.25 59.76 60.31 61.58 58.86 57.43
37.63 40.75 40.12 38.59 36.98 36.76 31.16 36.45 36.53 34.59 31.28 25.39 33.05 23.14 29.71 34.97 36.72 38.32 38.04 38.67 41.31 42.85 43.33 45.22 45.25 44.96 45.76 46.56 47.16 48.94 50.41 51.56 54.32 55.79 59.49 61.90 61.06 59.79 59.02 62.02 57.62 54.64 54.23 56.40
35.02 37.26 36.36 35.04 36.71 38.42 34.48 38.46 35.62 33.81 28.97 26.19 27.51 24.81 27.95 32.52 34.09 36.62 37.80 38.83 39.44 40.27 41.48 42.30 43.05 45.02 45.63 44.86 44.62 45.82 48.21 50.04 52.03 53.99 58.36 59.83 60.87 60.95 55.71 53.40 52.54 52.17 52.60 53.14
36.76 40.88 38.93 37.46 39.17 38.95 39.48 34.78 32.82 30.94 26.83 17.18 25.09 25.42 25.73 30.08 33.57 34.24 36.91 38.31 41.07 41.61 40.17 41.81 42.88 43.28 43.63 43.52 43.83 43.51 45.39 47.70 49.77 51.98 55.30 58.60 57.85 53.00 52.99 50.75 50.13 49.47 49.37 50.20
35.90 35.86 38.31 40.24 35.36 37.40 35.51 27.48 16.05 16.21 15.04 18.03 27.80 25.27 27.38 33.83 37.59 37.05 37.95 37.84 38.31 39.50 40.07 41.16 41.24 42.16 42.87 43.29 45.01 45.46 45.74 46.74 48.22 49.69 53.99 55.76 56.36 54.31 53.71 51.40 50.68 47.66 47.04 46.37
27.03 23.55 35.00 37.90 35.24 32.55 31.52 28.43 18.41 15.11 18.91 20.13 27.58 23.17 28.99 34.87 37.36 37.00 37.98 37.51 39.40 39.78 39.11 39.67 40.97 42.40 44.47 45.57 45.75 46.19 46.70 46.59 47.03 48.98 54.12 56.31 55.83 54.60 53.20 52.00 49.60 49.17 47.87 46.06
24.69 27.53 38.70 37.97 38.69 36.63 31.01 22.98 31.13 22.48 20.80 14.88 22.35 25.74 31.56 35.15 36.28 37.41 37.74 39.05 39.10 40.46 41.07 39.78 42.67 43.79 44.67 44.92 45.69 46.19 47.23 47.06 47.35 50.31 54.19 51.20 52.10 51.18 49.94 47.62 47.52 46.15 46.37 45.65
33.38 25.35 37.12 38.77 40.56 39.33 33.35 35.03 22.97 17.69 7.65 14.23 20.37 22.03 26.02 30.96 33.80 34.97 36.48 37.56 39.22 41.18 43.17 42.18 42.97 44.36 45.05 45.27 45.56 46.10 46.81 46.78 47.37 52.62 49.56 49.07 49.04 48.70 47.42 47.05 47.03 45.71 46.26 44.39
35.90 29.04 32.83 37.30 31.84 30.42 32.13 29.81 29.08 26.49 22.89 15.54 17.98 23.02 31.07 31.85 34.09 34.39 36.39 38.82 43.08 43.51 43.46 42.82 40.14 43.67 44.92 44.97 45.28 46.58 47.00 46.67 50.79 48.46 46.48 45.91 45.17 45.70 46.37 46.11 45.17 44.72 44.23 42.39
37.58 31.83 25.79 30.10 34.92 36.14 34.32 31.49 29.81 19.26 18.27 20.99 18.87 23.54 35.93 34.04 35.22 38.16 40.99 42.92 43.07 43.86 42.51 42.41 42.61 44.96 44.59 44.25 45.53 48.75 48.32 49.91 48.66 46.90 45.10 43.96 43.59 44.09 44.02 42.92 43.15 41.96 40.52 42.23
36.76 30.17 20.04 26.96 29.94 33.80 29.27 32.38 32.28 29.31 28.43 16.58 20.57 23.95 35.50 35.69 38.90 40.79 43.23 44.00 41.59 42.53 43.77 42.69 42.30 43.90 44.35 44.39 48.29 45.16 44.12 43.24 42.28 42.16 41.69 41.95 41.61 42.48 41.70 41.75 39.78 39.59 39.62 39.37
40.53 30.27 24.98 21.23 23.94 28.63 23.59 30.61 32.07 28.34 21.89 22.06 23.69 28.50 34.29 36.48 38.74 42.32 44.25 45.24 41.83 44.61 44.98 42.57 43.70 43.98 43.73 45.16 41.59 39.20 39.02 41.69 39.57 41.33 41.27 40.08 39.27 39.49 39.99 40.17 39.73 39.30 38.75 37.79
36.14 27.40 29.43 30.63 31.99 32.04 30.14 29.97 30.67 25.42 30.35 25.54 29.77 31.15 34.91 38.36 41.04 43.11 43.68 43.95 44.25 44.51 44.54 42.61 42.60 41.18 41.83 38.63 37.66 37.28 39.47 40.76 41.76 40.00 39.28 38.19 38.40 39.20 39.04 38.33 38.05 37.68 36.97 36.39
34.75 23.52 30.59 22.06 30.38 30.87 27.19 31.21 31.68 32.00 32.60 33.11 33.59 32.77 40.02 42.37 44.62 41.21 40.61 39.78 39.18 40.21 44.13 43.67 37.44 36.16 36.39 35.67 36.50 37.68 39.46 40.08 41.21 39.78 38.89 38.76 37.76 37.01 36.60 36.28 36.76 36.20 35.23 34.85
35.17 31.45 23.59 20.39 29.86 29.82 25.16 30.99 32.73 32.89 33.72 35.16 31.46 36.82 41.89 41.95 41.77 38.37 36.40 35.54 35.52 38.39 42.90 38.44 35.78 35.08 35.49 36.08 36.04 35.49 37.15 38.00 37.89 37.25 36.83 36.27 35.62 34.83 34.71 35.02 34.69 34.03 33.70 34.58
34.61 31.90 24.40 20.31 25.91 19.34 33.13 39.04 38.32 35.23 36.21 37.52 38.74 41.18 41.47 42.39 40.12 37.46 35.67 33.90 33.73 34.12 34.58 33.23 32.17 32.37 34.42 35.66 35.79 36.16 36.02 35.50 35.09 34.60 34.84 35.43 35.59 35.27 35.49 34.98 34.25 34.33 34.82 34.08
36.72 32.91 24.28 25.33 23.77 28.88 35.91 38.10 36.42 34.82 34.38 38.64 38.11 39.47 42.64 42.27 41.91 37.53 36.29 34.44 33.42 33.41 33.76 33.91 34.56 34.30 34.52 34.56 34.92 34.65 34.30 34.43 34.30 34.05 34.30 34.93 35.25 34.51 34.08 33.07 32.60 32.94 32.50 31.53
38.05 36.80 30.79 30.00 22.69 23.66 33.50 37.22 40.01 38.17 30.34 39.28 38.85 40.42 41.92 40.57 37.89 37.11 35.69 34.52 33.66 34.07 34.40 33.97 34.25 34.35 34.06 34.25 35.00 34.25 33.78 33.83 33.75 34.30 34.56 35.45 34.93 33.33 33.15 33.10 32.30 31.84 31.93 30.95
33.54 34.15 30.37 29.27 27.92 30.41 35.82 37.69 41.32 29.43 32.02 38.25 39.27 41.30 39.53 38.39 38.00 37.62 36.68 35.22 35.60 35.73 35.48 35.69 35.32 34.55 34.82 35.72 35.65 34.08 33.82 33.06 33.97 33.85 34.03 35.08 34.67 33.45 32.68 31.86 31.94 31.29 30.26 28.96
31.10 29.68 30.74 31.31 29.03 23.98 37.44 38.88 35.29 38.47 38.04 38.52 38.88 39.04 39.30 38.28 37.69 37.39 37.09 35.93 35.66 35.56 35.28 35.23 33.82 33.79 35.20 36.78 35.06 33.32 31.84 33.94 33.74 34.01 33.81 32.73 33.18 34.03 32.63 30.57 29.06 27.96 26.11 24.25
30.54 33.14 32.19 33.36 31.69 37.33 38.66 39.74 39.23 38.91 37.85 37.69 38.12 39.50 38.98 37.86 35.31 34.70 35.05 35.71 35.19 35.38 34.91 35.14 34.14 33.05 33.62 35.77 35.24 32.49 33.32 33.73 33.36 32.77 32.15 31.32 31.07 30.14 28.01 26.34 24.39 22.91 23.18 22.52
37.35 39.36 36.38 36.20 38.96 39.18 40.15 38.71 38.16 37.24 36.86 37.78 39.77 39.84 38.19 37.02 35.34 33.66 33.66 34.03 34.99 36.37 35.88 36.04 35.22 31.99 31.48 33.35 34.10 32.98 32.95 32.70 31.34 28.97 27.71 27.31 25.86 25.38 24.91 25.06 24.60 22.55 21.05 19.89
37.74 39.43 37.66 37.15 38.76 38.42 38.71 38.73 38.23 36.85 37.01 37.40 40.74 39.68 38.95 36.93 34.74 33.96 33.56 33.36 32.63 32.39 32.25 31.62 29.53 28.96 29.00 30.43 29.94 29.86 29.61 28.86 26.77 25.58 24.97 24.58 24.45 22.99 22.23 22.68 22.62 22.47 21.39 22.00
37.51 37.85 36.20 36.17 41.15 39.58 39.45 38.92 38.91 36.69 36.47 37.42 37.80 37.37 37.92 37.72 35.53 34.87 34.04 34.21 32.35 30.25 30.00 29.33 29.26 29.30 29.62 30.02 29.80 29.82 29.05 27.85 25.99 24.18 23.39 23.33 21.75 21.00 20.72 20.65 21.00 30.20 29.70 29.99

GFSCGP_sfc_wetblb_051.txt.gz
Wetbulb
47.15 42.53 39.46 41.46 40.75 38.63 37.72 35.31 33.83 36.26 39.65 36.43 35.42 34.78 38.25 40.82 39.32 39.59 41.38 43.45 44.70 45.39 47.94 46.78 47.64 48.24 48.08 47.93 47.44 49.38 54.70 61.65 64.25 65.17 64.82 64.28 64.03 63.88 63.31 63.55 62.95 60.87 59.94 58.42
42.97 38.92 42.87 45.35 44.40 42.20 39.92 36.85 35.59 36.31 38.20 35.55 34.49 33.86 38.43 40.67 40.88 41.51 42.70 43.45 44.31 45.35 44.30 45.17 46.39 46.72 47.42 48.44 47.94 46.88 50.04 57.85 63.53 64.53 64.90 64.26 64.15 64.18 64.31 63.29 62.25 60.80 60.06 58.24
38.62 39.40 45.03 43.29 41.05 39.66 36.98 32.45 31.95 32.50 35.19 33.71 32.29 31.40 33.94 37.39 38.41 39.72 41.22 42.66 43.42 43.84 45.01 46.12 44.23 45.38 45.96 46.25 47.78 49.07 48.49 50.81 59.61 64.48 64.09 59.05 59.32 58.57 58.77 59.07 60.05 59.87 60.01 58.90
37.49 40.66 40.92 38.25 37.90 36.96 30.94 36.02 35.94 33.64 30.91 25.81 32.01 22.84 29.54 33.96 34.92 37.18 37.76 37.29 39.10 40.69 42.74 43.37 43.80 43.62 43.96 45.61 46.61 47.54 48.80 49.41 51.84 58.61 61.17 62.41 61.33 60.21 61.06 62.28 62.38 58.89 58.01 58.29
34.74 37.06 36.47 35.51 36.43 37.34 34.08 37.68 34.42 32.95 28.37 25.01 27.02 24.44 28.30 31.28 33.51 35.06 36.19 37.22 38.12 39.04 40.00 41.46 42.35 43.56 44.57 44.59 43.91 44.47 45.75 47.01 49.28 52.36 60.48 61.85 61.65 60.00 59.29 60.47 60.62 53.23 54.44 56.99
36.33 40.93 38.74 36.81 37.89 38.20 38.18 34.03 31.93 29.95 26.45 17.37 24.35 24.93 25.94 29.22 31.25 33.72 35.28 36.32 37.99 38.79 39.44 40.79 40.80 41.97 42.02 41.94 42.75 43.10 43.74 44.97 46.94 49.31 53.44 58.85 60.93 55.28 54.95 54.25 56.71 53.19 52.46 53.41
35.10 35.20 37.66 39.45 34.73 36.97 34.23 27.86 16.51 16.27 15.83 18.43 26.81 24.69 27.75 33.48 36.36 36.46 35.31 36.85 37.62 38.95 40.66 41.81 39.76 40.11 42.06 43.42 43.12 43.81 44.10 44.86 45.42 46.45 49.38 53.86 56.76 55.79 56.19 55.72 55.85 53.29 51.15 49.85
28.52 26.96 34.75 37.39 34.83 32.31 30.15 28.48 18.58 15.33 17.82 19.96 26.70 23.24 28.94 33.31 34.65 36.27 37.65 37.41 39.00 41.26 40.49 40.74 41.27 41.67 42.36 43.63 44.81 45.01 45.32 45.90 46.43 45.58 46.66 50.84 54.23 56.62 56.90 55.13 54.80 53.93 53.50 53.57
24.36 26.96 37.19 37.52 38.06 36.01 30.46 23.63 30.16 21.62 19.71 16.41 22.17 25.50 30.10 34.29 34.25 34.85 36.76 38.20 38.43 40.18 41.55 41.58 41.22 43.44 44.16 44.00 44.22 44.26 45.02 45.85 46.50 46.41 47.05 50.44 53.13 53.35 53.94 52.88 51.02 50.21 48.41 47.88
31.59 26.18 36.60 37.68 39.80 38.27 32.71 34.30 23.84 18.57 8.55 13.57 18.31 20.91 23.25 28.60 31.34 35.14 35.65 36.55 38.63 41.80 42.34 42.44 41.51 41.16 42.39 43.76 44.18 44.42 45.25 45.89 46.45 46.26 48.32 50.30 50.39 50.59 49.20 47.33 46.09 46.02 46.07 46.50
34.79 29.17 32.16 37.00 32.71 30.77 31.36 27.50 27.87 25.46 22.01 14.11 16.22 21.66 29.69 29.81 32.26 33.75 35.56 37.83 40.19 43.67 43.03 42.76 43.14 42.43 42.49 43.76 43.90 44.25 46.41 47.18 47.25 48.78 47.05 45.78 44.82 44.66 45.03 45.43 45.15 45.45 44.39 44.91
35.40 30.06 28.59 31.06 33.98 35.23 33.68 30.47 28.32 19.81 18.01 19.16 17.78 22.43 32.95 32.15 34.30 35.78 39.03 39.51 45.14 43.62 42.18 42.09 42.25 41.22 41.95 43.51 43.76 46.44 47.03 47.57 47.55 45.24 43.52 42.55 42.93 43.41 43.07 43.09 43.46 45.11 43.42 43.29
35.73 27.21 18.87 24.34 29.25 32.07 28.75 31.26 30.50 27.68 23.51 17.78 15.81 22.32 34.15 33.91 37.51 38.69 40.50 43.17 45.29 42.09 44.10 46.85 43.80 42.65 43.21 42.48 44.04 41.47 40.67 40.49 40.47 41.55 41.16 40.92 41.26 42.40 44.19 43.72 42.33 42.93 41.88 40.74
39.41 29.11 25.20 20.89 23.43 27.05 23.69 29.84 31.04 26.15 19.05 21.48 22.06 25.87 33.23 35.59 36.55 40.80 43.63 43.09 43.91 44.53 44.71 45.29 43.78 42.40 41.24 39.92 38.74 38.53 38.94 40.42 40.64 40.96 41.75 41.51 41.87 42.72 41.41 41.10 41.27 40.90 39.24 37.74
35.87 27.49 28.67 29.72 30.87 31.12 29.94 29.45 29.92 23.50 28.47 20.59 26.16 28.01 33.53 36.65 38.98 41.52 41.87 41.12 40.10 39.60 39.35 41.00 41.20 38.72 36.78 35.14 35.82 37.55 38.65 39.32 39.79 38.90 38.78 39.53 39.15 39.70 38.72 37.87 37.33 37.90 37.34 36.40
34.50 27.37 30.16 22.86 29.54 30.02 27.13 30.70 30.90 30.46 30.95 30.65 31.88 31.60 38.55 40.66 42.95 42.24 39.32 37.21 36.57 36.72 38.63 41.09 35.18 33.38 32.83 32.57 33.80 35.83 35.98 36.59 37.90 37.94 36.69 37.29 37.06 36.72 36.26 35.78 36.12 36.11 35.78 35.38
34.07 31.64 24.78 20.43 27.80 28.88 23.74 29.53 30.39 30.76 32.01 33.91 29.92 34.50 41.50 40.24 42.53 39.17 36.22 34.65 34.16 34.41 34.61 33.27 32.71 32.24 32.04 33.01 34.59 33.63 34.34 35.40 35.07 35.43 35.41 35.30 35.40 35.05 35.17 35.44 35.23 34.68 34.26 34.47
32.51 31.69 25.82 20.84 25.09 17.98 30.53 36.94 35.57 33.74 35.63 36.10 36.57 38.75 41.01 42.08 40.56 37.07 36.02 33.04 32.87 33.37 32.89 33.02 33.02 33.31 33.99 35.84 35.82 36.11 36.14 35.97 35.75 35.32 35.49 35.99 35.79 35.12 35.25 35.06 34.57 34.46 34.54 33.94
36.92 33.31 26.89 23.97 24.61 26.54 32.49 37.34 35.78 34.01 34.29 37.46 35.99 38.46 41.52 42.12 39.61 37.78 36.47 33.92 32.85 33.14 33.63 33.49 33.95 34.17 34.24 34.34 35.14 35.03 34.83 35.16 35.28 35.12 35.30 35.64 35.42 34.60 34.40 33.30 32.66 32.51 32.54 32.12
36.74 35.47 30.44 29.91 24.43 21.53 31.83 36.29 39.26 37.88 30.48 38.39 37.86 38.67 42.08 40.73 38.26 38.17 35.26 34.85 33.90 34.49 34.07 33.53 34.28 34.64 34.20 34.52 35.26 34.48 34.20 34.16 33.99 34.79 34.86 35.48 35.44 34.36 32.77 32.42 32.20 31.94 32.12 31.90
33.53 33.71 29.54 29.50 25.92 28.43 35.79 36.91 40.44 29.51 31.85 37.92 38.00 39.29 40.67 39.45 39.48 37.58 36.47 35.05 35.75 35.50 35.08 35.70 35.47 35.12 35.58 35.95 35.27 33.80 33.54 32.08 33.89 34.84 35.23 34.54 33.93 32.81 32.17 32.09 32.08 31.42 30.61 28.85
31.10 29.77 29.96 30.40 28.57 24.27 36.85 38.54 34.79 38.42 38.17 38.89 38.21 38.83 40.35 38.72 37.66 37.20 36.82 35.51 35.43 34.34 34.69 34.85 34.58 34.83 35.94 35.92 34.75 33.36 31.89 34.58 34.55 33.77 33.21 32.78 33.89 34.68 33.05 31.53 29.20 26.82 25.11 23.07
29.98 31.16 29.81 31.17 30.67 37.12 37.32 39.89 40.97 39.49 38.10 37.47 38.27 39.39 40.57 38.15 36.36 37.26 35.84 35.48 35.40 34.20 33.90 33.98 34.10 34.22 34.87 35.78 35.14 32.43 33.72 34.77 34.14 33.20 32.70 32.51 31.74 29.40 26.99 24.77 22.94 21.63 21.32 20.51
36.35 38.05 34.21 35.04 38.35 38.51 39.63 39.27 39.61 39.05 37.99 37.52 38.42 40.06 39.24 37.98 35.58 34.44 34.81 36.02 35.61 35.89 35.17 35.19 33.85 33.48 33.38 34.41 34.39 33.99 34.39 34.01 31.97 28.10 25.96 24.99 23.97 23.41 23.14 23.62 23.63 21.11 19.64 18.96
37.36 38.72 36.87 36.27 39.08 39.31 38.62 39.04 39.53 38.02 37.30 37.03 39.40 39.40 38.02 35.42 34.98 34.53 33.93 33.39 34.29 33.65 33.77 30.09 30.45 30.33 31.04 32.20 31.79 31.75 28.83 27.08 25.21 24.67 24.48 23.40 22.77 21.75 21.43 21.91 21.37 21.42 20.04 20.86
36.01 35.90 34.42 35.69 40.45 38.47 38.82 38.00 38.51 37.12 36.24 36.74 38.65 37.26 38.35 38.17 35.24 34.66 33.83 33.39 32.55 29.62 29.25 28.96 29.60 29.51 29.33 27.84 26.87 26.99 27.38 26.35 24.82 23.35 22.67 22.13 21.06 20.22 20.49 20.71 21.03 30.56 30.09 30.80

GFSCGP_sfc_wetblb_054.txt.gz
Wetbulb
47.40 41.41 39.23 40.62 40.27 38.06 37.21 34.47 33.05 35.69 38.66 35.54 34.99 33.93 37.64 40.94 38.91 38.74 39.56 40.56 42.37 44.57 47.26 46.40 46.68 46.99 47.14 47.19 46.85 47.92 49.86 59.21 65.25 66.20 65.78 65.54 64.55 65.07 64.96 63.72 63.90 61.98 60.26 58.85
43.27 37.19 43.54 45.10 42.83 41.40 38.38 34.88 33.00 36.05 37.55 34.74 34.06 32.79 37.66 40.94 39.66 40.43 41.70 42.16 42.02 42.43 43.99 44.52 45.05 44.90 45.68 47.54 46.55 45.94 47.98 52.34 60.70 64.87 65.44 65.30 65.50 65.29 65.11 63.88 63.63 62.95 60.19 58.54
38.58 40.90 45.88 44.08 41.62 40.13 38.20 35.14 32.50 32.43 34.42 32.92 31.74 31.23 33.18 36.74 37.62 38.64 39.56 39.36 39.74 39.95 41.18 43.27 42.57 43.49 43.58 44.28 46.22 47.09 46.75 48.62 56.89 62.90 64.00 59.24 59.62 59.38 62.86 60.79 61.71 61.69 60.03 59.10
37.97 42.71 43.24 41.10 39.06 40.23 34.42 37.97 35.85 33.39 30.64 26.53 31.36 24.27 29.96 32.76 34.45 36.17 34.82 35.51 36.51 36.71 38.34 39.80 40.78 41.48 42.28 43.36 44.08 45.83 47.30 47.67 49.79 59.04 62.08 62.00 61.94 60.87 61.49 62.54 62.33 61.16 59.96 58.96
35.67 39.27 38.16 38.39 38.55 40.61 34.68 37.44 34.26 32.54 28.22 24.92 26.88 24.72 28.59 30.15 31.84 32.20 34.90 35.68 37.34 38.23 38.78 40.34 39.37 40.78 41.95 42.12 42.23 43.42 45.10 46.71 48.42 50.16 59.23 61.48 61.27 61.71 58.59 59.72 60.02 59.97 58.39 59.32
36.28 40.85 39.15 36.04 38.07 39.22 37.34 33.32 30.99 28.82 26.63 18.11 23.87 24.19 25.64 28.53 29.54 32.27 34.71 36.51 37.95 39.20 40.76 43.05 42.97 41.96 41.31 41.71 41.78 41.54 42.17 43.84 45.17 46.66 51.63 59.34 61.04 59.18 55.94 55.85 57.62 54.27 55.30 56.61
34.71 35.77 38.37 39.04 34.37 37.08 35.24 30.93 18.82 15.52 15.36 17.32 26.00 24.27 27.26 31.64 34.25 33.75 34.07 36.81 37.92 39.55 41.06 41.27 41.93 41.94 43.11 43.11 43.69 44.65 43.90 43.61 43.84 43.79 45.81 51.36 57.11 57.31 57.14 57.77 58.71 57.13 55.00 55.77
26.49 26.18 35.34 36.93 34.67 32.32 29.68 28.36 19.41 14.72 17.12 19.18 26.18 22.77 27.88 32.98 34.17 35.55 36.01 36.64 37.99 40.22 41.31 41.87 41.74 41.15 41.79 42.28 42.98 43.34 43.65 43.99 44.50 44.51 44.48 45.82 49.63 54.45 56.79 56.10 57.23 56.73 55.25 55.43
25.23 27.20 36.31 37.35 37.37 34.71 29.54 22.31 28.80 19.78 17.01 15.34 21.59 25.10 29.62 33.72 32.79 34.91 36.19 37.08 37.33 39.47 41.96 41.98 41.91 41.54 41.29 41.82 42.53 42.89 43.48 44.11 44.88 45.23 44.95 44.95 46.87 50.02 53.31 53.29 53.85 54.45 51.76 51.25
30.40 25.93 35.30 36.70 38.36 36.89 32.73 33.24 23.86 16.75 8.85 13.85 18.79 20.47 23.16 27.69 30.55 33.59 34.81 36.13 36.89 39.06 41.69 42.61 42.07 42.22 41.73 41.86 42.55 43.66 43.82 44.87 46.33 46.72 45.83 46.51 47.28 49.24 50.60 49.14 48.22 47.07 45.99 47.12
33.21 30.05 32.19 35.46 31.05 29.97 30.57 26.43 27.07 25.28 21.93 15.53 16.62 21.55 28.68 29.18 32.42 33.05 35.08 37.14 38.26 41.50 42.17 41.62 41.84 42.69 42.16 42.38 42.95 43.23 45.26 45.23 46.60 47.08 46.03 45.03 44.50 44.77 44.83 44.68 43.87 44.08 44.50 45.31
34.93 31.09 29.03 29.92 33.60 34.44 32.76 29.87 27.45 18.69 17.24 18.73 18.70 21.42 32.74 32.56 32.62 34.07 35.72 38.31 40.73 42.75 42.41 42.65 43.91 42.85 42.91 42.42 42.11 42.92 40.01 40.50 41.56 43.20 42.67 42.44 45.09 45.20 43.92 43.53 43.11 43.91 44.87 45.02
35.43 26.67 18.11 25.29 29.50 31.94 29.00 30.87 29.65 26.88 23.42 17.19 16.26 22.41 33.38 32.34 34.37 36.10 37.25 41.01 42.28 43.61 42.56 41.49 42.42 41.80 40.74 39.38 38.28 37.89 38.35 38.67 39.90 41.05 41.44 41.27 43.73 44.57 44.41 44.58 44.24 44.30 43.02 41.94
38.14 28.51 25.18 20.62 23.69 27.35 24.65 29.87 29.48 25.98 21.44 21.24 20.46 24.12 31.71 34.68 34.32 36.91 38.53 42.11 40.92 39.95 37.91 38.31 40.11 38.09 35.36 35.18 36.51 37.31 37.72 38.02 38.64 39.37 42.02 42.39 43.21 43.05 41.69 41.42 41.48 40.87 39.93 38.20
34.66 27.04 28.59 29.07 29.80 30.30 29.48 29.21 29.04 22.04 25.72 19.86 24.33 26.13 31.94 34.72 36.01 37.31 41.07 39.08 36.54 35.88 36.14 36.34 35.51 32.15 32.16 33.23 34.69 35.47 36.16 36.88 37.01 37.04 37.82 37.75 38.75 39.35 38.35 37.57 37.41 37.18 36.69 36.29
33.28 26.02 28.55 21.93 29.36 29.39 27.17 30.17 29.89 29.54 29.67 29.12 30.91 30.34 38.06 39.50 40.42 42.86 38.44 36.87 35.32 34.19 34.92 33.64 33.86 32.10 34.18 31.49 32.65 34.59 35.54 34.49 35.41 35.44 35.57 36.62 36.77 37.48 36.09 36.70 36.13 35.72 35.53 35.58
34.62 31.03 23.28 20.92 27.55 28.36 23.77 29.14 30.10 29.94 31.14 33.08 28.07 33.61 38.09 39.76 41.87 40.36 36.23 35.31 33.19 33.87 33.61 31.04 30.81 32.40 34.10 35.35 35.85 35.00 35.63 36.41 35.75 35.54 35.70 35.95 36.02 35.60 35.46 35.50 35.69 35.18 34.87 35.40
32.31 31.31 29.35 24.51 24.66 17.42 29.35 35.33 34.18 32.24 33.52 34.39 34.67 36.74 39.50 40.89 40.27 37.26 36.73 33.49 32.48 33.20 32.98 31.98 32.23 33.39 34.23 35.94 35.96 36.41 36.89 36.53 36.45 35.77 35.88 36.23 36.09 35.69 35.76 35.27 34.71 34.84 34.87 34.35
36.99 33.21 28.95 24.47 24.50 25.75 31.60 34.98 33.74 32.63 33.82 35.66 35.08 36.25 40.28 41.96 38.78 37.98 36.28 33.94 32.69 31.24 33.32 33.04 33.61 33.80 34.33 34.46 35.34 35.33 35.15 35.47 35.33 34.48 34.69 35.44 35.17 34.40 34.34 32.88 32.44 32.69 32.51 32.32
36.08 34.68 30.27 28.93 24.01 20.37 29.21 34.98 39.33 37.59 30.12 37.15 37.39 38.06 40.53 40.85 34.68 39.03 35.47 35.06 34.02 34.49 34.34 34.04 34.67 35.01 34.66 35.14 35.68 34.68 34.12 34.24 34.19 34.86 34.87 35.32 34.94 33.96 32.69 32.40 32.16 32.36 32.18 31.94
32.23 33.04 28.21 28.36 26.89 26.26 33.36 37.23 39.04 31.18 30.47 36.97 38.07 38.96 41.58 39.73 39.61 36.94 35.46 34.98 34.97 35.31 34.49 35.59 35.66 34.84 34.91 35.54 35.39 33.73 33.63 33.42 34.81 35.24 34.66 34.25 33.67 32.53 32.39 32.01 32.02 32.01 30.59 27.89
30.31 27.86 29.55 28.96 27.56 23.30 36.35 38.97 36.49 38.83 38.68 37.41 37.60 39.15 41.32 39.22 37.64 37.20 34.72 34.29 33.93 33.25 33.53 35.14 34.99 34.96 35.58 35.84 35.04 33.78 32.51 34.82 34.84 34.08 33.45 32.90 33.36 34.46 33.75 31.46 28.95 26.26 24.83 22.92
29.72 30.44 28.23 29.67 28.47 36.48 38.71 38.59 41.49 39.93 38.69 36.43 36.87 39.48 40.44 38.67 37.39 36.85 34.85 33.72 34.00 33.31 33.54 33.92 34.92 34.56 35.22 35.65 35.28 32.84 34.33 35.48 34.37 33.82 33.21 31.97 28.84 26.42 25.59 23.82 22.18 20.83 20.23 19.42
35.11 36.26 32.63 33.97 38.66 38.92 40.46 40.80 39.37 39.54 38.45 37.96 38.65 40.09 39.00 38.87 37.31 36.22 35.91 33.89 34.18 34.35 33.94 34.60 34.81 34.12 33.74 34.93 35.10 34.79 34.92 34.34 31.11 26.88 24.09 23.41 22.79 22.23 22.01 22.62 22.81 20.37 19.03 18.35
35.39 36.64 34.05 33.64 38.46 40.02 39.28 39.82 39.44 38.84 37.80 36.68 38.32 39.76 38.92 37.08 36.06 35.86 35.74 34.66 35.32 34.28 33.62 32.65 32.98 33.23 33.22 34.02 33.65 32.68 29.17 26.61 24.58 23.44 22.79 21.54 21.49 20.85 20.87 21.28 21.06 20.73 18.32 20.25
35.48 37.24 36.52 35.24 38.63 37.91 38.31 38.71 38.25 37.84 37.18 36.90 37.29 37.06 37.03 36.44 36.17 35.69 34.40 33.99 32.79 29.68 28.64 30.76 31.17 30.63 30.46 30.23 27.37 25.83 26.24 25.52 23.77 22.48 21.69 21.28 20.20 19.87 20.70 20.96 21.14 30.93 30.18 30.75

GFSCGP_sfc_wetblb_057.txt.gz
Wetbulb
46.50 41.62 37.74 40.92 41.27 39.10 38.00 36.14 35.50 38.01 39.96 38.81 37.51 37.00 39.53 42.22 42.00 42.01 43.31 44.50 45.59 45.76 47.93 49.66 50.17 50.65 50.83 51.58 51.20 51.78 52.96 58.93 66.77 66.61 65.85 65.26 64.90 65.59 65.05 65.73 66.11 65.09 63.84 62.85
42.20 38.59 43.43 44.00 42.25 39.89 38.10 35.81 35.28 37.99 38.82 37.97 35.62 35.08 39.45 41.78 41.50 42.32 42.77 43.12 43.51 43.50 43.65 44.59 46.63 48.04 48.53 49.70 50.45 50.59 50.86 53.04 59.21 65.93 66.60 66.68 65.97 66.58 65.93 65.37 65.14 65.78 63.89 62.97
36.50 40.48 45.91 43.06 41.68 39.71 38.11 35.68 34.35 35.22 36.42 35.70 33.69 33.99 35.62 38.61 39.25 38.95 38.48 39.99 40.82 41.20 41.92 43.42 42.89 44.86 46.40 46.70 48.37 49.66 50.60 51.31 54.01 62.13 66.20 64.79 64.89 63.99 65.24 64.59 64.28 64.25 64.09 62.81
38.08 43.64 43.52 42.11 40.29 41.29 36.37 39.50 36.70 34.84 33.62 30.07 33.83 28.50 33.84 34.95 35.95 37.11 38.31 39.83 41.24 42.26 43.44 44.35 44.32 44.67 44.85 45.91 46.74 47.70 48.90 50.41 51.42 56.60 62.98 63.76 62.93 62.44 63.45 64.37 64.83 64.09 64.00 62.68
34.63 40.76 39.06 38.15 38.99 41.00 36.83 38.33 35.21 33.48 30.21 29.64 29.94 28.61 32.16 34.05 33.41 35.45 38.15 39.63 41.13 42.85 43.44 44.57 45.02 44.88 45.67 46.55 46.43 45.93 46.58 47.94 50.22 51.94 59.95 63.04 62.93 63.59 64.35 64.27 64.26 64.04 62.72 62.75
36.82 41.77 40.78 38.15 42.35 41.03 38.23 34.01 32.14 30.04 28.68 24.08 26.92 27.38 29.03 31.95 34.10 35.91 38.32 39.78 40.79 42.27 44.15 45.29 46.01 45.95 46.46 47.03 47.89 48.61 47.75 46.94 47.40 49.05 51.61 60.03 62.45 62.81 62.12 61.72 62.17 62.57 61.72 61.40
35.77 35.91 38.46 39.81 35.50 38.04 36.58 33.78 23.88 21.39 21.52 22.47 27.98 26.02 30.04 34.24 36.17 37.17 38.63 39.26 40.36 41.94 44.33 45.24 45.10 45.00 46.19 46.58 46.67 47.48 47.38 47.63 48.24 48.22 47.82 50.15 55.36 60.54 60.87 61.49 61.39 61.47 58.63 58.38
27.50 28.94 35.95 38.05 35.88 33.98 31.84 33.68 23.99 18.52 19.90 22.19 27.41 24.70 30.67 35.75 37.49 38.59 39.19 39.34 39.62 41.59 44.13 44.92 44.87 44.96 45.67 45.98 46.25 46.47 46.83 47.47 48.33 49.03 48.98 48.64 49.52 52.67 57.60 60.16 60.74 61.10 60.52 59.76
26.62 28.68 37.72 37.60 37.71 36.59 31.84 27.24 30.17 21.71 20.74 20.22 24.21 27.38 32.09 35.78 35.11 37.48 37.78 39.87 40.57 41.20 43.53 44.75 44.95 45.30 46.06 45.84 46.00 45.98 46.71 47.66 49.33 49.61 50.12 49.95 49.69 49.94 51.93 55.28 58.27 59.91 59.64 57.64
31.39 27.36 35.90 36.46 38.78 36.90 34.04 33.46 25.85 21.87 15.02 17.30 21.35 22.54 26.33 31.57 34.44 36.60 37.65 38.15 40.24 42.54 44.67 45.01 45.14 45.69 46.19 46.20 46.21 46.49 47.07 47.20 47.25 48.37 49.15 49.35 49.67 50.58 51.44 52.79 54.13 55.07 53.97 53.81
34.20 31.20 32.41 36.13 32.30 30.59 31.59 28.82 27.79 26.56 23.62 19.39 19.01 24.68 30.85 32.23 34.81 36.17 37.24 38.89 40.42 43.81 44.10 44.15 44.70 45.82 44.97 44.63 44.31 44.39 43.38 43.61 44.20 45.70 46.49 46.78 46.99 47.79 49.03 49.88 50.09 50.58 49.94 49.96
35.43 32.30 28.61 30.30 34.14 35.32 33.80 30.86 28.38 23.23 21.16 20.73 21.11 24.92 34.74 34.21 35.90 36.55 37.81 38.98 43.38 43.70 42.51 41.24 41.68 42.15 40.26 39.70 40.51 40.82 41.38 42.34 43.01 44.09 44.80 45.67 46.30 47.11 47.63 47.35 46.74 47.37 47.85 48.07
35.20 28.15 24.38 27.43 31.45 33.11 31.00 31.45 29.92 27.47 25.45 21.40 20.09 24.91 34.51 34.63 35.31 37.12 38.00 41.61 41.67 40.66 38.96 40.01 39.83 37.30 36.99 38.29 39.32 39.83 40.03 40.01 41.08 42.74 44.06 45.31 45.43 45.29 44.61 45.18 45.21 45.43 45.41 44.66
37.97 29.50 26.83 23.97 26.30 29.05 26.07 30.18 29.86 27.20 22.30 22.21 22.12 25.67 31.88 34.63 35.34 37.41 39.17 40.80 39.44 38.17 36.84 36.49 35.67 34.97 35.11 36.09 36.86 37.17 37.74 38.35 38.58 39.06 40.32 40.65 41.53 41.74 41.00 41.07 40.33 39.52 39.17 37.66
35.22 28.45 29.63 30.02 30.46 30.69 30.20 30.13 29.50 24.96 26.78 23.24 26.45 26.66 32.15 34.79 35.70 37.83 40.67 39.02 37.00 35.52 35.32 33.86 34.03 33.72 34.60 34.76 35.34 36.45 36.63 36.89 37.29 37.28 37.52 37.73 38.30 38.84 38.56 37.95 38.36 38.21 38.28 38.30
33.78 28.84 26.30 23.33 29.94 29.89 27.95 30.85 30.56 30.14 30.15 29.22 30.21 30.43 38.11 39.28 40.55 42.22 39.10 37.28 34.42 34.24 34.72 33.00 33.14 33.46 34.47 35.18 35.34 36.30 36.39 36.37 37.33 36.50 36.09 36.69 36.98 37.23 37.21 37.24 37.28 37.98 37.64 38.37
34.12 28.00 24.08 22.59 28.15 28.51 24.69 29.50 30.66 30.39 31.23 32.42 27.92 33.32 38.07 38.42 40.17 41.41 38.18 36.04 33.84 33.98 33.68 32.57 31.96 32.71 34.59 36.11 36.68 36.39 36.61 37.34 36.84 36.55 36.63 36.57 36.31 35.67 35.76 36.23 36.15 35.96 36.26 37.16
32.16 31.70 28.11 25.44 24.94 17.24 29.24 34.89 33.89 32.51 33.47 34.07 34.65 35.97 38.52 38.83 41.13 38.19 37.27 34.26 33.18 33.56 33.34 32.46 33.10 33.82 34.69 36.06 36.42 36.89 37.21 36.80 36.23 35.95 36.01 36.17 35.79 35.33 35.25 34.65 34.57 34.77 35.06 34.59
36.82 33.29 27.01 23.05 24.33 25.53 31.24 33.44 32.69 32.08 34.12 35.17 34.68 36.28 37.96 41.84 39.61 37.78 36.25 34.48 32.95 33.21 33.06 33.44 34.24 34.56 34.95 35.36 36.15 35.98 35.97 36.44 35.90 35.23 35.78 35.78 35.31 35.07 33.83 32.47 32.37 32.69 32.29 32.02
35.98 34.92 27.45 25.99 23.20 20.46 29.33 35.20 39.08 37.99 32.08 37.70 36.44 37.25 40.43 41.14 36.73 38.52 34.96 35.21 34.58 34.73 34.96 34.61 35.25 35.47 35.30 35.67 35.93 35.04 34.96 35.03 34.37 34.77 35.11 35.57 35.53 34.30 32.71 32.40 32.05 32.22 32.25 31.52
31.65 31.98 27.17 24.98 23.79 26.37 32.62 36.86 39.37 32.56 33.02 38.37 39.44 39.76 41.18 39.44 39.27 37.18 35.27 34.47 34.92 34.69 34.63 36.02 35.61 34.74 35.08 35.85 35.46 34.37 34.60 33.78 34.73 34.94 35.11 34.66 34.06 32.68 32.82 32.40 32.04 30.75 28.41 27.68
28.94 27.53 27.42 27.17 25.86 20.31 35.74 38.06 37.07 39.94 40.01 39.25 39.02 39.26 41.54 40.00 37.18 36.34 35.08 34.08 33.90 33.32 34.11 35.66 34.98 34.74 35.73 36.23 35.77 34.23 32.80 35.09 35.58 34.69 34.12 33.52 34.09 34.39 32.04 28.97 27.17 26.83 26.16 24.97
29.63 30.30 27.82 28.60 27.79 35.60 38.21 39.76 42.05 41.74 40.11 39.06 38.25 39.44 41.40 39.26 37.69 37.00 35.27 34.49 34.49 33.59 33.47 34.16 35.24 35.01 35.51 35.86 34.69 33.87 34.59 35.44 34.69 33.29 30.19 27.45 26.66 26.41 26.61 26.10 25.23 24.59 24.61 23.85
34.13 36.11 32.44 33.76 36.89 36.68 39.55 41.40 40.72 40.20 39.41 39.78 39.42 39.65 39.79 39.20 38.49 36.99 35.30 34.37 34.14 33.98 33.47 34.41 34.08 34.41 34.12 35.52 35.57 35.25 35.32 34.38 30.79 26.62 25.33 25.23 25.24 24.34 24.39 25.08 24.98 23.52 22.84 22.54
34.28 35.55 35.32 33.20 36.00 38.74 40.90 41.37 41.08 39.91 39.07 38.28 38.49 39.57 39.64 38.54 37.67 37.33 35.72 35.12 35.31 34.72 34.64 35.50 34.86 34.36 34.25 35.20 34.68 32.65 31.01 28.33 26.28 25.17 24.84 24.41 24.26 24.28 24.60 25.02 24.97 24.06 23.07 24.45
34.91 34.97 34.90 35.94 37.89 36.61 38.82 40.44 41.07 39.42 38.53 38.50 37.46 38.56 38.63 38.21 36.46 37.26 36.62 36.58 35.34 34.03 31.68 33.33 34.03 33.73 33.09 32.82 30.18 28.08 27.92 27.22 25.55 24.14 24.10 24.17 24.08 24.40 24.86 25.47 25.89 31.19 30.93 30.96

GFSCGP_sfc_wetblb_060.txt.gz
Wetbulb
46.86 41.28 39.60 43.22 44.27 42.39 42.03 39.99 38.15 41.39 42.84 42.72 43.11 43.57 45.72 48.42 48.55 48.46 49.64 50.38 50.90 51.41 52.68 52.52 52.97 53.97 54.94 56.11 57.15 57.81 57.95 59.02 62.42 66.53 66.66 66.47 66.00 66.59 66.60 67.04 68.71 69.16 68.35 67.71
42.38 38.38 44.13 46.03 45.26 42.46 41.63 39.02 38.73 40.53 42.28 42.74 41.64 41.26 45.16 47.00 47.34 47.28 47.27 48.46 48.97 48.51 48.84 49.18 49.64 50.79 51.99 53.01 54.68 56.11 57.03 57.91 58.91 62.18 66.67 67.47 67.64 67.09 67.27 67.16 67.26 67.27 68.29 67.77
39.50 40.70 45.68 44.25 43.09 40.91 40.85 38.92 38.83 38.53 39.92 40.42 39.34 39.91 40.98 41.58 42.43 43.31 44.52 46.49 47.79 48.00 48.55 49.92 50.35 50.84 51.60 51.47 52.30 53.22 54.73 56.05 57.29 58.62 62.15 65.80 67.13 67.50 66.89 67.35 67.32 66.93 66.37 67.39
39.02 42.38 43.82 42.78 41.43 42.53 37.40 42.10 41.16 38.93 38.52 35.55 38.79 35.35 38.12 39.78 40.64 43.67 45.80 47.47 48.54 49.11 50.23 50.65 50.94 51.52 51.89 52.67 52.72 51.84 52.63 53.44 54.79 56.27 57.79 61.57 63.13 62.64 64.64 65.79 66.81 66.99 66.46 65.52
35.22 38.59 41.53 40.46 41.46 44.33 38.83 42.78 40.05 38.18 37.49 36.00 35.07 35.15 36.36 39.88 38.65 41.04 44.37 46.25 48.16 49.93 50.32 50.59 51.01 51.28 52.42 53.08 53.61 54.10 53.06 52.00 53.48 54.80 56.41 59.15 61.79 62.84 64.04 65.24 65.58 66.06 66.59 65.56
36.51 42.42 40.64 40.26 42.87 41.01 40.34 38.92 37.84 37.48 35.81 31.21 34.16 33.43 33.99 36.36 39.26 41.03 43.26 45.67 47.06 49.32 50.95 51.99 52.14 52.45 53.10 54.33 53.95 54.06 53.79 53.24 53.20 52.35 54.49 56.19 58.88 61.43 62.36 63.53 64.36 65.08 65.68 64.07
33.29 36.07 39.03 42.92 36.34 39.77 37.96 37.25 31.19 29.81 30.00 30.00 31.94 31.04 36.33 39.00 40.44 42.89 43.38 45.26 46.90 49.26 50.58 51.07 50.92 51.20 52.34 52.84 53.34 52.94 53.07 53.15 53.98 54.07 53.22 53.05 54.65 57.70 61.17 62.54 62.96 63.26 63.87 62.99
33.46 30.47 36.39 40.01 38.17 36.50 36.48 37.94 33.31 24.64 26.67 29.46 31.04 29.63 35.70 40.66 42.02 44.00 43.09 44.72 46.82 48.76 50.26 50.60 50.69 51.29 52.09 52.23 52.77 52.92 52.58 52.59 53.94 54.26 54.63 54.92 54.11 54.22 55.29 57.55 60.14 61.32 61.98 63.28
33.12 31.52 39.06 39.28 39.49 39.98 35.39 34.42 35.43 30.12 28.23 29.27 32.62 33.95 37.31 39.00 39.46 42.18 42.98 44.83 45.99 47.92 49.44 49.59 50.33 50.79 51.18 51.37 51.34 51.49 51.51 52.40 52.36 53.00 54.11 54.74 55.52 55.39 55.14 55.66 56.75 58.56 60.43 61.71
36.47 31.13 37.08 37.83 40.74 39.40 38.18 38.40 31.46 32.71 25.37 25.11 28.82 29.96 33.92 36.26 38.68 41.49 42.53 43.86 45.78 48.12 48.36 48.09 48.34 49.07 49.20 48.67 49.26 50.26 50.20 49.95 50.83 51.68 52.66 52.72 53.26 53.57 54.35 55.50 56.00 56.61 57.77 58.74
39.63 36.56 33.70 38.08 35.91 35.13 34.77 34.51 32.72 33.35 30.59 27.87 27.96 31.38 40.32 40.28 41.45 40.68 42.30 43.96 46.27 46.99 46.41 46.65 47.42 47.12 46.56 47.13 47.35 47.58 47.91 48.50 49.06 50.03 51.04 51.55 51.37 51.16 51.24 51.15 51.86 52.80 53.27 53.74
38.58 37.20 31.45 33.05 37.42 38.98 37.58 35.46 34.45 31.23 26.95 28.72 29.02 32.18 40.03 42.50 42.85 41.34 42.83 43.99 46.41 45.44 44.47 45.60 45.02 44.76 45.18 45.42 45.71 45.75 45.93 46.23 46.94 48.56 50.02 50.48 51.13 51.35 51.32 50.91 50.81 50.85 50.79 50.79
39.41 34.12 28.58 29.32 34.07 36.86 34.69 35.33 34.32 32.93 32.74 28.52 29.53 32.58 39.87 41.14 41.19 42.72 42.75 45.58 45.33 44.17 43.36 43.56 43.23 42.54 42.88 43.29 43.51 43.75 43.68 43.88 44.57 45.94 46.62 46.97 47.14 46.84 46.36 46.28 46.06 46.73 47.31 46.66
41.58 34.42 31.49 29.43 31.08 34.73 32.00 33.57 34.13 34.15 30.80 30.48 31.71 33.61 38.10 39.86 40.43 42.98 43.68 45.50 44.42 42.79 40.88 41.42 41.66 41.59 41.75 41.68 42.01 42.12 42.04 42.40 42.82 43.33 43.45 42.74 41.94 40.61 40.13 41.02 41.02 40.15 39.73 38.94
39.70 32.67 33.25 32.99 33.31 33.63 33.36 33.27 32.71 30.41 33.69 32.17 32.92 32.66 38.30 40.43 41.56 43.31 44.53 42.85 40.33 40.41 39.63 39.11 39.69 40.19 41.16 41.14 41.56 41.66 41.50 41.28 41.99 41.41 40.95 40.18 39.91 38.97 38.60 38.69 38.89 38.91 38.73 38.37
37.86 32.37 31.49 29.95 32.52 32.81 31.25 33.99 34.37 33.51 34.16 33.49 34.93 34.59 42.42 43.89 44.05 43.74 43.84 40.80 38.13 36.76 37.08 37.58 38.02 38.98 39.78 40.90 41.19 41.30 41.14 40.51 40.68 39.00 38.20 38.82 37.90 37.74 37.26 38.07 38.80 38.57 38.39 38.99
36.82 33.31 31.89 28.69 31.23 31.31 29.17 32.68 33.86 34.65 35.93 36.26 31.94 37.88 42.02 41.44 41.71 42.89 42.07 40.25 37.25 36.57 36.56 37.06 37.38 38.05 39.41 39.78 40.16 39.73 40.29 40.86 39.83 38.62 38.46 37.79 36.96 36.06 36.12 36.16 35.71 36.02 36.39 36.87
36.12 34.58 33.52 29.98 30.25 24.69 33.73 38.11 38.01 36.10 37.42 38.46 38.69 40.14 41.60 41.96 42.60 42.19 41.98 40.32 38.13 36.84 36.12 36.22 37.99 38.08 38.59 39.58 39.83 40.14 40.16 38.38 37.53 36.93 36.31 36.36 35.83 35.48 35.82 35.83 35.39 35.27 34.87 34.31
39.27 36.01 31.33 28.31 27.91 32.18 35.19 35.73 35.64 35.37 37.84 40.40 38.64 40.96 42.57 42.39 43.76 42.51 40.67 38.80 37.85 37.36 37.16 37.09 36.86 36.83 38.50 38.66 39.07 39.35 38.09 37.39 36.66 36.22 36.09 36.48 36.41 35.41 35.26 33.76 32.82 32.21 32.23 32.03
37.61 37.58 33.88 29.95 25.22 24.90 35.64 39.98 42.87 41.25 36.53 42.85 41.37 42.02 42.41 43.84 41.73 44.21 40.32 38.47 37.65 37.56 37.94 37.73 37.30 36.72 36.76 36.68 38.23 38.00 36.39 35.93 35.22 35.49 35.74 35.97 35.65 34.42 33.24 32.54 32.30 32.76 32.96 32.09
33.02 33.46 30.88 30.48 28.91 32.39 38.37 40.08 41.58 34.36 37.06 43.23 43.16 43.70 43.88 42.64 45.19 41.60 39.25 37.88 38.24 37.95 37.42 37.65 37.12 35.91 36.24 37.12 37.05 35.78 35.51 34.63 35.67 35.96 35.79 35.76 35.46 34.15 34.12 33.19 33.52 32.55 31.56 31.11
31.87 30.39 29.00 29.67 27.80 25.22 39.86 41.53 38.46 42.15 43.99 43.96 43.99 44.06 43.14 43.36 38.89 38.44 37.69 37.54 36.98 36.55 36.76 37.32 36.47 36.28 37.17 37.19 36.63 35.29 34.31 35.86 36.00 35.86 35.28 35.41 36.04 34.60 33.10 31.97 32.07 32.16 31.66 30.41
31.98 35.92 33.95 33.95 33.95 39.88 42.11 41.82 44.27 43.79 43.80 44.23 43.60 44.16 44.18 41.63 38.99 39.52 36.40 36.19 36.48 36.02 35.33 36.23 35.76 35.09 35.90 36.51 37.20 35.27 35.24 35.93 35.83 35.29 33.11 32.19 32.20 32.00 32.15 31.74 31.09 30.68 30.92 30.38
38.78 40.24 36.68 36.23 40.61 40.71 42.17 43.42 43.58 43.83 43.68 44.29 44.00 43.61 44.17 43.70 41.88 39.04 37.66 35.66 35.13 35.68 35.03 36.41 35.92 35.57 34.51 36.45 36.78 36.38 36.15 36.44 34.59 32.40 31.34 31.70 31.29 30.61 30.93 31.08 30.66 30.26 29.70 29.15
40.31 39.62 38.63 38.31 40.78 42.48 44.49 44.96 44.19 43.32 43.92 43.01 42.66 42.83 43.32 44.06 42.38 41.07 38.00 36.26 35.75 35.48 36.00 36.21 36.58 36.15 35.70 36.65 36.53 36.78 36.32 34.59 32.38 31.43 31.16 30.91 30.65 30.50 30.38 30.70 30.42 29.64 29.35 29.74
40.60 39.73 37.89 37.19 42.93 43.25 43.40 42.94 41.52 42.69 42.89 43.37 42.41 42.11 43.04 43.75 43.04 41.95 39.71 38.18 36.65 35.63 36.82 37.02 37.53 36.61 36.38 36.34 34.73 35.61 34.67 33.24 31.71 30.47 30.26 30.22 30.46 30.76 31.16 31.03 30.73 31.76 31.55 30.85

GFSCGP_sfc_wetblb_063.txt.gz
Wetbulb
46.97 41.60 38.20 41.97 44.48 43.92 42.74 40.52 39.77 42.60 46.00 44.24 43.00 44.04 45.99 48.54 49.10 49.10 49.98 50.29 50.84 51.50 53.82 54.96 54.87 55.42 56.01 57.18 57.77 58.38 58.47 59.41 60.16 63.06 65.58 67.73 66.71 66.83 66.83 68.78 70.28 70.17 69.68 68.73
42.35 38.16 42.66 45.92 44.90 43.51 42.29 40.56 39.37 42.40 44.45 43.48 43.06 42.91 46.37 47.86 48.18 48.98 49.42 49.99 50.70 51.46 51.75 51.94 51.79 52.37 53.11 54.36 55.88 56.83 57.93 58.77 59.48 60.33 62.86 68.08 67.39 66.71 67.06 67.75 67.74 68.69 69.47 69.51
39.15 41.00 43.98 44.20 42.79 40.76 41.24 39.91 39.72 38.92 41.83 43.63 42.21 40.24 42.53 45.84 45.25 45.72 46.42 48.38 49.14 49.42 49.64 50.76 51.61 52.26 53.01 53.31 53.86 54.17 55.54 57.23 58.85 60.13 60.71 62.69 67.33 67.69 67.57 67.86 67.21 67.28 67.18 68.51
40.80 44.28 41.79 42.01 41.15 41.99 37.80 43.51 42.05 40.04 37.92 33.91 42.28 34.44 41.02 42.41 42.34 44.51 46.64 48.43 49.33 49.97 50.89 51.20 51.72 52.27 52.87 53.95 55.53 54.20 53.90 54.64 55.93 57.63 57.64 58.17 60.56 62.80 65.33 65.91 67.22 67.60 68.10 66.98
36.33 40.88 40.53 40.44 42.13 44.18 39.77 44.77 42.59 41.40 39.20 37.82 37.49 35.58 38.70 41.46 39.75 42.89 46.04 47.87 49.49 51.05 51.52 51.53 52.06 52.83 54.15 54.88 55.05 55.53 55.43 54.03 54.57 55.28 55.93 56.73 57.68 61.12 64.04 64.61 64.30 65.22 66.81 67.66
36.12 41.71 41.07 41.87 41.55 44.09 44.76 42.17 41.18 40.60 38.22 32.16 37.98 36.52 35.70 38.39 40.81 42.72 45.17 47.16 48.85 50.49 51.88 52.75 53.19 53.74 54.23 55.52 55.58 55.37 54.77 54.82 55.38 54.69 54.64 55.30 56.66 58.48 60.97 62.11 62.60 63.88 65.10 66.10
33.87 34.39 38.68 41.18 37.70 40.21 40.74 39.10 31.86 30.18 30.21 30.90 35.91 33.79 38.33 41.58 43.86 44.04 44.93 46.66 48.55 50.51 51.40 51.97 52.18 52.72 53.69 54.09 54.70 54.76 54.75 54.09 55.23 55.75 55.48 54.53 54.64 56.08 57.77 60.18 62.01 62.56 63.11 63.99
33.14 30.18 33.85 39.13 37.97 36.23 38.69 38.65 34.30 27.13 29.12 31.82 33.91 30.59 37.23 42.36 44.42 45.81 45.96 47.07 48.85 50.10 51.28 51.47 51.93 52.72 53.21 53.39 53.68 53.79 53.64 53.62 54.54 54.53 55.07 55.90 56.09 55.00 54.86 55.76 57.32 59.18 60.92 61.75
34.28 32.44 38.22 40.08 40.54 40.38 35.60 34.36 38.54 32.44 32.60 32.10 33.52 36.45 39.10 40.95 42.11 43.51 44.50 46.21 47.38 49.26 50.14 50.36 50.96 51.33 51.79 51.40 51.22 51.89 52.22 52.35 52.74 53.10 54.18 54.58 55.27 55.46 55.70 56.36 56.73 56.60 57.53 58.74
38.79 31.79 37.65 38.91 41.37 41.40 39.87 41.25 33.38 34.72 26.55 26.39 31.26 33.51 35.30 36.44 39.03 42.10 43.65 45.29 47.21 49.24 49.53 49.50 49.62 49.96 49.51 49.51 49.81 50.58 50.73 50.67 51.43 52.09 52.86 53.22 53.37 53.42 53.68 54.15 54.58 55.17 56.09 57.12
41.83 37.81 34.95 38.75 36.99 36.68 36.62 35.90 35.59 35.12 32.94 29.55 28.99 32.10 41.38 39.63 40.84 42.28 43.77 45.44 47.47 48.37 47.74 48.13 48.66 48.19 48.43 48.91 48.77 48.87 48.92 49.16 49.52 50.85 52.08 52.47 52.56 52.82 53.13 52.58 52.53 52.54 52.85 53.75
41.42 38.09 32.61 34.49 38.89 40.51 40.20 38.23 38.00 32.20 30.62 32.05 31.22 31.77 43.06 43.49 43.46 43.73 44.20 45.47 47.90 47.20 46.48 46.96 46.54 46.31 46.75 46.80 47.03 47.00 46.89 46.89 47.30 48.72 49.63 49.53 49.35 49.76 49.02 48.21 48.37 48.67 49.08 49.85
41.22 36.35 29.44 30.48 35.42 38.53 35.56 37.83 38.10 35.88 35.12 31.47 30.72 32.86 43.54 44.78 43.76 43.61 44.16 46.89 47.73 46.60 45.70 45.74 45.66 45.01 45.06 45.30 45.45 45.51 45.23 45.04 45.68 46.40 46.45 45.77 44.94 44.34 44.05 43.74 43.52 43.13 42.40 41.81
43.17 37.12 34.30 30.99 33.26 37.21 33.45 35.99 36.96 34.26 31.42 32.45 32.89 35.08 38.46 40.79 41.69 43.69 45.40 47.02 47.16 45.78 43.94 44.38 44.66 44.48 44.44 44.19 44.45 44.48 44.05 44.26 44.44 44.43 43.93 42.94 42.48 41.79 41.10 40.61 40.53 40.42 40.14 38.94
41.58 34.41 35.21 35.06 35.59 35.82 35.16 34.99 35.35 32.01 34.69 33.13 35.08 35.30 39.68 41.95 42.79 44.55 45.89 46.21 44.25 42.81 41.95 41.87 42.93 43.40 43.71 43.70 44.17 44.01 43.70 43.15 43.19 42.35 41.90 41.12 41.25 40.77 40.54 40.17 40.15 40.02 39.52 38.97
40.94 33.28 34.03 32.00 34.49 34.69 32.74 35.57 35.99 35.14 34.84 35.34 36.12 35.82 43.11 44.50 45.19 45.18 45.86 44.69 42.81 40.75 40.10 39.94 40.86 41.68 42.20 42.97 42.69 43.04 42.80 42.56 42.73 41.05 40.16 40.37 39.82 39.06 38.32 38.22 38.58 38.41 38.36 37.77
38.52 35.43 33.37 30.05 32.83 32.87 29.96 34.05 35.14 35.84 37.22 36.75 32.63 38.83 43.07 42.19 43.18 43.85 45.47 44.57 42.86 40.96 40.07 40.14 40.25 40.81 41.57 41.70 42.15 41.26 41.61 41.63 40.34 39.36 38.97 38.43 37.93 37.32 36.98 37.15 36.87 36.17 35.63 35.64
37.70 35.94 34.97 31.01 31.89 25.25 35.32 39.82 39.44 37.31 38.46 39.70 39.97 41.64 43.03 43.23 43.99 44.74 45.58 45.14 42.61 40.62 39.88 39.05 40.10 40.27 40.77 41.48 41.29 41.76 40.56 38.20 37.23 36.91 36.42 37.05 37.07 36.74 36.58 35.71 35.06 34.94 35.29 34.59
40.99 37.34 32.22 29.53 29.91 34.16 36.23 37.02 36.47 36.42 37.91 41.05 40.22 42.27 43.76 44.67 44.39 45.21 45.05 42.88 42.08 41.15 40.64 40.10 40.07 39.24 39.98 40.24 40.76 40.53 39.22 37.99 36.40 36.39 35.93 36.62 36.45 35.44 35.08 33.81 33.48 33.21 32.84 32.76
38.74 39.15 34.52 30.90 26.29 25.69 36.88 40.79 43.32 42.38 36.03 44.03 43.62 43.24 43.96 44.13 41.05 44.87 43.77 41.71 40.47 40.30 40.42 39.70 39.67 38.73 38.36 38.29 40.19 39.03 37.10 36.17 35.50 35.73 35.92 36.33 36.11 35.02 33.69 33.10 33.00 33.65 33.44 32.96
33.78 34.43 31.47 30.80 28.33 33.30 40.32 42.61 42.51 34.36 36.53 44.69 44.83 44.92 45.20 43.46 45.47 44.91 42.80 41.11 41.28 40.77 39.78 39.98 39.35 37.75 38.32 38.99 38.52 34.84 35.61 34.95 35.75 36.25 36.41 36.04 35.81 34.49 34.49 34.15 34.58 34.43 33.33 32.94
33.06 31.59 30.33 31.52 27.69 26.08 41.57 41.12 37.04 42.61 45.92 45.23 45.58 45.56 44.66 45.50 41.60 40.75 40.49 39.59 39.45 38.69 38.60 39.38 38.28 37.76 38.19 37.51 36.33 34.25 34.44 36.19 36.62 36.60 36.17 36.17 36.73 35.62 34.18 33.72 33.48 33.42 32.47 31.29
32.59 37.06 34.65 34.64 34.67 41.75 43.71 43.92 45.41 45.67 44.99 45.84 45.14 45.84 45.25 43.83 40.74 40.78 39.24 38.21 38.61 38.87 38.40 39.17 37.65 35.65 36.16 37.56 37.04 35.13 35.45 36.65 36.89 36.64 34.85 33.61 33.44 33.41 33.59 32.83 32.31 31.79 31.82 30.63
40.03 42.61 37.22 37.49 41.37 41.80 42.92 45.19 45.49 45.84 44.56 45.55 45.70 45.06 45.10 45.03 43.70 41.22 39.20 37.61 37.26 37.77 37.40 38.17 36.64 35.46 35.37 37.22 37.60 36.25 37.27 37.70 37.04 34.52 32.78 32.68 32.10 31.94 32.11 31.68 31.40 31.03 30.23 29.55
40.34 41.79 39.23 39.21 42.29 44.03 45.77 46.62 46.68 45.09 45.87 45.31 45.41 44.38 44.36 44.93 45.00 42.59 40.56 38.16 37.61 37.25 37.75 38.56 37.23 36.30 36.13 36.95 37.38 38.38 38.51 37.39 34.50 32.85 32.37 32.05 31.73 31.41 30.98 31.11 30.94 29.79 29.95 30.08
42.49 40.51 38.36 37.70 43.60 43.59 44.28 46.07 44.61 44.16 44.69 44.84 44.41 44.05 44.39 44.79 45.19 44.61 42.55 40.51 38.82 37.37 37.34 37.55 37.95 36.81 36.82 37.16 37.80 38.40 37.67 36.03 33.28 31.69 31.47 31.50 31.33 31.70 31.78 31.18 30.37 31.94 31.46 30.92

GFSCGP_sfc_wetblb_066.txt.gz
Wetbulb
45.99 40.40 37.06 40.34 42.46 42.23 41.35 38.52 36.96 40.80 45.05 42.92 41.65 42.57 44.18 45.92 46.15 45.13 45.63 46.06 46.40 47.93 50.30 49.98 50.88 50.79 50.59 51.46 52.16 52.98 53.93 55.07 55.79 55.93 59.06 65.92 65.84 65.85 66.17 67.27 67.40 67.74 65.14 65.50
41.54 37.42 42.19 44.67 43.97 42.99 41.23 38.26 37.08 41.15 44.59 42.59 41.25 40.53 44.21 45.06 45.66 46.38 45.66 45.32 46.01 47.00 47.02 48.46 48.59 46.77 48.39 48.89 49.87 51.32 52.63 54.02 54.77 55.03 55.75 61.90 65.91 65.81 65.37 65.61 66.75 66.96 66.48 65.91
37.02 39.95 44.45 42.72 41.06 40.04 39.62 37.19 37.16 36.95 40.52 41.33 38.92 37.07 40.36 44.00 44.71 44.17 43.71 43.80 45.26 45.56 45.98 47.21 47.99 48.85 49.32 49.79 50.24 50.31 50.40 51.13 52.31 54.01 54.65 55.11 63.60 63.94 63.38 63.69 64.78 65.96 66.42 65.72
40.01 44.21 41.80 41.38 39.90 41.67 36.55 41.74 41.63 39.27 36.02 30.34 38.73 26.84 37.91 41.67 39.90 41.74 41.27 42.06 43.83 45.02 46.44 48.19 48.55 48.40 49.17 50.27 51.72 52.03 50.72 50.48 51.40 51.57 52.00 51.50 51.55 56.01 61.71 63.60 65.51 65.66 65.39 65.11
35.74 39.96 39.81 37.11 38.19 43.05 38.41 43.36 40.68 39.14 35.77 33.98 34.49 29.28 33.61 39.19 36.85 39.00 41.71 43.92 45.34 45.83 47.28 48.09 48.66 50.29 51.33 51.67 51.26 51.56 51.72 51.16 50.71 50.19 50.61 50.39 50.61 52.05 54.19 59.00 60.56 61.01 61.59 64.54
37.02 41.81 41.58 40.38 42.24 44.12 44.87 40.76 39.46 36.97 35.58 27.36 34.24 32.14 30.36 34.41 37.88 40.44 42.63 44.14 46.11 47.07 48.11 49.01 49.84 50.60 50.87 51.50 51.56 51.30 51.30 51.30 51.68 51.11 49.96 49.29 49.37 49.98 50.84 54.45 56.92 58.20 59.77 61.26
35.36 34.85 38.28 41.85 36.94 41.04 42.19 35.54 28.52 25.95 26.96 24.85 34.20 32.15 33.14 39.03 41.49 41.54 41.62 43.14 45.13 46.94 47.40 47.95 48.23 48.97 49.92 49.79 50.26 50.96 50.52 50.23 50.97 50.69 51.00 50.95 49.60 48.66 48.65 50.32 53.13 55.86 57.99 59.44
31.93 28.50 35.62 38.91 38.87 36.69 36.61 35.66 27.49 21.29 23.15 24.71 31.73 26.54 32.01 39.82 43.20 43.49 44.30 44.53 45.96 46.37 47.06 47.47 47.41 47.76 48.16 48.57 48.01 48.38 48.91 48.95 49.45 49.42 49.94 50.16 50.75 51.15 50.90 51.11 50.96 51.15 51.96 53.94
33.16 31.76 37.58 39.37 40.31 41.08 36.02 33.53 35.75 28.30 27.73 24.00 27.22 30.91 35.02 37.86 39.69 40.90 42.10 43.94 44.38 46.00 46.48 45.89 46.15 46.87 46.25 45.61 46.11 46.61 46.92 47.64 48.31 48.66 48.90 49.23 49.63 49.71 49.78 50.42 51.34 51.99 52.39 54.01
37.40 31.09 36.83 38.36 41.20 40.10 39.02 40.44 30.50 28.57 19.02 21.01 25.00 27.62 29.20 33.43 36.50 39.38 40.72 42.03 44.83 46.74 46.13 45.68 45.74 45.08 45.08 45.27 45.51 45.82 46.26 46.28 46.97 47.83 48.37 49.30 49.03 49.57 49.59 49.50 49.08 49.31 49.80 51.06
40.06 35.94 34.26 37.68 35.72 34.37 34.91 34.01 35.01 31.75 28.32 21.50 20.54 24.05 35.24 35.87 38.39 38.39 40.98 43.51 45.16 45.81 44.48 44.50 44.34 44.31 44.89 44.64 44.30 43.91 43.87 43.98 44.17 45.50 46.49 45.93 45.36 46.35 45.69 44.27 44.47 44.66 46.29 47.30
39.99 35.51 30.84 33.56 38.24 39.13 37.83 36.35 35.74 26.31 26.98 25.11 23.74 24.95 38.82 37.90 39.27 41.12 41.59 44.14 45.85 45.31 44.15 43.95 43.46 43.19 42.90 42.79 42.63 42.10 41.98 41.79 42.36 43.48 43.14 42.36 42.09 41.92 41.09 40.44 40.15 40.18 39.10 39.95
39.05 32.66 24.69 27.04 32.28 36.25 33.11 36.24 36.95 33.55 31.99 27.82 23.93 24.17 39.52 38.32 38.64 40.41 41.16 43.58 45.22 44.79 43.47 42.90 42.25 41.74 41.33 41.35 41.54 41.24 40.51 40.45 41.41 41.71 40.94 40.30 39.59 38.63 38.02 38.19 38.79 38.98 37.98 37.44
41.53 34.71 30.56 25.07 29.92 33.64 29.22 33.94 35.16 30.57 23.81 27.66 26.08 29.31 35.03 37.96 38.49 39.61 41.47 43.89 44.40 43.77 42.86 41.58 40.80 40.43 40.30 40.55 40.77 40.38 39.91 40.15 40.39 40.48 39.50 38.54 37.98 37.88 37.97 38.73 39.90 39.52 38.68 36.72
38.70 30.71 31.65 32.79 35.00 35.46 33.95 33.46 34.14 28.11 30.95 23.71 30.16 31.38 35.34 37.46 38.89 39.80 42.45 43.96 42.77 41.77 40.96 40.14 40.10 38.90 39.35 39.40 39.80 39.99 39.75 39.44 39.51 38.72 38.09 37.70 38.07 39.45 39.28 39.58 39.49 38.93 38.59 38.66
38.64 30.12 29.54 25.40 33.26 32.79 29.75 34.07 34.39 33.67 33.29 32.28 33.41 32.53 38.57 39.44 41.48 40.38 41.78 43.24 41.67 40.33 39.58 38.75 39.02 39.02 39.62 38.49 39.01 39.88 39.17 39.35 39.33 37.70 37.02 37.43 37.80 37.88 37.13 37.34 37.15 37.19 36.47 36.36
35.79 31.35 26.62 23.83 30.83 30.22 24.68 31.11 33.06 34.00 34.94 34.07 29.33 34.92 39.16 39.31 41.47 41.14 42.33 43.31 42.44 40.38 38.92 38.67 38.03 37.73 38.04 38.24 38.96 37.55 37.46 38.08 38.39 37.47 36.76 36.87 36.99 36.15 36.08 36.24 36.18 35.05 35.13 35.26
34.75 33.88 30.07 24.02 26.37 16.37 32.90 38.15 37.82 35.59 36.89 37.35 37.72 39.35 40.99 40.67 41.47 42.68 43.09 42.70 41.04 39.55 38.68 37.50 37.17 37.28 37.84 38.19 38.03 37.87 38.09 37.49 37.09 36.14 35.94 36.45 36.26 35.32 35.31 35.23 34.85 34.44 34.44 33.89
37.66 35.46 28.73 23.90 24.94 30.58 32.86 35.17 34.90 34.17 34.93 39.18 37.72 39.30 40.83 42.25 42.05 41.64 43.46 41.14 39.36 38.72 38.27 37.03 36.24 36.53 37.12 38.52 37.95 37.22 37.57 36.66 36.05 35.24 35.09 35.41 34.67 34.96 34.67 33.34 32.79 32.46 32.56 32.45
37.04 35.86 30.64 29.25 23.69 22.40 34.59 38.25 41.12 39.36 34.14 40.96 39.91 39.52 41.41 41.82 36.99 41.32 40.30 39.34 37.88 37.88 37.54 36.16 35.81 36.03 36.54 37.20 36.78 36.77 35.97 35.52 35.31 35.51 35.45 35.69 35.69 34.56 33.11 32.78 32.67 32.96 32.62 30.29
31.97 31.95 27.29 27.89 27.79 29.46 38.68 40.53 40.04 32.47 34.87 41.93 42.75 42.31 42.29 39.71 40.73 41.48 40.27 39.16 38.66 37.63 37.25 37.23 35.90 34.44 35.39 36.17 35.88 34.59 34.81 34.54 35.93 36.60 36.35 35.67 34.91 33.72 33.73 32.78 28.81 26.90 27.99 28.30
30.52 28.27 27.93 29.71 27.07 21.78 39.75 38.15 34.38 40.04 42.39 42.60 41.82 41.81 43.42 42.04 40.59 40.48 40.28 39.50 38.48 36.87 36.92 37.26 35.14 34.88 35.74 37.13 36.11 34.50 34.36 36.14 36.51 35.98 35.31 34.15 34.46 34.50 33.35 29.05 28.54 27.01 26.07 24.54
29.97 32.85 29.83 30.73 30.14 38.77 40.18 40.14 42.45 42.76 43.37 42.01 41.22 42.76 43.25 42.43 40.35 40.22 38.88 38.38 38.39 38.21 36.30 36.71 34.76 35.38 36.11 36.92 36.13 34.40 35.26 36.45 36.34 34.45 32.56 30.36 29.93 29.62 29.54 26.62 25.72 24.82 24.91 23.50
36.93 38.27 33.60 33.98 37.05 37.64 39.24 41.23 42.60 42.28 41.78 43.95 43.25 42.26 42.23 42.35 40.95 40.34 38.76 37.68 37.40 37.85 36.69 36.00 34.62 34.25 34.84 36.81 36.75 36.25 36.44 36.24 35.01 31.62 27.88 27.24 26.59 26.82 26.60 26.56 25.50 23.86 23.15 22.62
37.09 37.26 35.28 34.62 37.65 38.96 41.61 41.46 42.23 42.34 42.59 42.43 42.90 42.03 41.71 41.79 42.31 40.50 38.48 37.68 37.55 36.33 37.25 35.72 34.29 35.03 35.31 36.92 36.44 36.58 36.37 35.16 31.27 28.31 27.24 26.74 26.68 25.31 24.60 25.88 25.87 23.48 24.95 25.99
37.59 36.40 33.88 33.13 39.52 38.98 39.68 41.57 42.26 41.73 41.06 41.28 41.19 40.85 41.63 42.13 42.23 41.97 39.52 37.96 36.89 35.75 36.73 35.02 35.23 35.97 35.59 36.38 36.23 36.05 35.54 33.24 29.03 27.31 26.20 25.53 24.99 25.05 24.96 24.91 25.61 32.19 30.94 30.92

GFSCGP_sfc_wetblb_069.txt.gz
Wetbulb
45.78 40.65 36.44 38.93 40.73 40.30 38.83 37.25 35.22 39.32 43.44 41.85 41.28 41.56 43.94 45.41 43.64 43.52 44.53 44.74 44.71 46.01 47.27 47.13 46.71 46.49 47.48 47.97 47.84 48.90 51.07 52.00 53.72 56.40 63.73 63.85 64.69 63.05 63.74 65.56 65.96 65.92 66.17 64.47
41.47 36.44 40.09 42.94 42.75 41.46 38.88 35.14 34.91 37.96 42.17 41.95 40.71 40.60 43.88 44.53 43.60 44.43 45.34 44.89 44.51 44.37 44.95 46.06 47.03 46.93 47.42 47.94 48.32 48.18 48.42 49.24 50.78 52.16 53.00 63.61 64.90 64.55 65.66 65.46 65.22 65.33 64.89 65.24
37.57 39.12 43.32 42.55 41.04 39.43 38.86 34.73 34.10 34.87 38.13 39.27 37.15 36.85 40.44 42.95 43.04 44.14 43.94 44.47 44.17 44.90 44.70 45.26 46.96 48.20 48.69 48.79 49.17 49.78 48.38 48.60 49.31 50.16 51.61 51.95 61.57 62.54 62.50 62.66 62.78 64.33 64.71 64.62
39.70 43.04 41.45 40.16 38.89 39.15 34.26 40.40 39.81 37.53 34.47 29.33 37.14 26.98 35.50 40.34 40.02 40.90 40.44 40.86 42.39 44.60 45.45 46.74 47.35 48.23 49.08 49.18 49.91 50.26 50.43 49.21 49.78 49.42 49.44 49.23 49.56 51.80 58.39 61.96 63.34 63.70 64.11 64.00
35.97 40.12 39.03 37.48 38.79 41.46 37.49 43.30 40.59 36.86 33.26 31.34 31.61 28.15 32.59 39.30 35.65 37.66 38.75 39.75 42.60 44.19 45.66 46.61 47.84 49.79 50.60 50.71 49.98 49.69 50.05 49.96 49.86 48.41 48.06 47.86 47.73 48.79 50.40 51.84 55.90 61.14 63.06 63.91
37.69 42.05 40.98 39.16 41.32 42.27 43.94 40.66 38.85 35.98 34.01 24.48 31.26 29.34 29.83 33.36 38.84 37.06 38.86 42.16 44.27 45.52 45.90 47.28 48.46 49.70 49.81 50.00 50.06 49.71 49.90 49.88 50.00 49.76 49.44 48.00 46.47 46.83 47.49 48.44 50.48 53.83 56.96 58.92
34.67 35.93 39.55 41.59 36.51 40.50 40.59 36.20 27.73 26.08 22.42 21.81 31.65 29.89 33.22 37.75 38.45 39.65 41.12 42.23 43.75 45.32 45.68 46.42 47.22 47.64 48.20 47.66 47.67 49.45 48.68 48.52 48.70 48.85 48.74 49.01 49.16 48.74 47.63 48.20 48.26 49.20 51.11 53.29
26.10 24.36 37.16 39.33 38.23 35.38 35.12 34.22 24.31 19.49 20.63 23.25 29.88 26.63 32.09 36.55 41.57 42.76 43.09 43.13 44.40 45.12 45.51 46.37 46.26 46.08 45.46 45.60 45.68 46.16 46.35 46.62 47.58 47.91 48.02 48.41 48.64 49.02 49.28 49.29 49.68 49.90 50.27 51.13
29.29 29.13 37.98 39.32 41.07 39.35 36.53 32.83 36.00 27.46 26.01 21.37 25.27 28.43 35.23 37.94 39.48 41.14 41.94 43.36 43.49 44.75 45.30 44.83 45.07 44.25 43.88 44.23 44.63 44.77 45.27 45.74 46.55 47.09 47.36 47.72 48.20 48.32 48.15 47.97 48.19 48.50 48.93 51.25
36.94 28.74 36.79 38.86 41.36 40.61 39.00 40.43 30.93 27.57 20.18 20.65 22.41 23.80 26.92 32.78 36.75 39.62 40.71 40.88 43.41 45.05 44.00 43.59 43.34 43.25 43.61 43.84 43.59 43.27 43.77 43.40 44.08 45.19 45.28 44.55 44.47 44.35 43.64 42.98 41.96 42.90 43.85 45.14
39.08 34.62 34.15 37.30 35.75 35.32 36.21 34.85 33.92 32.73 27.35 20.14 18.81 23.39 32.98 35.60 38.14 38.33 40.15 41.52 43.68 43.47 42.31 42.53 42.03 42.79 42.97 42.30 41.77 41.17 41.24 41.55 41.91 42.57 41.63 40.78 40.82 40.88 40.26 39.27 38.66 38.38 38.64 39.14
38.59 32.92 29.36 32.68 39.20 40.58 38.71 36.09 35.81 25.81 25.87 24.15 21.47 24.69 36.05 35.72 37.91 39.29 40.58 43.56 44.44 43.43 42.85 42.18 41.51 41.44 40.90 40.48 40.40 39.69 39.85 39.96 40.59 41.13 40.25 39.30 38.92 38.53 37.73 37.67 37.90 37.60 36.58 37.29
37.70 30.80 22.68 25.81 30.92 34.93 32.32 35.27 37.40 33.67 30.07 24.71 19.51 23.82 35.56 36.36 37.80 39.70 40.26 43.11 44.00 43.34 42.81 41.88 40.94 40.27 39.88 39.82 39.83 39.01 39.10 38.82 39.72 39.51 38.51 37.81 37.58 37.21 36.96 37.18 37.62 37.58 36.31 36.07
40.70 32.99 28.35 22.41 27.25 31.06 28.06 32.52 34.24 31.07 25.06 27.22 25.37 26.89 32.38 35.14 36.76 38.10 39.76 42.09 43.21 42.75 42.46 40.93 39.65 39.03 38.78 39.57 39.27 38.65 38.24 38.43 38.89 38.77 37.70 37.16 37.20 38.73 38.24 37.85 37.66 38.67 37.20 36.43
36.96 28.59 30.20 32.20 34.21 33.96 31.84 31.84 32.05 26.41 30.29 23.58 28.80 29.77 35.12 35.88 36.19 37.51 39.90 41.93 41.55 40.49 40.08 40.28 38.98 37.98 38.10 38.51 38.39 38.41 38.22 38.19 37.90 37.14 36.68 36.28 36.91 38.41 38.70 38.19 38.03 37.80 37.33 37.74
36.20 25.49 25.79 22.14 32.42 31.95 29.68 32.88 33.03 32.37 31.96 31.80 32.04 31.18 37.37 38.40 39.46 40.45 41.37 41.85 40.51 39.93 39.06 38.73 38.70 38.41 38.20 37.71 38.14 38.23 37.62 37.28 36.95 35.81 35.48 36.20 37.62 37.43 36.92 36.89 36.91 36.77 36.62 36.14
34.48 28.56 23.73 21.48 29.80 28.37 22.81 30.28 32.09 32.48 33.75 34.07 28.90 33.71 36.39 37.22 39.84 40.30 40.74 42.07 41.82 40.67 38.36 37.38 37.31 37.48 37.26 37.66 37.50 35.76 35.93 36.61 36.19 35.72 35.62 37.07 36.75 36.38 36.24 36.50 36.01 35.41 34.90 34.74
32.87 30.71 25.98 21.31 24.53 15.01 28.33 36.34 35.76 34.40 35.61 35.63 35.65 36.40 38.10 39.23 40.01 41.30 42.78 42.07 41.63 39.81 38.19 37.22 36.24 36.81 37.24 37.13 36.77 36.23 36.65 37.39 36.97 36.16 36.10 36.71 36.22 35.34 35.86 35.37 34.33 33.94 33.32 32.21
35.72 35.05 24.93 22.67 22.00 25.98 30.81 33.75 33.47 32.15 32.36 37.10 35.98 37.03 38.86 40.74 40.28 39.63 42.73 41.83 40.56 38.16 37.39 36.38 36.16 36.01 35.82 36.17 36.31 35.69 35.66 36.62 35.84 35.25 35.37 35.03 35.58 35.20 34.69 33.34 32.61 32.57 32.28 31.91
35.81 36.36 27.91 28.13 20.53 21.39 32.85 35.72 39.04 37.91 31.38 39.34 38.42 38.08 38.11 40.55 34.98 38.26 39.47 38.29 37.16 36.82 36.25 34.93 35.00 34.89 34.73 34.87 35.72 34.82 34.28 35.57 34.70 34.85 35.02 35.38 35.87 35.02 33.61 32.85 32.44 32.23 25.72 30.00
30.57 31.80 28.50 25.62 24.82 28.01 36.32 38.85 39.79 31.45 32.00 40.37 39.47 39.39 40.41 38.54 40.26 41.27 39.79 37.84 37.08 36.01 35.41 35.19 34.70 33.51 33.85 34.64 34.13 33.00 35.16 35.03 36.28 36.65 36.34 35.73 35.19 33.96 32.87 32.02 26.29 24.02 25.88 25.88
28.92 29.43 27.36 27.13 26.98 21.66 38.25 36.99 34.52 38.84 40.62 41.27 41.04 41.44 42.75 41.84 39.58 38.60 39.38 38.59 38.08 36.47 35.99 35.31 33.73 33.54 34.60 35.06 34.71 34.91 34.46 36.24 36.47 36.17 35.31 33.65 32.10 33.68 32.13 28.53 28.28 27.49 24.93 23.23
27.50 31.42 28.88 29.19 28.93 36.18 38.48 38.22 40.93 42.03 43.10 42.20 41.29 42.26 42.98 41.43 40.31 40.19 38.77 38.01 37.83 37.11 35.69 35.37 33.80 33.12 34.18 36.59 36.19 34.87 35.45 36.47 35.83 35.27 33.36 32.48 31.88 29.88 28.55 25.40 24.10 23.12 22.62 21.48
35.81 35.91 31.86 32.21 35.20 36.27 38.27 39.64 41.92 42.33 41.21 41.93 43.02 42.77 43.19 42.40 41.01 39.42 38.99 37.96 37.70 37.57 36.54 34.71 33.63 32.71 34.85 36.03 35.88 36.37 36.50 36.72 35.56 32.40 30.13 27.64 26.88 26.19 25.83 24.81 24.09 22.27 21.36 20.71
34.56 35.03 33.12 32.45 35.64 37.07 38.52 39.24 41.14 41.16 41.66 41.11 40.83 40.89 40.94 41.50 41.62 40.42 38.43 37.50 37.64 37.29 36.39 35.06 33.61 33.76 35.03 36.25 35.78 36.68 36.74 34.61 32.60 28.68 25.49 25.90 26.48 24.79 24.16 25.21 22.67 23.07 23.87 23.57
35.87 34.83 31.92 31.38 36.99 37.06 38.92 39.84 41.22 40.97 40.84 40.80 40.41 39.80 40.27 41.24 41.49 41.17 38.66 37.39 36.77 35.76 36.10 34.55 33.86 34.19 35.56 36.43 35.94 36.06 36.15 34.06 30.05 25.14 24.33 24.42 23.58 23.28 23.66 25.07 24.88 31.67 31.00 31.43

GFSCGP_sfc_wetblb_072.txt.gz
Wetbulb
45.83 40.34 35.39 36.87 39.11 38.43 38.62 36.16 35.60 38.96 42.70 41.46 41.07 40.62 43.64 46.17 43.15 42.78 43.49 44.20 44.76 45.55 44.28 45.81 44.75 44.70 45.97 47.39 47.50 47.58 49.41 49.78 58.43 63.13 62.99 62.62 63.02 63.37 62.77 63.81 65.60 66.14 65.96 64.41
41.65 36.98 39.83 42.33 42.27 40.41 38.68 35.62 34.52 37.10 41.20 39.97 39.73 39.95 43.05 44.66 43.75 43.49 44.10 44.43 44.67 43.59 43.86 44.50 44.92 46.12 47.34 47.28 47.62 47.31 47.34 48.01 49.25 51.10 53.21 63.31 63.19 63.24 63.94 63.92 63.93 63.91 64.14 64.29
38.15 39.60 43.07 41.71 40.18 38.60 36.99 33.64 33.49 34.22 36.98 38.23 37.34 35.43 38.11 42.37 42.09 43.11 43.64 44.08 43.65 43.96 43.54 44.45 45.85 46.95 47.25 47.27 47.67 48.79 48.49 47.27 48.22 48.96 49.98 50.64 60.36 61.42 61.84 61.43 62.05 63.87 64.25 64.08
39.78 42.31 40.81 39.78 38.72 39.13 35.97 39.00 39.12 35.91 33.62 29.27 36.03 26.63 32.35 39.00 41.75 42.23 42.15 40.90 41.87 42.54 43.44 44.91 46.11 47.27 47.85 48.13 48.49 48.74 48.77 47.90 47.89 47.54 47.76 47.88 48.70 51.47 57.10 58.54 60.73 62.35 62.71 63.00
36.19 39.70 38.43 38.12 38.74 40.35 37.58 42.08 38.20 35.74 32.95 30.63 30.29 27.45 30.25 34.44 36.04 39.93 38.92 39.37 40.27 42.07 44.12 45.38 46.94 49.18 49.78 49.27 48.43 48.22 49.02 49.18 48.97 48.35 46.57 46.38 46.39 47.56 48.73 49.17 51.09 54.41 58.52 61.67
38.45 41.74 40.00 38.86 40.72 41.66 42.40 37.60 36.77 35.21 33.79 25.27 29.54 28.57 28.02 31.66 35.75 39.02 37.94 38.45 41.14 42.25 44.21 45.85 47.84 49.32 48.89 48.34 48.07 48.09 48.37 48.04 48.22 48.28 48.28 47.60 45.31 45.18 46.20 46.69 47.30 48.83 52.69 54.37
35.81 36.53 39.34 40.14 35.85 39.37 39.54 32.36 27.35 27.40 27.38 23.79 29.98 28.37 33.75 35.73 38.36 40.06 38.13 39.60 42.09 43.23 43.89 45.28 46.21 46.97 46.81 46.10 46.34 47.74 46.87 46.84 47.53 47.51 48.10 48.20 48.05 48.05 47.75 48.07 48.49 48.91 49.69 50.34
29.00 29.55 37.30 39.60 35.96 33.58 34.78 35.10 24.28 20.95 21.41 22.30 28.61 26.22 32.34 36.09 37.78 40.85 43.06 43.39 43.39 43.60 44.52 45.35 45.22 45.27 44.46 44.72 44.64 44.98 45.52 46.05 46.51 46.62 47.33 47.50 47.84 47.97 48.04 47.68 47.84 47.67 48.33 49.28
29.75 29.85 38.23 39.20 40.68 39.02 35.51 33.03 35.99 23.94 22.72 18.77 24.82 27.95 34.00 35.67 35.88 39.87 41.77 42.93 43.12 44.08 44.53 43.86 44.40 43.40 43.35 43.58 43.53 43.91 44.40 44.48 45.31 46.24 45.67 44.69 45.20 44.88 43.72 42.96 43.85 44.96 44.46 47.64
33.76 29.54 36.51 38.96 41.21 40.78 38.08 40.23 29.93 23.31 16.07 18.15 22.33 22.61 27.39 30.63 34.74 39.81 40.94 42.03 43.74 44.41 43.42 43.50 42.66 42.43 42.74 42.76 41.75 42.01 42.28 42.11 42.88 42.61 42.27 41.69 40.75 40.17 39.47 38.85 38.04 38.46 38.73 39.96
37.48 31.36 33.00 37.81 35.53 34.76 35.95 34.40 33.56 30.86 25.73 19.32 18.63 22.87 30.35 33.39 37.24 39.55 41.30 43.09 43.78 42.93 42.32 42.32 41.90 42.27 42.06 41.16 40.32 39.98 40.26 40.91 41.05 40.78 39.66 38.71 38.54 38.34 37.96 37.43 36.86 36.61 36.97 37.38
38.38 31.87 29.42 32.79 39.59 40.66 39.13 36.33 33.36 25.52 25.19 22.07 19.90 23.29 33.42 34.04 37.57 40.37 40.59 42.86 44.38 43.54 42.70 41.98 41.46 41.26 40.13 39.60 39.09 38.84 39.14 39.61 39.76 39.36 38.26 37.57 37.65 37.41 36.72 36.43 36.33 36.40 35.77 36.69
37.09 27.74 26.86 28.69 32.05 37.48 35.06 36.75 38.03 32.79 26.93 18.06 18.62 23.98 35.52 33.41 36.47 39.20 40.37 42.57 43.45 42.72 42.15 40.95 39.95 39.40 38.93 38.70 38.11 38.01 38.14 38.30 38.63 38.27 37.53 37.17 36.99 36.83 36.48 36.65 37.19 37.24 36.33 36.29
40.36 31.82 26.22 23.60 25.64 30.11 27.18 31.77 35.87 34.91 27.21 24.89 24.13 28.74 32.83 35.17 36.48 38.65 40.86 43.48 43.18 42.78 42.53 40.86 39.37 38.74 38.46 38.46 37.81 37.35 37.20 37.70 37.72 37.40 36.83 36.36 37.73 39.01 38.48 37.21 38.05 37.23 36.67 35.92
35.44 28.06 29.90 30.55 32.91 32.28 30.76 31.10 31.49 28.18 32.15 27.93 31.64 29.21 34.47 36.79 37.33 38.65 41.35 41.46 42.11 41.36 40.58 39.81 38.74 37.93 38.24 37.85 37.63 37.34 37.18 36.98 36.91 36.56 36.01 35.85 38.01 38.35 38.09 37.77 37.53 37.44 37.06 37.03
34.62 24.28 25.22 21.63 30.98 30.76 28.31 31.80 32.08 31.53 30.82 31.27 30.82 31.35 37.88 39.20 36.59 36.76 37.77 40.55 40.74 39.72 39.35 39.29 38.67 37.64 37.83 37.58 37.61 37.68 36.88 36.33 36.28 35.36 35.14 36.04 37.51 37.19 37.01 37.09 37.05 36.58 35.96 36.07
33.05 27.25 22.45 20.47 28.71 27.65 24.07 29.60 31.43 31.66 32.70 33.55 28.63 34.61 36.44 36.61 38.59 39.56 39.46 40.88 41.16 39.99 38.53 37.87 37.71 37.77 37.33 37.40 37.07 35.87 35.74 35.81 35.07 34.80 35.47 37.06 37.08 36.37 36.29 36.32 35.63 34.91 34.49 34.91
31.65 28.30 24.78 20.35 24.10 13.31 28.66 34.79 34.23 33.40 34.31 34.68 34.49 35.70 37.44 37.92 38.75 40.27 40.97 41.52 41.70 42.11 39.36 37.27 36.38 37.14 37.39 36.90 36.19 35.81 36.15 36.30 37.05 36.46 36.66 36.92 36.07 36.05 35.92 34.97 34.23 33.46 33.18 33.22
34.64 31.64 24.28 21.82 21.18 25.24 28.92 32.91 32.33 30.72 31.36 36.04 35.87 35.88 36.96 38.77 38.78 37.82 42.07 42.46 42.23 40.76 38.43 36.73 36.56 36.84 35.88 35.88 35.77 35.45 35.47 36.56 36.07 35.65 35.62 35.71 35.98 35.29 34.60 33.20 32.80 32.44 31.81 25.64
34.81 36.47 28.43 26.95 20.03 20.13 28.90 34.13 36.64 36.16 29.02 36.93 37.57 36.35 36.54 38.28 32.93 35.62 41.01 39.09 38.41 37.66 36.20 35.08 35.04 34.98 35.04 35.44 35.57 34.83 34.39 35.56 35.00 35.32 35.12 35.78 36.16 35.07 33.66 32.86 32.51 32.00 31.64 28.70
31.59 32.01 28.75 26.84 26.55 26.19 33.34 36.93 38.78 28.11 30.46 39.14 38.30 38.21 37.25 36.74 37.31 40.03 38.85 37.99 37.24 35.83 35.15 35.34 34.95 34.28 34.32 35.40 34.87 32.92 33.31 35.09 35.82 36.17 36.13 35.86 35.23 34.27 33.41 32.53 26.25 22.41 23.61 25.52
29.05 29.58 28.89 29.29 26.86 22.25 36.91 36.00 33.29 37.11 39.06 39.62 38.65 39.57 39.46 40.58 39.19 38.16 38.76 36.93 37.04 36.23 35.43 35.08 33.67 33.18 34.12 34.36 33.98 32.66 33.74 36.64 36.84 36.38 35.57 34.81 34.60 34.27 32.46 28.61 28.04 26.63 24.20 22.93
28.00 30.17 28.85 29.56 29.01 35.31 37.33 36.77 39.25 41.20 41.32 41.96 40.81 41.58 43.55 41.42 39.38 38.83 38.25 37.30 37.22 37.00 36.01 34.45 33.39 32.74 33.02 34.05 34.06 34.47 35.82 36.51 36.17 35.43 34.09 32.46 31.62 31.23 29.86 27.45 26.09 23.52 22.35 21.03
31.96 33.90 31.56 30.86 34.29 35.22 37.30 38.65 40.49 41.90 41.11 41.97 42.28 42.20 43.02 42.24 40.99 39.10 38.31 37.52 37.20 37.16 36.10 35.40 32.98 32.02 31.91 33.46 35.42 36.52 36.55 36.57 35.59 34.69 30.87 30.47 28.61 26.66 25.90 26.00 25.66 22.94 20.82 19.56
32.54 33.97 32.11 31.06 34.27 36.32 38.17 38.66 40.39 40.87 41.05 40.65 40.71 40.60 40.62 41.54 41.27 41.09 39.31 37.57 36.94 36.45 36.84 35.67 33.49 32.93 33.39 34.75 35.64 36.83 36.93 36.51 34.22 32.97 29.31 25.56 24.90 25.74 23.23 23.58 22.91 23.11 22.29 22.04
35.30 33.73 31.28 30.66 36.12 35.87 36.25 38.34 39.43 39.82 39.83 40.23 40.37 39.38 39.71 40.03 40.61 41.23 39.47 38.08 36.81 36.75 35.50 34.20 33.65 33.77 33.86 35.17 35.66 36.52 36.92 35.61 32.02 28.66 24.63 23.29 22.95 21.99 23.10 25.22 24.66 30.47 30.57 32.64

GFSCGP_sfc_wetblb_075.txt.gz
Wetbulb
45.70 39.52 34.98 35.55 38.22 37.40 37.07 33.32 34.89 38.43 42.70 41.90 40.56 40.36 43.66 46.33 44.34 42.91 41.63 42.91 44.32 45.87 44.98 45.17 44.62 44.65 45.69 46.16 46.74 47.51 51.14 51.17 60.29 63.10 62.69 62.08 62.63 62.81 63.49 64.27 65.39 65.48 64.51 62.29
40.59 36.24 39.32 41.70 40.98 39.10 37.58 34.71 32.33 37.65 40.94 40.61 39.70 40.31 43.14 44.74 43.27 43.53 42.71 42.04 43.59 43.48 43.42 43.20 45.17 45.56 46.43 46.18 46.10 46.13 46.80 47.51 48.81 53.10 58.23 63.01 62.80 62.89 63.00 62.90 63.23 63.89 63.89 63.74
36.55 39.36 42.49 41.37 39.52 37.49 35.05 32.19 32.40 34.10 37.18 37.87 37.60 36.50 39.65 43.42 42.14 43.03 43.64 42.64 42.74 43.20 42.90 43.67 44.94 45.63 46.28 46.46 46.79 47.51 47.16 46.61 47.09 47.88 49.12 50.60 59.33 61.15 61.96 61.64 61.68 62.68 63.45 63.62
39.72 42.43 40.52 39.11 37.91 38.14 33.07 38.05 37.40 35.18 33.55 29.03 36.47 27.35 33.24 39.54 40.98 41.15 42.63 42.22 41.80 41.85 42.10 44.22 45.58 46.40 46.54 47.09 47.61 47.99 47.54 47.19 47.20 46.56 46.81 46.87 48.54 56.84 56.74 55.50 56.47 55.16 60.12 61.74
35.53 38.94 38.30 37.48 38.34 40.01 35.74 40.95 37.34 36.19 32.21 30.34 30.40 28.15 31.40 33.00 34.37 39.68 42.70 42.31 40.75 40.97 42.67 44.26 45.72 47.71 48.50 48.32 47.53 47.50 48.21 48.27 48.19 47.94 46.12 45.75 45.89 46.80 47.63 47.95 48.75 50.63 54.26 55.87
38.71 41.16 39.59 38.44 40.55 41.07 42.06 37.19 36.39 35.22 31.85 22.87 29.94 29.25 28.24 31.57 34.14 36.17 39.15 39.11 41.37 40.92 42.91 44.41 47.15 48.27 47.31 47.16 47.42 46.97 47.06 46.96 47.79 48.51 48.30 46.70 45.45 45.64 46.94 47.62 47.23 48.02 50.65 51.80
36.53 37.18 40.42 40.39 35.72 39.63 38.47 33.90 28.91 25.58 26.02 22.76 29.05 28.48 33.62 34.88 36.42 37.39 38.21 36.89 38.42 41.06 42.38 44.32 46.08 46.34 45.83 45.41 45.24 46.19 46.30 45.93 46.68 47.46 47.42 47.36 47.17 47.06 46.94 47.17 47.44 47.93 48.90 49.03
29.35 30.18 36.83 39.00 35.05 34.27 34.32 32.14 25.27 20.02 21.52 22.32 28.19 25.54 30.96 36.63 38.28 38.73 39.86 38.68 39.88 41.06 42.41 44.28 45.41 44.96 44.19 44.22 43.85 44.37 44.85 44.97 45.70 46.64 46.37 46.47 46.87 46.52 45.85 45.28 45.87 45.21 46.20 47.05
26.97 28.30 38.57 40.02 40.06 37.55 34.38 33.32 32.57 23.84 21.04 17.87 24.37 27.67 32.82 34.76 36.05 37.07 38.57 40.27 40.43 41.71 43.46 44.28 44.33 43.35 42.92 42.83 42.74 43.30 43.31 43.82 44.90 43.87 42.79 41.11 41.04 40.79 39.98 39.67 40.35 40.33 39.87 44.05
32.11 26.96 36.29 38.79 41.44 40.36 37.70 38.10 30.44 24.79 19.18 16.96 21.45 22.82 27.51 30.41 33.97 36.31 38.28 40.21 42.13 43.81 43.35 43.33 42.39 42.22 42.05 41.77 41.07 41.12 41.55 41.73 41.26 40.79 40.74 39.57 38.78 38.56 38.05 37.55 36.83 37.12 37.42 38.23
35.05 30.71 32.68 37.01 35.96 34.89 36.05 35.24 35.23 32.89 24.85 19.68 18.82 22.73 29.94 31.17 33.92 36.09 38.79 41.32 43.61 43.95 42.97 41.98 41.25 41.86 41.85 40.47 39.63 39.37 40.14 40.41 39.62 39.03 38.19 37.57 37.33 37.31 36.91 36.26 35.95 35.96 36.32 36.59
36.79 31.38 28.74 32.17 38.30 39.29 37.88 35.88 35.62 24.14 23.46 20.42 18.80 23.12 32.27 31.49 33.21 38.09 39.38 42.99 43.92 43.48 42.29 41.51 40.95 40.67 39.92 39.25 38.61 38.38 39.02 39.17 38.71 38.19 37.47 37.13 37.23 36.87 36.11 35.87 35.81 35.83 35.44 36.20
37.76 31.57 27.38 28.99 32.94 38.24 35.48 36.99 37.95 33.62 26.23 17.20 19.43 24.50 34.58 33.23 33.55 38.17 39.13 41.92 43.12 42.73 42.15 41.05 40.57 39.62 38.95 38.38 37.82 37.78 38.05 37.81 37.68 37.40 36.90 36.93 36.69 35.98 35.27 35.68 36.30 36.24 35.63 35.50
40.83 31.16 28.36 24.92 27.08 31.25 32.11 33.88 36.33 34.84 23.83 23.32 22.45 28.18 31.99 33.94 35.07 36.85 38.96 41.57 42.00 42.21 42.31 40.83 39.59 39.18 38.60 38.17 37.38 37.14 37.02 37.42 37.26 37.05 36.51 36.02 37.58 38.19 37.82 38.16 37.29 37.13 36.36 36.13
35.96 28.53 29.36 29.26 30.21 31.13 30.08 30.31 32.94 32.53 33.65 27.72 31.23 29.12 34.06 35.83 36.57 38.63 40.45 41.05 40.86 40.59 40.60 40.41 39.30 38.36 38.19 37.60 36.93 36.87 36.46 36.34 36.48 35.79 35.21 35.11 38.12 38.38 38.17 37.64 37.44 37.28 37.33 37.63
33.76 24.62 25.31 22.47 30.35 30.56 28.30 31.15 31.55 33.40 33.89 33.96 33.56 29.96 37.68 37.96 35.50 38.01 39.62 40.80 40.84 40.62 40.93 40.22 39.55 38.38 37.86 37.18 37.33 37.30 36.51 36.25 36.25 35.17 34.98 36.31 37.64 37.48 37.17 37.23 36.62 36.22 36.10 36.60
31.67 26.92 22.15 20.40 28.00 27.21 22.94 29.49 30.57 31.38 32.93 33.17 28.11 35.47 35.16 35.66 37.15 37.63 37.47 39.31 40.79 41.67 40.84 39.74 39.52 38.64 37.85 37.74 37.88 36.77 35.89 35.67 35.07 34.79 35.19 37.04 37.13 36.42 36.31 36.05 35.51 35.06 34.41 35.35
29.95 27.34 24.40 19.76 23.65 14.94 28.23 32.67 33.34 32.61 34.51 34.78 34.83 34.89 37.31 37.73 37.89 38.51 38.57 38.41 39.80 41.21 40.28 39.12 38.33 37.64 37.54 37.32 36.80 36.25 35.88 35.43 35.27 35.09 36.36 36.93 36.49 36.18 35.67 34.94 34.11 33.42 33.65 32.14
33.33 30.25 25.64 22.03 21.46 24.63 29.07 30.60 31.23 30.13 30.79 35.27 34.94 36.69 36.52 37.79 37.25 37.46 39.98 41.15 40.84 41.64 40.73 38.89 37.40 37.42 36.78 36.34 35.73 35.45 35.14 35.41 35.23 35.86 36.42 36.14 36.35 35.44 34.59 33.36 32.59 32.22 27.14 22.98
33.02 33.38 29.10 22.12 20.30 19.03 26.72 33.97 35.24 34.95 26.97 36.50 35.78 35.89 35.62 36.96 32.16 34.96 40.20 41.82 41.18 40.34 37.91 36.30 35.94 35.82 35.74 35.00 35.24 34.52 33.77 34.20 35.42 35.68 35.78 36.17 36.31 35.20 33.56 32.92 32.33 31.27 25.42 21.69
31.14 31.55 27.81 25.96 25.82 26.15 31.93 33.91 36.63 25.78 28.07 38.41 36.43 36.31 36.07 35.08 36.01 39.08 40.01 37.71 37.93 36.14 35.31 35.08 35.11 35.03 35.25 34.85 34.55 32.94 32.79 33.30 35.98 36.24 35.99 36.13 35.85 34.54 33.47 32.40 30.25 30.33 29.58 29.81
28.12 29.44 28.47 28.10 26.38 22.24 34.78 35.56 31.65 35.12 37.68 38.70 37.44 36.12 37.26 38.18 38.83 37.99 37.48 36.56 36.61 36.14 35.18 35.17 33.44 33.06 33.85 34.56 34.03 32.28 32.34 34.94 36.44 36.09 35.66 34.90 34.52 34.59 33.46 31.42 27.50 25.67 24.16 22.60
26.86 30.27 28.08 28.96 28.37 34.61 35.38 37.17 38.14 39.91 39.88 40.05 40.41 40.79 39.94 40.15 38.44 38.01 37.65 37.50 36.34 35.76 36.28 35.77 33.67 33.00 33.21 34.05 34.27 32.79 35.21 36.61 36.28 35.77 34.86 34.42 34.07 33.08 31.37 27.55 26.30 24.47 22.12 21.07
30.56 32.37 29.91 30.60 33.54 34.17 35.24 36.52 38.87 40.87 40.32 41.89 41.75 42.89 43.34 42.49 39.75 38.22 37.50 36.42 36.15 36.63 35.79 35.35 34.16 32.69 31.98 33.02 34.04 34.29 36.48 36.88 36.05 34.86 33.64 32.64 31.63 28.66 26.96 26.39 25.94 23.54 21.00 20.38
31.15 32.57 30.68 29.88 32.63 34.43 36.86 37.03 38.58 39.88 40.27 40.13 40.29 40.43 41.01 41.75 41.01 40.65 38.71 36.91 36.46 36.41 36.07 35.65 34.45 33.71 33.09 33.12 33.42 34.70 36.75 36.45 34.89 34.37 32.55 29.95 28.84 28.76 23.94 23.06 21.97 22.15 21.07 22.06
33.25 31.56 30.22 29.22 34.96 35.54 35.91 37.12 38.05 39.87 39.52 39.61 39.68 38.95 39.67 40.33 40.20 40.88 40.51 39.65 38.16 36.61 35.92 34.68 34.25 33.70 34.03 34.17 33.68 36.19 37.05 36.20 34.39 33.42 31.09 27.80 24.55 23.50 22.06 21.66 23.05 29.98 29.57 32.03

GFSCGP_sfc_wetblb_078.txt.gz
Wetbulb
42.82 38.72 34.06 34.84 37.21 36.47 36.34 34.05 33.77 36.77 41.92 40.96 41.17 40.54 43.93 46.26 46.89 46.36 47.63 47.76 44.30 45.58 45.30 44.47 44.39 43.95 46.72 46.37 47.93 50.92 60.67 60.81 63.19 62.70 62.07 61.72 61.79 62.19 62.97 63.89 64.70 64.26 62.07 61.40
39.05 35.49 37.38 41.14 39.68 38.38 37.07 33.63 30.95 35.90 40.52 40.01 40.26 39.95 42.99 44.44 44.36 45.60 46.06 46.50 42.38 43.30 41.76 42.23 43.36 42.68 46.24 46.12 45.98 46.36 47.46 48.07 50.74 57.87 60.95 62.10 61.93 62.19 62.52 62.40 62.79 63.34 63.93 63.64
35.45 38.56 41.61 40.84 38.60 36.78 33.87 32.18 31.24 32.67 36.53 37.78 37.95 36.49 39.28 43.28 44.51 44.74 45.41 44.44 42.55 42.88 42.68 41.89 43.34 44.26 45.56 46.37 46.63 47.29 46.42 46.31 46.61 47.15 48.71 50.33 57.93 59.92 60.53 61.79 60.93 61.54 62.36 62.79
38.22 42.15 40.05 38.87 37.70 37.24 31.51 37.26 36.79 35.53 33.59 30.21 35.57 28.67 33.77 41.01 41.70 42.38 44.72 44.41 43.14 42.42 41.05 42.23 43.67 44.50 45.40 46.41 47.12 47.14 47.25 47.31 47.09 46.21 46.50 46.44 48.28 53.97 55.26 53.44 52.61 52.65 55.63 58.26
35.61 39.19 37.28 36.27 38.19 39.20 34.91 39.45 36.48 34.53 31.14 29.92 29.21 27.86 31.89 34.15 34.98 41.12 44.59 43.32 42.46 41.99 41.37 42.82 44.21 45.58 46.50 46.44 46.31 46.97 48.08 48.54 48.59 47.70 46.02 45.36 45.16 45.68 46.34 46.82 47.49 48.71 52.52 53.48
38.75 41.51 39.29 37.41 40.01 40.32 41.55 36.78 35.32 33.00 29.90 26.85 28.58 29.04 29.62 32.87 35.20 37.07 39.61 42.60 44.57 41.35 41.07 43.12 45.17 46.83 45.89 45.97 46.00 46.26 46.82 47.19 48.54 48.96 48.31 46.31 45.01 45.85 46.90 47.69 47.80 48.46 49.75 50.34
36.92 37.52 39.90 40.05 35.79 39.21 37.93 34.29 23.71 21.10 26.17 23.92 27.73 26.74 33.19 35.41 37.31 38.00 39.22 39.39 40.17 40.88 40.59 43.34 45.45 45.37 44.97 44.97 44.78 45.56 45.88 45.56 46.82 47.18 47.27 47.29 46.70 46.50 46.41 46.84 46.75 46.81 47.42 47.26
31.43 29.77 37.31 39.67 34.96 34.78 34.13 33.16 24.06 18.63 20.28 21.32 26.89 24.74 30.70 36.23 38.85 39.57 39.97 39.37 38.78 38.53 40.31 43.68 45.17 44.46 43.80 43.64 43.36 44.12 44.57 44.53 45.74 45.68 45.28 45.13 45.30 44.88 44.04 43.74 43.93 42.63 43.86 44.71
27.59 29.78 38.62 40.31 39.48 37.47 34.04 30.44 31.71 26.67 20.18 17.17 23.91 26.88 32.32 34.18 35.21 36.25 37.00 37.57 37.80 39.31 41.31 43.43 43.90 43.08 42.52 42.30 42.67 43.28 43.47 43.84 43.38 42.43 40.87 39.70 39.50 39.25 38.58 38.27 38.66 38.42 38.45 42.07
32.14 26.27 36.82 38.19 41.43 39.64 37.11 36.59 29.24 28.43 19.82 17.80 20.74 21.47 26.06 31.26 33.52 34.85 36.64 37.41 38.32 40.62 42.31 42.62 42.03 41.61 41.53 41.32 41.08 41.24 42.36 41.77 40.45 40.06 39.39 38.51 37.77 37.74 37.23 37.10 36.52 36.78 36.87 37.72
33.76 29.55 32.56 37.57 35.09 34.95 36.27 34.45 32.81 30.11 25.19 18.37 18.08 22.72 29.28 31.14 33.33 32.74 35.78 38.38 40.08 41.33 42.41 42.03 40.72 40.90 40.66 39.50 39.19 39.40 40.04 39.65 38.72 38.28 37.61 37.12 36.75 36.61 36.19 35.73 35.62 35.78 36.22 36.51
36.29 30.11 25.40 31.00 37.20 39.45 38.50 35.72 35.26 28.94 24.08 21.39 17.62 25.44 32.08 32.03 32.66 33.17 36.28 40.56 41.87 42.60 41.89 41.05 40.22 39.97 38.84 38.31 37.95 38.10 38.74 38.50 37.80 37.40 36.85 36.57 36.57 36.23 35.72 35.36 35.58 35.99 35.60 35.95
36.06 28.82 24.70 29.67 33.51 37.67 35.10 36.45 36.54 34.26 29.08 18.11 24.21 25.88 33.57 33.05 33.79 35.53 37.69 40.60 41.82 41.52 41.24 40.27 39.74 39.20 38.51 37.71 37.44 37.35 37.64 37.19 37.04 36.85 36.19 35.71 35.19 34.77 34.48 34.74 35.13 35.24 34.90 34.53
41.85 31.96 27.01 22.66 25.97 30.60 32.56 32.84 35.67 34.70 29.68 28.98 25.83 27.68 31.94 33.01 34.23 36.40 37.85 40.07 40.89 41.35 41.29 39.70 39.41 39.77 38.90 38.13 37.34 37.01 37.16 37.22 36.86 36.40 35.69 35.16 35.76 37.02 37.44 37.92 36.80 36.86 36.20 35.04
37.73 28.98 30.41 31.07 30.72 31.67 31.03 32.32 33.83 32.88 33.91 29.65 28.67 28.92 34.11 37.27 36.13 36.83 38.25 40.07 40.52 40.07 40.14 39.69 39.33 39.18 38.39 37.69 37.06 36.96 37.18 36.80 36.86 36.26 35.42 35.45 38.10 38.55 38.20 37.75 37.49 37.64 37.82 37.99
35.14 29.42 27.07 23.35 29.65 30.11 28.76 30.49 31.40 33.35 33.86 34.39 34.39 33.29 38.77 39.18 35.21 35.69 38.46 40.54 41.21 40.69 40.76 40.00 39.37 38.84 37.54 36.89 36.62 37.08 36.61 36.41 36.76 35.77 35.43 36.51 37.96 37.70 37.33 37.07 36.65 36.49 36.79 37.16
30.77 28.47 24.33 21.54 27.21 26.67 22.26 28.86 30.19 30.49 33.21 34.27 31.22 35.77 35.71 35.60 37.30 37.79 37.48 39.89 41.21 41.71 41.56 40.42 40.09 39.22 38.37 37.49 37.17 35.95 35.69 35.79 35.23 34.79 35.17 36.60 37.31 36.69 36.56 36.09 35.73 35.16 35.20 35.37
29.57 27.31 25.88 21.06 23.19 15.82 27.39 31.71 32.56 31.64 33.58 34.79 34.98 36.61 37.22 38.00 37.69 38.11 38.31 39.59 40.37 42.09 42.17 41.12 39.95 38.07 38.00 37.97 37.54 36.40 35.66 34.89 34.83 34.48 35.31 36.70 36.76 36.21 35.64 35.15 34.44 33.96 33.36 32.07
33.30 29.82 28.30 25.41 21.94 23.96 29.03 28.76 29.94 29.33 29.85 33.69 34.23 36.67 37.67 36.46 36.33 37.28 38.78 39.16 39.94 40.17 41.49 41.28 39.91 38.56 37.74 37.53 36.86 35.90 34.96 34.88 34.82 34.90 35.71 36.50 36.71 35.61 34.88 33.76 33.12 32.34 29.90 22.70
32.68 33.70 31.54 24.82 22.18 18.36 25.70 32.68 34.37 33.33 26.30 34.50 35.08 34.43 34.14 35.42 31.73 35.44 38.41 39.62 40.22 40.93 40.43 38.31 37.47 37.23 36.96 35.77 36.06 35.18 34.70 34.63 34.36 35.17 36.46 36.54 36.61 35.34 33.85 32.98 32.26 30.82 24.81 22.77
29.81 31.58 28.40 27.20 25.68 25.28 31.38 33.26 35.03 24.06 27.14 36.25 36.65 36.35 34.42 33.65 35.46 37.56 39.27 38.96 39.50 37.64 36.50 35.80 35.97 35.94 35.98 35.44 35.43 33.76 33.29 33.29 35.07 36.10 36.49 36.36 36.11 34.90 33.77 32.60 31.41 25.37 25.93 26.28
28.64 26.83 27.97 28.44 26.75 22.31 33.87 34.43 30.51 33.74 36.35 37.21 37.08 35.74 35.37 36.74 37.11 36.78 37.29 36.51 36.21 35.11 35.57 36.08 34.48 34.21 34.16 34.77 34.78 32.92 32.69 34.31 35.11 35.43 35.85 35.52 35.16 35.02 33.55 31.83 30.18 29.40 28.17 23.58
26.84 29.87 27.92 28.46 28.18 33.98 34.55 36.34 37.59 37.86 38.29 38.66 37.73 38.31 37.66 38.23 37.12 37.35 36.26 35.16 35.30 35.56 35.28 35.26 35.34 33.46 32.44 33.30 33.78 32.24 32.73 34.45 34.30 35.27 34.90 34.48 34.47 33.60 33.25 30.16 27.09 23.97 22.58 21.55
28.93 31.38 29.18 30.33 32.77 33.16 34.54 35.15 36.87 39.16 38.96 39.54 42.49 42.87 41.12 39.69 39.04 37.70 36.61 35.76 35.98 36.38 35.27 35.16 33.47 33.77 32.84 32.39 33.39 33.29 34.47 36.68 35.72 34.97 34.43 34.13 33.01 31.96 30.91 28.43 27.60 24.25 21.48 19.96
30.50 30.47 29.75 28.96 31.94 32.93 35.89 35.86 36.79 38.16 39.85 38.96 38.83 40.06 40.92 41.16 40.34 39.40 38.75 37.12 36.16 35.68 35.47 34.79 34.62 34.46 33.76 33.32 33.25 33.98 35.78 36.45 35.40 34.83 33.83 32.99 32.71 32.93 26.84 26.07 24.38 24.28 21.35 22.08
32.77 30.69 29.12 28.74 33.83 34.47 34.95 36.99 37.20 38.79 39.28 39.49 39.12 37.72 38.79 40.08 40.40 39.83 40.03 39.89 37.74 37.04 36.19 34.81 33.98 33.57 33.64 34.23 34.26 34.63 35.81 36.33 35.22 33.96 32.89 32.24 31.08 28.12 25.11 22.82 21.52 29.74 29.72 30.84

GFSCGP_sfc_wetblb_081.txt.gz
Wetbulb
43.75 38.62 36.05 37.00 39.44 38.21 38.01 37.77 36.67 38.95 43.06 42.92 42.37 42.17 44.15 47.38 47.20 47.25 48.55 49.33 49.88 50.48 50.42 48.79 49.06 50.38 51.60 52.72 58.48 63.44 64.99 65.95 66.29 65.86 65.36 65.24 65.43 66.17 66.36 66.91 66.96 66.07 64.96 64.29
38.06 36.00 38.20 40.70 41.19 39.19 37.79 35.56 35.66 38.94 41.70 42.56 40.97 41.24 43.57 46.40 46.56 47.56 48.10 49.07 49.70 48.22 47.84 48.06 47.61 48.29 49.81 50.10 51.93 53.88 61.08 60.70 63.99 65.05 65.22 65.65 65.57 65.80 66.21 66.44 66.45 66.82 66.85 66.25
34.54 38.15 41.12 40.64 39.23 37.24 36.02 34.77 34.65 35.46 39.14 40.73 39.77 38.18 40.00 44.01 46.42 47.61 48.69 49.73 50.64 48.72 47.27 47.05 46.93 47.81 48.79 49.32 49.59 50.11 50.63 51.52 52.29 54.87 55.99 56.56 61.50 63.45 64.43 64.82 64.85 64.45 64.44 65.24
38.31 42.01 39.95 38.67 37.04 37.78 34.07 38.55 37.60 36.47 35.45 32.75 37.95 30.96 36.11 41.72 42.34 44.38 46.54 48.59 49.36 47.27 46.28 46.19 46.12 47.57 48.29 49.53 50.11 49.41 49.43 49.67 49.60 50.14 50.96 52.16 54.94 57.95 59.16 57.57 55.67 55.79 57.63 58.76
35.96 38.98 38.03 36.97 38.08 39.33 35.93 40.05 37.24 35.84 33.43 33.34 32.69 31.80 33.91 38.24 39.83 42.48 44.75 46.69 48.52 47.81 47.44 46.54 46.52 48.00 48.79 49.42 49.55 50.34 50.85 51.05 51.11 49.78 50.02 50.02 49.65 50.20 50.42 50.85 51.06 52.20 54.81 54.38
38.87 42.23 40.66 38.95 40.41 40.62 40.71 37.12 35.98 34.06 32.10 27.07 30.73 31.67 31.68 34.76 37.86 39.98 44.58 47.60 48.55 48.43 46.91 46.62 46.95 48.21 48.58 48.86 48.97 49.58 50.07 50.10 51.14 51.51 50.74 49.56 49.20 49.50 50.26 50.85 51.17 51.86 52.89 52.40
36.90 37.91 40.49 40.27 36.80 40.37 39.67 33.79 27.33 24.23 25.72 24.18 29.79 28.83 33.97 38.89 39.46 40.12 41.28 42.48 44.78 47.01 45.23 44.92 46.25 47.47 47.36 47.41 47.82 48.49 49.10 48.59 49.63 49.90 49.81 50.03 49.89 50.14 49.96 49.76 49.50 49.69 50.36 49.60
31.50 29.04 37.96 40.03 36.36 35.19 35.72 34.69 26.41 19.89 21.78 23.83 28.84 26.82 33.02 38.76 39.98 41.44 41.51 41.30 42.05 41.73 42.84 44.55 46.95 47.73 47.28 46.63 46.88 47.58 47.50 47.51 48.36 48.34 47.69 47.68 47.76 47.60 46.53 46.39 46.34 44.89 45.52 46.29
30.68 30.66 38.98 40.65 40.13 38.16 34.91 32.90 33.63 27.32 23.42 21.91 26.59 29.35 34.72 36.23 37.67 38.53 39.09 39.97 40.41 41.20 41.77 44.65 46.67 46.52 46.08 45.80 46.16 46.92 46.84 46.79 46.31 45.36 44.35 43.22 43.27 43.17 42.48 42.04 42.36 42.14 42.08 43.64
33.53 27.78 36.97 38.93 41.21 40.14 37.63 36.61 30.14 30.44 20.87 20.00 23.85 24.84 29.80 33.81 35.47 37.51 37.86 38.89 40.71 41.04 42.13 44.65 45.10 44.50 44.48 44.85 45.11 45.69 46.37 45.24 44.18 43.21 42.68 41.65 41.09 40.86 40.61 40.74 40.13 39.96 40.17 40.64
34.11 30.68 33.02 37.60 35.73 35.32 36.13 34.26 33.48 31.24 27.15 22.63 20.35 25.83 32.45 33.94 35.99 35.41 36.34 37.13 40.27 41.28 43.07 44.06 43.72 43.65 43.48 43.23 43.33 43.63 43.53 42.80 42.27 41.94 41.09 40.54 39.81 39.44 39.31 39.04 38.80 38.97 39.30 39.45
35.78 31.63 29.26 32.53 38.14 39.63 38.70 35.38 35.62 30.00 25.65 23.14 22.38 27.71 35.28 34.43 35.23 35.16 35.48 38.91 42.02 42.75 43.75 43.87 42.97 42.33 41.45 41.36 41.56 42.36 42.15 41.87 41.18 40.58 40.14 39.61 39.28 39.11 38.73 38.36 38.28 38.60 38.27 38.58
36.39 31.37 26.45 28.71 33.44 37.20 35.23 36.41 37.22 33.00 30.99 20.71 24.37 27.40 34.84 35.23 36.01 37.74 38.40 40.56 42.47 42.52 42.87 42.55 41.95 41.52 40.93 40.83 40.50 40.65 40.95 40.59 39.91 39.70 39.33 38.72 38.31 38.33 37.98 37.85 37.86 37.97 37.57 37.35
40.98 32.95 28.11 24.79 26.56 30.85 31.01 33.48 35.58 34.62 29.27 28.03 28.19 30.33 35.43 37.34 36.67 37.33 39.55 41.12 42.23 42.59 43.03 42.33 41.39 41.34 40.71 40.06 39.85 39.93 39.82 39.79 39.30 38.96 38.65 38.09 38.05 38.59 38.86 38.77 38.53 38.98 38.38 37.45
39.32 32.03 31.42 31.34 31.12 32.74 31.85 32.03 32.64 31.49 33.00 29.22 30.12 31.01 35.35 37.55 38.99 37.85 39.05 40.09 41.32 41.68 41.76 41.96 41.65 41.10 40.74 39.69 39.51 39.48 39.54 38.99 38.97 38.43 38.14 38.39 39.54 39.76 39.50 38.86 38.54 38.61 38.77 38.62
36.03 31.14 29.63 26.39 31.59 29.90 28.65 31.34 32.58 32.95 33.41 33.35 33.89 33.09 40.05 41.19 38.39 39.09 39.45 38.45 40.66 41.70 42.65 42.64 41.93 41.23 40.50 40.00 39.27 39.04 38.80 38.63 38.77 37.88 37.51 38.18 38.87 38.77 38.55 37.83 37.60 37.56 37.69 38.08
31.85 30.28 28.47 26.18 28.33 27.34 22.91 29.26 31.51 32.96 33.83 34.49 31.07 35.75 39.04 38.42 39.11 40.75 41.76 39.73 40.33 42.57 42.84 42.36 42.07 41.95 41.35 40.13 39.86 38.61 38.20 38.22 37.59 37.11 37.20 38.09 38.26 37.90 37.54 36.96 36.44 36.35 36.21 36.21
30.74 29.29 29.45 26.77 25.57 18.00 28.56 33.16 33.20 32.63 34.35 35.10 35.34 37.21 38.31 39.07 40.81 39.70 39.28 39.56 40.48 42.77 43.23 43.28 42.83 41.25 40.77 40.23 39.27 38.41 37.78 37.25 36.86 36.36 36.81 37.71 37.61 37.18 36.53 36.04 35.22 35.08 34.65 33.80
34.85 30.99 28.47 25.44 22.78 24.66 29.81 29.18 29.70 29.11 29.91 34.05 34.52 36.75 37.90 38.12 37.45 38.37 39.64 39.75 41.34 42.64 44.11 44.32 43.65 42.06 40.06 39.56 38.95 37.99 36.73 36.49 36.21 35.96 36.54 37.25 37.56 36.32 35.55 34.83 34.06 32.97 31.99 30.43
32.62 35.43 31.98 25.73 20.68 18.94 26.57 32.26 34.62 33.72 27.19 34.96 34.67 34.73 34.56 34.95 30.98 35.81 39.54 39.84 39.64 40.33 42.01 41.92 40.66 39.57 39.48 38.55 38.37 37.00 35.87 35.80 35.52 36.11 36.88 37.56 37.60 36.16 34.89 33.88 32.95 32.00 30.21 29.24
29.75 31.51 28.74 27.16 24.72 26.18 31.68 33.96 35.23 26.38 28.08 36.66 38.22 38.03 36.27 33.42 36.23 38.13 39.93 40.30 40.21 40.03 39.32 38.27 38.50 38.44 38.46 37.68 37.72 36.46 35.83 35.58 36.79 37.24 37.61 37.37 37.23 35.71 34.55 33.30 32.36 30.12 29.29 29.07
29.31 27.85 27.27 28.63 26.21 23.32 34.79 33.53 30.65 33.98 36.48 38.23 38.69 38.13 36.58 36.23 37.62 38.16 38.20 38.13 37.70 36.83 36.84 36.80 36.68 36.44 36.16 36.94 37.16 35.43 35.15 36.43 36.91 36.89 36.79 36.66 36.18 35.65 34.41 32.83 31.37 30.48 29.58 27.94
28.52 29.07 27.51 28.49 28.49 34.18 34.64 35.57 37.37 37.75 37.65 39.02 39.42 39.92 37.95 37.87 38.25 38.45 37.23 36.40 36.49 36.28 35.77 36.26 35.90 34.87 35.34 35.96 36.79 35.09 35.38 36.05 36.03 35.74 35.85 35.70 35.33 34.61 33.63 32.03 30.83 29.41 28.33 26.82
32.60 32.13 29.06 30.32 32.96 33.26 34.80 35.19 36.32 38.28 39.05 40.49 42.73 43.13 40.38 39.27 39.11 37.93 36.79 35.88 35.71 35.77 35.50 35.69 35.14 34.37 34.32 35.27 35.13 35.58 35.00 35.99 35.58 35.32 35.31 34.85 33.94 32.99 32.75 31.94 30.90 28.37 26.63 25.42
31.44 31.58 29.29 28.91 32.24 33.07 35.24 35.54 36.44 36.76 38.85 40.19 40.04 41.02 41.65 41.38 40.32 39.64 38.31 36.82 36.65 36.79 36.93 36.31 35.67 35.19 35.68 34.70 35.36 35.47 35.94 36.88 35.63 35.41 34.89 34.05 33.71 33.57 31.59 31.05 29.93 28.55 27.04 26.77
31.24 30.53 29.32 28.74 34.32 33.71 34.84 35.43 37.07 37.19 39.03 40.15 39.59 38.77 39.59 40.74 40.76 40.87 40.11 39.51 38.23 36.96 36.69 35.63 35.24 35.20 35.25 34.85 35.04 35.18 36.33 36.55 36.02 34.79 34.05 33.58 33.20 33.00 31.50 30.21 28.56 32.42 31.71 31.81

GFSCGP_sfc_wetblb_084.txt.gz
Wetbulb
41.85 40.03 38.57 41.31 43.67 42.56 42.91 41.31 40.49 43.15 46.57 45.19 44.77 45.43 47.72 50.33 50.47 50.59 52.05 53.96 54.67 55.51 57.28 56.50 54.68 55.40 60.92 64.21 66.80 67.11 67.82 68.86 69.57 69.22 68.82 68.97 68.55 69.38 70.07 70.62 70.86 70.46 70.05 69.38
37.86 36.45 42.76 43.75 43.98 42.21 42.11 40.17 39.26 42.22 45.14 45.41 44.78 44.27 47.61 49.15 49.63 50.67 51.30 52.73 54.49 55.21 56.07 55.39 53.71 53.74 56.57 61.12 61.97 64.80 66.40 67.92 68.10 68.50 69.23 69.39 69.31 69.59 69.72 70.05 69.82 69.83 69.72 69.36
35.75 38.71 43.73 42.70 41.52 40.49 40.79 39.45 39.78 39.52 42.89 45.66 43.14 41.71 44.48 48.25 49.85 51.06 51.73 53.02 55.10 55.08 54.96 55.08 54.04 52.92 54.04 56.02 57.60 59.44 62.76 66.16 66.87 67.26 66.84 66.36 67.48 67.88 68.04 68.19 68.11 68.28 67.89 68.46
39.03 42.20 41.34 41.34 39.97 41.86 37.41 42.49 41.86 40.55 39.83 35.24 43.26 35.08 41.94 45.83 46.36 48.62 50.32 51.61 52.68 54.45 55.18 54.76 52.92 51.55 52.19 54.01 54.95 55.11 55.32 56.89 57.52 58.33 62.54 64.60 65.96 65.55 66.69 66.13 64.51 62.78 61.45 62.38
37.10 38.85 39.46 39.54 40.56 43.04 39.13 43.04 41.94 40.62 39.81 38.51 37.97 35.00 40.77 43.91 43.46 46.31 49.19 50.78 51.28 53.11 54.78 51.71 52.20 52.50 53.09 54.28 54.53 54.71 54.47 54.50 54.16 54.69 56.01 56.64 56.39 57.19 56.87 56.64 56.17 57.16 58.63 57.85
38.99 43.94 42.64 41.75 42.98 43.11 43.62 41.21 40.77 40.09 38.62 31.30 36.93 36.36 37.65 40.78 42.95 45.45 48.90 50.90 50.61 51.27 54.07 53.21 54.58 53.88 52.80 53.64 53.27 53.60 53.80 54.20 55.11 54.71 54.16 54.32 54.38 53.88 54.03 54.52 54.76 55.47 56.36 56.37
37.37 38.71 42.49 43.50 40.90 42.79 42.40 38.91 30.91 29.85 29.98 28.69 35.67 34.92 37.91 43.58 45.63 46.23 46.59 48.67 51.32 51.47 52.75 53.34 52.14 51.72 52.52 52.40 52.66 52.91 53.45 53.21 54.49 54.81 54.73 55.00 54.91 54.83 54.34 53.99 54.44 54.26 54.88 54.51
32.79 29.81 38.97 42.75 41.10 38.88 39.12 38.30 31.50 23.19 25.75 30.30 33.71 31.42 38.21 44.80 46.43 47.36 48.02 48.07 46.79 48.01 49.55 50.99 52.20 52.11 52.24 52.26 52.54 52.64 53.10 52.53 53.33 53.62 53.27 53.83 53.96 54.05 53.41 52.98 52.91 52.07 52.34 52.24
34.15 31.65 39.86 41.45 41.94 41.98 38.56 34.88 38.77 32.19 30.37 30.16 34.14 36.79 42.07 44.91 44.58 45.33 45.23 45.88 46.70 48.03 47.23 46.52 48.88 50.79 52.35 52.14 52.11 52.51 52.42 52.13 52.15 51.58 51.06 50.38 50.38 50.05 49.39 48.71 49.63 49.24 48.49 47.83
38.20 31.01 38.33 39.72 41.79 41.55 40.30 41.81 32.80 34.42 25.87 24.30 30.53 32.22 35.77 39.74 41.70 43.53 44.17 44.34 44.95 46.70 47.08 46.88 48.26 49.55 50.83 51.13 51.65 52.18 52.45 51.64 50.69 50.06 49.79 48.84 47.86 47.56 47.28 47.83 47.18 46.50 46.54 46.25
39.47 36.47 34.40 38.61 36.88 36.48 36.31 35.63 36.72 36.17 34.19 28.70 27.40 32.16 41.17 40.33 41.95 42.12 44.13 43.77 44.67 46.01 46.44 47.05 48.68 49.12 49.19 49.90 50.32 50.97 50.70 49.55 49.21 49.11 48.20 47.50 46.48 45.91 46.03 45.82 45.46 45.15 45.09 44.71
39.12 36.46 31.48 34.08 40.20 42.17 40.71 37.76 38.02 31.86 29.28 32.54 31.11 32.82 41.05 41.43 41.75 42.46 44.24 45.17 46.34 46.39 46.91 48.02 48.45 48.33 47.82 47.88 48.17 49.25 49.31 48.88 48.59 47.98 47.24 46.43 45.56 45.32 45.14 44.41 43.90 43.88 43.84 43.64
38.70 35.47 29.45 30.48 35.22 38.55 36.49 38.62 38.76 38.47 35.29 31.06 29.38 33.33 40.31 41.34 41.78 43.01 44.75 46.87 47.37 46.48 46.97 48.16 48.69 48.18 47.93 48.19 48.10 47.71 47.82 47.71 46.71 46.14 45.88 45.02 44.61 44.55 44.36 43.75 43.16 42.89 42.70 42.55
42.47 36.57 33.91 30.05 32.10 36.08 33.29 35.96 38.50 36.92 32.35 31.73 32.70 34.93 39.86 41.63 42.36 43.59 45.38 46.09 47.59 47.35 47.03 48.05 48.39 48.42 48.40 47.57 47.05 46.98 46.82 46.51 45.50 44.92 44.92 44.46 44.21 44.24 43.92 43.60 43.12 42.70 42.42 41.96
39.03 33.22 35.00 34.88 34.76 35.37 34.74 35.12 36.36 34.06 35.70 31.37 34.79 35.40 38.72 41.71 43.22 44.85 45.72 45.22 45.54 46.93 46.96 47.88 48.14 48.41 48.06 47.00 46.81 46.50 46.30 45.19 44.96 44.15 43.81 43.78 43.93 44.23 43.77 42.93 42.62 41.64 40.71 40.56
39.61 33.07 34.11 32.30 35.69 34.85 32.74 35.40 36.35 36.34 36.45 36.27 36.60 36.18 43.14 44.56 45.28 44.62 44.89 45.00 44.56 45.79 47.57 48.01 48.65 48.83 48.05 47.59 46.57 46.05 45.75 44.87 44.41 43.87 43.37 43.32 43.24 42.65 42.37 41.52 40.86 40.16 39.55 39.48
36.59 33.78 31.86 29.50 32.46 31.54 29.29 32.99 34.46 35.75 37.88 37.47 33.57 38.88 43.20 42.41 42.95 43.94 45.14 45.80 46.03 46.98 47.32 48.45 48.97 48.92 49.10 48.49 47.76 45.92 45.59 45.04 43.72 43.40 43.01 42.44 42.45 41.60 40.79 39.96 38.81 38.32 38.14 38.38
35.20 34.78 34.30 30.20 29.65 23.47 34.19 36.25 37.32 36.19 37.78 39.77 39.41 40.49 42.25 42.85 44.23 44.80 46.08 45.57 45.98 46.67 46.71 48.39 49.75 49.83 50.15 49.50 47.62 47.00 45.17 43.59 42.90 42.27 41.51 41.75 41.36 40.58 39.62 38.30 37.52 37.41 36.84 36.57
38.03 35.60 32.06 28.74 27.90 31.95 34.50 34.66 33.67 33.56 34.47 39.74 38.75 40.28 41.58 42.67 42.06 41.74 45.06 46.06 46.93 48.09 48.33 49.23 50.69 51.03 50.17 48.01 47.07 45.10 43.00 42.86 41.98 41.12 41.18 40.65 40.83 39.77 38.33 37.05 36.46 34.83 33.34 33.23
35.47 37.48 33.63 30.31 25.92 23.35 33.18 37.42 38.82 38.44 31.87 39.74 39.11 39.96 40.90 40.52 37.19 42.84 44.35 45.32 46.06 47.51 47.44 48.29 49.65 48.43 48.14 47.22 46.12 44.12 42.58 41.72 40.71 40.76 40.96 41.10 40.98 39.96 37.94 36.41 34.69 34.01 33.64 33.07
31.07 33.49 30.66 29.55 28.54 31.89 38.08 38.94 40.20 29.81 34.17 41.96 42.87 43.27 42.44 39.18 42.18 43.11 43.93 44.57 44.14 44.90 45.66 47.29 46.53 46.69 46.79 44.64 44.11 42.63 41.88 40.68 41.53 41.36 40.88 40.56 40.40 39.40 37.47 34.86 34.11 32.47 31.83 33.12
31.45 30.41 29.95 31.01 27.98 25.53 38.29 37.38 34.13 40.02 42.40 43.10 44.22 44.35 42.69 42.66 42.18 42.89 42.73 42.78 42.52 42.38 41.98 43.77 44.50 43.72 43.06 43.05 42.55 41.70 40.24 41.46 40.53 40.01 39.57 39.50 39.16 37.67 36.03 34.63 33.18 31.78 31.92 32.37
30.72 34.29 33.39 34.31 33.88 38.95 40.26 41.53 43.37 43.76 42.87 44.19 44.94 45.21 43.27 42.24 42.64 43.08 42.58 42.25 42.33 42.55 42.26 42.85 42.93 40.93 41.12 42.02 42.67 40.69 40.99 40.30 39.86 39.38 39.00 38.62 38.17 36.62 35.24 33.63 32.14 31.09 32.43 31.84
35.10 35.44 33.69 34.49 39.15 39.52 40.03 42.17 42.91 43.81 44.00 45.50 46.60 45.56 41.93 41.82 43.68 43.12 42.22 41.62 42.00 41.60 41.69 41.83 41.54 41.07 40.05 41.10 41.26 42.37 40.75 40.77 39.87 39.17 38.66 38.05 36.41 34.74 33.92 33.66 32.90 32.52 32.45 31.84
33.80 33.41 33.50 34.47 37.70 39.81 41.17 42.15 43.31 42.43 42.35 43.26 45.30 45.81 45.73 45.45 44.19 43.84 42.80 41.68 41.71 41.39 40.87 40.95 41.00 40.91 40.63 40.23 39.98 40.24 39.73 39.95 39.17 38.94 37.65 36.93 35.76 35.14 32.94 32.94 32.54 32.41 34.04 33.30
32.67 32.27 32.39 33.31 36.93 37.61 40.18 42.15 42.64 41.86 41.96 43.15 44.26 43.41 44.48 45.21 44.58 44.41 44.10 43.32 41.68 41.28 39.09 37.87 38.44 37.52 39.04 38.09 38.82 39.05 39.83 39.02 38.62 37.39 36.83 36.16 34.74 34.57 33.13 32.50 31.49 35.54 34.58 33.53

GFSCGP_sfc_wetblb_087.txt.gz
Wetbulb
42.05 40.43 38.52 41.86 43.98 43.53 42.56 41.69 41.13 43.94 47.36 46.22 45.46 46.12 48.49 51.24 51.65 51.42 52.78 53.82 54.57 55.77 58.42 58.13 56.89 55.75 62.19 67.50 68.48 69.21 69.07 69.48 69.50 69.22 68.62 68.70 68.52 69.71 70.15 70.41 70.76 70.65 70.49 70.30
39.90 38.94 43.32 45.21 45.15 43.44 43.15 41.16 40.98 43.27 46.40 45.23 44.80 44.43 47.73 49.89 50.63 51.72 52.12 52.93 54.07 55.81 57.30 57.25 55.85 54.83 55.70 62.72 66.02 68.10 68.68 68.91 69.13 69.40 69.64 69.75 69.96 70.04 70.50 70.74 70.65 70.82 70.52 70.46
36.61 40.82 44.58 43.65 42.59 41.43 41.84 40.52 40.51 40.62 43.89 45.73 44.21 42.13 44.88 48.79 50.63 51.61 52.50 53.28 54.10 55.03 56.08 57.41 56.01 55.59 55.20 58.41 62.19 64.40 66.89 68.30 68.87 69.33 68.83 67.34 67.56 68.41 68.35 68.65 68.88 69.23 69.24 69.37
38.89 43.20 41.92 41.86 40.53 42.26 37.94 44.05 42.68 41.26 39.98 36.06 44.09 34.33 42.28 45.82 47.26 49.33 50.93 52.25 52.92 54.80 56.92 57.60 56.56 55.63 54.25 56.57 60.12 59.50 63.00 65.89 66.76 64.34 65.70 64.99 65.04 65.39 66.89 67.16 67.85 66.39 63.84 64.54
38.42 39.99 40.32 39.85 41.08 43.34 40.02 44.68 42.55 41.74 39.36 39.24 39.56 35.80 40.74 45.69 44.62 47.21 49.86 51.50 52.66 54.36 56.37 57.08 56.64 55.52 55.14 56.57 56.98 57.16 57.49 58.82 59.10 59.88 61.93 63.48 63.61 63.41 61.11 59.70 59.71 59.73 60.02 59.40
39.76 45.19 43.42 42.61 44.58 44.33 45.23 42.37 42.09 41.38 38.90 31.75 37.83 36.81 37.82 42.02 44.45 46.62 49.39 51.09 52.36 53.33 54.73 56.95 56.41 55.72 54.58 56.02 55.95 56.49 55.41 55.51 55.52 55.63 56.13 57.17 57.40 56.21 55.32 55.77 55.51 56.14 57.02 57.27
37.59 39.74 43.53 44.21 41.15 43.95 42.74 38.95 31.52 28.83 29.30 29.15 38.52 36.22 39.03 44.36 46.40 47.05 47.48 49.46 52.00 53.44 53.92 54.59 54.90 54.82 55.03 54.63 54.50 54.52 54.56 53.96 55.56 55.75 55.51 55.41 55.71 55.62 55.79 55.46 55.19 54.85 55.13 55.31
32.72 30.90 39.77 43.92 41.61 38.54 38.99 38.81 32.46 24.65 27.52 31.11 37.00 31.68 37.75 45.25 47.42 48.37 49.18 49.68 49.43 50.59 53.59 54.02 55.01 55.68 54.27 54.20 53.53 53.38 54.07 54.05 54.76 55.16 54.94 55.60 55.80 55.48 54.95 54.55 53.96 53.32 53.43 53.25
34.26 34.50 41.73 43.08 43.82 42.67 38.61 36.31 41.41 33.88 34.49 30.84 34.61 37.88 42.41 44.77 45.49 46.69 47.21 48.20 48.93 49.80 50.17 51.42 52.05 51.64 53.93 53.64 53.49 53.53 53.93 53.72 54.04 54.15 53.67 53.44 53.29 52.99 52.07 51.45 51.45 51.01 50.15 49.30
39.02 32.42 39.27 40.94 43.20 43.34 40.72 42.67 33.40 35.02 25.76 24.22 31.74 33.83 35.61 40.48 42.69 44.89 45.28 45.93 47.37 47.93 49.46 50.34 49.71 50.25 52.74 53.69 53.73 53.97 53.82 52.95 53.15 52.74 52.53 51.51 50.65 50.38 49.87 49.71 48.97 48.49 48.19 47.76
41.06 37.11 35.44 38.98 37.22 36.45 37.58 36.11 37.48 36.93 34.37 28.18 28.06 32.74 42.05 42.18 43.83 43.54 45.28 46.51 47.24 47.88 48.52 49.49 49.89 50.74 51.98 52.69 52.80 52.58 52.75 52.29 51.49 51.34 50.41 49.72 48.82 48.43 48.42 47.75 46.99 46.57 46.62 46.38
41.34 37.96 33.55 34.20 40.59 42.95 40.76 37.40 37.50 32.00 30.02 33.47 32.35 32.76 43.20 43.65 43.55 44.52 46.24 47.52 48.60 48.47 48.71 49.17 50.26 50.54 50.22 50.19 50.76 51.53 51.58 50.71 50.76 50.48 49.79 49.18 48.13 47.77 47.29 46.46 45.82 45.76 45.35 45.24
40.47 35.70 29.81 31.88 36.41 39.63 37.21 39.49 39.53 38.59 37.50 32.46 29.40 33.09 43.00 43.53 43.53 44.92 46.21 46.75 48.17 48.55 48.54 49.13 49.37 49.35 49.53 49.71 50.31 50.34 50.36 50.21 49.79 48.91 48.51 47.64 47.09 47.04 46.86 46.15 45.33 44.90 44.33 43.97
42.95 36.82 33.25 29.46 32.35 37.27 33.68 36.32 38.70 37.57 32.52 32.56 33.66 35.54 40.70 42.27 42.01 43.86 45.74 47.80 47.84 48.60 48.85 49.36 49.29 49.22 50.12 50.39 50.03 49.55 48.87 48.52 47.65 47.40 47.44 46.81 46.65 46.75 46.34 45.71 45.07 44.42 44.06 43.49
38.04 33.15 35.60 36.69 35.99 37.24 36.36 36.23 36.89 34.60 35.98 32.32 35.59 36.38 40.07 42.64 43.78 45.46 47.40 47.20 46.75 46.71 48.57 49.04 49.37 49.80 50.35 49.82 49.37 49.43 49.05 48.06 47.10 46.22 45.91 45.70 46.02 46.25 45.96 45.05 44.43 43.75 43.07 42.42
39.91 33.37 34.77 32.72 36.00 36.06 33.72 36.38 37.37 37.40 36.92 36.63 37.29 37.07 43.57 44.99 45.93 45.34 45.99 46.36 46.31 46.57 47.45 49.38 49.90 50.44 50.16 49.90 49.21 48.78 47.99 47.03 46.83 45.98 45.50 45.93 45.53 45.06 44.43 43.92 42.97 42.23 41.12 40.84
34.04 33.46 32.48 29.97 34.60 33.48 30.14 34.54 36.53 37.46 39.10 38.49 34.55 39.42 43.77 43.15 43.90 44.70 45.38 46.09 46.07 46.90 48.18 48.59 49.84 50.48 51.04 50.74 50.35 48.44 48.26 47.53 46.07 45.73 45.46 44.82 44.72 43.66 43.25 42.51 41.43 40.30 39.53 39.48
32.58 31.49 34.23 30.22 31.47 24.39 35.38 38.99 40.73 38.70 39.69 41.01 40.70 41.36 42.82 43.48 44.87 45.88 46.72 46.02 46.13 47.28 48.35 49.21 50.17 51.30 52.00 52.09 51.07 50.08 48.71 47.04 45.57 45.28 44.91 44.44 44.09 43.17 42.08 40.83 39.93 39.22 38.64 38.09
35.23 33.20 32.02 29.14 28.04 33.19 35.69 35.34 35.33 34.87 35.32 40.82 39.88 41.62 42.85 43.86 44.19 43.72 47.03 47.66 47.00 47.62 49.03 50.12 50.48 51.59 52.59 51.96 51.10 49.26 47.32 46.15 44.80 44.38 43.92 43.66 43.34 42.29 40.58 38.89 38.70 36.93 34.34 33.66
34.98 34.79 33.29 31.83 27.00 23.74 33.83 37.81 40.37 40.30 31.93 42.09 41.37 41.53 42.59 43.39 37.89 43.06 45.33 45.74 45.93 47.63 49.12 49.33 50.58 51.25 52.07 51.83 50.42 47.87 45.72 44.76 43.72 43.85 43.73 43.51 43.06 41.87 39.82 38.19 36.87 35.66 34.69 33.16
30.98 31.64 29.26 30.89 28.88 32.58 39.57 40.17 41.62 29.71 34.65 43.54 43.96 44.31 44.27 41.64 43.54 45.43 45.60 45.38 46.04 45.61 47.92 48.49 49.88 50.76 51.26 50.65 48.89 46.12 45.52 44.26 45.11 44.41 43.42 42.67 42.38 41.31 39.88 36.60 35.62 34.01 33.12 33.12
31.51 30.43 30.76 31.74 28.62 25.70 40.89 39.27 34.59 40.46 43.81 44.09 44.85 45.95 44.72 44.62 44.33 44.12 44.95 44.53 44.61 44.29 43.88 46.93 47.56 48.23 48.59 47.60 46.74 45.48 44.01 44.82 43.88 43.10 41.84 41.50 41.19 39.53 38.09 36.52 34.60 33.08 32.33 32.38
30.34 34.56 32.78 34.81 34.26 40.35 41.86 42.27 44.17 44.73 44.00 44.68 46.09 46.92 46.61 44.50 44.19 44.92 44.48 44.38 44.41 44.48 43.92 45.20 44.92 43.16 44.01 45.00 45.81 44.07 43.66 43.30 41.86 41.15 40.66 40.47 39.75 38.65 37.43 35.27 33.05 31.35 31.69 32.04
35.67 36.16 34.33 35.48 39.06 40.70 42.41 43.51 44.28 45.43 44.77 46.25 46.94 47.40 46.33 43.97 45.43 45.12 44.71 43.95 43.96 43.92 43.90 44.62 44.05 43.09 42.34 44.04 44.42 44.84 43.52 42.65 41.51 40.51 40.21 39.95 38.24 37.05 36.15 34.56 33.18 31.88 31.46 32.14
34.22 35.14 34.42 35.04 38.78 40.70 42.76 43.21 43.71 44.29 45.15 44.48 45.46 46.73 47.00 47.14 46.24 45.80 44.89 44.09 43.71 43.43 43.12 43.78 43.81 43.34 42.70 42.94 42.79 43.21 42.71 42.42 41.07 40.91 40.10 38.79 37.46 36.32 34.35 33.54 32.76 32.50 33.89 34.83
34.64 32.63 30.68 31.63 38.53 38.69 40.55 42.42 43.61 43.02 43.24 44.41 44.11 45.20 45.99 46.61 46.05 46.12 45.47 44.89 42.93 43.36 42.23 41.41 40.99 41.44 41.52 41.40 41.15 41.17 41.11 41.47 40.89 39.65 38.04 37.81 36.44 36.08 33.92 32.52 32.01 36.05 36.18 37.17

GFSCGP_sfc_wetblb_090.txt.gz
Wetbulb
41.96 39.66 36.73 38.77 41.71 41.38 41.34 38.97 38.34 42.12 46.97 44.72 43.49 44.36 45.56 48.39 48.91 47.54 47.91 48.91 49.85 51.29 54.63 54.78 53.78 53.73 59.26 64.88 65.82 66.07 66.19 66.99 66.67 66.37 65.69 65.53 64.99 66.02 67.00 67.79 68.12 67.97 68.11 68.03
39.42 36.94 41.64 44.18 43.79 42.39 39.70 37.23 37.04 41.83 45.52 44.31 42.70 41.94 45.19 46.89 47.62 48.44 48.41 48.10 49.18 50.42 52.16 52.80 51.46 51.70 57.56 62.39 64.34 65.88 66.08 66.45 66.31 67.05 67.13 66.03 66.33 65.80 66.23 67.05 67.39 67.63 67.37 67.97
35.95 40.40 44.38 43.25 41.77 40.39 39.89 37.58 37.66 38.50 42.17 41.65 39.02 37.65 41.05 45.37 46.75 47.89 49.20 49.19 49.74 49.67 49.38 51.90 50.05 50.02 51.67 57.44 61.58 63.65 65.22 65.77 66.17 66.87 65.77 64.40 64.93 65.92 65.89 65.67 65.95 66.44 67.03 67.59
39.52 43.16 41.51 41.19 40.13 40.92 36.14 43.00 41.43 40.12 37.06 30.91 40.24 27.92 37.09 42.52 43.72 45.79 46.11 46.81 48.16 49.10 50.87 52.28 51.78 50.06 49.83 52.07 59.23 60.83 63.08 64.98 65.45 65.00 63.85 63.34 63.15 62.60 63.41 64.52 65.51 62.49 61.82 61.80
37.34 39.48 39.10 38.72 39.84 42.00 39.06 43.31 41.45 40.60 36.52 34.23 36.18 30.81 34.35 39.76 40.91 43.68 45.72 46.46 47.93 49.05 50.20 51.59 52.24 50.89 51.01 53.27 53.89 54.94 57.26 60.98 61.33 60.50 62.59 62.93 62.35 61.11 59.38 59.51 59.28 58.95 57.96 57.25
39.38 44.04 42.31 40.95 43.80 43.13 44.95 40.78 39.82 37.98 35.26 26.56 33.63 32.56 31.46 35.73 39.03 41.63 44.69 47.28 48.43 48.83 49.97 52.01 52.43 51.51 50.49 52.12 52.66 53.29 54.24 55.22 54.54 56.48 56.36 58.32 59.35 53.48 52.96 53.53 53.24 53.34 55.08 54.42
36.41 38.45 42.54 43.81 39.38 42.07 41.02 36.11 28.05 25.44 26.58 23.09 34.77 32.26 34.41 39.68 41.67 42.00 43.14 42.90 45.29 48.15 49.17 50.57 50.73 49.63 49.71 50.62 51.04 51.59 51.80 51.83 52.54 51.79 51.46 52.30 52.01 51.31 51.53 51.62 51.48 51.21 51.83 52.43
27.30 29.25 38.34 42.84 39.93 36.55 36.77 35.58 29.22 22.11 21.90 24.67 34.60 27.15 32.59 41.08 42.58 43.87 45.50 44.53 44.95 45.03 46.24 49.62 50.52 50.02 49.90 50.90 51.47 50.41 50.88 51.38 52.08 51.81 51.62 52.36 52.53 52.01 51.93 51.60 51.05 49.82 49.87 49.30
31.75 30.29 40.71 42.40 43.22 41.52 35.67 30.81 38.18 31.80 30.95 23.64 29.57 33.05 38.26 40.82 41.15 41.35 41.80 43.36 43.22 43.02 44.46 48.10 48.65 49.72 50.04 50.90 51.59 51.20 51.73 51.16 51.76 51.62 51.40 50.95 50.19 50.29 48.64 48.24 48.54 47.78 46.66 46.85
38.11 30.66 38.59 40.53 42.67 41.93 39.44 40.34 30.81 29.05 18.30 19.78 24.66 27.52 30.61 35.35 38.62 41.71 40.09 40.59 42.14 43.02 42.68 44.83 46.14 47.76 48.56 50.52 52.10 51.56 50.80 51.17 51.01 50.54 49.48 49.20 48.42 47.83 47.32 47.32 45.65 44.90 44.83 44.77
39.96 36.13 35.02 38.15 36.01 34.93 36.68 35.96 36.55 34.14 29.60 20.17 20.54 26.41 35.11 37.06 39.01 39.45 40.82 42.60 43.27 43.63 43.27 44.08 44.57 46.42 48.20 49.06 50.56 51.14 51.27 50.43 49.37 49.18 47.83 46.70 46.26 46.12 45.92 44.40 44.11 44.06 43.92 43.81
39.80 36.01 30.73 33.74 40.02 41.58 39.84 36.97 36.80 30.75 27.82 28.36 24.77 27.33 38.19 39.11 39.80 41.24 42.72 44.68 44.57 44.38 44.64 44.56 45.07 46.26 46.95 47.39 48.34 50.06 50.33 49.01 48.82 48.26 47.71 46.38 45.84 45.36 44.00 43.35 42.98 43.11 42.28 42.07
39.27 32.85 28.83 31.82 35.63 39.43 36.71 37.39 37.92 36.59 34.44 26.64 24.05 26.65 39.69 39.67 38.83 40.96 41.62 42.29 44.18 44.98 44.71 44.62 44.58 44.98 45.26 45.84 46.60 47.10 47.96 47.73 47.54 46.64 45.30 44.88 44.40 44.27 43.64 43.11 42.83 42.66 41.77 41.14
41.38 35.30 30.34 26.68 30.55 35.04 32.28 35.72 37.73 35.82 31.06 29.21 30.40 32.90 37.49 38.64 39.40 40.28 41.74 42.66 40.91 43.61 45.51 44.71 44.19 44.34 45.06 45.77 46.03 46.18 46.10 46.16 45.29 45.29 44.65 43.85 43.55 43.40 42.95 42.70 42.23 41.77 41.35 40.39
36.61 30.56 34.14 34.82 36.28 36.02 35.18 34.80 36.36 34.00 34.82 29.97 32.95 34.44 38.31 40.76 41.06 39.26 41.16 42.70 42.56 43.11 43.93 45.03 44.73 44.16 44.69 45.30 45.67 45.47 44.81 44.11 43.91 43.38 43.14 43.11 43.81 43.78 43.10 42.26 41.90 41.23 40.55 39.76
35.56 31.68 32.00 32.21 36.13 35.45 32.86 35.53 36.49 36.14 36.31 35.78 35.88 35.03 41.62 43.17 43.18 42.75 42.08 42.90 42.34 42.21 44.00 44.39 46.01 45.71 45.30 44.63 44.70 45.38 44.42 43.58 43.50 42.46 42.21 42.85 42.55 42.27 41.84 41.22 40.39 39.85 38.92 38.13
31.48 30.85 30.13 27.85 33.56 32.11 28.89 32.71 34.72 36.15 37.82 37.03 32.35 37.23 41.38 40.58 41.52 41.44 41.68 42.76 42.74 43.27 43.59 44.23 45.00 45.99 45.83 45.42 45.25 43.78 43.31 43.38 42.57 42.19 42.50 42.55 42.32 41.20 40.52 39.81 39.18 38.95 36.62 36.75
29.47 27.64 29.42 29.67 31.01 21.92 33.14 36.67 38.44 36.92 38.21 39.09 38.99 39.39 40.96 40.67 41.07 41.73 41.58 40.15 41.46 43.22 43.88 44.28 44.91 46.17 46.98 46.75 45.86 44.90 44.38 43.03 42.18 41.75 41.86 42.02 41.48 40.58 39.58 38.50 38.19 38.57 36.06 36.36
33.83 29.90 27.69 27.71 26.15 30.79 31.84 33.44 34.65 33.79 32.98 38.60 37.56 38.93 39.58 40.31 38.83 38.93 42.73 41.89 41.08 42.23 43.60 43.99 45.11 45.28 46.82 46.80 46.00 45.04 43.39 42.48 41.75 41.36 41.16 41.24 41.07 39.62 38.27 37.07 38.18 35.82 33.73 33.36
33.39 32.80 30.15 29.65 24.64 23.11 30.76 34.64 38.07 36.99 26.77 38.92 38.51 38.41 39.59 39.78 33.15 37.08 41.17 42.59 42.38 43.18 43.10 43.56 44.66 45.77 46.30 46.46 46.28 43.89 41.90 40.97 40.55 41.09 40.99 41.08 40.76 39.23 37.23 37.80 36.52 34.66 33.38 33.13
29.87 30.31 25.36 28.04 26.84 30.46 35.58 36.88 38.65 25.26 29.82 40.78 40.93 41.03 40.18 37.94 38.85 40.64 41.91 41.91 42.60 42.27 41.94 43.25 44.30 44.59 45.35 45.60 44.41 42.28 41.00 40.07 41.22 41.79 41.28 40.69 39.85 38.22 36.55 36.21 34.94 33.51 33.03 33.31
28.77 27.32 27.67 29.08 25.00 24.54 36.91 36.83 30.90 36.35 39.10 40.24 40.87 41.57 41.87 41.36 40.99 40.56 41.65 41.34 41.95 41.77 41.67 43.28 43.50 42.67 43.28 44.17 43.36 41.40 39.94 41.06 40.90 40.31 39.85 39.00 38.34 38.54 37.82 36.14 34.79 33.62 32.71 32.04
27.42 31.89 30.30 33.67 31.90 37.54 38.05 37.50 39.84 40.50 39.09 40.30 41.83 42.53 43.13 41.56 40.88 41.71 41.43 40.56 40.65 40.76 41.08 42.14 40.57 39.77 40.61 41.96 42.30 40.36 39.77 39.99 39.51 38.67 37.96 37.66 38.47 37.86 37.04 35.29 33.40 32.01 32.00 31.69
30.69 34.35 32.16 31.97 36.32 37.64 39.00 39.54 40.05 40.48 40.17 41.43 43.33 43.34 42.90 40.16 42.00 42.24 41.37 40.53 40.08 40.62 40.22 41.01 40.00 38.92 38.95 40.47 41.78 40.97 40.22 39.73 38.78 37.61 37.16 36.97 37.73 36.77 36.08 34.90 33.54 32.17 31.27 31.27
28.69 29.64 30.81 30.56 33.80 37.63 39.20 38.25 39.49 40.18 41.27 40.74 41.06 41.73 43.64 43.36 42.96 42.37 41.25 40.46 40.04 39.71 39.79 40.09 39.66 39.32 38.83 39.35 39.42 40.12 39.85 39.39 38.07 37.85 36.85 35.83 37.06 36.36 34.20 33.65 32.91 32.27 33.01 33.55
29.21 27.80 25.13 25.02 32.31 33.88 35.52 36.26 40.66 40.53 41.10 41.15 40.22 40.84 42.55 42.84 42.86 42.88 41.39 40.61 40.73 40.67 38.83 37.84 37.44 38.06 37.91 38.19 37.94 38.23 39.52 40.55 39.58 38.20 36.67 35.94 35.59 35.23 33.77 32.57 32.11 36.50 36.07 37.20

GFSCGP_sfc_wetblb_093.txt.gz
Wetbulb
40.19 36.24 32.38 35.96 38.61 38.96 39.44 38.24 37.31 41.05 45.42 42.88 42.75 43.75 45.79 47.18 46.11 45.86 46.12 47.71 48.17 49.10 53.18 54.00 54.75 56.20 61.28 63.71 65.96 66.63 66.43 66.26 66.67 66.20 66.20 65.38 66.45 66.74 66.74 67.19 67.34 67.00 66.90 66.47
36.48 32.96 39.07 42.43 41.27 40.02 38.39 36.08 36.49 40.67 45.80 43.74 42.51 41.66 45.75 47.04 46.01 46.50 46.89 46.75 47.23 47.56 50.02 51.22 51.41 51.97 57.19 62.61 64.91 65.95 66.57 66.73 66.78 66.75 66.36 65.61 66.15 64.83 64.80 65.73 66.43 66.78 66.62 66.71
32.66 38.30 43.22 41.72 39.77 38.75 36.70 35.22 36.31 37.59 42.44 43.22 40.92 36.61 40.21 45.42 44.48 47.00 48.05 48.30 48.42 48.34 48.01 49.21 48.02 49.26 54.66 61.63 62.63 64.28 65.16 66.04 66.23 66.32 65.08 63.96 63.56 64.02 64.20 65.06 65.13 65.29 65.92 65.34
36.80 42.32 40.41 39.29 38.64 39.42 34.16 41.46 40.92 39.38 36.84 30.93 38.54 26.05 33.52 41.17 40.83 43.78 44.53 46.08 47.49 47.81 48.02 50.62 47.63 47.07 48.27 59.17 60.82 62.96 64.27 65.31 65.23 65.00 64.24 62.78 62.31 62.21 62.93 64.02 64.68 63.77 63.58 61.86
33.37 37.82 37.69 37.34 38.82 40.65 37.85 42.53 40.21 39.70 35.74 32.17 33.54 29.11 32.35 35.97 37.03 41.44 41.77 42.98 45.34 47.66 48.35 50.57 49.61 49.28 48.27 50.30 56.57 58.58 60.69 62.70 62.50 63.82 64.63 62.98 61.87 62.01 60.66 61.55 61.21 59.03 58.23 58.07
37.47 42.50 40.47 39.05 42.27 42.18 42.74 40.25 38.32 37.77 34.08 23.64 30.80 31.12 29.45 32.91 37.04 39.60 42.05 44.73 45.78 46.80 48.18 48.47 51.27 49.50 48.25 51.03 52.06 52.52 55.29 56.87 58.26 59.01 60.43 61.90 61.22 57.81 57.02 56.46 55.85 55.38 54.92 54.56
33.06 35.45 41.08 42.22 37.34 41.00 39.31 35.07 26.91 21.00 20.74 20.90 31.88 29.61 33.09 37.68 39.69 40.45 41.92 42.38 43.51 45.18 46.68 47.83 47.31 47.25 48.38 49.57 49.87 50.54 51.95 51.95 52.60 55.08 56.08 55.97 56.87 54.00 53.83 53.11 52.55 52.01 52.80 51.96
22.34 19.96 36.55 41.38 38.10 35.10 35.95 34.14 25.56 20.50 20.61 22.21 31.87 25.64 30.98 38.89 40.56 40.99 42.96 42.92 43.04 42.83 44.14 47.45 48.70 48.05 48.32 48.84 49.09 49.57 49.25 49.32 49.88 49.99 50.21 53.18 52.86 52.30 51.95 52.63 51.50 50.65 50.14 49.14
26.94 27.68 39.70 41.27 41.67 39.60 34.14 29.75 35.91 28.61 27.92 20.50 26.09 30.31 36.12 38.79 40.03 39.68 41.75 42.26 41.90 42.54 43.87 45.80 47.04 46.67 47.68 48.48 48.93 48.67 49.02 49.29 49.73 49.91 50.35 49.68 50.04 50.33 49.80 47.51 46.95 47.18 45.70 46.48
35.44 26.76 36.79 39.00 41.23 41.12 38.13 39.23 29.76 30.35 23.69 19.76 22.59 25.43 28.92 32.27 36.86 39.61 38.13 38.36 40.34 41.41 42.77 44.63 45.80 46.46 47.43 48.48 48.82 49.08 49.58 49.65 49.67 49.34 49.66 48.87 47.03 46.81 46.62 45.72 44.89 44.66 44.38 45.06
38.94 35.26 34.11 38.03 35.10 34.01 35.79 34.25 34.72 32.30 28.30 20.25 20.01 24.34 33.64 34.06 37.29 38.19 39.70 41.11 41.25 42.13 41.86 42.26 43.36 45.68 46.91 47.67 48.14 47.95 49.36 50.59 49.12 48.75 47.45 46.31 46.23 45.48 44.46 44.04 44.32 43.98 43.98 44.08
39.14 36.19 30.65 34.79 39.73 40.80 39.12 36.17 35.85 25.14 25.61 25.67 23.07 25.98 36.93 36.64 38.21 40.47 41.18 42.81 42.27 43.18 43.36 42.39 42.84 44.48 45.33 46.38 47.02 47.33 48.48 49.87 49.09 48.11 47.16 45.96 45.61 43.92 43.75 43.55 43.35 43.58 42.53 42.05
38.80 33.25 26.81 30.28 34.88 38.45 35.50 37.53 37.62 36.11 31.66 20.94 21.68 24.82 37.08 36.26 37.71 39.94 41.11 41.73 42.45 42.62 42.71 43.16 43.21 43.82 44.43 44.99 45.97 46.88 46.79 46.98 46.48 47.62 46.92 45.74 45.08 44.09 41.92 43.00 42.75 42.63 41.87 41.38
40.12 32.11 30.15 26.15 30.29 34.90 33.34 34.68 36.91 35.12 29.51 25.44 25.16 29.81 35.14 35.11 36.91 38.13 40.06 40.55 41.35 42.67 43.32 42.78 42.38 43.01 43.45 44.57 45.12 45.16 45.17 45.45 45.03 44.89 44.87 44.04 43.63 43.20 42.49 41.90 41.42 41.29 40.58 40.03
36.08 29.29 33.29 33.24 34.81 35.36 35.12 34.70 35.82 33.14 33.36 28.37 31.40 33.01 37.58 39.25 39.16 39.35 39.64 40.93 39.74 41.09 42.83 43.08 43.08 42.90 43.13 43.55 44.38 44.67 44.45 44.06 43.70 43.03 42.47 42.36 42.80 42.70 41.99 41.35 41.18 40.70 39.97 39.11
34.44 29.63 31.54 28.52 34.32 34.96 32.09 35.73 35.89 36.21 35.88 35.06 34.74 33.86 40.26 41.90 40.31 40.59 40.21 40.78 40.59 41.22 42.07 44.11 44.29 43.70 43.31 43.11 43.66 43.87 42.68 42.73 43.17 42.43 41.85 42.20 42.17 41.58 40.83 40.32 39.44 38.91 37.93 37.72
27.63 28.11 22.25 25.06 33.82 31.91 28.21 31.89 34.57 35.24 37.13 36.54 32.00 37.17 41.56 40.27 40.21 40.33 40.57 40.63 40.77 41.08 42.13 42.53 43.20 44.69 44.67 44.40 45.00 43.70 42.53 42.01 41.49 41.32 41.43 41.62 41.62 40.73 39.88 39.30 38.42 37.33 36.17 36.16
25.79 24.98 23.46 23.24 30.72 21.12 31.81 37.21 38.10 35.95 37.22 38.82 38.67 38.55 40.68 41.22 41.17 41.51 40.42 39.50 40.37 41.18 41.94 42.49 42.24 43.89 45.07 45.66 45.48 44.19 43.02 42.33 41.37 40.78 41.04 41.25 40.78 39.94 38.97 38.05 37.20 36.19 35.05 34.58
29.83 25.80 21.62 23.37 26.73 29.03 31.78 33.76 34.58 32.79 33.40 38.03 36.68 38.55 39.63 39.11 37.87 36.11 40.43 40.39 39.60 40.58 41.77 41.67 41.89 43.21 44.99 45.42 45.50 43.98 42.35 41.56 41.02 40.67 40.72 40.71 40.43 38.83 37.55 36.14 35.16 33.69 32.95 32.07
31.09 30.15 27.17 26.38 23.79 22.31 30.36 33.57 37.20 35.88 27.23 38.49 36.91 36.75 37.14 37.94 31.49 34.72 39.79 41.04 41.02 41.74 41.85 41.44 41.58 42.43 43.75 44.71 44.79 43.35 41.77 41.02 40.62 40.30 40.15 40.47 40.12 38.65 36.59 35.20 34.55 35.72 34.49 33.33
28.37 28.98 24.57 25.59 25.70 28.22 35.99 35.97 37.95 25.32 26.75 39.05 40.10 39.98 39.38 36.90 37.59 39.77 40.12 40.50 40.88 41.02 40.73 41.26 41.09 42.72 43.18 43.84 44.46 42.85 40.83 40.45 40.95 40.99 40.46 40.04 39.27 37.52 35.90 35.05 35.21 34.85 33.82 33.19
27.75 26.15 26.14 27.40 23.21 21.70 37.08 35.46 29.97 34.98 37.59 38.40 39.46 40.40 40.24 39.71 39.01 39.25 40.04 39.91 40.20 39.79 40.14 41.73 40.36 39.89 40.83 42.48 43.54 40.71 40.26 39.84 40.58 40.06 39.43 38.48 37.28 37.60 35.81 34.06 35.26 34.50 33.73 33.07
24.01 30.18 30.06 32.90 30.66 37.06 38.51 37.25 37.85 37.70 37.59 38.87 41.31 41.99 41.80 40.36 39.54 41.08 40.38 39.19 39.45 39.23 39.97 40.49 39.20 39.04 39.92 41.60 41.42 39.48 39.21 39.60 39.10 38.64 37.39 36.50 36.44 36.08 35.45 34.70 34.27 33.16 32.89 32.33
27.46 31.11 28.66 29.55 34.88 36.62 36.99 37.08 37.18 38.59 38.16 39.02 41.26 41.68 42.03 39.72 41.38 40.30 40.28 39.34 38.98 39.38 39.62 39.74 38.98 38.43 38.58 40.15 40.92 39.85 39.16 38.88 38.49 37.20 36.22 36.05 35.57 35.49 36.36 35.42 34.35 33.13 32.14 31.88
26.51 27.19 26.55 27.14 29.39 33.93 35.84 35.61 36.03 38.93 40.10 40.72 40.47 40.54 42.25 42.93 41.70 40.58 41.04 40.43 39.51 38.58 38.32 38.94 38.77 38.27 37.92 38.22 38.83 38.96 38.79 38.52 37.32 36.75 36.10 35.53 36.44 36.38 34.93 34.76 33.88 33.06 33.21 33.83
26.65 25.80 23.29 22.77 28.77 29.62 31.44 34.87 38.31 37.45 38.64 40.35 40.37 40.55 41.96 42.33 41.75 41.61 40.04 39.57 39.72 39.79 38.96 36.92 36.76 37.01 36.89 36.99 37.17 37.63 38.37 38.14 37.27 37.46 37.47 37.02 36.48 35.48 34.61 33.46 32.89 37.03 36.49 36.90

GFSCGP_sfc_wetblb_096.txt.gz
Wetbulb
39.99 34.51 31.86 34.17 36.62 36.98 38.31 38.30 37.71 39.97 44.14 43.16 41.94 42.85 45.87 48.09 47.79 46.18 45.42 45.56 46.23 49.35 53.36 53.64 56.17 62.19 62.94 64.00 64.28 65.35 65.47 66.07 66.76 66.93 66.32 65.62 64.57 66.51 66.10 66.32 66.47 66.12 66.13 65.47
34.56 30.39 38.78 41.74 40.86 38.01 37.05 35.79 34.64 40.04 43.78 41.58 41.51 39.70 44.59 47.32 46.75 46.30 45.10 45.89 46.29 46.53 48.59 52.00 52.27 54.92 60.72 64.14 64.97 65.08 65.39 65.15 65.57 65.37 65.51 66.17 65.34 65.45 66.63 66.64 66.79 66.93 66.65 66.47
30.86 36.33 42.20 40.69 38.63 36.68 34.88 33.16 35.11 37.83 42.48 42.92 40.30 38.07 41.28 45.18 47.21 45.99 46.64 46.88 47.52 47.85 46.97 49.42 50.42 50.60 53.54 60.86 63.94 65.14 65.62 65.55 65.85 66.01 64.64 63.67 63.89 63.97 63.99 63.75 64.18 65.26 65.83 65.94
35.51 40.72 39.53 38.04 37.25 37.51 32.34 39.86 39.79 39.65 38.17 33.03 40.25 28.17 32.96 38.25 42.43 44.32 44.26 45.06 46.22 46.60 46.46 48.67 50.59 48.09 49.14 57.78 62.07 65.06 65.64 65.86 66.09 65.54 64.28 64.17 64.27 63.30 63.57 63.31 63.60 63.48 64.48 64.35
32.32 36.54 36.91 36.11 37.43 39.17 35.79 40.86 39.53 39.08 34.59 33.04 33.33 30.58 31.87 35.21 36.32 40.95 40.87 42.97 46.09 46.73 46.40 48.06 49.57 50.71 48.89 51.06 57.37 59.63 62.02 62.83 62.99 63.83 64.95 63.40 60.94 61.65 61.27 61.89 61.93 60.25 58.81 59.91
35.92 40.97 39.18 38.21 41.08 40.90 41.39 38.91 38.07 38.31 34.26 27.63 30.98 32.15 30.82 32.54 36.08 39.23 41.06 43.16 45.49 47.78 46.41 47.91 49.75 49.41 47.19 47.58 53.68 56.22 58.90 60.09 61.23 61.67 61.12 61.45 61.33 59.86 58.71 58.10 58.38 56.58 55.59 55.37
31.07 34.01 39.76 41.21 36.12 39.67 40.07 36.68 28.43 26.53 26.80 25.97 30.34 30.38 33.11 36.96 38.35 38.81 40.10 41.44 42.60 44.34 45.93 45.45 47.77 47.18 46.23 48.91 51.08 52.20 55.48 56.39 57.38 58.29 58.44 59.56 59.61 57.80 58.01 57.90 57.60 55.58 53.78 53.63
21.49 19.59 35.33 40.18 36.72 34.03 35.12 34.81 26.84 20.19 21.75 23.55 31.21 26.23 31.65 38.83 41.09 40.95 41.88 40.71 42.08 43.02 43.34 44.40 46.83 47.44 46.96 48.95 50.29 50.58 51.36 51.84 51.14 52.79 53.68 53.35 55.52 54.85 55.57 55.17 55.34 54.46 53.74 51.67
26.02 26.42 37.12 39.68 40.39 38.51 33.56 30.98 36.25 27.65 25.35 20.75 26.04 29.94 35.64 38.22 37.09 37.17 39.03 40.03 38.43 39.09 43.30 43.71 46.04 45.92 46.75 47.52 48.80 49.29 49.00 48.90 48.50 48.33 49.61 50.50 51.22 52.17 52.08 51.36 53.13 52.71 51.04 49.32
33.52 29.58 34.96 38.78 41.37 40.41 36.27 38.64 31.21 30.17 23.23 19.97 21.83 24.71 29.11 31.45 35.23 37.26 37.07 37.81 37.75 38.75 40.96 43.96 44.94 44.72 45.80 46.34 47.47 47.80 48.34 48.43 48.47 48.78 48.19 47.93 47.49 47.78 46.85 47.56 45.67 44.27 43.73 45.47
35.89 33.76 30.66 37.14 34.98 33.10 35.46 32.70 33.62 32.37 29.34 21.46 19.77 23.03 31.59 33.62 35.80 37.04 37.63 39.16 39.71 39.30 39.98 40.87 43.16 44.97 46.07 46.91 47.32 47.24 47.93 48.70 48.10 47.55 47.01 46.12 46.10 46.04 44.86 43.71 43.34 43.88 43.36 43.08
36.80 35.71 30.19 31.76 39.27 40.25 37.91 35.26 35.47 27.59 24.40 24.67 22.64 25.59 36.21 34.96 38.09 39.36 39.68 41.00 40.52 41.03 40.97 40.69 42.11 43.91 45.13 46.03 46.53 46.57 47.23 47.97 47.64 47.91 47.41 45.91 45.80 45.19 44.81 43.00 43.16 43.91 43.48 43.43
38.44 32.53 27.04 29.08 34.16 37.85 35.69 36.21 36.28 33.52 30.85 21.85 21.35 25.19 36.03 33.90 37.82 39.73 40.10 40.08 41.22 41.74 41.26 41.65 42.45 43.09 43.79 44.74 45.40 45.54 46.49 46.91 45.91 45.68 45.32 44.90 43.65 43.98 44.12 43.68 43.49 43.33 42.69 42.23
39.46 31.93 29.31 23.58 28.15 33.96 31.93 35.52 36.61 34.30 28.32 25.36 23.44 26.80 32.63 33.85 36.13 38.32 38.90 39.18 39.85 41.31 42.11 41.57 41.43 42.28 42.95 44.52 45.31 45.41 45.41 45.35 44.59 44.29 43.74 43.28 42.89 42.95 43.54 43.35 42.73 42.14 41.11 39.97
35.27 25.13 30.29 32.36 33.81 34.17 33.41 34.27 35.26 33.18 32.80 27.01 29.50 30.56 35.56 35.94 36.96 36.03 37.99 39.57 39.04 40.19 41.72 41.95 42.08 41.91 42.19 43.14 44.14 44.76 44.93 44.28 43.87 43.48 42.97 42.63 42.60 42.74 41.42 41.05 40.31 40.67 40.15 39.66
32.93 27.50 22.27 24.39 31.58 32.86 31.32 34.71 35.84 35.68 35.59 34.53 33.52 33.19 38.80 40.83 38.84 36.88 38.19 40.03 39.32 39.11 41.02 42.95 43.00 42.39 42.60 42.45 43.86 44.35 43.77 43.37 43.13 42.14 41.85 41.76 41.52 40.62 40.09 39.58 39.22 38.53 38.05 37.98
25.31 23.00 16.28 17.13 28.62 31.26 25.68 30.36 33.89 34.36 36.36 36.17 32.38 36.61 40.60 40.22 40.60 40.44 39.63 39.37 39.70 40.14 40.53 40.67 42.25 43.34 42.62 42.94 44.06 43.76 43.04 42.36 41.65 41.31 41.05 41.12 40.79 39.91 39.27 38.86 38.12 37.10 36.24 36.14
24.41 21.71 22.25 16.08 28.60 21.31 32.25 35.74 37.12 35.86 36.78 38.07 37.75 38.00 40.01 41.21 42.13 40.98 39.27 38.39 39.01 39.51 40.09 40.72 40.59 40.99 43.75 44.10 44.20 43.89 42.66 42.24 41.39 40.55 40.53 40.59 40.20 39.30 38.41 37.51 36.82 35.64 34.87 34.78
27.54 24.20 19.56 20.78 23.61 29.06 30.95 32.21 34.04 32.74 33.15 36.78 36.39 38.64 40.47 39.24 37.36 35.96 39.66 39.62 38.99 39.78 41.11 41.38 41.68 41.40 42.15 43.83 44.71 43.63 42.12 41.48 40.92 40.16 40.26 39.99 39.82 38.36 37.08 36.05 34.95 33.41 32.96 32.22
29.77 30.83 26.04 24.57 22.78 20.97 28.87 33.62 35.50 35.42 27.32 37.86 36.56 36.18 36.56 36.71 31.14 34.27 39.36 39.93 40.08 40.96 41.29 40.84 40.63 40.94 40.87 43.45 43.85 42.94 41.51 41.00 40.75 40.23 40.28 40.21 39.70 38.41 36.71 35.16 33.87 34.87 34.63 33.21
24.97 24.25 19.26 18.70 18.10 26.98 33.65 34.89 35.98 23.43 25.38 38.25 39.34 39.33 38.71 36.55 36.88 39.59 39.30 39.52 39.91 40.11 40.01 40.81 41.12 41.05 41.50 42.35 43.27 42.29 40.54 40.82 41.26 40.47 40.30 39.88 39.09 37.81 36.09 34.84 34.83 31.90 34.57 34.08
26.42 22.71 21.82 25.77 20.94 20.81 36.27 35.03 28.93 32.03 35.02 37.89 39.17 39.71 39.52 39.15 38.69 38.35 39.47 39.01 39.21 38.86 39.52 40.36 38.99 38.94 39.78 41.64 42.78 40.93 40.40 40.36 40.18 40.07 39.69 39.15 38.16 37.91 36.30 35.41 32.79 33.89 35.00 34.08
27.12 28.74 28.45 29.06 26.29 35.69 37.06 35.90 36.48 37.63 36.75 36.75 37.53 42.18 41.06 39.46 38.95 39.63 39.29 38.07 38.37 38.21 39.18 39.17 37.98 37.83 38.31 39.81 40.62 38.91 38.02 39.62 39.17 38.73 38.19 37.24 36.13 35.50 34.54 32.85 32.30 34.16 34.12 33.32
24.89 29.24 27.29 28.66 31.37 33.61 35.25 38.31 38.62 37.88 37.24 38.81 39.68 38.61 41.75 39.24 40.26 39.40 39.14 38.60 38.18 38.27 38.55 38.75 37.98 37.37 37.27 38.47 39.73 39.59 40.35 39.37 39.04 37.62 36.52 35.77 35.13 34.54 34.21 34.28 34.86 34.21 33.27 32.73
25.02 25.76 24.57 25.65 27.23 31.20 32.54 32.89 36.71 38.34 38.21 38.59 39.77 40.03 39.39 42.07 40.73 39.54 40.03 40.67 38.93 38.15 37.77 38.32 38.05 37.39 36.83 37.90 37.83 38.05 38.33 38.55 37.45 36.56 35.61 34.90 35.13 35.22 34.48 35.13 34.91 34.12 34.65 34.64
25.32 24.69 22.63 22.08 27.44 27.35 28.61 32.16 35.22 36.70 38.10 38.69 39.00 38.88 40.54 42.16 42.27 42.21 40.15 39.04 38.58 39.20 37.93 37.21 36.66 36.96 36.35 36.66 36.76 36.98 37.59 37.64 36.52 35.29 35.23 36.59 36.69 36.13 35.27 34.44 33.76 37.59 37.36 37.50

GFSCGP_sfc_wetblb_099.txt.gz
Wetbulb
38.84 34.30 34.66 33.19 36.29 36.24 37.59 37.40 36.76 39.68 43.85 42.66 40.76 41.81 44.85 48.02 46.52 44.99 44.93 44.86 46.39 48.04 51.44 54.27 57.19 61.12 62.48 64.30 64.92 64.78 65.01 65.81 66.37 65.64 65.48 65.28 65.28 64.87 64.56 64.74 65.77 65.56 65.07 64.80
33.23 30.23 37.84 40.57 39.77 37.85 36.08 35.21 33.69 39.86 43.81 41.93 41.92 41.08 43.99 45.97 46.01 45.63 45.14 44.47 45.44 46.67 48.07 50.81 52.15 55.46 60.65 62.62 63.76 64.06 65.29 64.84 66.23 66.69 65.89 65.63 65.04 64.95 65.46 65.66 65.67 66.14 65.67 65.44
28.60 35.01 41.14 39.58 37.38 35.91 33.99 31.33 32.42 36.43 41.29 42.16 40.31 37.92 40.22 44.03 47.29 46.90 47.42 45.34 45.79 47.25 48.01 48.27 50.17 50.84 55.63 60.20 62.60 64.31 64.98 64.83 65.24 64.73 64.22 62.87 63.58 63.22 63.04 63.88 64.36 65.51 66.11 65.92
34.15 39.47 38.33 36.97 35.97 37.36 31.43 38.47 37.77 39.55 36.90 31.09 39.19 29.14 32.51 41.54 42.96 45.37 46.17 43.74 44.81 45.45 46.17 47.62 48.91 49.60 49.97 56.43 61.58 63.23 64.19 64.66 64.92 64.11 63.49 62.97 63.60 62.59 64.34 63.37 63.27 63.79 64.61 64.28
31.06 35.32 35.32 35.06 36.27 37.94 35.19 40.27 38.69 39.30 34.79 32.62 35.23 29.09 32.98 36.37 38.12 41.27 44.99 42.80 43.56 45.61 46.32 46.68 47.88 50.48 50.23 50.39 57.79 59.93 61.66 62.78 62.59 63.01 63.12 62.76 62.23 62.73 61.26 60.97 61.85 62.30 61.87 62.53
34.35 39.64 38.15 37.02 39.65 39.51 39.77 36.91 36.99 37.22 34.62 28.76 30.78 31.31 30.25 32.51 36.24 37.99 41.52 43.09 43.71 46.16 46.59 46.46 47.26 48.64 48.54 46.89 54.13 57.86 60.30 60.39 61.21 61.28 61.86 61.87 61.49 59.45 58.83 58.54 59.37 58.32 58.09 58.68
29.77 32.75 38.19 40.09 34.95 38.10 37.91 32.80 28.59 25.94 27.60 22.59 29.89 31.03 32.11 37.18 37.39 38.39 40.43 42.02 42.36 44.72 46.10 45.65 45.86 46.58 46.65 46.22 48.90 54.01 57.09 58.74 59.62 59.77 60.38 60.45 59.39 58.94 58.61 58.10 57.41 56.00 55.72 56.10
22.20 19.37 33.82 38.81 35.65 33.08 33.68 34.24 25.10 19.78 21.76 24.25 31.40 28.24 31.71 38.63 39.13 40.08 40.61 40.71 41.16 41.30 41.83 44.03 45.32 46.92 46.18 46.65 47.49 50.41 53.35 55.41 56.53 56.61 58.37 57.46 58.66 57.10 56.12 56.03 56.17 55.77 54.96 53.96
25.76 25.89 35.01 38.19 39.36 37.94 33.58 27.89 35.15 30.10 23.29 19.87 27.49 28.74 34.38 37.95 38.15 37.34 38.12 39.56 39.61 39.24 41.20 42.71 44.13 45.87 46.83 45.93 47.70 49.16 50.96 51.50 50.90 51.08 51.71 51.32 52.64 52.45 52.68 52.21 52.76 53.51 53.66 52.96
30.91 24.27 33.41 37.12 40.60 39.73 35.64 37.13 29.57 29.61 22.65 19.39 21.81 23.25 27.11 32.00 35.77 36.92 36.87 38.26 38.52 39.69 41.70 43.16 42.81 44.09 44.75 45.34 46.97 47.92 48.68 48.77 47.86 48.02 48.80 49.06 49.58 49.97 49.44 49.64 49.08 48.64 48.34 47.96
33.96 31.86 29.33 36.33 33.68 32.05 34.19 30.99 32.84 31.98 30.09 19.74 18.73 22.35 31.19 33.52 35.20 37.22 38.35 38.05 37.62 39.15 40.23 41.29 42.87 43.53 44.45 45.38 46.14 46.59 47.04 47.46 47.25 47.44 46.51 45.87 45.68 45.72 45.46 44.93 44.06 43.62 43.67 44.20
34.57 32.52 27.60 28.94 37.34 39.94 38.19 35.73 34.87 28.44 24.45 22.79 19.33 23.71 33.98 33.48 36.05 37.24 37.83 39.27 39.09 40.03 40.06 40.43 42.12 43.55 44.34 45.00 45.66 46.07 46.51 47.18 46.95 46.26 45.52 44.68 44.17 43.51 43.13 43.20 43.66 44.25 43.24 42.78
35.82 30.66 23.83 23.82 34.12 37.39 35.84 35.93 36.50 33.54 30.88 22.54 20.69 23.78 35.08 35.17 36.99 38.22 39.32 39.27 39.86 40.08 40.08 40.52 41.41 42.00 43.15 43.73 44.84 45.19 45.52 46.15 45.64 45.07 44.42 43.48 42.87 42.32 41.73 41.69 41.56 42.85 42.15 42.03
37.62 30.61 26.27 19.90 27.41 32.15 30.93 34.66 36.05 34.07 27.62 24.99 25.76 26.65 31.45 34.70 36.73 37.84 37.91 39.36 40.31 40.68 41.12 40.58 40.64 41.31 42.05 43.44 44.19 44.32 44.40 45.16 44.58 44.27 43.60 42.72 42.40 42.52 42.71 43.16 42.79 42.59 42.08 41.55
34.94 26.24 29.37 30.15 31.93 33.19 31.75 33.16 35.08 32.35 32.73 26.61 28.04 29.47 34.07 35.41 36.20 37.58 37.96 37.83 38.32 39.38 41.01 41.66 41.26 41.05 41.23 42.57 43.11 43.63 44.17 44.14 43.94 43.48 42.98 42.82 42.75 42.50 42.10 41.22 40.31 39.86 38.99 38.63
30.70 17.68 26.51 18.03 29.08 30.62 30.06 32.21 34.11 35.05 35.03 34.49 31.99 31.22 37.47 39.22 35.72 35.88 38.71 39.37 39.10 39.30 39.70 40.42 41.93 41.36 41.45 41.70 42.64 43.99 43.82 43.65 43.21 42.59 42.58 42.44 41.90 40.96 40.01 39.06 38.45 37.85 37.20 37.00
24.62 23.66 22.32 14.25 24.22 24.74 21.15 29.36 31.63 33.69 35.65 35.74 31.77 35.49 39.66 40.15 39.74 38.29 38.90 38.64 38.98 39.63 40.31 40.11 40.18 41.67 41.59 41.90 43.02 43.47 43.29 42.89 42.15 41.89 41.58 41.34 40.64 39.58 38.71 38.11 37.32 36.41 35.64 35.74
23.27 21.32 25.22 15.21 25.81 17.12 29.20 35.32 34.42 33.18 35.70 36.94 36.59 37.00 39.52 41.34 42.80 42.62 40.80 38.96 38.92 39.18 39.30 39.43 39.23 39.37 39.90 42.05 42.66 43.11 43.10 42.13 41.90 41.22 40.91 40.44 39.92 38.86 37.74 37.01 36.37 35.10 34.26 34.22
25.62 22.96 19.39 19.33 20.67 24.28 29.70 30.99 31.95 32.49 32.19 35.39 35.12 37.36 39.27 40.55 38.44 36.98 39.72 39.20 38.67 38.79 39.92 40.07 40.35 40.39 40.06 40.01 42.13 42.58 41.46 41.26 41.03 40.67 40.64 40.32 39.83 38.45 36.88 35.87 34.85 32.86 32.91 32.16
28.70 29.06 25.70 24.03 18.01 17.74 27.16 33.08 34.34 34.17 27.14 34.89 35.07 35.68 35.92 35.98 31.39 34.96 39.21 39.46 38.88 39.24 40.32 40.31 40.28 40.35 40.44 40.87 41.92 41.73 41.15 40.97 41.23 41.42 41.15 40.36 39.85 38.70 37.16 35.48 33.72 35.07 34.83 33.08
24.80 24.70 18.87 16.89 15.55 23.22 33.16 35.28 35.06 23.29 24.63 34.62 35.98 38.82 36.62 34.84 35.67 38.38 39.18 39.14 38.92 39.15 38.95 40.17 39.90 39.96 40.94 41.61 42.13 41.19 40.86 41.27 42.34 40.94 40.41 39.96 39.29 38.12 36.85 34.55 34.89 33.89 34.19 34.20
22.92 23.13 22.98 23.02 19.86 16.88 34.92 34.05 28.62 32.63 35.61 35.67 36.95 38.26 39.83 39.70 38.41 37.83 38.85 38.35 38.36 38.02 39.04 39.53 38.41 38.13 38.70 40.05 41.24 39.70 39.89 40.25 40.00 39.94 39.50 38.34 37.52 37.90 36.07 35.92 34.37 32.64 32.65 33.72
23.50 27.94 25.97 24.79 24.58 33.50 34.32 33.87 35.31 36.38 35.24 35.61 36.29 38.06 37.93 39.74 39.42 39.53 38.91 37.40 37.87 37.43 38.54 38.62 37.49 37.00 37.24 38.19 39.78 38.61 37.83 39.35 39.61 38.82 37.90 37.52 37.16 36.49 36.38 34.26 32.42 32.16 34.01 34.57
23.16 27.61 27.93 27.92 28.94 29.53 33.27 35.59 37.92 38.99 37.87 37.42 37.80 38.44 38.57 37.13 39.79 38.78 38.67 38.34 37.50 37.49 37.72 37.65 37.17 36.48 36.23 36.61 37.88 38.13 38.67 40.84 40.34 38.79 36.20 35.60 35.36 34.74 33.73 33.34 33.34 32.70 33.79 33.95
23.92 24.25 23.62 24.06 25.93 30.04 31.47 30.76 30.97 32.49 36.87 38.11 38.93 38.47 38.57 38.33 40.81 39.00 39.26 39.00 37.83 37.15 37.54 37.39 36.63 35.96 35.73 36.34 36.20 37.06 39.51 40.22 38.95 37.90 36.52 36.05 36.15 34.39 32.67 33.36 34.05 34.19 35.47 35.58
24.27 24.01 22.22 21.47 26.20 26.13 27.50 29.82 33.62 32.93 34.39 37.70 38.73 38.30 39.16 39.08 40.71 40.46 39.83 39.32 37.75 37.73 37.26 36.76 36.08 36.51 36.01 36.38 36.48 36.65 37.54 38.70 37.88 36.25 34.69 34.31 34.10 34.91 35.69 35.16 34.60 38.25 37.90 38.21

GFSCGP_sfc_wetblb_102.txt.gz
Wetbulb
40.14 37.63 35.16 36.44 35.37 36.39 37.42 36.83 35.51 38.70 43.32 39.92 39.42 39.52 42.79 44.53 44.28 44.16 43.92 44.60 45.21 47.78 51.78 57.08 61.13 62.76 63.43 64.15 65.30 65.79 66.34 66.60 67.26 65.39 64.39 64.43 64.47 64.39 63.47 63.36 64.15 63.91 63.59 62.99
33.30 33.33 39.39 39.87 38.88 36.85 36.24 35.43 34.91 39.83 43.27 41.38 39.89 38.48 43.71 44.14 43.66 43.93 44.89 44.93 44.95 45.50 48.01 49.94 53.89 59.55 61.78 63.16 64.14 64.54 65.40 65.84 66.29 66.71 66.33 65.91 65.85 65.16 65.32 64.80 64.20 64.19 63.67 63.60
29.32 34.01 40.82 39.47 35.90 34.69 33.09 31.43 33.19 36.39 41.51 41.82 39.52 37.45 40.25 43.78 44.25 45.60 46.35 46.23 45.32 45.80 46.51 47.94 49.75 52.57 58.18 61.01 62.30 63.54 64.81 65.18 65.50 65.54 65.12 63.51 64.07 63.79 63.87 64.34 64.03 64.39 64.62 64.97
32.61 37.95 37.32 35.87 35.15 34.95 30.05 36.72 37.08 38.81 36.39 30.90 38.74 28.10 36.37 40.79 42.32 44.44 44.97 44.12 45.32 45.01 45.44 46.75 48.17 50.19 50.73 56.95 61.46 63.44 64.16 64.04 64.56 64.17 64.01 62.69 62.96 62.47 63.57 63.03 63.53 64.03 64.32 63.96
30.13 34.12 33.87 34.08 35.23 37.13 33.79 38.79 37.14 38.73 33.73 32.10 34.01 29.91 32.62 39.50 39.47 42.37 44.23 44.60 44.17 44.59 45.52 46.29 46.91 48.96 51.35 51.43 56.20 60.76 62.45 62.83 62.99 62.73 63.61 62.61 61.98 62.55 61.30 61.53 61.97 61.81 62.06 62.25
32.67 37.71 36.99 35.60 38.68 38.42 38.90 36.88 36.25 35.28 33.88 26.83 30.74 31.51 30.58 33.21 37.51 41.40 44.82 43.80 44.40 44.68 44.68 46.26 47.31 47.61 48.45 48.44 52.43 58.10 60.74 61.50 61.99 61.69 62.02 62.03 62.06 60.89 59.23 58.64 59.62 60.20 59.96 59.94
28.88 30.54 35.90 39.06 34.04 36.94 36.71 32.15 26.99 25.88 27.05 22.96 28.98 30.15 33.25 37.27 37.82 38.70 40.04 40.49 42.20 42.63 43.35 44.19 45.22 45.78 47.13 46.79 47.56 54.44 57.78 58.97 59.91 60.59 61.64 62.27 61.64 60.77 59.35 58.30 58.45 58.02 57.04 56.97
21.38 19.61 31.44 37.08 34.84 31.85 31.80 31.23 23.17 19.42 20.27 20.92 30.20 27.47 31.71 37.75 39.52 40.01 40.42 39.66 38.80 39.67 40.43 41.65 45.15 46.50 46.54 46.58 45.87 48.35 53.24 56.23 57.94 59.56 60.24 60.89 61.16 60.52 59.63 57.75 56.29 57.63 56.27 55.01
24.99 24.84 33.67 36.41 38.33 36.81 33.27 27.58 33.73 24.83 22.29 17.60 25.17 28.81 33.47 37.25 37.37 37.73 37.83 38.92 37.75 38.50 40.62 40.57 43.09 44.59 46.08 45.92 46.20 47.41 49.75 51.81 54.30 55.63 58.03 56.78 56.77 56.18 56.32 55.09 54.17 53.72 52.96 52.51
29.80 22.49 31.18 36.34 38.86 38.09 36.44 36.27 29.52 31.53 23.17 19.88 20.63 21.60 26.08 31.52 34.41 36.12 37.57 37.02 38.01 38.85 41.21 42.98 42.42 42.38 43.38 43.89 45.77 47.42 49.40 50.88 50.54 50.26 51.23 51.07 51.17 51.37 51.13 50.86 50.69 50.78 49.48 49.11
33.42 32.01 26.92 33.78 31.31 30.87 35.38 34.49 32.63 31.66 28.03 20.20 18.26 22.37 29.53 32.07 34.84 36.19 37.47 37.52 37.83 38.44 39.81 42.25 43.50 42.88 43.25 44.14 45.62 46.57 47.79 48.09 47.47 47.65 47.32 47.57 47.91 48.09 48.22 48.44 48.10 48.22 47.97 47.49
33.50 32.44 24.97 27.74 35.05 39.74 38.00 35.39 34.40 27.51 24.32 22.43 19.16 23.41 32.35 32.34 35.03 36.27 36.75 39.17 39.47 38.86 38.94 39.92 41.83 42.95 43.33 44.00 44.49 45.53 45.97 46.71 46.75 46.43 45.61 45.10 44.65 44.27 43.81 43.01 42.78 43.32 42.79 42.89
34.14 26.61 21.15 19.55 31.65 35.73 34.68 36.15 36.19 34.20 29.08 19.66 19.49 23.35 33.91 32.24 35.89 36.84 37.59 37.77 39.13 40.20 39.38 39.85 40.48 40.69 42.13 43.09 43.74 44.23 44.66 45.33 45.34 44.95 44.17 43.30 42.67 42.47 41.75 41.24 41.22 41.26 41.05 40.98
36.18 27.45 20.08 16.17 20.27 30.12 25.62 31.82 33.23 34.36 28.58 23.65 25.35 24.60 30.73 33.49 36.00 37.13 38.30 38.31 38.89 40.00 40.94 41.05 40.29 40.63 41.14 42.06 42.93 43.64 43.67 44.60 44.15 43.96 43.23 42.47 41.78 41.48 41.03 40.83 40.85 40.69 40.46 39.97
30.76 15.21 24.48 28.26 28.91 31.08 30.72 30.49 31.21 31.28 32.90 26.38 25.94 28.52 33.14 34.39 34.30 35.50 36.99 38.17 38.47 38.20 39.38 40.74 41.37 41.02 40.71 41.66 41.83 42.62 43.13 43.45 43.16 42.92 42.39 41.99 41.88 41.65 41.37 41.17 41.03 40.71 39.64 38.96
29.15 14.09 22.73 17.15 25.85 26.64 26.39 30.45 32.12 32.70 32.29 33.78 32.97 30.41 35.88 38.03 34.07 35.78 36.66 37.56 37.23 38.41 39.64 39.74 39.58 40.70 40.90 41.09 42.04 43.02 43.49 42.95 42.96 42.53 42.34 42.09 41.67 41.17 40.51 39.56 38.61 37.88 37.37 37.03
24.24 23.95 16.70 15.84 23.50 27.34 19.34 27.91 30.80 31.65 35.00 34.90 30.83 35.27 39.77 38.95 38.50 38.12 38.41 38.67 38.58 39.91 40.58 40.21 40.01 39.52 40.74 41.25 41.88 42.60 42.66 42.34 41.84 41.79 41.62 41.48 40.79 39.93 38.97 38.07 37.42 36.59 35.81 35.45
22.44 20.23 24.13 17.54 24.07 11.84 26.84 33.96 33.93 32.15 33.59 36.43 36.53 37.02 39.79 40.17 41.56 42.68 40.62 39.46 39.77 39.62 39.62 39.04 38.54 38.87 39.54 39.79 41.41 41.76 42.67 42.10 41.44 41.05 40.96 40.82 40.19 39.01 37.65 36.89 36.09 34.93 34.15 34.39
24.45 22.17 16.46 18.66 19.51 21.97 28.19 30.85 28.82 32.30 31.88 34.33 32.46 34.99 37.45 39.18 37.60 37.13 38.97 38.81 38.01 37.39 38.92 39.47 39.47 39.71 39.70 39.78 39.64 40.83 40.63 40.72 40.84 40.96 41.02 40.70 39.97 38.09 36.87 35.91 34.92 32.73 33.10 32.30
28.23 26.48 19.99 17.54 17.25 15.42 24.72 33.67 34.67 32.23 26.72 35.03 34.99 34.83 36.38 35.63 32.00 36.79 38.56 39.33 39.64 39.57 39.41 39.18 39.18 39.40 39.30 39.59 39.49 39.75 39.60 39.44 40.08 40.66 40.68 40.06 39.59 38.49 37.15 35.79 33.88 35.33 34.93 33.36
21.38 21.89 18.39 16.22 14.92 20.53 30.01 35.36 34.83 25.17 24.74 34.98 36.47 36.37 36.11 35.06 36.11 38.89 40.30 40.01 39.99 38.70 38.56 39.27 38.31 38.58 39.77 40.35 40.03 39.20 38.79 39.57 41.33 40.50 39.92 39.39 38.90 38.06 36.59 34.53 35.40 35.12 34.76 34.70
21.55 20.83 22.26 21.21 18.77 14.83 33.25 32.47 27.93 31.41 34.17 34.95 35.61 37.10 37.17 38.28 39.15 38.75 38.46 38.39 38.55 38.46 38.78 38.91 37.46 37.65 38.22 39.19 40.36 39.71 38.63 39.40 40.23 40.17 39.92 39.26 38.31 37.99 36.09 35.98 35.17 34.56 34.27 32.76
21.56 24.59 22.45 23.53 23.17 30.70 36.17 31.79 33.69 34.96 34.63 34.85 35.40 36.74 37.89 37.96 37.93 39.16 38.90 37.40 37.57 37.17 37.88 37.91 36.66 36.71 37.02 37.23 39.38 38.77 38.56 39.17 39.17 38.94 38.32 37.43 36.84 35.94 35.87 35.56 33.85 32.76 32.26 32.21
21.56 26.77 26.71 27.22 27.77 28.48 30.95 34.29 35.08 32.70 33.41 36.27 37.76 37.07 37.99 36.85 37.81 38.48 38.50 37.85 37.78 37.16 37.32 37.13 36.53 36.11 35.88 36.01 36.78 37.19 37.77 38.76 39.00 38.58 38.09 36.39 35.65 34.35 34.55 33.98 34.19 33.29 32.08 31.77
23.26 24.69 23.80 23.37 25.08 28.11 30.28 28.90 29.73 32.07 32.97 33.82 36.46 37.08 38.33 37.90 37.99 38.32 38.24 37.86 37.57 37.41 37.43 37.14 36.16 35.58 35.15 35.71 35.78 36.60 37.87 38.50 38.17 38.43 37.42 36.76 36.47 35.39 34.94 34.13 33.85 33.08 34.07 36.34
23.49 23.60 22.31 21.38 25.27 25.40 26.65 28.80 32.35 32.15 32.35 32.67 34.14 35.82 38.41 39.28 38.14 38.30 38.73 38.01 37.68 36.93 36.58 36.97 35.75 35.64 35.38 35.18 35.33 35.84 37.85 39.40 38.50 37.12 36.75 36.69 36.72 35.35 34.99 34.43 34.79 38.49 38.34 39.00

GFSCGP_sfc_wetblb_105.txt.gz
Wetbulb
40.89 38.58 35.59 37.33 37.66 37.49 38.08 36.56 34.58 37.18 40.25 40.04 38.76 39.84 42.35 45.21 45.94 46.12 46.61 47.18 48.61 51.50 55.85 60.47 62.61 63.39 62.62 63.06 63.06 62.97 64.04 66.80 66.45 65.20 64.56 64.54 64.98 65.28 65.12 65.97 66.48 66.17 66.33 65.88
35.43 34.54 39.37 40.44 39.15 37.58 38.04 36.50 35.95 39.42 41.94 40.27 38.54 38.10 42.44 44.81 44.82 46.16 46.20 47.07 48.07 48.19 50.68 54.67 59.90 62.82 63.00 64.02 64.64 65.86 65.17 66.50 66.51 66.05 65.79 65.89 65.12 65.69 65.97 66.78 66.28 66.68 66.17 65.93
32.10 35.55 40.45 39.36 37.08 35.54 35.45 35.09 35.52 36.31 40.63 42.27 38.76 36.80 39.77 43.47 45.14 46.08 46.99 47.82 48.26 49.08 49.05 50.02 53.66 59.12 62.34 62.79 63.94 64.81 65.32 65.60 64.49 65.53 64.62 64.05 65.18 64.84 64.84 65.46 64.78 64.38 65.51 65.77
34.61 38.62 37.66 36.89 35.98 36.29 33.11 38.17 38.03 39.15 37.20 31.62 39.48 29.51 36.67 40.36 42.18 44.27 46.79 47.21 47.97 48.34 48.67 49.24 51.21 52.84 56.90 61.51 63.78 64.12 64.61 65.05 65.39 65.56 64.73 61.70 61.99 62.13 64.25 64.38 65.33 65.55 64.96 65.08
32.15 35.23 34.84 35.00 35.80 37.70 34.99 39.76 39.03 38.98 35.01 34.90 35.51 31.68 35.05 38.57 38.84 41.82 44.69 47.39 48.21 48.39 49.01 49.54 49.76 51.25 53.70 55.54 61.09 63.52 63.70 64.71 64.85 65.73 64.80 64.21 62.77 63.93 64.51 64.24 64.18 63.67 64.76 65.03
33.87 38.35 37.85 36.57 38.88 38.99 40.01 37.39 36.74 36.40 34.94 28.70 32.27 32.07 31.87 35.63 38.66 41.82 44.64 46.93 46.82 48.10 48.34 49.11 50.33 50.56 51.05 52.99 54.35 59.82 62.61 63.05 64.08 64.11 64.28 63.72 63.34 63.02 62.15 62.65 62.07 62.77 62.58 62.45
28.89 31.63 36.29 39.24 35.99 38.05 37.87 33.39 26.59 27.11 27.54 24.72 30.05 31.42 33.52 38.24 40.27 41.32 42.77 44.86 46.08 47.70 48.43 48.27 48.82 49.00 50.10 50.68 51.55 56.52 60.55 61.76 62.66 62.74 63.08 63.48 63.27 62.36 62.03 61.06 61.63 60.73 59.97 59.05
23.27 18.94 31.61 37.88 36.19 34.41 34.45 32.97 25.16 19.60 21.98 24.27 31.60 28.95 33.98 39.96 42.24 42.25 42.80 42.81 42.61 44.19 45.30 46.09 47.50 48.81 49.65 50.53 50.56 52.91 57.84 59.66 61.37 62.02 62.72 63.71 63.68 63.30 62.65 61.29 60.57 60.62 59.71 59.01
25.41 24.95 33.93 36.12 38.66 38.35 33.92 31.90 34.90 25.84 24.65 22.88 27.32 30.68 35.15 37.67 37.88 39.11 39.75 40.57 41.43 42.76 43.92 43.60 43.92 46.60 48.71 49.84 50.28 50.00 52.51 56.10 58.94 60.43 61.08 61.05 61.35 61.23 61.03 60.14 59.30 59.39 58.58 56.97
30.09 23.38 32.07 36.27 38.98 38.89 36.79 37.80 31.39 32.18 21.97 19.88 23.61 24.54 29.11 33.44 35.63 37.76 39.64 40.67 40.72 41.98 43.83 44.90 44.30 44.43 46.23 47.96 48.94 49.22 51.04 53.76 56.38 58.00 59.44 58.52 57.42 57.44 57.47 57.32 57.12 56.62 55.19 53.98
33.55 31.28 27.34 32.58 31.78 31.09 35.12 33.74 33.57 32.95 30.11 23.07 20.26 25.18 32.02 33.78 35.20 35.84 37.28 40.05 41.23 41.43 42.07 43.87 44.43 44.44 45.61 47.03 48.22 49.18 50.39 51.82 52.55 53.30 53.49 53.25 53.06 53.19 53.34 54.03 53.79 53.12 52.37 51.69
33.60 31.74 25.05 26.90 35.43 38.43 36.83 34.31 33.47 28.87 26.00 23.91 23.25 26.14 34.46 34.66 36.07 37.35 37.46 40.09 41.48 41.70 41.66 42.37 44.28 44.88 45.49 46.25 47.40 48.84 49.75 50.71 50.92 50.39 50.01 50.00 50.02 50.00 50.18 50.12 49.89 50.03 48.23 47.35
34.25 25.48 14.01 19.30 27.88 34.31 31.63 32.32 32.02 32.15 30.49 21.23 23.75 26.63 35.22 36.32 37.07 37.62 38.89 40.11 40.80 41.75 41.71 42.11 42.70 43.21 45.20 45.76 46.18 46.92 47.69 48.41 48.37 48.27 48.11 47.52 47.53 47.56 46.99 46.58 46.60 46.40 45.44 45.07
35.33 25.40 19.83 15.88 18.01 28.91 26.32 29.82 32.89 29.70 29.10 26.45 25.12 28.28 32.52 34.43 36.99 38.30 39.06 40.40 41.15 41.72 42.23 42.44 42.54 42.55 43.32 44.62 46.04 46.34 46.78 47.51 46.82 46.67 46.31 45.77 45.57 45.46 44.83 44.35 44.24 44.10 44.16 43.70
28.71 15.99 23.53 26.28 26.89 28.22 28.11 28.46 30.34 25.34 29.26 29.03 28.34 29.04 33.40 35.55 36.34 38.24 39.86 39.66 39.86 40.62 41.27 41.46 42.36 42.90 42.71 43.49 44.31 45.31 45.93 46.37 46.18 45.78 45.38 44.88 44.43 43.99 43.47 43.21 43.18 42.91 43.00 42.80
27.38 15.14 18.05 14.69 25.66 25.85 25.25 27.83 28.96 30.30 31.15 30.58 31.54 31.61 37.31 39.40 38.30 37.39 38.13 39.75 39.78 40.56 41.64 42.00 41.49 41.74 42.83 43.44 43.80 44.59 45.14 45.38 45.45 44.95 44.79 44.15 43.64 43.29 43.17 42.85 42.46 41.98 41.05 40.93
23.94 20.86 15.57 14.80 23.36 24.73 18.70 28.49 29.54 31.12 33.14 33.32 28.32 35.46 39.80 38.64 38.87 39.43 39.89 39.29 39.70 40.88 41.61 42.02 41.74 41.21 41.45 42.76 43.79 44.26 45.11 44.86 44.56 44.61 44.22 43.61 43.22 42.59 42.29 41.67 40.72 39.83 39.55 39.54
22.10 19.89 24.01 18.81 18.57 10.37 28.70 32.97 34.41 32.61 33.44 34.15 35.31 36.18 36.99 38.05 40.53 41.56 41.56 40.75 41.01 41.18 41.25 41.11 40.36 41.34 42.30 42.23 42.94 43.65 44.26 44.32 44.07 43.74 43.39 43.19 42.67 41.91 40.95 40.31 39.57 38.40 38.55 38.41
23.68 22.45 17.52 17.98 18.88 21.00 27.92 31.33 30.01 30.10 32.28 35.36 33.94 35.48 37.06 37.96 37.58 38.62 40.91 40.37 40.33 40.04 40.51 41.07 41.35 41.45 41.58 41.61 41.85 42.02 42.74 43.41 43.10 43.09 43.15 42.99 42.52 41.01 39.83 39.01 37.86 36.65 34.65 34.24
27.98 25.94 18.16 16.87 14.78 16.07 25.93 32.47 34.69 32.82 27.27 35.53 35.75 35.40 35.84 36.55 33.62 36.78 39.32 40.52 40.82 40.72 40.59 40.27 40.86 41.29 41.14 41.47 41.54 40.64 41.00 41.50 42.25 43.46 43.02 42.68 42.22 41.07 39.72 38.70 36.92 36.77 36.62 34.84
22.03 21.86 16.83 17.39 15.71 20.16 27.24 33.55 34.59 26.06 26.06 35.13 36.16 36.31 36.44 35.43 37.35 39.55 40.53 40.76 40.76 40.41 40.06 40.88 40.00 39.45 39.73 40.21 40.47 40.46 40.49 40.44 42.57 42.58 42.53 41.95 41.57 40.43 39.35 36.57 37.10 36.39 36.49 36.37
19.68 16.97 17.74 21.22 18.52 14.47 32.69 31.94 28.25 31.33 34.71 35.38 35.92 36.97 36.93 37.71 38.47 39.14 39.66 39.79 39.58 39.24 39.72 39.71 39.08 38.59 38.77 38.89 39.65 40.27 39.94 40.88 41.89 41.86 41.37 40.59 40.00 39.05 37.52 37.22 36.71 36.73 36.57 36.11
20.62 23.69 21.84 23.05 22.89 29.09 34.52 32.94 34.24 35.16 34.95 35.11 35.34 37.03 37.55 37.83 38.03 38.67 38.83 39.14 38.74 38.35 38.53 38.64 37.91 37.84 37.90 37.67 38.47 39.61 40.24 40.37 40.41 40.60 40.37 39.82 38.89 37.99 37.67 36.63 35.70 35.47 35.91 35.52
22.20 26.83 26.67 27.11 27.40 29.81 30.58 34.57 35.79 31.86 31.67 32.97 34.92 35.70 36.58 36.66 38.20 38.25 39.09 38.43 37.92 37.89 37.74 37.76 37.37 36.98 36.70 36.81 37.18 37.97 39.22 40.13 40.26 39.81 39.09 38.44 37.88 36.83 37.41 36.92 36.20 35.84 35.37 35.38
23.25 25.92 24.68 24.15 25.86 26.85 30.59 30.38 30.18 31.52 32.86 32.82 33.40 33.83 36.01 36.82 37.51 38.68 38.42 38.94 38.08 38.15 37.93 37.54 36.91 36.28 36.02 36.48 36.70 37.33 38.98 39.74 38.93 38.72 38.47 38.01 38.35 36.54 35.79 36.36 36.04 36.27 36.94 37.10
23.15 23.81 23.10 22.48 25.59 25.79 27.00 28.67 32.14 31.59 31.60 32.15 31.77 32.23 34.72 36.47 37.54 39.70 39.54 38.78 38.45 38.36 37.76 36.99 36.62 36.48 36.19 36.13 36.40 38.07 39.18 39.85 39.29 37.97 37.72 37.68 37.25 36.50 36.35 35.79 35.36 38.29 38.54 39.59

GFSCGP_sfc_wetblb_108.txt.gz
Wetbulb
42.61 42.20 36.90 38.73 42.01 41.61 40.76 38.97 38.36 39.23 41.72 39.86 38.63 38.72 43.05 47.80 50.49 50.39 50.56 52.10 54.20 57.37 59.49 61.11 62.07 62.31 63.17 63.96 63.53 63.99 66.35 68.30 67.67 67.54 66.68 66.38 65.61 66.06 66.02 66.83 67.33 68.02 68.49 69.35
40.96 38.82 41.83 42.21 42.42 40.78 40.97 39.18 38.38 40.59 41.68 40.70 39.70 38.39 43.61 46.26 49.70 50.86 49.18 49.88 52.71 54.33 57.23 60.64 61.46 61.58 62.13 62.24 63.10 63.17 65.10 67.09 67.48 67.48 66.87 67.17 67.30 67.89 67.76 67.72 67.79 68.39 68.22 68.58
38.29 39.86 42.50 41.41 40.46 39.53 40.14 38.95 38.68 38.05 40.94 41.23 40.90 39.56 41.02 45.59 49.06 50.38 50.19 50.90 50.82 52.86 56.27 59.27 61.31 61.45 61.44 62.02 63.23 64.03 64.72 66.65 67.13 67.47 66.28 64.67 64.54 65.60 66.19 67.41 67.98 68.15 67.89 68.25
38.96 41.64 39.84 39.91 39.06 40.31 36.29 41.22 41.03 39.86 38.52 33.49 40.91 35.48 39.73 42.48 46.89 49.27 51.72 51.05 51.04 51.18 52.14 55.87 58.50 61.24 60.44 61.95 64.33 64.07 63.88 65.84 66.16 65.58 64.28 62.18 60.99 60.58 64.84 65.89 67.59 66.64 66.90 66.43
36.89 38.49 37.90 37.27 38.70 41.20 38.29 42.25 40.69 41.10 37.64 36.37 36.35 34.60 41.32 43.58 41.14 46.46 50.88 51.87 52.70 52.72 52.49 52.29 53.63 57.06 62.02 63.19 62.63 64.45 63.48 64.16 64.17 64.67 63.80 63.27 61.64 61.72 62.90 63.95 63.64 63.41 64.21 65.58
38.54 41.11 40.77 40.03 41.59 41.65 42.86 41.34 41.02 40.84 37.92 30.87 35.61 34.84 37.37 41.14 44.86 46.51 49.49 51.14 53.23 53.78 53.14 53.52 54.21 54.57 55.91 59.74 62.95 64.45 64.23 63.47 63.89 63.59 64.48 64.45 62.49 61.51 61.43 62.41 62.14 62.68 63.27 64.46
34.24 35.31 39.58 41.53 38.83 41.86 41.25 38.30 31.15 28.36 29.41 28.81 34.41 34.09 38.17 42.55 44.88 45.58 46.60 49.54 51.16 52.89 53.38 53.20 53.19 52.81 53.58 55.31 57.35 61.51 64.30 63.76 64.38 64.38 64.33 64.36 64.15 62.78 62.11 62.32 62.79 62.88 63.09 62.09
30.00 27.46 35.61 40.45 38.95 36.92 38.15 37.09 31.56 22.86 25.96 29.98 33.98 31.19 38.44 43.92 45.70 47.46 46.94 48.31 48.43 49.13 52.48 52.88 53.17 54.61 54.23 55.28 56.15 58.00 60.49 63.28 64.88 64.45 64.15 65.21 64.63 64.42 63.89 64.03 64.06 63.59 62.70 62.15
30.65 28.53 37.63 38.28 40.89 40.22 36.21 33.69 38.27 31.20 30.83 30.19 34.29 36.27 40.61 42.46 42.93 44.59 44.84 44.90 46.44 47.70 50.42 50.72 50.91 53.20 54.17 54.80 56.01 56.68 58.47 60.65 63.39 64.00 63.15 63.74 64.58 64.54 63.96 63.93 63.99 63.04 62.74 61.85
34.86 28.65 35.66 38.58 40.64 40.67 38.08 39.45 32.05 34.00 25.34 23.45 29.49 30.59 33.72 38.11 39.51 41.72 43.76 44.49 45.50 46.55 48.82 49.56 49.52 49.48 50.96 52.57 55.18 55.62 56.64 58.78 61.30 63.15 63.33 62.63 62.90 63.42 63.50 63.57 62.65 61.38 60.51 59.14
37.58 33.72 32.45 35.90 34.72 33.16 35.43 33.57 34.74 33.30 32.63 27.70 26.59 31.11 37.89 38.12 40.03 41.11 42.20 44.56 45.67 47.34 48.69 49.28 49.13 48.98 49.23 51.15 52.81 53.70 54.70 56.39 59.19 61.45 61.08 60.59 60.60 60.78 60.56 60.92 58.79 57.54 56.43 55.66
37.79 34.80 28.14 30.57 36.22 39.17 37.27 33.69 34.08 29.80 28.07 29.57 29.50 31.72 40.01 40.88 41.73 41.28 42.07 44.14 45.50 46.31 47.22 49.01 49.26 49.55 49.27 50.91 52.19 53.09 54.33 55.50 57.20 58.84 59.59 59.37 58.15 57.55 57.92 57.47 55.76 55.13 54.34 54.00
36.82 31.41 25.23 26.06 32.63 35.28 32.31 33.66 33.73 32.95 33.16 30.25 28.88 31.83 40.87 42.99 42.67 43.07 43.56 44.82 45.47 45.99 46.41 47.61 49.50 50.25 50.36 50.34 51.37 52.53 53.46 54.41 54.73 55.06 55.48 54.72 54.49 55.22 55.61 55.36 53.78 53.35 51.33 49.16
37.54 31.94 27.72 23.59 26.23 30.77 28.42 30.84 32.90 31.85 27.89 28.89 31.33 33.40 37.38 39.87 40.99 42.85 43.58 45.07 45.77 46.28 46.43 47.11 47.57 48.26 50.06 50.94 51.14 51.92 52.21 53.45 52.99 52.91 52.95 52.87 53.04 53.59 53.43 52.90 52.40 50.11 48.28 46.87
34.11 26.18 27.73 29.14 29.43 29.47 28.72 28.61 29.95 28.64 30.51 28.11 31.93 32.35 37.86 40.53 41.46 41.47 43.89 44.09 45.13 45.70 46.51 46.29 47.22 47.70 48.90 49.69 50.82 50.92 51.16 51.40 51.73 51.28 51.14 51.05 51.38 51.29 50.22 50.12 49.92 49.44 49.14 48.33
32.07 26.63 25.01 23.32 29.00 30.02 26.50 29.66 30.79 31.35 31.65 31.87 31.99 32.55 39.79 42.88 44.05 43.56 42.80 42.70 43.51 44.92 46.50 47.05 46.44 46.54 47.16 48.23 49.18 49.72 50.51 50.80 51.09 50.78 50.24 49.28 48.90 48.61 48.21 48.33 47.96 47.66 47.18 46.97
28.57 27.45 25.28 24.04 27.93 27.33 25.54 31.22 32.56 33.36 34.56 33.67 29.89 36.27 40.86 40.26 41.56 43.06 43.95 44.87 45.12 45.61 46.19 46.44 46.21 46.06 46.68 46.97 48.06 49.02 50.05 50.38 50.12 50.27 49.74 48.41 48.14 47.58 47.26 46.85 46.28 45.79 45.70 45.91
28.03 26.42 27.15 26.01 26.46 20.86 31.98 36.55 36.96 33.90 33.94 34.89 35.46 36.59 38.00 39.86 41.29 42.42 44.90 45.15 45.50 46.29 46.03 45.87 45.43 45.84 46.27 46.95 47.31 47.58 48.46 49.58 49.50 49.88 49.39 48.75 47.88 47.20 46.79 46.09 45.82 45.74 45.46 45.03
31.17 29.33 26.18 24.60 24.72 27.17 31.26 34.49 33.68 32.44 32.84 35.57 34.52 36.47 38.32 40.91 40.97 41.10 43.53 44.21 44.07 44.74 45.44 45.68 46.01 45.60 45.95 45.94 46.24 46.08 46.92 47.98 48.40 48.68 49.09 48.81 48.20 47.03 46.18 45.58 45.23 44.43 41.20 40.94
31.25 31.34 28.29 25.86 20.28 20.65 32.20 35.67 38.00 37.00 30.50 36.42 36.58 36.62 36.95 40.13 36.65 39.12 42.13 43.18 43.69 44.72 45.03 44.92 45.62 45.59 46.03 45.95 45.91 45.71 46.07 46.22 46.83 48.18 48.38 48.41 48.02 47.07 45.83 45.47 43.69 42.86 40.20 38.09
25.54 26.41 24.66 25.12 24.11 27.59 33.47 36.14 37.84 28.70 30.95 37.72 37.83 37.19 37.43 36.38 37.64 40.11 42.09 42.55 42.60 42.60 43.24 44.59 44.88 44.59 44.62 44.77 44.78 45.11 45.93 45.70 46.78 47.15 47.74 47.40 47.13 46.43 45.44 41.37 41.47 39.36 38.66 38.93
26.54 24.97 25.10 24.88 22.98 22.67 35.61 36.24 32.22 36.03 38.25 38.25 38.67 38.53 38.03 38.60 39.71 41.55 42.03 42.57 42.34 41.77 41.70 42.33 42.60 42.97 43.30 43.20 42.93 44.42 44.83 46.39 46.08 46.11 46.56 46.48 46.29 44.25 43.14 42.52 40.04 40.01 39.72 39.54
26.70 30.63 30.47 30.13 31.33 34.88 39.13 37.92 38.94 39.22 38.27 37.21 36.56 37.58 38.11 38.30 38.74 39.64 41.44 42.41 42.32 41.77 41.81 42.37 41.36 41.13 41.47 41.68 41.98 42.26 44.26 44.31 44.66 45.22 45.51 45.64 45.54 44.24 43.64 41.04 38.67 38.40 39.39 39.15
30.92 32.91 31.69 31.33 34.68 34.78 36.87 38.76 39.81 37.32 35.69 36.03 36.89 36.85 37.26 37.39 39.08 39.23 40.38 42.19 42.77 41.54 41.08 41.39 41.74 41.73 41.32 40.87 40.66 41.55 43.10 44.00 44.24 44.82 44.86 44.79 43.99 42.92 42.44 40.75 38.91 39.35 38.58 40.41
32.69 32.52 32.63 32.51 34.22 33.53 35.33 37.00 37.14 35.10 36.10 36.06 36.91 36.70 36.32 36.91 38.40 39.38 40.10 41.20 42.53 41.24 40.83 40.77 40.43 39.79 39.76 40.93 40.87 41.62 42.36 43.72 43.72 43.72 43.05 42.72 42.22 40.48 39.46 39.91 39.33 38.98 40.01 41.55
31.37 32.86 31.62 32.47 34.71 34.35 34.74 35.47 35.35 34.53 34.63 35.54 35.27 35.76 37.50 37.30 37.14 39.00 40.66 41.17 40.52 39.95 39.40 39.41 38.70 38.47 39.42 40.12 39.94 39.55 40.31 42.27 43.10 41.22 40.21 39.61 39.07 38.11 37.74 37.11 36.51 38.86 38.89 39.71

GFSCGP_sfc_wetblb_111.txt.gz
Wetbulb
44.39 40.45 38.45 40.12 42.28 42.71 41.02 40.75 39.22 41.09 43.41 40.97 42.29 42.25 43.34 46.57 51.50 52.42 55.13 56.83 57.75 57.93 59.87 60.72 61.51 62.28 62.32 63.08 64.30 66.51 66.55 66.66 66.64 66.79 65.79 65.16 64.10 65.13 66.38 68.24 69.37 68.86 68.60 68.18
41.69 37.70 43.58 43.29 43.94 42.48 42.14 40.52 39.80 42.45 43.17 41.38 42.82 42.03 46.01 46.90 50.68 52.94 53.99 56.03 57.31 57.12 58.36 59.75 60.93 61.62 62.27 61.95 62.49 62.66 64.68 65.89 66.54 67.07 67.16 67.19 66.51 67.16 66.82 66.95 67.38 67.89 68.15 68.67
39.01 40.90 44.29 42.34 41.37 39.76 41.21 40.05 39.94 39.73 42.23 43.36 41.51 40.97 43.44 46.80 51.20 52.54 53.71 55.56 57.07 56.94 57.11 58.24 59.75 61.04 61.41 61.26 62.12 62.22 62.51 64.78 66.10 66.75 66.66 66.56 66.84 67.07 66.73 67.40 67.44 68.04 68.08 68.81
40.39 43.97 41.25 40.95 39.63 41.47 36.70 42.76 42.13 40.71 39.40 35.65 42.11 34.26 42.29 44.19 48.03 50.40 51.70 52.40 53.76 55.87 57.86 57.99 59.60 60.37 59.99 59.39 60.46 62.18 62.08 62.99 66.50 66.65 65.00 63.88 63.18 62.90 65.48 66.44 67.39 67.41 67.69 67.74
38.53 39.68 39.49 38.16 39.62 42.08 38.56 43.62 41.95 41.49 39.52 38.38 38.46 35.53 41.22 46.02 44.98 48.45 51.46 52.18 52.35 54.07 56.34 57.82 59.70 60.92 60.54 59.60 60.08 62.24 62.26 62.81 63.67 64.64 64.20 64.27 62.92 64.09 65.55 64.95 64.34 64.20 63.92 66.43
39.73 43.38 41.34 41.29 42.41 42.83 44.02 41.83 41.41 41.54 38.11 31.72 36.78 35.91 38.64 42.16 45.15 48.15 51.91 53.01 52.83 52.51 52.86 54.76 59.00 61.41 60.24 61.90 62.92 62.28 61.69 62.21 63.20 63.32 63.78 63.48 62.92 62.25 62.47 62.12 62.06 62.31 62.85 63.22
36.80 36.96 40.58 42.48 39.49 42.78 41.65 38.00 30.91 28.44 30.31 29.66 36.84 35.01 38.42 43.59 46.13 48.84 50.09 52.44 53.87 53.71 53.13 53.22 53.32 54.42 57.76 59.72 61.74 61.48 62.28 61.46 62.23 62.18 61.64 62.70 63.20 62.23 61.63 60.79 60.35 60.88 61.38 61.91
30.75 29.40 37.07 40.81 39.40 37.11 37.97 37.10 30.90 24.05 26.61 31.05 36.41 31.95 37.42 44.88 47.05 48.39 48.69 50.15 51.62 52.84 54.16 53.38 53.86 53.74 54.84 57.21 59.36 61.44 62.31 61.73 62.28 61.63 61.84 62.98 63.11 62.85 61.20 61.30 61.16 60.95 61.77 62.25
31.03 30.79 39.11 40.05 41.81 40.63 35.99 34.15 39.58 32.63 34.11 30.45 34.51 37.31 41.50 44.02 44.58 46.03 46.76 47.17 47.98 49.07 50.81 54.33 54.83 54.87 54.84 55.58 57.07 58.94 61.37 62.36 62.62 62.36 62.59 63.08 63.07 62.10 61.89 61.90 62.48 62.51 63.45 63.34
36.65 29.19 36.87 38.90 41.39 41.23 38.05 39.45 31.75 33.99 24.75 23.73 31.09 31.84 33.04 38.43 40.67 43.66 44.76 45.94 47.30 48.13 50.07 52.65 51.48 52.33 54.48 55.99 56.87 58.02 59.23 60.76 63.67 64.44 64.02 64.04 63.80 64.07 63.95 64.03 63.66 63.29 62.90 61.69
38.69 34.27 33.52 37.20 34.75 33.41 35.17 32.75 33.88 32.42 31.98 26.96 26.07 28.52 39.41 39.79 41.56 42.04 43.79 45.73 46.98 48.87 50.05 50.87 50.88 50.88 50.54 52.22 55.05 56.27 57.45 59.15 60.69 63.68 63.69 62.83 63.72 63.75 63.85 62.82 62.31 61.42 59.84 59.14
39.09 35.11 29.13 31.44 37.17 39.62 37.72 33.42 33.34 29.24 28.07 32.00 30.12 29.30 43.05 43.00 42.73 43.54 44.36 45.69 47.00 47.87 48.73 50.42 50.88 50.37 50.83 51.07 51.96 53.92 55.21 56.84 59.60 61.84 62.16 61.72 61.70 61.21 60.64 60.41 58.70 58.08 57.12 56.44
37.80 32.16 26.21 28.62 33.34 36.25 32.69 34.45 35.05 33.61 32.68 30.64 27.66 29.89 43.19 43.78 43.70 44.53 44.76 45.99 46.55 47.19 48.06 49.44 50.85 50.79 50.76 51.60 52.50 53.40 54.45 55.83 58.33 59.88 60.45 60.34 59.40 59.42 59.16 58.03 56.73 56.27 55.27 53.44
38.41 33.31 28.61 24.06 26.94 31.25 28.44 31.32 32.91 31.66 28.93 28.24 31.80 32.72 39.20 40.90 41.51 43.47 44.86 46.09 46.58 46.90 47.48 48.15 48.90 50.18 51.19 51.70 52.31 53.22 54.32 55.08 55.54 56.53 56.29 56.35 56.39 57.08 56.94 56.14 55.28 53.66 52.24 49.31
35.54 27.95 29.38 30.24 31.08 30.76 29.47 29.49 30.99 29.20 30.66 28.13 31.56 31.76 37.83 40.43 42.08 43.69 45.15 46.12 46.21 46.68 47.33 47.29 47.65 48.88 49.99 51.05 51.53 52.53 52.90 53.46 53.67 53.38 53.71 53.64 54.33 54.58 54.18 53.79 52.33 50.73 49.76 48.51
34.85 29.06 27.44 25.55 30.94 30.57 27.49 30.58 31.30 31.97 32.70 32.47 33.66 33.56 41.40 42.89 44.52 44.26 44.68 44.48 45.10 46.16 47.21 47.81 47.82 47.99 48.48 49.39 49.88 51.30 51.71 51.51 52.58 51.72 51.39 51.41 51.39 50.93 51.17 51.26 51.20 49.59 47.83 47.12
30.70 29.48 27.77 25.56 30.40 29.16 27.19 31.77 33.09 34.40 35.49 34.04 30.44 36.54 40.45 39.88 41.03 42.25 43.41 44.97 45.37 46.33 47.12 47.23 46.75 46.95 47.51 47.70 48.71 49.60 50.71 51.41 51.63 51.36 50.62 49.93 49.71 49.14 49.00 48.99 48.50 47.55 47.10 46.98
30.14 28.87 29.88 28.28 28.43 23.26 32.98 37.84 37.76 34.73 34.95 35.93 36.42 36.70 38.96 40.67 42.75 43.11 44.36 44.11 44.78 45.21 45.59 46.50 46.95 47.27 47.44 48.22 48.57 48.66 49.36 50.31 50.66 50.79 50.19 49.72 49.19 48.43 47.98 47.28 46.80 46.60 46.55 46.33
33.73 31.38 28.92 26.96 27.40 29.86 32.60 34.94 35.00 33.63 33.44 36.83 35.92 37.95 40.07 42.23 42.64 41.43 43.41 44.24 44.44 44.99 45.65 46.20 47.22 47.02 47.52 47.58 47.68 47.73 48.13 48.59 49.37 49.75 50.30 49.84 49.00 47.84 47.09 46.13 46.05 46.12 42.49 42.42
32.42 32.98 30.09 28.20 23.17 22.37 33.97 37.76 39.60 38.63 30.38 38.10 37.23 37.03 37.81 40.93 36.82 37.85 42.01 44.14 44.28 45.58 45.78 45.61 46.37 47.22 47.50 47.33 47.35 46.70 47.00 47.26 47.49 48.61 49.90 50.44 49.60 48.44 46.76 46.55 45.60 45.13 41.81 39.93
27.80 28.56 26.84 28.21 26.50 30.07 37.55 38.23 39.82 28.62 31.73 39.45 39.47 38.27 38.65 37.44 38.76 41.04 43.36 43.46 44.43 43.48 44.66 45.14 45.50 45.78 46.06 45.98 45.94 45.82 46.88 46.66 48.30 48.75 49.54 49.94 49.69 48.40 47.60 44.78 44.95 42.95 40.35 41.10
29.05 27.10 27.35 28.52 25.41 24.22 39.07 37.50 33.35 37.81 40.12 40.38 39.74 38.86 38.46 39.93 40.60 40.77 42.15 43.37 44.03 42.79 42.48 43.24 43.14 44.09 44.89 44.87 44.55 44.76 45.47 47.35 47.36 47.54 47.16 48.21 48.71 47.34 46.01 44.61 42.47 41.68 41.23 40.35
28.07 32.96 32.61 32.07 32.97 38.15 40.72 40.26 41.41 40.94 39.86 40.03 38.43 38.74 38.18 38.02 39.04 39.93 40.21 42.46 44.18 43.71 43.20 43.64 43.26 42.77 43.47 43.36 43.03 42.66 44.28 45.32 45.81 46.10 46.39 47.12 47.47 46.17 45.06 43.44 41.41 40.96 41.07 41.21
33.89 36.70 32.28 32.91 37.28 37.14 39.57 41.24 41.25 41.36 39.11 38.29 38.29 38.03 38.11 37.09 38.40 38.94 40.17 41.18 43.12 44.46 42.74 42.77 42.93 42.84 42.83 42.81 42.68 42.74 43.04 44.76 45.12 45.39 45.94 46.67 46.12 44.93 44.78 43.23 41.17 41.25 41.10 41.29
35.63 34.83 33.71 34.15 37.31 36.81 38.04 39.39 40.60 38.39 37.80 37.63 38.29 38.07 37.61 37.52 37.43 38.65 39.40 40.58 42.33 43.43 42.44 42.44 41.56 40.81 40.72 42.03 42.02 42.01 42.34 43.95 44.38 45.10 45.14 44.98 45.10 44.08 43.29 42.24 40.56 41.24 41.97 42.79
35.23 34.77 32.88 33.74 38.97 37.76 37.65 39.62 38.17 36.86 36.69 37.12 36.37 36.50 38.00 38.41 38.10 38.68 38.86 41.22 42.08 40.81 40.97 40.50 40.19 40.23 40.39 41.02 41.07 40.69 41.42 42.23 43.36 42.78 43.11 42.82 41.27 39.81 39.42 38.84 37.66 39.70 40.32 41.18

GFSCGP_sfc_wetblb_114.txt.gz
Wetbulb
44.68 40.03 36.91 39.16 40.74 40.65 39.74 37.55 36.60 39.98 42.75 40.82 39.38 39.41 41.98 46.58 47.03 47.79 49.52 51.89 54.92 56.31 57.79 57.69 58.47 58.79 59.39 60.27 60.25 60.29 61.22 64.31 62.66 63.07 63.52 64.46 64.12 65.10 65.57 66.08 66.47 65.36 65.26 64.58
40.70 35.75 42.15 43.53 42.53 40.54 39.64 37.88 38.00 40.68 42.64 39.32 39.26 38.82 42.56 45.94 46.13 49.18 50.10 51.40 54.80 55.86 56.86 57.92 58.64 59.58 60.12 61.26 61.00 63.18 63.38 63.89 63.68 63.44 62.80 62.29 62.48 64.37 66.23 66.86 67.11 67.03 66.30 66.02
36.62 39.59 44.32 41.84 40.03 38.30 38.61 37.17 38.07 38.01 41.49 41.08 38.95 37.02 38.84 45.59 46.80 49.91 50.98 52.65 54.32 55.70 56.68 57.81 58.31 59.19 60.46 60.54 60.30 61.76 62.24 63.79 64.63 65.08 65.16 64.67 64.70 64.16 63.56 63.40 63.42 64.68 65.86 65.84
38.67 42.67 40.52 39.07 38.10 39.43 34.08 41.32 40.30 39.33 37.36 32.58 39.48 27.26 39.65 43.25 43.42 47.42 47.78 51.28 54.20 55.86 57.06 57.73 58.03 58.89 59.63 59.66 60.39 61.61 61.31 62.25 63.65 65.44 64.36 63.51 63.01 62.49 63.70 64.54 64.81 65.01 65.86 65.89
35.57 38.33 37.24 36.48 38.39 40.34 36.51 41.51 39.40 38.79 36.79 35.06 35.82 29.09 38.10 43.34 42.20 44.67 47.16 49.20 52.12 55.55 56.64 55.87 56.87 59.29 59.30 59.76 59.42 59.92 60.83 61.40 62.37 62.55 62.71 61.76 61.31 61.52 64.16 63.97 62.94 62.17 62.58 64.77
37.61 41.58 39.34 38.82 40.48 40.82 41.69 38.72 38.38 37.71 36.29 24.96 33.47 31.35 33.52 39.01 42.89 46.01 47.93 49.18 50.92 53.21 55.33 56.21 56.76 60.04 58.66 58.53 58.21 59.81 59.88 60.06 61.71 61.71 62.40 61.58 60.71 60.95 61.07 61.30 61.31 61.23 60.88 61.82
35.25 35.82 39.04 41.61 36.85 40.15 39.07 33.68 24.16 21.59 20.22 21.64 33.37 30.93 33.16 40.15 44.05 46.35 46.67 48.52 50.01 51.96 51.99 53.27 56.70 59.09 58.32 57.14 58.22 60.10 59.89 59.38 61.55 61.21 61.57 61.45 61.01 60.96 60.33 60.20 59.97 59.78 59.92 60.09
25.31 22.40 34.77 38.99 36.65 34.63 34.58 33.71 28.32 23.38 24.81 27.69 33.64 29.24 31.74 40.51 43.52 46.95 47.67 47.40 50.22 50.01 50.33 51.83 52.50 54.71 57.95 58.54 59.48 60.36 60.03 58.98 59.85 60.98 61.17 61.02 61.79 61.03 60.64 60.24 59.93 59.89 59.17 59.72
28.02 27.02 37.86 39.30 38.97 38.37 33.14 29.18 36.42 31.16 30.70 25.16 29.73 31.54 36.67 40.56 40.84 42.43 44.17 46.11 45.25 45.96 48.86 50.69 51.59 52.16 53.89 56.00 58.95 60.40 59.73 59.56 60.45 61.07 61.23 61.10 61.01 61.62 60.72 60.08 60.14 60.28 60.11 60.40
34.30 25.51 35.92 37.62 39.58 40.05 36.38 38.11 29.34 30.43 17.47 19.51 25.44 25.96 29.21 34.48 36.81 40.63 41.15 41.27 44.01 47.32 48.07 47.98 48.72 49.72 51.27 52.62 55.10 58.29 60.44 60.68 61.01 61.31 61.19 61.06 61.26 61.95 61.61 61.06 59.71 60.19 60.36 60.64
36.24 32.45 30.14 35.39 31.87 30.17 33.22 29.84 31.88 31.23 29.10 25.41 24.27 27.22 35.91 35.49 36.98 38.70 40.15 41.94 43.36 45.19 46.97 47.28 47.31 47.23 47.10 48.66 53.07 55.05 57.44 58.11 58.68 60.83 61.28 61.12 60.88 61.47 61.37 61.19 60.11 60.38 61.30 60.62
36.17 31.46 22.84 28.67 36.25 38.05 35.15 32.50 30.36 24.39 22.31 27.66 29.19 28.25 39.57 38.03 39.50 41.10 40.95 42.39 42.86 44.31 46.17 46.89 46.88 46.91 47.29 48.12 49.91 51.45 52.17 54.71 56.74 60.14 60.72 60.38 60.38 60.16 60.18 60.53 60.79 59.98 59.09 58.15
34.85 27.27 16.93 22.73 31.61 33.75 31.48 32.63 32.54 30.09 30.34 22.60 24.88 28.56 40.76 38.86 39.05 40.93 40.85 41.14 42.21 43.74 44.10 45.68 46.87 46.95 47.97 48.46 48.22 49.95 51.74 53.89 57.30 58.64 58.61 59.41 59.20 59.04 58.10 56.79 56.41 56.88 55.49 54.13
37.14 28.13 22.26 16.01 20.86 27.41 24.17 28.99 31.07 28.09 23.16 19.88 28.21 31.04 34.87 37.23 38.56 39.29 40.93 41.68 42.25 43.03 43.48 43.62 44.30 46.63 47.08 48.22 49.13 50.03 51.45 53.30 54.80 55.69 55.88 55.74 56.09 56.75 56.64 55.67 55.31 54.15 51.46 49.96
32.75 18.36 26.16 28.17 29.78 29.91 28.00 27.96 29.52 20.61 26.64 18.96 26.93 27.63 34.68 37.57 38.58 39.58 40.32 42.16 43.89 43.68 43.79 43.18 42.75 43.88 45.95 47.11 48.02 48.94 49.82 50.72 51.70 52.85 53.31 52.96 53.10 53.27 53.10 51.63 51.12 50.27 48.64 47.51
31.87 20.99 21.64 17.97 29.58 29.18 25.59 29.60 29.67 30.32 31.11 30.21 31.39 31.57 38.44 40.36 41.21 38.99 40.90 42.18 42.26 42.98 44.35 43.78 43.40 43.33 43.81 44.03 46.59 48.59 48.25 48.72 49.84 49.47 49.93 51.13 50.40 50.18 50.14 49.45 48.01 47.53 46.64 45.91
27.15 22.71 19.92 18.78 26.49 24.97 18.57 30.10 31.28 33.55 35.03 33.33 29.41 32.76 37.34 37.41 39.20 40.30 39.30 40.87 41.37 41.98 42.62 43.04 43.39 43.02 42.91 43.27 44.51 44.93 47.35 48.63 48.65 48.32 48.07 48.02 47.79 47.41 47.39 47.30 46.58 45.97 45.11 45.33
26.40 23.34 24.88 19.48 21.54 13.18 30.14 36.49 36.28 33.64 34.21 34.40 34.70 35.85 38.14 39.43 40.75 40.75 40.66 40.10 40.17 41.53 42.13 42.72 42.35 42.64 43.41 44.07 44.12 44.25 46.13 47.60 47.94 47.80 47.22 47.25 46.93 46.12 45.60 44.90 44.23 43.74 43.74 44.40
30.52 26.46 21.85 18.45 18.55 24.96 30.10 32.85 33.22 31.46 30.96 35.46 34.22 35.94 37.28 39.56 40.82 38.80 40.64 41.64 40.77 41.44 41.82 42.25 43.43 44.14 43.78 43.40 43.80 44.26 44.53 44.95 46.56 47.21 47.06 46.79 46.38 45.49 44.82 43.76 43.11 42.57 39.92 39.38
30.77 29.44 22.08 22.04 18.05 17.67 30.14 35.44 37.80 36.36 25.96 36.46 36.22 35.69 36.06 37.27 35.01 36.89 40.83 41.94 41.81 41.34 42.95 42.27 42.26 43.19 42.99 43.51 43.93 43.38 43.48 43.74 43.44 44.68 46.57 47.29 46.32 45.13 43.57 43.02 42.56 41.43 41.02 39.01
20.46 21.60 19.43 21.09 19.00 25.09 34.48 36.59 37.62 23.61 27.33 37.20 37.85 36.66 36.23 34.58 37.57 38.64 42.32 41.30 42.16 41.14 42.24 42.45 41.85 41.38 41.79 42.41 42.50 41.95 42.79 42.91 44.66 45.42 45.15 46.91 46.51 45.04 43.63 41.87 40.79 38.76 38.94 39.24
24.37 20.38 19.61 22.08 19.01 16.59 35.88 34.94 30.21 33.89 36.64 38.29 37.59 36.56 36.90 37.30 37.10 37.30 38.35 39.92 42.05 40.97 40.67 41.56 40.06 40.54 42.13 41.42 40.94 40.65 40.84 42.75 43.35 43.78 44.15 44.35 45.21 44.87 43.15 41.15 39.29 38.25 37.92 37.28
22.40 27.50 26.13 26.63 26.74 34.34 37.09 35.94 37.73 38.01 36.74 36.84 35.49 36.65 35.79 35.41 35.31 36.70 36.90 36.64 41.09 42.80 40.19 40.61 39.61 39.99 40.42 40.47 40.13 39.02 39.63 41.33 42.15 42.33 42.55 43.14 44.75 43.19 42.25 39.73 38.15 37.59 37.55 37.63
28.96 31.97 26.93 28.52 31.82 33.32 36.24 37.74 38.11 38.46 35.72 35.97 35.78 34.78 35.01 34.05 35.43 35.08 35.61 36.52 38.60 42.34 39.70 40.62 40.29 38.84 38.58 39.21 39.91 39.25 40.62 41.36 41.72 41.46 41.76 42.66 44.71 43.42 42.58 41.03 39.38 38.52 38.36 38.41
29.23 30.24 28.47 28.58 31.90 32.62 34.53 35.96 37.37 36.13 36.04 35.44 35.42 34.89 34.68 34.56 34.66 35.05 35.02 36.21 37.64 40.19 41.25 40.80 39.22 37.76 37.70 38.40 38.60 38.59 39.27 40.08 40.63 42.14 43.31 43.60 43.69 43.14 42.09 40.98 40.31 38.49 39.44 40.75
30.32 29.11 27.02 26.12 33.48 32.64 32.78 35.61 36.93 35.11 34.77 34.73 33.42 33.16 34.81 35.20 35.38 36.75 35.50 35.96 37.77 38.52 39.19 39.52 39.60 38.77 38.80 38.82 37.35 37.14 37.62 38.81 39.29 39.64 40.64 41.15 40.39 39.27 39.67 39.05 38.08 39.99 41.06 41.61

GFSCGP_sfc_wetblb_117.txt.gz
Wetbulb
41.53 37.92 34.16 37.58 39.84 39.31 38.31 36.32 35.58 39.43 42.51 40.92 39.62 39.06 40.66 42.83 45.53 45.15 46.45 47.99 50.91 55.23 57.76 58.02 58.44 58.73 58.86 59.47 59.19 59.92 61.15 62.46 64.23 62.54 61.89 60.24 60.47 60.93 60.75 60.82 61.06 61.55 62.11 62.40
39.86 33.47 38.71 42.02 41.70 39.48 38.06 36.18 36.21 40.83 42.54 40.24 38.43 37.73 40.87 43.09 44.54 45.28 46.72 47.53 53.37 55.07 56.11 57.22 58.02 58.77 59.17 58.57 59.67 60.08 61.12 63.27 63.74 63.98 63.55 62.42 62.23 62.74 62.95 62.69 62.86 63.01 63.20 63.51
33.25 36.51 42.69 40.42 37.73 36.16 35.83 35.07 35.98 36.33 40.13 40.08 37.93 35.24 37.75 42.27 46.15 47.98 48.23 51.82 54.05 54.31 55.23 56.92 57.73 58.53 59.37 60.05 60.46 61.39 60.59 63.22 63.38 64.29 63.44 62.99 64.37 64.39 63.66 64.13 63.63 64.26 64.13 64.21
35.55 40.82 39.28 36.90 35.82 37.79 31.80 39.48 38.24 36.74 33.72 28.75 38.50 28.12 37.77 41.34 43.86 46.54 47.47 51.54 53.08 54.18 56.21 57.19 57.94 58.85 59.51 59.88 61.16 60.57 62.43 62.72 63.51 63.57 63.06 62.26 61.74 61.07 62.76 63.67 64.75 64.85 65.27 64.95
31.45 35.61 34.94 34.02 36.41 38.12 34.45 39.12 36.73 36.32 33.23 30.98 32.75 31.12 35.12 42.93 41.89 44.60 46.40 50.67 52.59 55.13 56.46 56.56 57.90 58.92 59.35 58.98 58.96 60.08 61.08 62.65 62.31 62.03 62.78 61.96 60.94 61.66 63.13 63.89 63.37 63.75 64.11 64.81
35.21 39.71 37.32 36.69 38.74 38.76 39.72 36.60 35.55 34.43 33.10 21.94 30.93 31.85 32.42 35.24 40.90 44.37 45.55 48.43 52.48 54.83 55.48 55.80 57.68 58.19 58.67 58.80 58.74 59.18 59.17 60.60 61.53 61.85 60.94 60.92 60.80 62.45 61.88 61.37 60.73 60.95 61.60 62.97
31.50 33.75 37.07 39.16 33.86 38.08 37.07 31.29 18.35 19.97 16.97 20.03 31.37 30.12 31.16 37.38 43.77 44.21 44.29 45.34 50.94 53.10 55.19 55.06 56.69 56.89 56.16 56.96 57.89 58.86 58.28 59.01 60.87 61.33 60.80 60.37 60.24 60.80 60.65 61.25 61.48 60.23 59.47 59.75
20.46 19.83 33.26 37.96 34.33 32.12 32.46 32.61 27.03 21.49 23.56 24.26 32.15 24.82 30.81 38.20 41.82 45.65 47.26 46.47 48.67 50.21 52.77 54.05 55.35 57.25 57.21 56.34 57.31 58.73 57.99 58.63 60.00 60.62 60.62 60.77 60.50 60.02 60.09 59.60 59.81 59.49 59.73 59.98
23.75 24.39 36.27 37.40 38.13 37.13 31.27 27.23 35.42 30.45 31.33 26.76 26.56 30.24 33.80 38.72 38.39 41.29 43.76 45.17 45.62 46.98 46.97 50.08 53.15 55.30 57.14 57.65 57.32 59.26 58.64 58.14 59.25 59.63 60.53 60.29 60.43 60.21 59.82 59.91 59.83 59.70 59.28 58.98
31.37 22.13 33.68 36.18 37.18 36.41 34.97 36.11 25.71 25.89 19.09 22.10 25.98 25.48 29.12 33.20 34.88 38.43 40.29 41.99 43.84 46.92 46.59 46.98 47.51 48.96 53.05 55.68 57.61 59.66 59.74 58.96 58.74 59.64 59.85 60.17 60.69 61.15 61.01 60.65 59.67 59.35 59.54 59.55
32.42 28.48 27.13 32.31 30.33 28.97 30.48 28.02 29.56 24.97 27.09 24.73 21.80 27.37 36.75 33.85 35.73 36.20 38.05 40.87 42.45 44.50 45.72 45.91 45.92 47.08 47.12 48.87 53.89 57.50 59.17 59.10 59.32 60.13 60.33 60.17 60.29 60.72 60.91 60.40 60.09 59.71 59.89 59.89
32.64 28.67 18.04 28.32 33.76 35.32 33.07 29.24 27.05 19.30 19.87 28.84 24.37 28.52 38.65 38.02 36.63 38.03 38.17 40.45 41.23 41.71 44.14 46.38 46.24 47.04 47.14 46.95 49.43 52.48 55.80 58.34 59.47 60.05 60.25 59.99 60.47 60.71 60.67 60.97 61.17 60.92 59.40 60.23
32.46 23.18 9.08 19.33 24.15 29.07 28.01 29.77 30.80 27.81 26.67 18.97 24.48 28.61 39.32 36.33 38.76 38.93 38.07 39.68 41.57 41.97 41.80 44.45 46.17 45.90 46.76 48.19 48.66 49.80 51.94 54.75 57.60 58.98 59.57 59.10 58.89 59.32 59.45 59.91 59.91 59.09 57.82 56.89
35.85 24.34 17.46 12.82 18.19 24.85 22.64 26.79 29.35 24.76 13.95 23.60 23.91 25.64 33.06 34.42 36.50 38.21 39.12 40.13 40.23 41.11 41.78 41.82 42.51 44.93 46.45 47.58 48.82 49.75 50.85 53.14 54.33 56.43 56.94 56.33 56.13 57.16 56.85 56.64 55.78 54.97 54.29 54.24
29.73 15.06 23.13 25.24 28.03 28.21 26.50 26.32 27.67 17.72 24.27 17.97 24.99 29.47 32.91 35.18 35.58 38.45 37.89 40.74 40.81 40.89 41.22 41.31 40.92 41.09 42.56 45.08 47.15 47.94 48.63 49.70 52.29 53.06 53.33 53.35 53.76 53.63 53.39 53.20 52.50 50.91 50.31 49.92
29.31 17.56 17.81 16.40 27.66 27.76 25.20 28.25 28.16 28.62 29.29 28.45 29.31 31.87 36.51 38.65 37.31 36.71 37.90 39.19 39.11 39.99 40.87 41.37 41.79 41.28 41.71 41.43 43.88 46.88 47.24 47.77 49.03 49.60 50.16 50.44 51.54 52.24 50.67 49.51 48.43 47.96 46.91 46.18
24.82 18.69 16.77 16.63 25.94 21.42 16.01 28.22 29.40 31.31 32.05 31.18 24.23 31.14 35.39 36.03 38.34 37.25 37.59 38.11 38.63 39.44 40.14 40.73 40.40 40.73 41.17 41.69 42.71 43.23 45.99 47.15 47.25 47.12 47.52 48.08 48.66 48.89 48.89 47.54 46.30 45.07 44.29 44.12
24.10 20.36 21.61 15.43 17.64 8.70 26.49 35.06 34.80 32.24 33.00 33.20 33.47 34.01 37.29 39.00 39.78 38.57 38.76 38.09 38.50 39.95 40.10 40.49 40.37 40.80 41.19 41.88 42.45 42.77 43.62 46.07 46.73 46.16 46.17 46.59 46.80 46.79 46.51 45.91 44.85 43.80 43.31 43.56
28.24 23.96 18.65 15.93 14.35 22.78 28.30 31.79 32.19 30.16 29.05 34.17 32.91 34.90 35.82 37.32 39.40 35.91 39.35 39.66 39.05 38.95 40.51 40.74 40.63 41.01 41.21 41.19 41.72 42.07 42.44 42.49 43.82 45.83 45.97 45.76 45.77 44.97 44.48 43.91 43.17 42.06 39.93 39.69
29.06 27.14 19.87 18.27 16.15 16.50 27.22 33.57 36.37 34.66 24.29 35.39 34.81 34.63 34.46 35.57 31.93 35.95 38.17 40.03 40.49 40.47 40.05 40.24 40.66 40.84 40.39 40.41 41.22 41.35 41.71 42.29 42.76 43.80 43.86 46.40 45.51 44.54 43.50 42.63 41.97 41.38 40.82 39.26
16.85 17.56 16.95 17.47 15.93 22.92 32.28 35.29 36.34 21.42 24.07 36.00 36.52 35.86 34.60 32.08 35.58 37.38 39.54 39.36 40.17 40.57 39.99 40.27 39.83 39.58 39.90 40.07 40.13 39.77 40.45 40.19 41.82 42.90 43.75 44.06 45.47 44.13 43.36 41.27 40.35 39.32 39.57 39.16
22.37 17.89 17.14 19.14 16.32 14.85 34.55 33.87 28.20 31.28 35.57 37.09 36.93 35.90 35.51 35.95 35.31 35.11 36.05 37.15 39.30 40.25 39.29 39.41 38.49 38.93 39.87 39.62 39.16 38.26 37.92 39.89 40.96 41.71 42.13 42.31 42.77 44.09 42.62 40.73 38.77 38.03 38.14 37.78
21.54 25.78 24.04 24.01 23.62 30.96 34.94 33.58 35.98 36.22 35.23 35.97 36.08 36.12 36.24 34.38 33.21 34.16 34.75 34.95 38.19 39.53 40.45 39.29 38.30 38.06 38.03 38.53 38.34 36.99 37.59 39.20 39.93 40.38 40.55 40.95 41.92 41.92 40.67 39.13 37.54 36.57 36.73 36.61
26.20 29.70 26.23 27.05 27.63 31.92 34.93 36.08 37.04 37.59 35.34 34.87 34.61 34.37 33.94 32.07 33.21 32.99 33.80 34.15 34.72 38.97 39.61 39.84 39.85 37.12 36.62 36.89 37.61 36.66 37.60 38.74 39.21 39.54 40.24 40.40 41.58 43.42 42.56 41.13 39.11 36.75 36.21 36.15
27.09 28.91 26.75 26.20 29.18 31.11 33.48 35.22 36.14 34.77 34.81 34.58 34.88 34.29 33.57 32.67 32.77 33.33 33.73 34.13 34.71 37.81 39.16 39.83 39.74 36.91 36.56 36.97 36.57 36.19 36.77 37.45 38.39 39.16 39.95 42.26 43.01 43.00 41.96 41.27 40.51 39.79 39.33 39.23
27.91 27.85 26.04 25.22 30.19 30.39 30.94 33.59 35.66 33.68 33.73 34.20 33.44 32.77 33.19 33.83 33.87 35.51 35.39 34.80 34.34 36.79 37.70 37.71 39.35 38.98 39.11 37.87 36.64 36.09 36.58 36.61 37.27 37.73 38.03 40.08 40.04 39.55 40.42 39.62 39.06 40.71 40.76 42.24